<?xml version="1.0" encoding="UTF-8" standalone="no" ?>
<gpx xmlns="http://www.topografix.com/GPX/1/1" xmlns:xsi="http://www.w3.org/2001/XMLSchema-instance" xsi:schemaLocation="http://www.topografix.com/GPX/1/1 http://www.topografix.com/GPX/1/1/gpx.xsd" version="1.1" creator="VisuGPX - https://www.visugpx.com">
  <metadata>
    <name>E-N-La Filée La Haie Fouassière Chapelle Heulin Loroux Bottereau Chapelle Basse Mer Thouaré Nantes</name>
    <desc><![CDATA[E-N-La Filée La Haie Fouassière Chapelle Heulin Loroux Bottereau Chapelle Basse Mer Thouaré Nantes]]></desc>
  </metadata>
  <trk>
    <name><![CDATA[24 mai 2020 11:59:58]]></name>
    <trkseg>
      <trkpt lat="47.16783" lon="-1.62666">
        <ele>82</ele>
        <time>2020-05-24T09:59:56.000Z</time>
      </trkpt>
      <trkpt lat="47.16764" lon="-1.62634">
        <ele>47</ele>
        <time>2020-05-24T09:59:57.000Z</time>
      </trkpt>
      <trkpt lat="47.16777" lon="-1.62639">
        <ele>48</ele>
        <time>2020-05-24T09:59:58.000Z</time>
      </trkpt>
      <trkpt lat="47.16786" lon="-1.62643">
        <ele>52</ele>
        <time>2020-05-24T10:00:02.000Z</time>
      </trkpt>
      <trkpt lat="47.16785" lon="-1.62657">
        <ele>75</ele>
        <time>2020-05-24T10:02:26.000Z</time>
      </trkpt>
      <trkpt lat="47.16795" lon="-1.62646">
        <ele>74</ele>
        <time>2020-05-24T10:02:31.000Z</time>
      </trkpt>
      <trkpt lat="47.16804" lon="-1.62632">
        <ele>74</ele>
        <time>2020-05-24T10:02:34.000Z</time>
      </trkpt>
      <trkpt lat="47.1681" lon="-1.6262">
        <ele>73</ele>
        <time>2020-05-24T10:02:36.000Z</time>
      </trkpt>
      <trkpt lat="47.16818" lon="-1.62608">
        <ele>73</ele>
        <time>2020-05-24T10:02:38.000Z</time>
      </trkpt>
      <trkpt lat="47.16826" lon="-1.62595">
        <ele>72</ele>
        <time>2020-05-24T10:02:40.000Z</time>
      </trkpt>
      <trkpt lat="47.16831" lon="-1.62582">
        <ele>72</ele>
        <time>2020-05-24T10:02:42.000Z</time>
      </trkpt>
      <trkpt lat="47.16828" lon="-1.62568">
        <ele>72</ele>
        <time>2020-05-24T10:02:44.000Z</time>
      </trkpt>
      <trkpt lat="47.16818" lon="-1.62558">
        <ele>71</ele>
        <time>2020-05-24T10:02:46.000Z</time>
      </trkpt>
      <trkpt lat="47.16809" lon="-1.6255">
        <ele>70</ele>
        <time>2020-05-24T10:02:48.000Z</time>
      </trkpt>
      <trkpt lat="47.16799" lon="-1.62543">
        <ele>69</ele>
        <time>2020-05-24T10:02:50.000Z</time>
      </trkpt>
      <trkpt lat="47.16788" lon="-1.62535">
        <ele>68</ele>
        <time>2020-05-24T10:02:52.000Z</time>
      </trkpt>
      <trkpt lat="47.16778" lon="-1.62527">
        <ele>67</ele>
        <time>2020-05-24T10:02:54.000Z</time>
      </trkpt>
      <trkpt lat="47.16767" lon="-1.62521">
        <ele>66</ele>
        <time>2020-05-24T10:02:56.000Z</time>
      </trkpt>
      <trkpt lat="47.16756" lon="-1.62515">
        <ele>66</ele>
        <time>2020-05-24T10:02:58.000Z</time>
      </trkpt>
      <trkpt lat="47.16745" lon="-1.6251">
        <ele>66</ele>
        <time>2020-05-24T10:03:00.000Z</time>
      </trkpt>
      <trkpt lat="47.16734" lon="-1.62505">
        <ele>65</ele>
        <time>2020-05-24T10:03:02.000Z</time>
      </trkpt>
      <trkpt lat="47.16724" lon="-1.625">
        <ele>65</ele>
        <time>2020-05-24T10:03:04.000Z</time>
      </trkpt>
      <trkpt lat="47.16714" lon="-1.62487">
        <ele>65</ele>
        <time>2020-05-24T10:03:07.000Z</time>
      </trkpt>
      <trkpt lat="47.16715" lon="-1.62471">
        <ele>65</ele>
        <time>2020-05-24T10:03:09.000Z</time>
      </trkpt>
      <trkpt lat="47.16716" lon="-1.62453">
        <ele>64</ele>
        <time>2020-05-24T10:03:11.000Z</time>
      </trkpt>
      <trkpt lat="47.16718" lon="-1.62435">
        <ele>64</ele>
        <time>2020-05-24T10:03:13.000Z</time>
      </trkpt>
      <trkpt lat="47.16723" lon="-1.62418">
        <ele>63</ele>
        <time>2020-05-24T10:03:15.000Z</time>
      </trkpt>
      <trkpt lat="47.16728" lon="-1.62401">
        <ele>62</ele>
        <time>2020-05-24T10:03:17.000Z</time>
      </trkpt>
      <trkpt lat="47.16733" lon="-1.62383">
        <ele>62</ele>
        <time>2020-05-24T10:03:19.000Z</time>
      </trkpt>
      <trkpt lat="47.1674" lon="-1.62368">
        <ele>62</ele>
        <time>2020-05-24T10:03:21.000Z</time>
      </trkpt>
      <trkpt lat="47.1675" lon="-1.62355">
        <ele>63</ele>
        <time>2020-05-24T10:03:23.000Z</time>
      </trkpt>
      <trkpt lat="47.16761" lon="-1.62346">
        <ele>63</ele>
        <time>2020-05-24T10:03:25.000Z</time>
      </trkpt>
      <trkpt lat="47.16772" lon="-1.62337">
        <ele>63</ele>
        <time>2020-05-24T10:03:27.000Z</time>
      </trkpt>
      <trkpt lat="47.16784" lon="-1.62331">
        <ele>64</ele>
        <time>2020-05-24T10:03:29.000Z</time>
      </trkpt>
      <trkpt lat="47.16795" lon="-1.62325">
        <ele>64</ele>
        <time>2020-05-24T10:03:31.000Z</time>
      </trkpt>
      <trkpt lat="47.16807" lon="-1.62319">
        <ele>65</ele>
        <time>2020-05-24T10:03:33.000Z</time>
      </trkpt>
      <trkpt lat="47.16818" lon="-1.6231">
        <ele>65</ele>
        <time>2020-05-24T10:03:35.000Z</time>
      </trkpt>
      <trkpt lat="47.16829" lon="-1.62301">
        <ele>65</ele>
        <time>2020-05-24T10:03:37.000Z</time>
      </trkpt>
      <trkpt lat="47.1684" lon="-1.6229">
        <ele>65</ele>
        <time>2020-05-24T10:03:39.000Z</time>
      </trkpt>
      <trkpt lat="47.16849" lon="-1.62277">
        <ele>65</ele>
        <time>2020-05-24T10:03:41.000Z</time>
      </trkpt>
      <trkpt lat="47.16859" lon="-1.62265">
        <ele>64</ele>
        <time>2020-05-24T10:03:43.000Z</time>
      </trkpt>
      <trkpt lat="47.16869" lon="-1.62251">
        <ele>63</ele>
        <time>2020-05-24T10:03:45.000Z</time>
      </trkpt>
      <trkpt lat="47.1688" lon="-1.62239">
        <ele>63</ele>
        <time>2020-05-24T10:03:47.000Z</time>
      </trkpt>
      <trkpt lat="47.1689" lon="-1.62226">
        <ele>62</ele>
        <time>2020-05-24T10:03:49.000Z</time>
      </trkpt>
      <trkpt lat="47.16899" lon="-1.62211">
        <ele>62</ele>
        <time>2020-05-24T10:03:51.000Z</time>
      </trkpt>
      <trkpt lat="47.16909" lon="-1.62196">
        <ele>62</ele>
        <time>2020-05-24T10:03:53.000Z</time>
      </trkpt>
      <trkpt lat="47.16918" lon="-1.62181">
        <ele>62</ele>
        <time>2020-05-24T10:03:55.000Z</time>
      </trkpt>
      <trkpt lat="47.16927" lon="-1.62165">
        <ele>61</ele>
        <time>2020-05-24T10:03:57.000Z</time>
      </trkpt>
      <trkpt lat="47.16935" lon="-1.62149">
        <ele>61</ele>
        <time>2020-05-24T10:03:59.000Z</time>
      </trkpt>
      <trkpt lat="47.16943" lon="-1.62133">
        <ele>61</ele>
        <time>2020-05-24T10:04:01.000Z</time>
      </trkpt>
      <trkpt lat="47.16951" lon="-1.62117">
        <ele>61</ele>
        <time>2020-05-24T10:04:03.000Z</time>
      </trkpt>
      <trkpt lat="47.1696" lon="-1.62101">
        <ele>61</ele>
        <time>2020-05-24T10:04:05.000Z</time>
      </trkpt>
      <trkpt lat="47.16968" lon="-1.62086">
        <ele>61</ele>
        <time>2020-05-24T10:04:07.000Z</time>
      </trkpt>
      <trkpt lat="47.16976" lon="-1.6207">
        <ele>61</ele>
        <time>2020-05-24T10:04:09.000Z</time>
      </trkpt>
      <trkpt lat="47.16984" lon="-1.62055">
        <ele>60</ele>
        <time>2020-05-24T10:04:11.000Z</time>
      </trkpt>
      <trkpt lat="47.16993" lon="-1.6204">
        <ele>60</ele>
        <time>2020-05-24T10:04:13.000Z</time>
      </trkpt>
      <trkpt lat="47.17003" lon="-1.62026">
        <ele>60</ele>
        <time>2020-05-24T10:04:15.000Z</time>
      </trkpt>
      <trkpt lat="47.17012" lon="-1.62011">
        <ele>60</ele>
        <time>2020-05-24T10:04:17.000Z</time>
      </trkpt>
      <trkpt lat="47.17022" lon="-1.61997">
        <ele>60</ele>
        <time>2020-05-24T10:04:19.000Z</time>
      </trkpt>
      <trkpt lat="47.17031" lon="-1.61984">
        <ele>60</ele>
        <time>2020-05-24T10:04:21.000Z</time>
      </trkpt>
      <trkpt lat="47.1704" lon="-1.6197">
        <ele>60</ele>
        <time>2020-05-24T10:04:23.000Z</time>
      </trkpt>
      <trkpt lat="47.17049" lon="-1.61957">
        <ele>60</ele>
        <time>2020-05-24T10:04:25.000Z</time>
      </trkpt>
      <trkpt lat="47.17058" lon="-1.61945">
        <ele>60</ele>
        <time>2020-05-24T10:04:27.000Z</time>
      </trkpt>
      <trkpt lat="47.17067" lon="-1.61933">
        <ele>60</ele>
        <time>2020-05-24T10:04:29.000Z</time>
      </trkpt>
      <trkpt lat="47.17076" lon="-1.61922">
        <ele>60</ele>
        <time>2020-05-24T10:04:31.000Z</time>
      </trkpt>
      <trkpt lat="47.17087" lon="-1.61912">
        <ele>60</ele>
        <time>2020-05-24T10:04:33.000Z</time>
      </trkpt>
      <trkpt lat="47.17097" lon="-1.61902">
        <ele>60</ele>
        <time>2020-05-24T10:04:35.000Z</time>
      </trkpt>
      <trkpt lat="47.17108" lon="-1.61892">
        <ele>61</ele>
        <time>2020-05-24T10:04:37.000Z</time>
      </trkpt>
      <trkpt lat="47.17119" lon="-1.61882">
        <ele>61</ele>
        <time>2020-05-24T10:04:39.000Z</time>
      </trkpt>
      <trkpt lat="47.17129" lon="-1.61872">
        <ele>61</ele>
        <time>2020-05-24T10:04:41.000Z</time>
      </trkpt>
      <trkpt lat="47.1714" lon="-1.61862">
        <ele>62</ele>
        <time>2020-05-24T10:04:43.000Z</time>
      </trkpt>
      <trkpt lat="47.1715" lon="-1.61853">
        <ele>62</ele>
        <time>2020-05-24T10:04:45.000Z</time>
      </trkpt>
      <trkpt lat="47.1716" lon="-1.61842">
        <ele>62</ele>
        <time>2020-05-24T10:04:47.000Z</time>
      </trkpt>
      <trkpt lat="47.1717" lon="-1.61833">
        <ele>62</ele>
        <time>2020-05-24T10:04:49.000Z</time>
      </trkpt>
      <trkpt lat="47.1718" lon="-1.61823">
        <ele>62</ele>
        <time>2020-05-24T10:04:51.000Z</time>
      </trkpt>
      <trkpt lat="47.1719" lon="-1.61813">
        <ele>62</ele>
        <time>2020-05-24T10:04:53.000Z</time>
      </trkpt>
      <trkpt lat="47.172" lon="-1.61803">
        <ele>62</ele>
        <time>2020-05-24T10:04:55.000Z</time>
      </trkpt>
      <trkpt lat="47.17209" lon="-1.61792">
        <ele>61</ele>
        <time>2020-05-24T10:04:57.000Z</time>
      </trkpt>
      <trkpt lat="47.17218" lon="-1.6178">
        <ele>62</ele>
        <time>2020-05-24T10:04:59.000Z</time>
      </trkpt>
      <trkpt lat="47.17218" lon="-1.61763">
        <ele>61</ele>
        <time>2020-05-24T10:05:01.000Z</time>
      </trkpt>
      <trkpt lat="47.17211" lon="-1.61748">
        <ele>61</ele>
        <time>2020-05-24T10:05:03.000Z</time>
      </trkpt>
      <trkpt lat="47.17203" lon="-1.61734">
        <ele>61</ele>
        <time>2020-05-24T10:05:05.000Z</time>
      </trkpt>
      <trkpt lat="47.17193" lon="-1.61721">
        <ele>61</ele>
        <time>2020-05-24T10:05:07.000Z</time>
      </trkpt>
      <trkpt lat="47.17183" lon="-1.61708">
        <ele>60</ele>
        <time>2020-05-24T10:05:09.000Z</time>
      </trkpt>
      <trkpt lat="47.1717" lon="-1.61693">
        <ele>59</ele>
        <time>2020-05-24T10:05:11.000Z</time>
      </trkpt>
      <trkpt lat="47.17156" lon="-1.61679">
        <ele>58</ele>
        <time>2020-05-24T10:05:13.000Z</time>
      </trkpt>
      <trkpt lat="47.1714" lon="-1.61668">
        <ele>57</ele>
        <time>2020-05-24T10:05:15.000Z</time>
      </trkpt>
      <trkpt lat="47.17131" lon="-1.61664">
        <ele>57</ele>
        <time>2020-05-24T10:05:16.000Z</time>
      </trkpt>
      <trkpt lat="47.17123" lon="-1.61659">
        <ele>56</ele>
        <time>2020-05-24T10:05:17.000Z</time>
      </trkpt>
      <trkpt lat="47.17114" lon="-1.61654">
        <ele>56</ele>
        <time>2020-05-24T10:05:18.000Z</time>
      </trkpt>
      <trkpt lat="47.17106" lon="-1.61649">
        <ele>56</ele>
        <time>2020-05-24T10:05:19.000Z</time>
      </trkpt>
      <trkpt lat="47.1709" lon="-1.61639">
        <ele>57</ele>
        <time>2020-05-24T10:05:21.000Z</time>
      </trkpt>
      <trkpt lat="47.17075" lon="-1.61635">
        <ele>57</ele>
        <time>2020-05-24T10:05:23.000Z</time>
      </trkpt>
      <trkpt lat="47.17059" lon="-1.61626">
        <ele>57</ele>
        <time>2020-05-24T10:05:25.000Z</time>
      </trkpt>
      <trkpt lat="47.17044" lon="-1.61616">
        <ele>57</ele>
        <time>2020-05-24T10:05:27.000Z</time>
      </trkpt>
      <trkpt lat="47.17032" lon="-1.61606">
        <ele>58</ele>
        <time>2020-05-24T10:05:29.000Z</time>
      </trkpt>
      <trkpt lat="47.17021" lon="-1.61594">
        <ele>56</ele>
        <time>2020-05-24T10:05:31.000Z</time>
      </trkpt>
      <trkpt lat="47.17016" lon="-1.61576">
        <ele>55</ele>
        <time>2020-05-24T10:05:33.000Z</time>
      </trkpt>
      <trkpt lat="47.17011" lon="-1.61556">
        <ele>55</ele>
        <time>2020-05-24T10:05:35.000Z</time>
      </trkpt>
      <trkpt lat="47.17005" lon="-1.61535">
        <ele>56</ele>
        <time>2020-05-24T10:05:37.000Z</time>
      </trkpt>
      <trkpt lat="47.16999" lon="-1.61515">
        <ele>56</ele>
        <time>2020-05-24T10:05:39.000Z</time>
      </trkpt>
      <trkpt lat="47.16993" lon="-1.61495">
        <ele>56</ele>
        <time>2020-05-24T10:05:41.000Z</time>
      </trkpt>
      <trkpt lat="47.16988" lon="-1.61476">
        <ele>57</ele>
        <time>2020-05-24T10:05:43.000Z</time>
      </trkpt>
      <trkpt lat="47.16982" lon="-1.61458">
        <ele>57</ele>
        <time>2020-05-24T10:05:45.000Z</time>
      </trkpt>
      <trkpt lat="47.16977" lon="-1.61442">
        <ele>57</ele>
        <time>2020-05-24T10:05:47.000Z</time>
      </trkpt>
      <trkpt lat="47.1697" lon="-1.61426">
        <ele>57</ele>
        <time>2020-05-24T10:05:49.000Z</time>
      </trkpt>
      <trkpt lat="47.16964" lon="-1.61412">
        <ele>57</ele>
        <time>2020-05-24T10:05:51.000Z</time>
      </trkpt>
      <trkpt lat="47.16957" lon="-1.61398">
        <ele>58</ele>
        <time>2020-05-24T10:05:53.000Z</time>
      </trkpt>
      <trkpt lat="47.1695" lon="-1.61383">
        <ele>59</ele>
        <time>2020-05-24T10:05:55.000Z</time>
      </trkpt>
      <trkpt lat="47.16943" lon="-1.61367">
        <ele>59</ele>
        <time>2020-05-24T10:05:57.000Z</time>
      </trkpt>
      <trkpt lat="47.16936" lon="-1.61351">
        <ele>59</ele>
        <time>2020-05-24T10:05:59.000Z</time>
      </trkpt>
      <trkpt lat="47.16929" lon="-1.61335">
        <ele>58</ele>
        <time>2020-05-24T10:06:01.000Z</time>
      </trkpt>
      <trkpt lat="47.16921" lon="-1.61318">
        <ele>57</ele>
        <time>2020-05-24T10:06:03.000Z</time>
      </trkpt>
      <trkpt lat="47.16913" lon="-1.61301">
        <ele>57</ele>
        <time>2020-05-24T10:06:05.000Z</time>
      </trkpt>
      <trkpt lat="47.16903" lon="-1.61284">
        <ele>56</ele>
        <time>2020-05-24T10:06:07.000Z</time>
      </trkpt>
      <trkpt lat="47.1689" lon="-1.61272">
        <ele>55</ele>
        <time>2020-05-24T10:06:09.000Z</time>
      </trkpt>
      <trkpt lat="47.16874" lon="-1.61261">
        <ele>53</ele>
        <time>2020-05-24T10:06:11.000Z</time>
      </trkpt>
      <trkpt lat="47.16856" lon="-1.6126">
        <ele>52</ele>
        <time>2020-05-24T10:06:13.000Z</time>
      </trkpt>
      <trkpt lat="47.16847" lon="-1.61262">
        <ele>52</ele>
        <time>2020-05-24T10:06:14.000Z</time>
      </trkpt>
      <trkpt lat="47.16829" lon="-1.61261">
        <ele>51</ele>
        <time>2020-05-24T10:06:16.000Z</time>
      </trkpt>
      <trkpt lat="47.16819" lon="-1.61257">
        <ele>50</ele>
        <time>2020-05-24T10:06:17.000Z</time>
      </trkpt>
      <trkpt lat="47.1681" lon="-1.61252">
        <ele>50</ele>
        <time>2020-05-24T10:06:18.000Z</time>
      </trkpt>
      <trkpt lat="47.16801" lon="-1.61247">
        <ele>51</ele>
        <time>2020-05-24T10:06:19.000Z</time>
      </trkpt>
      <trkpt lat="47.16785" lon="-1.61238">
        <ele>52</ele>
        <time>2020-05-24T10:06:21.000Z</time>
      </trkpt>
      <trkpt lat="47.16771" lon="-1.61229">
        <ele>52</ele>
        <time>2020-05-24T10:06:23.000Z</time>
      </trkpt>
      <trkpt lat="47.16758" lon="-1.6122">
        <ele>53</ele>
        <time>2020-05-24T10:06:25.000Z</time>
      </trkpt>
      <trkpt lat="47.16745" lon="-1.61212">
        <ele>53</ele>
        <time>2020-05-24T10:06:27.000Z</time>
      </trkpt>
      <trkpt lat="47.16733" lon="-1.61204">
        <ele>54</ele>
        <time>2020-05-24T10:06:29.000Z</time>
      </trkpt>
      <trkpt lat="47.16722" lon="-1.61196">
        <ele>55</ele>
        <time>2020-05-24T10:06:31.000Z</time>
      </trkpt>
      <trkpt lat="47.16712" lon="-1.61189">
        <ele>55</ele>
        <time>2020-05-24T10:06:33.000Z</time>
      </trkpt>
      <trkpt lat="47.16703" lon="-1.61183">
        <ele>55</ele>
        <time>2020-05-24T10:06:35.000Z</time>
      </trkpt>
      <trkpt lat="47.16693" lon="-1.61178">
        <ele>55</ele>
        <time>2020-05-24T10:06:37.000Z</time>
      </trkpt>
      <trkpt lat="47.16683" lon="-1.61172">
        <ele>55</ele>
        <time>2020-05-24T10:06:39.000Z</time>
      </trkpt>
      <trkpt lat="47.16674" lon="-1.61163">
        <ele>56</ele>
        <time>2020-05-24T10:06:41.000Z</time>
      </trkpt>
      <trkpt lat="47.16665" lon="-1.61154">
        <ele>57</ele>
        <time>2020-05-24T10:06:43.000Z</time>
      </trkpt>
      <trkpt lat="47.16658" lon="-1.61143">
        <ele>57</ele>
        <time>2020-05-24T10:06:45.000Z</time>
      </trkpt>
      <trkpt lat="47.16654" lon="-1.61129">
        <ele>59</ele>
        <time>2020-05-24T10:06:47.000Z</time>
      </trkpt>
      <trkpt lat="47.16651" lon="-1.61115">
        <ele>59</ele>
        <time>2020-05-24T10:06:49.000Z</time>
      </trkpt>
      <trkpt lat="47.16648" lon="-1.611">
        <ele>59</ele>
        <time>2020-05-24T10:06:51.000Z</time>
      </trkpt>
      <trkpt lat="47.16645" lon="-1.61086">
        <ele>59</ele>
        <time>2020-05-24T10:06:53.000Z</time>
      </trkpt>
      <trkpt lat="47.16644" lon="-1.61069">
        <ele>59</ele>
        <time>2020-05-24T10:06:55.000Z</time>
      </trkpt>
      <trkpt lat="47.16642" lon="-1.61054">
        <ele>60</ele>
        <time>2020-05-24T10:06:57.000Z</time>
      </trkpt>
      <trkpt lat="47.1664" lon="-1.61039">
        <ele>60</ele>
        <time>2020-05-24T10:06:59.000Z</time>
      </trkpt>
      <trkpt lat="47.16637" lon="-1.61025">
        <ele>60</ele>
        <time>2020-05-24T10:07:01.000Z</time>
      </trkpt>
      <trkpt lat="47.16635" lon="-1.61012">
        <ele>60</ele>
        <time>2020-05-24T10:07:03.000Z</time>
      </trkpt>
      <trkpt lat="47.16632" lon="-1.60999">
        <ele>61</ele>
        <time>2020-05-24T10:07:05.000Z</time>
      </trkpt>
      <trkpt lat="47.16628" lon="-1.60986">
        <ele>61</ele>
        <time>2020-05-24T10:07:07.000Z</time>
      </trkpt>
      <trkpt lat="47.16623" lon="-1.60973">
        <ele>61</ele>
        <time>2020-05-24T10:07:09.000Z</time>
      </trkpt>
      <trkpt lat="47.16617" lon="-1.60961">
        <ele>62</ele>
        <time>2020-05-24T10:07:11.000Z</time>
      </trkpt>
      <trkpt lat="47.16612" lon="-1.60948">
        <ele>62</ele>
        <time>2020-05-24T10:07:13.000Z</time>
      </trkpt>
      <trkpt lat="47.16605" lon="-1.60935">
        <ele>62</ele>
        <time>2020-05-24T10:07:15.000Z</time>
      </trkpt>
      <trkpt lat="47.16599" lon="-1.60922">
        <ele>63</ele>
        <time>2020-05-24T10:07:17.000Z</time>
      </trkpt>
      <trkpt lat="47.16593" lon="-1.60909">
        <ele>64</ele>
        <time>2020-05-24T10:07:19.000Z</time>
      </trkpt>
      <trkpt lat="47.16587" lon="-1.60895">
        <ele>65</ele>
        <time>2020-05-24T10:07:21.000Z</time>
      </trkpt>
      <trkpt lat="47.16581" lon="-1.60882">
        <ele>65</ele>
        <time>2020-05-24T10:07:23.000Z</time>
      </trkpt>
      <trkpt lat="47.16574" lon="-1.60868">
        <ele>65</ele>
        <time>2020-05-24T10:07:25.000Z</time>
      </trkpt>
      <trkpt lat="47.16568" lon="-1.60854">
        <ele>65</ele>
        <time>2020-05-24T10:07:27.000Z</time>
      </trkpt>
      <trkpt lat="47.16561" lon="-1.60841">
        <ele>66</ele>
        <time>2020-05-24T10:07:29.000Z</time>
      </trkpt>
      <trkpt lat="47.16553" lon="-1.60828">
        <ele>66</ele>
        <time>2020-05-24T10:07:31.000Z</time>
      </trkpt>
      <trkpt lat="47.16546" lon="-1.60815">
        <ele>66</ele>
        <time>2020-05-24T10:07:33.000Z</time>
      </trkpt>
      <trkpt lat="47.16538" lon="-1.60803">
        <ele>66</ele>
        <time>2020-05-24T10:07:35.000Z</time>
      </trkpt>
      <trkpt lat="47.1653" lon="-1.60792">
        <ele>66</ele>
        <time>2020-05-24T10:07:37.000Z</time>
      </trkpt>
      <trkpt lat="47.16523" lon="-1.6078">
        <ele>66</ele>
        <time>2020-05-24T10:07:39.000Z</time>
      </trkpt>
      <trkpt lat="47.16519" lon="-1.60764">
        <ele>67</ele>
        <time>2020-05-24T10:07:41.000Z</time>
      </trkpt>
      <trkpt lat="47.1652" lon="-1.60747">
        <ele>68</ele>
        <time>2020-05-24T10:07:43.000Z</time>
      </trkpt>
      <trkpt lat="47.16523" lon="-1.60731">
        <ele>68</ele>
        <time>2020-05-24T10:07:45.000Z</time>
      </trkpt>
      <trkpt lat="47.16527" lon="-1.60715">
        <ele>68</ele>
        <time>2020-05-24T10:07:47.000Z</time>
      </trkpt>
      <trkpt lat="47.16531" lon="-1.60699">
        <ele>69</ele>
        <time>2020-05-24T10:07:49.000Z</time>
      </trkpt>
      <trkpt lat="47.16535" lon="-1.60683">
        <ele>68</ele>
        <time>2020-05-24T10:07:51.000Z</time>
      </trkpt>
      <trkpt lat="47.16539" lon="-1.60667">
        <ele>68</ele>
        <time>2020-05-24T10:07:53.000Z</time>
      </trkpt>
      <trkpt lat="47.16542" lon="-1.60651">
        <ele>67</ele>
        <time>2020-05-24T10:07:55.000Z</time>
      </trkpt>
      <trkpt lat="47.16544" lon="-1.60635">
        <ele>68</ele>
        <time>2020-05-24T10:07:57.000Z</time>
      </trkpt>
      <trkpt lat="47.16548" lon="-1.60618">
        <ele>68</ele>
        <time>2020-05-24T10:07:59.000Z</time>
      </trkpt>
      <trkpt lat="47.16552" lon="-1.60602">
        <ele>68</ele>
        <time>2020-05-24T10:08:01.000Z</time>
      </trkpt>
      <trkpt lat="47.16556" lon="-1.60587">
        <ele>68</ele>
        <time>2020-05-24T10:08:03.000Z</time>
      </trkpt>
      <trkpt lat="47.16559" lon="-1.60571">
        <ele>69</ele>
        <time>2020-05-24T10:08:05.000Z</time>
      </trkpt>
      <trkpt lat="47.16562" lon="-1.60556">
        <ele>69</ele>
        <time>2020-05-24T10:08:07.000Z</time>
      </trkpt>
      <trkpt lat="47.16568" lon="-1.60542">
        <ele>69</ele>
        <time>2020-05-24T10:08:09.000Z</time>
      </trkpt>
      <trkpt lat="47.16577" lon="-1.60531">
        <ele>69</ele>
        <time>2020-05-24T10:08:11.000Z</time>
      </trkpt>
      <trkpt lat="47.16587" lon="-1.60526">
        <ele>69</ele>
        <time>2020-05-24T10:08:13.000Z</time>
      </trkpt>
      <trkpt lat="47.16599" lon="-1.60522">
        <ele>69</ele>
        <time>2020-05-24T10:08:15.000Z</time>
      </trkpt>
      <trkpt lat="47.16611" lon="-1.60517">
        <ele>69</ele>
        <time>2020-05-24T10:08:17.000Z</time>
      </trkpt>
      <trkpt lat="47.16622" lon="-1.60511">
        <ele>69</ele>
        <time>2020-05-24T10:08:19.000Z</time>
      </trkpt>
      <trkpt lat="47.16634" lon="-1.60504">
        <ele>69</ele>
        <time>2020-05-24T10:08:21.000Z</time>
      </trkpt>
      <trkpt lat="47.16646" lon="-1.60498">
        <ele>69</ele>
        <time>2020-05-24T10:08:23.000Z</time>
      </trkpt>
      <trkpt lat="47.16658" lon="-1.60491">
        <ele>69</ele>
        <time>2020-05-24T10:08:25.000Z</time>
      </trkpt>
      <trkpt lat="47.16669" lon="-1.60484">
        <ele>69</ele>
        <time>2020-05-24T10:08:27.000Z</time>
      </trkpt>
      <trkpt lat="47.16681" lon="-1.60476">
        <ele>68</ele>
        <time>2020-05-24T10:08:29.000Z</time>
      </trkpt>
      <trkpt lat="47.16692" lon="-1.60467">
        <ele>69</ele>
        <time>2020-05-24T10:08:31.000Z</time>
      </trkpt>
      <trkpt lat="47.16703" lon="-1.60459">
        <ele>69</ele>
        <time>2020-05-24T10:08:33.000Z</time>
      </trkpt>
      <trkpt lat="47.16715" lon="-1.6045">
        <ele>69</ele>
        <time>2020-05-24T10:08:35.000Z</time>
      </trkpt>
      <trkpt lat="47.16725" lon="-1.60441">
        <ele>69</ele>
        <time>2020-05-24T10:08:37.000Z</time>
      </trkpt>
      <trkpt lat="47.16737" lon="-1.60433">
        <ele>68</ele>
        <time>2020-05-24T10:08:39.000Z</time>
      </trkpt>
      <trkpt lat="47.16749" lon="-1.60424">
        <ele>68</ele>
        <time>2020-05-24T10:08:41.000Z</time>
      </trkpt>
      <trkpt lat="47.16761" lon="-1.60415">
        <ele>69</ele>
        <time>2020-05-24T10:08:43.000Z</time>
      </trkpt>
      <trkpt lat="47.16772" lon="-1.60407">
        <ele>68</ele>
        <time>2020-05-24T10:08:45.000Z</time>
      </trkpt>
      <trkpt lat="47.16785" lon="-1.60401">
        <ele>68</ele>
        <time>2020-05-24T10:08:47.000Z</time>
      </trkpt>
      <trkpt lat="47.16797" lon="-1.60396">
        <ele>69</ele>
        <time>2020-05-24T10:08:49.000Z</time>
      </trkpt>
      <trkpt lat="47.16809" lon="-1.60392">
        <ele>69</ele>
        <time>2020-05-24T10:08:51.000Z</time>
      </trkpt>
      <trkpt lat="47.16822" lon="-1.60386">
        <ele>70</ele>
        <time>2020-05-24T10:08:53.000Z</time>
      </trkpt>
      <trkpt lat="47.16833" lon="-1.60379">
        <ele>70</ele>
        <time>2020-05-24T10:08:55.000Z</time>
      </trkpt>
      <trkpt lat="47.16845" lon="-1.60373">
        <ele>72</ele>
        <time>2020-05-24T10:08:57.000Z</time>
      </trkpt>
      <trkpt lat="47.16858" lon="-1.60369">
        <ele>72</ele>
        <time>2020-05-24T10:08:59.000Z</time>
      </trkpt>
      <trkpt lat="47.1687" lon="-1.60364">
        <ele>72</ele>
        <time>2020-05-24T10:09:01.000Z</time>
      </trkpt>
      <trkpt lat="47.16881" lon="-1.60359">
        <ele>72</ele>
        <time>2020-05-24T10:09:03.000Z</time>
      </trkpt>
      <trkpt lat="47.16893" lon="-1.60356">
        <ele>72</ele>
        <time>2020-05-24T10:09:05.000Z</time>
      </trkpt>
      <trkpt lat="47.16905" lon="-1.60351">
        <ele>71</ele>
        <time>2020-05-24T10:09:07.000Z</time>
      </trkpt>
      <trkpt lat="47.16915" lon="-1.60346">
        <ele>71</ele>
        <time>2020-05-24T10:09:09.000Z</time>
      </trkpt>
      <trkpt lat="47.16925" lon="-1.60339">
        <ele>71</ele>
        <time>2020-05-24T10:09:11.000Z</time>
      </trkpt>
      <trkpt lat="47.16932" lon="-1.60328">
        <ele>71</ele>
        <time>2020-05-24T10:09:13.000Z</time>
      </trkpt>
      <trkpt lat="47.16934" lon="-1.60315">
        <ele>71</ele>
        <time>2020-05-24T10:09:15.000Z</time>
      </trkpt>
      <trkpt lat="47.16926" lon="-1.60307">
        <ele>71</ele>
        <time>2020-05-24T10:09:17.000Z</time>
      </trkpt>
      <trkpt lat="47.16915" lon="-1.60304">
        <ele>71</ele>
        <time>2020-05-24T10:09:19.000Z</time>
      </trkpt>
      <trkpt lat="47.16902" lon="-1.60301">
        <ele>70</ele>
        <time>2020-05-24T10:09:21.000Z</time>
      </trkpt>
      <trkpt lat="47.16889" lon="-1.60298">
        <ele>70</ele>
        <time>2020-05-24T10:09:23.000Z</time>
      </trkpt>
      <trkpt lat="47.16878" lon="-1.60296">
        <ele>69</ele>
        <time>2020-05-24T10:09:25.000Z</time>
      </trkpt>
      <trkpt lat="47.16865" lon="-1.60293">
        <ele>69</ele>
        <time>2020-05-24T10:09:27.000Z</time>
      </trkpt>
      <trkpt lat="47.16853" lon="-1.6029">
        <ele>69</ele>
        <time>2020-05-24T10:09:29.000Z</time>
      </trkpt>
      <trkpt lat="47.1684" lon="-1.60288">
        <ele>69</ele>
        <time>2020-05-24T10:09:31.000Z</time>
      </trkpt>
      <trkpt lat="47.16827" lon="-1.60284">
        <ele>68</ele>
        <time>2020-05-24T10:09:33.000Z</time>
      </trkpt>
      <trkpt lat="47.16815" lon="-1.60278">
        <ele>68</ele>
        <time>2020-05-24T10:09:35.000Z</time>
      </trkpt>
      <trkpt lat="47.16804" lon="-1.60266">
        <ele>68</ele>
        <time>2020-05-24T10:09:37.000Z</time>
      </trkpt>
      <trkpt lat="47.16795" lon="-1.60252">
        <ele>68</ele>
        <time>2020-05-24T10:09:39.000Z</time>
      </trkpt>
      <trkpt lat="47.16786" lon="-1.60237">
        <ele>67</ele>
        <time>2020-05-24T10:09:41.000Z</time>
      </trkpt>
      <trkpt lat="47.16778" lon="-1.60222">
        <ele>67</ele>
        <time>2020-05-24T10:09:43.000Z</time>
      </trkpt>
      <trkpt lat="47.16769" lon="-1.60208">
        <ele>67</ele>
        <time>2020-05-24T10:09:45.000Z</time>
      </trkpt>
      <trkpt lat="47.16761" lon="-1.60193">
        <ele>67</ele>
        <time>2020-05-24T10:09:47.000Z</time>
      </trkpt>
      <trkpt lat="47.16752" lon="-1.60179">
        <ele>66</ele>
        <time>2020-05-24T10:09:49.000Z</time>
      </trkpt>
      <trkpt lat="47.16743" lon="-1.60165">
        <ele>66</ele>
        <time>2020-05-24T10:09:51.000Z</time>
      </trkpt>
      <trkpt lat="47.16735" lon="-1.60151">
        <ele>66</ele>
        <time>2020-05-24T10:09:53.000Z</time>
      </trkpt>
      <trkpt lat="47.16726" lon="-1.60136">
        <ele>66</ele>
        <time>2020-05-24T10:09:55.000Z</time>
      </trkpt>
      <trkpt lat="47.16718" lon="-1.60122">
        <ele>66</ele>
        <time>2020-05-24T10:09:57.000Z</time>
      </trkpt>
      <trkpt lat="47.16709" lon="-1.60108">
        <ele>67</ele>
        <time>2020-05-24T10:09:59.000Z</time>
      </trkpt>
      <trkpt lat="47.16701" lon="-1.60095">
        <ele>67</ele>
        <time>2020-05-24T10:10:01.000Z</time>
      </trkpt>
      <trkpt lat="47.16694" lon="-1.60082">
        <ele>68</ele>
        <time>2020-05-24T10:10:03.000Z</time>
      </trkpt>
      <trkpt lat="47.16686" lon="-1.60069">
        <ele>68</ele>
        <time>2020-05-24T10:10:05.000Z</time>
      </trkpt>
      <trkpt lat="47.16678" lon="-1.60056">
        <ele>68</ele>
        <time>2020-05-24T10:10:07.000Z</time>
      </trkpt>
      <trkpt lat="47.16671" lon="-1.60044">
        <ele>68</ele>
        <time>2020-05-24T10:10:09.000Z</time>
      </trkpt>
      <trkpt lat="47.16663" lon="-1.60031">
        <ele>68</ele>
        <time>2020-05-24T10:10:11.000Z</time>
      </trkpt>
      <trkpt lat="47.16655" lon="-1.60018">
        <ele>68</ele>
        <time>2020-05-24T10:10:13.000Z</time>
      </trkpt>
      <trkpt lat="47.16648" lon="-1.60005">
        <ele>68</ele>
        <time>2020-05-24T10:10:15.000Z</time>
      </trkpt>
      <trkpt lat="47.1664" lon="-1.59993">
        <ele>69</ele>
        <time>2020-05-24T10:10:17.000Z</time>
      </trkpt>
      <trkpt lat="47.16632" lon="-1.5998">
        <ele>69</ele>
        <time>2020-05-24T10:10:19.000Z</time>
      </trkpt>
      <trkpt lat="47.16623" lon="-1.59967">
        <ele>69</ele>
        <time>2020-05-24T10:10:21.000Z</time>
      </trkpt>
      <trkpt lat="47.16615" lon="-1.59954">
        <ele>69</ele>
        <time>2020-05-24T10:10:23.000Z</time>
      </trkpt>
      <trkpt lat="47.16607" lon="-1.59941">
        <ele>69</ele>
        <time>2020-05-24T10:10:25.000Z</time>
      </trkpt>
      <trkpt lat="47.16598" lon="-1.59929">
        <ele>69</ele>
        <time>2020-05-24T10:10:27.000Z</time>
      </trkpt>
      <trkpt lat="47.16588" lon="-1.59916">
        <ele>69</ele>
        <time>2020-05-24T10:10:29.000Z</time>
      </trkpt>
      <trkpt lat="47.16578" lon="-1.59904">
        <ele>68</ele>
        <time>2020-05-24T10:10:31.000Z</time>
      </trkpt>
      <trkpt lat="47.16566" lon="-1.59892">
        <ele>67</ele>
        <time>2020-05-24T10:10:33.000Z</time>
      </trkpt>
      <trkpt lat="47.16554" lon="-1.59882">
        <ele>67</ele>
        <time>2020-05-24T10:10:35.000Z</time>
      </trkpt>
      <trkpt lat="47.16543" lon="-1.59871">
        <ele>66</ele>
        <time>2020-05-24T10:10:37.000Z</time>
      </trkpt>
      <trkpt lat="47.16531" lon="-1.59862">
        <ele>66</ele>
        <time>2020-05-24T10:10:39.000Z</time>
      </trkpt>
      <trkpt lat="47.1652" lon="-1.59852">
        <ele>66</ele>
        <time>2020-05-24T10:10:41.000Z</time>
      </trkpt>
      <trkpt lat="47.16509" lon="-1.59842">
        <ele>66</ele>
        <time>2020-05-24T10:10:43.000Z</time>
      </trkpt>
      <trkpt lat="47.16498" lon="-1.59833">
        <ele>66</ele>
        <time>2020-05-24T10:10:45.000Z</time>
      </trkpt>
      <trkpt lat="47.16486" lon="-1.59823">
        <ele>66</ele>
        <time>2020-05-24T10:10:47.000Z</time>
      </trkpt>
      <trkpt lat="47.16475" lon="-1.59813">
        <ele>66</ele>
        <time>2020-05-24T10:10:49.000Z</time>
      </trkpt>
      <trkpt lat="47.16464" lon="-1.59804">
        <ele>66</ele>
        <time>2020-05-24T10:10:51.000Z</time>
      </trkpt>
      <trkpt lat="47.16453" lon="-1.59794">
        <ele>66</ele>
        <time>2020-05-24T10:10:53.000Z</time>
      </trkpt>
      <trkpt lat="47.16442" lon="-1.59785">
        <ele>66</ele>
        <time>2020-05-24T10:10:55.000Z</time>
      </trkpt>
      <trkpt lat="47.16431" lon="-1.59776">
        <ele>66</ele>
        <time>2020-05-24T10:10:57.000Z</time>
      </trkpt>
      <trkpt lat="47.1642" lon="-1.59768">
        <ele>67</ele>
        <time>2020-05-24T10:10:59.000Z</time>
      </trkpt>
      <trkpt lat="47.16409" lon="-1.59759">
        <ele>66</ele>
        <time>2020-05-24T10:11:01.000Z</time>
      </trkpt>
      <trkpt lat="47.16397" lon="-1.5975">
        <ele>66</ele>
        <time>2020-05-24T10:11:03.000Z</time>
      </trkpt>
      <trkpt lat="47.16386" lon="-1.59739">
        <ele>67</ele>
        <time>2020-05-24T10:11:05.000Z</time>
      </trkpt>
      <trkpt lat="47.16375" lon="-1.59727">
        <ele>67</ele>
        <time>2020-05-24T10:11:07.000Z</time>
      </trkpt>
      <trkpt lat="47.16365" lon="-1.59715">
        <ele>67</ele>
        <time>2020-05-24T10:11:09.000Z</time>
      </trkpt>
      <trkpt lat="47.16356" lon="-1.59702">
        <ele>67</ele>
        <time>2020-05-24T10:11:11.000Z</time>
      </trkpt>
      <trkpt lat="47.16347" lon="-1.59688">
        <ele>68</ele>
        <time>2020-05-24T10:11:13.000Z</time>
      </trkpt>
      <trkpt lat="47.16339" lon="-1.59675">
        <ele>68</ele>
        <time>2020-05-24T10:11:15.000Z</time>
      </trkpt>
      <trkpt lat="47.16331" lon="-1.59662">
        <ele>68</ele>
        <time>2020-05-24T10:11:17.000Z</time>
      </trkpt>
      <trkpt lat="47.16323" lon="-1.59649">
        <ele>68</ele>
        <time>2020-05-24T10:11:19.000Z</time>
      </trkpt>
      <trkpt lat="47.16315" lon="-1.59637">
        <ele>68</ele>
        <time>2020-05-24T10:11:21.000Z</time>
      </trkpt>
      <trkpt lat="47.16307" lon="-1.59627">
        <ele>68</ele>
        <time>2020-05-24T10:11:23.000Z</time>
      </trkpt>
      <trkpt lat="47.16298" lon="-1.59622">
        <ele>68</ele>
        <time>2020-05-24T10:11:25.000Z</time>
      </trkpt>
      <trkpt lat="47.16287" lon="-1.59627">
        <ele>68</ele>
        <time>2020-05-24T10:11:27.000Z</time>
      </trkpt>
      <trkpt lat="47.16276" lon="-1.59633">
        <ele>68</ele>
        <time>2020-05-24T10:11:29.000Z</time>
      </trkpt>
      <trkpt lat="47.16264" lon="-1.59639">
        <ele>68</ele>
        <time>2020-05-24T10:11:31.000Z</time>
      </trkpt>
      <trkpt lat="47.16251" lon="-1.59646">
        <ele>69</ele>
        <time>2020-05-24T10:11:33.000Z</time>
      </trkpt>
      <trkpt lat="47.16239" lon="-1.59652">
        <ele>69</ele>
        <time>2020-05-24T10:11:35.000Z</time>
      </trkpt>
      <trkpt lat="47.16227" lon="-1.59658">
        <ele>69</ele>
        <time>2020-05-24T10:11:37.000Z</time>
      </trkpt>
      <trkpt lat="47.16214" lon="-1.59664">
        <ele>69</ele>
        <time>2020-05-24T10:11:39.000Z</time>
      </trkpt>
      <trkpt lat="47.16202" lon="-1.5967">
        <ele>69</ele>
        <time>2020-05-24T10:11:41.000Z</time>
      </trkpt>
      <trkpt lat="47.1619" lon="-1.59677">
        <ele>69</ele>
        <time>2020-05-24T10:11:43.000Z</time>
      </trkpt>
      <trkpt lat="47.16177" lon="-1.59684">
        <ele>70</ele>
        <time>2020-05-24T10:11:45.000Z</time>
      </trkpt>
      <trkpt lat="47.16165" lon="-1.5969">
        <ele>70</ele>
        <time>2020-05-24T10:11:47.000Z</time>
      </trkpt>
      <trkpt lat="47.16153" lon="-1.59697">
        <ele>70</ele>
        <time>2020-05-24T10:11:49.000Z</time>
      </trkpt>
      <trkpt lat="47.1614" lon="-1.59703">
        <ele>70</ele>
        <time>2020-05-24T10:11:51.000Z</time>
      </trkpt>
      <trkpt lat="47.16128" lon="-1.5971">
        <ele>71</ele>
        <time>2020-05-24T10:11:53.000Z</time>
      </trkpt>
      <trkpt lat="47.16116" lon="-1.59718">
        <ele>71</ele>
        <time>2020-05-24T10:11:55.000Z</time>
      </trkpt>
      <trkpt lat="47.16104" lon="-1.59725">
        <ele>71</ele>
        <time>2020-05-24T10:11:57.000Z</time>
      </trkpt>
      <trkpt lat="47.16092" lon="-1.59733">
        <ele>71</ele>
        <time>2020-05-24T10:11:59.000Z</time>
      </trkpt>
      <trkpt lat="47.1608" lon="-1.59741">
        <ele>71</ele>
        <time>2020-05-24T10:12:01.000Z</time>
      </trkpt>
      <trkpt lat="47.16068" lon="-1.59749">
        <ele>71</ele>
        <time>2020-05-24T10:12:03.000Z</time>
      </trkpt>
      <trkpt lat="47.16056" lon="-1.59757">
        <ele>72</ele>
        <time>2020-05-24T10:12:05.000Z</time>
      </trkpt>
      <trkpt lat="47.16044" lon="-1.59764">
        <ele>72</ele>
        <time>2020-05-24T10:12:07.000Z</time>
      </trkpt>
      <trkpt lat="47.16032" lon="-1.59772">
        <ele>72</ele>
        <time>2020-05-24T10:12:09.000Z</time>
      </trkpt>
      <trkpt lat="47.1602" lon="-1.59779">
        <ele>72</ele>
        <time>2020-05-24T10:12:11.000Z</time>
      </trkpt>
      <trkpt lat="47.16009" lon="-1.59788">
        <ele>72</ele>
        <time>2020-05-24T10:12:13.000Z</time>
      </trkpt>
      <trkpt lat="47.15997" lon="-1.59795">
        <ele>72</ele>
        <time>2020-05-24T10:12:15.000Z</time>
      </trkpt>
      <trkpt lat="47.15985" lon="-1.59803">
        <ele>72</ele>
        <time>2020-05-24T10:12:17.000Z</time>
      </trkpt>
      <trkpt lat="47.15974" lon="-1.59809">
        <ele>72</ele>
        <time>2020-05-24T10:12:19.000Z</time>
      </trkpt>
      <trkpt lat="47.15962" lon="-1.59815">
        <ele>73</ele>
        <time>2020-05-24T10:12:21.000Z</time>
      </trkpt>
      <trkpt lat="47.1595" lon="-1.59822">
        <ele>73</ele>
        <time>2020-05-24T10:12:23.000Z</time>
      </trkpt>
      <trkpt lat="47.15939" lon="-1.59828">
        <ele>73</ele>
        <time>2020-05-24T10:12:25.000Z</time>
      </trkpt>
      <trkpt lat="47.15928" lon="-1.59834">
        <ele>73</ele>
        <time>2020-05-24T10:12:27.000Z</time>
      </trkpt>
      <trkpt lat="47.15918" lon="-1.59845">
        <ele>73</ele>
        <time>2020-05-24T10:12:29.000Z</time>
      </trkpt>
      <trkpt lat="47.1591" lon="-1.59858">
        <ele>73</ele>
        <time>2020-05-24T10:12:31.000Z</time>
      </trkpt>
      <trkpt lat="47.15899" lon="-1.59866">
        <ele>73</ele>
        <time>2020-05-24T10:12:33.000Z</time>
      </trkpt>
      <trkpt lat="47.15888" lon="-1.59858">
        <ele>74</ele>
        <time>2020-05-24T10:12:35.000Z</time>
      </trkpt>
      <trkpt lat="47.15883" lon="-1.59842">
        <ele>73</ele>
        <time>2020-05-24T10:12:37.000Z</time>
      </trkpt>
      <trkpt lat="47.15878" lon="-1.59825">
        <ele>72</ele>
        <time>2020-05-24T10:12:39.000Z</time>
      </trkpt>
      <trkpt lat="47.15871" lon="-1.59809">
        <ele>72</ele>
        <time>2020-05-24T10:12:41.000Z</time>
      </trkpt>
      <trkpt lat="47.15862" lon="-1.59796">
        <ele>73</ele>
        <time>2020-05-24T10:12:43.000Z</time>
      </trkpt>
      <trkpt lat="47.15852" lon="-1.59784">
        <ele>72</ele>
        <time>2020-05-24T10:12:45.000Z</time>
      </trkpt>
      <trkpt lat="47.15842" lon="-1.59773">
        <ele>72</ele>
        <time>2020-05-24T10:12:47.000Z</time>
      </trkpt>
      <trkpt lat="47.15832" lon="-1.59764">
        <ele>72</ele>
        <time>2020-05-24T10:12:49.000Z</time>
      </trkpt>
      <trkpt lat="47.15821" lon="-1.59755">
        <ele>72</ele>
        <time>2020-05-24T10:12:51.000Z</time>
      </trkpt>
      <trkpt lat="47.1581" lon="-1.59747">
        <ele>72</ele>
        <time>2020-05-24T10:12:53.000Z</time>
      </trkpt>
      <trkpt lat="47.15799" lon="-1.59739">
        <ele>73</ele>
        <time>2020-05-24T10:12:55.000Z</time>
      </trkpt>
      <trkpt lat="47.15788" lon="-1.59735">
        <ele>73</ele>
        <time>2020-05-24T10:12:57.000Z</time>
      </trkpt>
      <trkpt lat="47.15777" lon="-1.59731">
        <ele>73</ele>
        <time>2020-05-24T10:12:59.000Z</time>
      </trkpt>
      <trkpt lat="47.15767" lon="-1.59721">
        <ele>74</ele>
        <time>2020-05-24T10:13:01.000Z</time>
      </trkpt>
      <trkpt lat="47.15764" lon="-1.59703">
        <ele>73</ele>
        <time>2020-05-24T10:13:03.000Z</time>
      </trkpt>
      <trkpt lat="47.15764" lon="-1.59685">
        <ele>73</ele>
        <time>2020-05-24T10:13:05.000Z</time>
      </trkpt>
      <trkpt lat="47.15765" lon="-1.59667">
        <ele>73</ele>
        <time>2020-05-24T10:13:07.000Z</time>
      </trkpt>
      <trkpt lat="47.15764" lon="-1.59649">
        <ele>73</ele>
        <time>2020-05-24T10:13:09.000Z</time>
      </trkpt>
      <trkpt lat="47.15764" lon="-1.59632">
        <ele>73</ele>
        <time>2020-05-24T10:13:11.000Z</time>
      </trkpt>
      <trkpt lat="47.15762" lon="-1.59614">
        <ele>73</ele>
        <time>2020-05-24T10:13:13.000Z</time>
      </trkpt>
      <trkpt lat="47.15761" lon="-1.59596">
        <ele>72</ele>
        <time>2020-05-24T10:13:15.000Z</time>
      </trkpt>
      <trkpt lat="47.15759" lon="-1.59579">
        <ele>72</ele>
        <time>2020-05-24T10:13:17.000Z</time>
      </trkpt>
      <trkpt lat="47.15759" lon="-1.59561">
        <ele>73</ele>
        <time>2020-05-24T10:13:19.000Z</time>
      </trkpt>
      <trkpt lat="47.15758" lon="-1.59542">
        <ele>73</ele>
        <time>2020-05-24T10:13:21.000Z</time>
      </trkpt>
      <trkpt lat="47.15759" lon="-1.59524">
        <ele>73</ele>
        <time>2020-05-24T10:13:23.000Z</time>
      </trkpt>
      <trkpt lat="47.1576" lon="-1.59506">
        <ele>73</ele>
        <time>2020-05-24T10:13:25.000Z</time>
      </trkpt>
      <trkpt lat="47.15761" lon="-1.59488">
        <ele>73</ele>
        <time>2020-05-24T10:13:27.000Z</time>
      </trkpt>
      <trkpt lat="47.15763" lon="-1.5947">
        <ele>73</ele>
        <time>2020-05-24T10:13:29.000Z</time>
      </trkpt>
      <trkpt lat="47.15765" lon="-1.59452">
        <ele>73</ele>
        <time>2020-05-24T10:13:31.000Z</time>
      </trkpt>
      <trkpt lat="47.15768" lon="-1.59434">
        <ele>73</ele>
        <time>2020-05-24T10:13:33.000Z</time>
      </trkpt>
      <trkpt lat="47.15771" lon="-1.59415">
        <ele>73</ele>
        <time>2020-05-24T10:13:35.000Z</time>
      </trkpt>
      <trkpt lat="47.15774" lon="-1.59397">
        <ele>73</ele>
        <time>2020-05-24T10:13:37.000Z</time>
      </trkpt>
      <trkpt lat="47.15777" lon="-1.59379">
        <ele>73</ele>
        <time>2020-05-24T10:13:39.000Z</time>
      </trkpt>
      <trkpt lat="47.1578" lon="-1.59361">
        <ele>74</ele>
        <time>2020-05-24T10:13:41.000Z</time>
      </trkpt>
      <trkpt lat="47.15783" lon="-1.59343">
        <ele>74</ele>
        <time>2020-05-24T10:13:43.000Z</time>
      </trkpt>
      <trkpt lat="47.15786" lon="-1.59325">
        <ele>73</ele>
        <time>2020-05-24T10:13:45.000Z</time>
      </trkpt>
      <trkpt lat="47.15788" lon="-1.59308">
        <ele>73</ele>
        <time>2020-05-24T10:13:47.000Z</time>
      </trkpt>
      <trkpt lat="47.15791" lon="-1.59291">
        <ele>73</ele>
        <time>2020-05-24T10:13:49.000Z</time>
      </trkpt>
      <trkpt lat="47.15793" lon="-1.59275">
        <ele>74</ele>
        <time>2020-05-24T10:13:51.000Z</time>
      </trkpt>
      <trkpt lat="47.15797" lon="-1.59257">
        <ele>74</ele>
        <time>2020-05-24T10:13:53.000Z</time>
      </trkpt>
      <trkpt lat="47.15801" lon="-1.5924">
        <ele>74</ele>
        <time>2020-05-24T10:13:55.000Z</time>
      </trkpt>
      <trkpt lat="47.15805" lon="-1.59224">
        <ele>74</ele>
        <time>2020-05-24T10:13:57.000Z</time>
      </trkpt>
      <trkpt lat="47.15811" lon="-1.59208">
        <ele>74</ele>
        <time>2020-05-24T10:13:59.000Z</time>
      </trkpt>
      <trkpt lat="47.15814" lon="-1.59192">
        <ele>74</ele>
        <time>2020-05-24T10:14:01.000Z</time>
      </trkpt>
      <trkpt lat="47.15816" lon="-1.59175">
        <ele>73</ele>
        <time>2020-05-24T10:14:03.000Z</time>
      </trkpt>
      <trkpt lat="47.15818" lon="-1.59158">
        <ele>73</ele>
        <time>2020-05-24T10:14:05.000Z</time>
      </trkpt>
      <trkpt lat="47.15826" lon="-1.59145">
        <ele>73</ele>
        <time>2020-05-24T10:14:07.000Z</time>
      </trkpt>
      <trkpt lat="47.15838" lon="-1.5914">
        <ele>74</ele>
        <time>2020-05-24T10:14:09.000Z</time>
      </trkpt>
      <trkpt lat="47.1585" lon="-1.59134">
        <ele>74</ele>
        <time>2020-05-24T10:14:11.000Z</time>
      </trkpt>
      <trkpt lat="47.1586" lon="-1.59123">
        <ele>74</ele>
        <time>2020-05-24T10:14:13.000Z</time>
      </trkpt>
      <trkpt lat="47.15869" lon="-1.59109">
        <ele>74</ele>
        <time>2020-05-24T10:14:15.000Z</time>
      </trkpt>
      <trkpt lat="47.15877" lon="-1.59095">
        <ele>74</ele>
        <time>2020-05-24T10:14:17.000Z</time>
      </trkpt>
      <trkpt lat="47.15885" lon="-1.59082">
        <ele>74</ele>
        <time>2020-05-24T10:14:19.000Z</time>
      </trkpt>
      <trkpt lat="47.15893" lon="-1.59068">
        <ele>73</ele>
        <time>2020-05-24T10:14:21.000Z</time>
      </trkpt>
      <trkpt lat="47.15901" lon="-1.59054">
        <ele>73</ele>
        <time>2020-05-24T10:14:23.000Z</time>
      </trkpt>
      <trkpt lat="47.15909" lon="-1.59041">
        <ele>73</ele>
        <time>2020-05-24T10:14:25.000Z</time>
      </trkpt>
      <trkpt lat="47.15918" lon="-1.59027">
        <ele>73</ele>
        <time>2020-05-24T10:14:27.000Z</time>
      </trkpt>
      <trkpt lat="47.15925" lon="-1.59014">
        <ele>73</ele>
        <time>2020-05-24T10:14:29.000Z</time>
      </trkpt>
      <trkpt lat="47.15934" lon="-1.59">
        <ele>73</ele>
        <time>2020-05-24T10:14:31.000Z</time>
      </trkpt>
      <trkpt lat="47.15942" lon="-1.58987">
        <ele>72</ele>
        <time>2020-05-24T10:14:33.000Z</time>
      </trkpt>
      <trkpt lat="47.15949" lon="-1.58973">
        <ele>73</ele>
        <time>2020-05-24T10:14:35.000Z</time>
      </trkpt>
      <trkpt lat="47.15957" lon="-1.58961">
        <ele>73</ele>
        <time>2020-05-24T10:14:37.000Z</time>
      </trkpt>
      <trkpt lat="47.15964" lon="-1.58949">
        <ele>73</ele>
        <time>2020-05-24T10:14:39.000Z</time>
      </trkpt>
      <trkpt lat="47.15972" lon="-1.58935">
        <ele>73</ele>
        <time>2020-05-24T10:14:41.000Z</time>
      </trkpt>
      <trkpt lat="47.15979" lon="-1.58922">
        <ele>73</ele>
        <time>2020-05-24T10:14:43.000Z</time>
      </trkpt>
      <trkpt lat="47.15987" lon="-1.58909">
        <ele>73</ele>
        <time>2020-05-24T10:14:45.000Z</time>
      </trkpt>
      <trkpt lat="47.15995" lon="-1.58897">
        <ele>73</ele>
        <time>2020-05-24T10:14:47.000Z</time>
      </trkpt>
      <trkpt lat="47.16003" lon="-1.58883">
        <ele>74</ele>
        <time>2020-05-24T10:14:49.000Z</time>
      </trkpt>
      <trkpt lat="47.16012" lon="-1.58872">
        <ele>74</ele>
        <time>2020-05-24T10:14:51.000Z</time>
      </trkpt>
      <trkpt lat="47.16021" lon="-1.5886">
        <ele>74</ele>
        <time>2020-05-24T10:14:53.000Z</time>
      </trkpt>
      <trkpt lat="47.16029" lon="-1.58848">
        <ele>75</ele>
        <time>2020-05-24T10:14:55.000Z</time>
      </trkpt>
      <trkpt lat="47.16038" lon="-1.58837">
        <ele>75</ele>
        <time>2020-05-24T10:14:57.000Z</time>
      </trkpt>
      <trkpt lat="47.16047" lon="-1.58824">
        <ele>75</ele>
        <time>2020-05-24T10:14:59.000Z</time>
      </trkpt>
      <trkpt lat="47.16056" lon="-1.58813">
        <ele>75</ele>
        <time>2020-05-24T10:15:01.000Z</time>
      </trkpt>
      <trkpt lat="47.16065" lon="-1.58801">
        <ele>75</ele>
        <time>2020-05-24T10:15:03.000Z</time>
      </trkpt>
      <trkpt lat="47.16075" lon="-1.5879">
        <ele>76</ele>
        <time>2020-05-24T10:15:05.000Z</time>
      </trkpt>
      <trkpt lat="47.16083" lon="-1.58778">
        <ele>75</ele>
        <time>2020-05-24T10:15:07.000Z</time>
      </trkpt>
      <trkpt lat="47.16093" lon="-1.58765">
        <ele>75</ele>
        <time>2020-05-24T10:15:09.000Z</time>
      </trkpt>
      <trkpt lat="47.16102" lon="-1.58753">
        <ele>75</ele>
        <time>2020-05-24T10:15:11.000Z</time>
      </trkpt>
      <trkpt lat="47.16111" lon="-1.58741">
        <ele>75</ele>
        <time>2020-05-24T10:15:13.000Z</time>
      </trkpt>
      <trkpt lat="47.1612" lon="-1.58729">
        <ele>74</ele>
        <time>2020-05-24T10:15:15.000Z</time>
      </trkpt>
      <trkpt lat="47.16129" lon="-1.58716">
        <ele>75</ele>
        <time>2020-05-24T10:15:17.000Z</time>
      </trkpt>
      <trkpt lat="47.16139" lon="-1.58704">
        <ele>75</ele>
        <time>2020-05-24T10:15:19.000Z</time>
      </trkpt>
      <trkpt lat="47.16149" lon="-1.58692">
        <ele>75</ele>
        <time>2020-05-24T10:15:21.000Z</time>
      </trkpt>
      <trkpt lat="47.16159" lon="-1.58679">
        <ele>74</ele>
        <time>2020-05-24T10:15:23.000Z</time>
      </trkpt>
      <trkpt lat="47.16168" lon="-1.58667">
        <ele>74</ele>
        <time>2020-05-24T10:15:25.000Z</time>
      </trkpt>
      <trkpt lat="47.16177" lon="-1.58654">
        <ele>74</ele>
        <time>2020-05-24T10:15:27.000Z</time>
      </trkpt>
      <trkpt lat="47.16187" lon="-1.58642">
        <ele>74</ele>
        <time>2020-05-24T10:15:29.000Z</time>
      </trkpt>
      <trkpt lat="47.16196" lon="-1.5863">
        <ele>74</ele>
        <time>2020-05-24T10:15:31.000Z</time>
      </trkpt>
      <trkpt lat="47.16206" lon="-1.58618">
        <ele>74</ele>
        <time>2020-05-24T10:15:33.000Z</time>
      </trkpt>
      <trkpt lat="47.16215" lon="-1.58606">
        <ele>74</ele>
        <time>2020-05-24T10:15:35.000Z</time>
      </trkpt>
      <trkpt lat="47.16224" lon="-1.58594">
        <ele>74</ele>
        <time>2020-05-24T10:15:37.000Z</time>
      </trkpt>
      <trkpt lat="47.16233" lon="-1.58581">
        <ele>73</ele>
        <time>2020-05-24T10:15:39.000Z</time>
      </trkpt>
      <trkpt lat="47.16242" lon="-1.58569">
        <ele>73</ele>
        <time>2020-05-24T10:15:41.000Z</time>
      </trkpt>
      <trkpt lat="47.16251" lon="-1.58558">
        <ele>74</ele>
        <time>2020-05-24T10:15:43.000Z</time>
      </trkpt>
      <trkpt lat="47.1626" lon="-1.58546">
        <ele>75</ele>
        <time>2020-05-24T10:15:45.000Z</time>
      </trkpt>
      <trkpt lat="47.16268" lon="-1.58534">
        <ele>74</ele>
        <time>2020-05-24T10:15:47.000Z</time>
      </trkpt>
      <trkpt lat="47.16278" lon="-1.58522">
        <ele>74</ele>
        <time>2020-05-24T10:15:49.000Z</time>
      </trkpt>
      <trkpt lat="47.16287" lon="-1.58511">
        <ele>74</ele>
        <time>2020-05-24T10:15:51.000Z</time>
      </trkpt>
      <trkpt lat="47.16296" lon="-1.58499">
        <ele>74</ele>
        <time>2020-05-24T10:15:53.000Z</time>
      </trkpt>
      <trkpt lat="47.16306" lon="-1.58488">
        <ele>73</ele>
        <time>2020-05-24T10:15:55.000Z</time>
      </trkpt>
      <trkpt lat="47.16315" lon="-1.58476">
        <ele>73</ele>
        <time>2020-05-24T10:15:57.000Z</time>
      </trkpt>
      <trkpt lat="47.16323" lon="-1.58463">
        <ele>73</ele>
        <time>2020-05-24T10:15:59.000Z</time>
      </trkpt>
      <trkpt lat="47.16332" lon="-1.58451">
        <ele>73</ele>
        <time>2020-05-24T10:16:01.000Z</time>
      </trkpt>
      <trkpt lat="47.16342" lon="-1.58438">
        <ele>73</ele>
        <time>2020-05-24T10:16:03.000Z</time>
      </trkpt>
      <trkpt lat="47.16351" lon="-1.58428">
        <ele>73</ele>
        <time>2020-05-24T10:16:05.000Z</time>
      </trkpt>
      <trkpt lat="47.1636" lon="-1.58416">
        <ele>72</ele>
        <time>2020-05-24T10:16:07.000Z</time>
      </trkpt>
      <trkpt lat="47.16369" lon="-1.58405">
        <ele>72</ele>
        <time>2020-05-24T10:16:09.000Z</time>
      </trkpt>
      <trkpt lat="47.16377" lon="-1.58394">
        <ele>73</ele>
        <time>2020-05-24T10:16:11.000Z</time>
      </trkpt>
      <trkpt lat="47.16386" lon="-1.58382">
        <ele>73</ele>
        <time>2020-05-24T10:16:13.000Z</time>
      </trkpt>
      <trkpt lat="47.16394" lon="-1.5837">
        <ele>73</ele>
        <time>2020-05-24T10:16:15.000Z</time>
      </trkpt>
      <trkpt lat="47.16403" lon="-1.58358">
        <ele>74</ele>
        <time>2020-05-24T10:16:17.000Z</time>
      </trkpt>
      <trkpt lat="47.16411" lon="-1.58347">
        <ele>74</ele>
        <time>2020-05-24T10:16:19.000Z</time>
      </trkpt>
      <trkpt lat="47.1642" lon="-1.58336">
        <ele>74</ele>
        <time>2020-05-24T10:16:21.000Z</time>
      </trkpt>
      <trkpt lat="47.16428" lon="-1.58323">
        <ele>74</ele>
        <time>2020-05-24T10:16:23.000Z</time>
      </trkpt>
      <trkpt lat="47.16436" lon="-1.58312">
        <ele>74</ele>
        <time>2020-05-24T10:16:25.000Z</time>
      </trkpt>
      <trkpt lat="47.16444" lon="-1.58301">
        <ele>75</ele>
        <time>2020-05-24T10:16:27.000Z</time>
      </trkpt>
      <trkpt lat="47.16453" lon="-1.5829">
        <ele>75</ele>
        <time>2020-05-24T10:16:29.000Z</time>
      </trkpt>
      <trkpt lat="47.16461" lon="-1.5828">
        <ele>75</ele>
        <time>2020-05-24T10:16:31.000Z</time>
      </trkpt>
      <trkpt lat="47.1647" lon="-1.58269">
        <ele>75</ele>
        <time>2020-05-24T10:16:33.000Z</time>
      </trkpt>
      <trkpt lat="47.16479" lon="-1.58258">
        <ele>75</ele>
        <time>2020-05-24T10:16:35.000Z</time>
      </trkpt>
      <trkpt lat="47.16487" lon="-1.58247">
        <ele>75</ele>
        <time>2020-05-24T10:16:37.000Z</time>
      </trkpt>
      <trkpt lat="47.16495" lon="-1.58236">
        <ele>76</ele>
        <time>2020-05-24T10:16:39.000Z</time>
      </trkpt>
      <trkpt lat="47.16504" lon="-1.58226">
        <ele>77</ele>
        <time>2020-05-24T10:16:41.000Z</time>
      </trkpt>
      <trkpt lat="47.16513" lon="-1.58215">
        <ele>76</ele>
        <time>2020-05-24T10:16:43.000Z</time>
      </trkpt>
      <trkpt lat="47.16521" lon="-1.58205">
        <ele>76</ele>
        <time>2020-05-24T10:16:45.000Z</time>
      </trkpt>
      <trkpt lat="47.16529" lon="-1.58194">
        <ele>76</ele>
        <time>2020-05-24T10:16:47.000Z</time>
      </trkpt>
      <trkpt lat="47.16538" lon="-1.58183">
        <ele>76</ele>
        <time>2020-05-24T10:16:49.000Z</time>
      </trkpt>
      <trkpt lat="47.16546" lon="-1.58172">
        <ele>76</ele>
        <time>2020-05-24T10:16:51.000Z</time>
      </trkpt>
      <trkpt lat="47.16555" lon="-1.58161">
        <ele>76</ele>
        <time>2020-05-24T10:16:53.000Z</time>
      </trkpt>
      <trkpt lat="47.16563" lon="-1.58149">
        <ele>76</ele>
        <time>2020-05-24T10:16:55.000Z</time>
      </trkpt>
      <trkpt lat="47.16571" lon="-1.58139">
        <ele>76</ele>
        <time>2020-05-24T10:16:57.000Z</time>
      </trkpt>
      <trkpt lat="47.16579" lon="-1.58127">
        <ele>77</ele>
        <time>2020-05-24T10:16:59.000Z</time>
      </trkpt>
      <trkpt lat="47.16588" lon="-1.58115">
        <ele>76</ele>
        <time>2020-05-24T10:17:01.000Z</time>
      </trkpt>
      <trkpt lat="47.16597" lon="-1.58104">
        <ele>76</ele>
        <time>2020-05-24T10:17:03.000Z</time>
      </trkpt>
      <trkpt lat="47.16605" lon="-1.58092">
        <ele>75</ele>
        <time>2020-05-24T10:17:05.000Z</time>
      </trkpt>
      <trkpt lat="47.16613" lon="-1.5808">
        <ele>75</ele>
        <time>2020-05-24T10:17:07.000Z</time>
      </trkpt>
      <trkpt lat="47.1662" lon="-1.58067">
        <ele>75</ele>
        <time>2020-05-24T10:17:09.000Z</time>
      </trkpt>
      <trkpt lat="47.16618" lon="-1.58051">
        <ele>75</ele>
        <time>2020-05-24T10:17:11.000Z</time>
      </trkpt>
      <trkpt lat="47.16609" lon="-1.58039">
        <ele>75</ele>
        <time>2020-05-24T10:17:13.000Z</time>
      </trkpt>
      <trkpt lat="47.16599" lon="-1.58028">
        <ele>75</ele>
        <time>2020-05-24T10:17:15.000Z</time>
      </trkpt>
      <trkpt lat="47.16589" lon="-1.5802">
        <ele>75</ele>
        <time>2020-05-24T10:17:17.000Z</time>
      </trkpt>
      <trkpt lat="47.16578" lon="-1.58012">
        <ele>76</ele>
        <time>2020-05-24T10:17:19.000Z</time>
      </trkpt>
      <trkpt lat="47.16567" lon="-1.58004">
        <ele>77</ele>
        <time>2020-05-24T10:17:21.000Z</time>
      </trkpt>
      <trkpt lat="47.16556" lon="-1.57994">
        <ele>77</ele>
        <time>2020-05-24T10:17:23.000Z</time>
      </trkpt>
      <trkpt lat="47.16547" lon="-1.57983">
        <ele>78</ele>
        <time>2020-05-24T10:17:25.000Z</time>
      </trkpt>
      <trkpt lat="47.16536" lon="-1.57973">
        <ele>78</ele>
        <time>2020-05-24T10:17:27.000Z</time>
      </trkpt>
      <trkpt lat="47.16527" lon="-1.57963">
        <ele>78</ele>
        <time>2020-05-24T10:17:29.000Z</time>
      </trkpt>
      <trkpt lat="47.16517" lon="-1.57953">
        <ele>78</ele>
        <time>2020-05-24T10:17:31.000Z</time>
      </trkpt>
      <trkpt lat="47.16507" lon="-1.57943">
        <ele>78</ele>
        <time>2020-05-24T10:17:33.000Z</time>
      </trkpt>
      <trkpt lat="47.16497" lon="-1.57934">
        <ele>78</ele>
        <time>2020-05-24T10:17:35.000Z</time>
      </trkpt>
      <trkpt lat="47.16488" lon="-1.57923">
        <ele>79</ele>
        <time>2020-05-24T10:17:37.000Z</time>
      </trkpt>
      <trkpt lat="47.16477" lon="-1.57913">
        <ele>79</ele>
        <time>2020-05-24T10:17:39.000Z</time>
      </trkpt>
      <trkpt lat="47.16467" lon="-1.57904">
        <ele>79</ele>
        <time>2020-05-24T10:17:41.000Z</time>
      </trkpt>
      <trkpt lat="47.16457" lon="-1.57895">
        <ele>79</ele>
        <time>2020-05-24T10:17:43.000Z</time>
      </trkpt>
      <trkpt lat="47.16447" lon="-1.57887">
        <ele>80</ele>
        <time>2020-05-24T10:17:45.000Z</time>
      </trkpt>
      <trkpt lat="47.16436" lon="-1.57879">
        <ele>80</ele>
        <time>2020-05-24T10:17:47.000Z</time>
      </trkpt>
      <trkpt lat="47.16426" lon="-1.5787">
        <ele>79</ele>
        <time>2020-05-24T10:17:49.000Z</time>
      </trkpt>
      <trkpt lat="47.16415" lon="-1.57863">
        <ele>80</ele>
        <time>2020-05-24T10:17:51.000Z</time>
      </trkpt>
      <trkpt lat="47.16404" lon="-1.57855">
        <ele>80</ele>
        <time>2020-05-24T10:17:53.000Z</time>
      </trkpt>
      <trkpt lat="47.16392" lon="-1.57847">
        <ele>80</ele>
        <time>2020-05-24T10:17:55.000Z</time>
      </trkpt>
      <trkpt lat="47.16381" lon="-1.57839">
        <ele>80</ele>
        <time>2020-05-24T10:17:57.000Z</time>
      </trkpt>
      <trkpt lat="47.1637" lon="-1.57831">
        <ele>80</ele>
        <time>2020-05-24T10:17:59.000Z</time>
      </trkpt>
      <trkpt lat="47.1636" lon="-1.57821">
        <ele>80</ele>
        <time>2020-05-24T10:18:01.000Z</time>
      </trkpt>
      <trkpt lat="47.16351" lon="-1.57809">
        <ele>80</ele>
        <time>2020-05-24T10:18:03.000Z</time>
      </trkpt>
      <trkpt lat="47.16342" lon="-1.57795">
        <ele>80</ele>
        <time>2020-05-24T10:18:05.000Z</time>
      </trkpt>
      <trkpt lat="47.16334" lon="-1.57781">
        <ele>80</ele>
        <time>2020-05-24T10:18:07.000Z</time>
      </trkpt>
      <trkpt lat="47.16325" lon="-1.57769">
        <ele>80</ele>
        <time>2020-05-24T10:18:09.000Z</time>
      </trkpt>
      <trkpt lat="47.16317" lon="-1.57755">
        <ele>80</ele>
        <time>2020-05-24T10:18:11.000Z</time>
      </trkpt>
      <trkpt lat="47.16309" lon="-1.57741">
        <ele>80</ele>
        <time>2020-05-24T10:18:13.000Z</time>
      </trkpt>
      <trkpt lat="47.163" lon="-1.57728">
        <ele>79</ele>
        <time>2020-05-24T10:18:15.000Z</time>
      </trkpt>
      <trkpt lat="47.16292" lon="-1.57716">
        <ele>79</ele>
        <time>2020-05-24T10:18:17.000Z</time>
      </trkpt>
      <trkpt lat="47.16284" lon="-1.57704">
        <ele>79</ele>
        <time>2020-05-24T10:18:19.000Z</time>
      </trkpt>
      <trkpt lat="47.16276" lon="-1.57692">
        <ele>79</ele>
        <time>2020-05-24T10:18:21.000Z</time>
      </trkpt>
      <trkpt lat="47.16266" lon="-1.57683">
        <ele>78</ele>
        <time>2020-05-24T10:18:23.000Z</time>
      </trkpt>
      <trkpt lat="47.16256" lon="-1.57674">
        <ele>78</ele>
        <time>2020-05-24T10:18:25.000Z</time>
      </trkpt>
      <trkpt lat="47.16246" lon="-1.57664">
        <ele>78</ele>
        <time>2020-05-24T10:18:27.000Z</time>
      </trkpt>
      <trkpt lat="47.16237" lon="-1.57654">
        <ele>78</ele>
        <time>2020-05-24T10:18:29.000Z</time>
      </trkpt>
      <trkpt lat="47.16227" lon="-1.57643">
        <ele>79</ele>
        <time>2020-05-24T10:18:31.000Z</time>
      </trkpt>
      <trkpt lat="47.16218" lon="-1.57632">
        <ele>79</ele>
        <time>2020-05-24T10:18:33.000Z</time>
      </trkpt>
      <trkpt lat="47.16209" lon="-1.57621">
        <ele>78</ele>
        <time>2020-05-24T10:18:35.000Z</time>
      </trkpt>
      <trkpt lat="47.16202" lon="-1.57609">
        <ele>79</ele>
        <time>2020-05-24T10:18:37.000Z</time>
      </trkpt>
      <trkpt lat="47.16195" lon="-1.57595">
        <ele>78</ele>
        <time>2020-05-24T10:18:39.000Z</time>
      </trkpt>
      <trkpt lat="47.16188" lon="-1.57581">
        <ele>78</ele>
        <time>2020-05-24T10:18:41.000Z</time>
      </trkpt>
      <trkpt lat="47.16181" lon="-1.57565">
        <ele>77</ele>
        <time>2020-05-24T10:18:43.000Z</time>
      </trkpt>
      <trkpt lat="47.16175" lon="-1.5755">
        <ele>77</ele>
        <time>2020-05-24T10:18:45.000Z</time>
      </trkpt>
      <trkpt lat="47.16171" lon="-1.57533">
        <ele>76</ele>
        <time>2020-05-24T10:18:47.000Z</time>
      </trkpt>
      <trkpt lat="47.1617" lon="-1.57516">
        <ele>76</ele>
        <time>2020-05-24T10:18:49.000Z</time>
      </trkpt>
      <trkpt lat="47.1617" lon="-1.57498">
        <ele>76</ele>
        <time>2020-05-24T10:18:51.000Z</time>
      </trkpt>
      <trkpt lat="47.16171" lon="-1.57479">
        <ele>75</ele>
        <time>2020-05-24T10:18:53.000Z</time>
      </trkpt>
      <trkpt lat="47.16172" lon="-1.57461">
        <ele>75</ele>
        <time>2020-05-24T10:18:55.000Z</time>
      </trkpt>
      <trkpt lat="47.16172" lon="-1.57443">
        <ele>74</ele>
        <time>2020-05-24T10:18:57.000Z</time>
      </trkpt>
      <trkpt lat="47.16171" lon="-1.57425">
        <ele>74</ele>
        <time>2020-05-24T10:18:59.000Z</time>
      </trkpt>
      <trkpt lat="47.1617" lon="-1.57407">
        <ele>74</ele>
        <time>2020-05-24T10:19:01.000Z</time>
      </trkpt>
      <trkpt lat="47.1617" lon="-1.5739">
        <ele>74</ele>
        <time>2020-05-24T10:19:03.000Z</time>
      </trkpt>
      <trkpt lat="47.16169" lon="-1.57375">
        <ele>74</ele>
        <time>2020-05-24T10:19:05.000Z</time>
      </trkpt>
      <trkpt lat="47.16167" lon="-1.57359">
        <ele>73</ele>
        <time>2020-05-24T10:19:08.000Z</time>
      </trkpt>
      <trkpt lat="47.16165" lon="-1.57342">
        <ele>74</ele>
        <time>2020-05-24T10:19:11.000Z</time>
      </trkpt>
      <trkpt lat="47.16163" lon="-1.57326">
        <ele>75</ele>
        <time>2020-05-24T10:19:13.000Z</time>
      </trkpt>
      <trkpt lat="47.16162" lon="-1.57309">
        <ele>75</ele>
        <time>2020-05-24T10:19:15.000Z</time>
      </trkpt>
      <trkpt lat="47.16162" lon="-1.57292">
        <ele>75</ele>
        <time>2020-05-24T10:19:17.000Z</time>
      </trkpt>
      <trkpt lat="47.16162" lon="-1.57273">
        <ele>75</ele>
        <time>2020-05-24T10:19:19.000Z</time>
      </trkpt>
      <trkpt lat="47.16162" lon="-1.57256">
        <ele>74</ele>
        <time>2020-05-24T10:19:21.000Z</time>
      </trkpt>
      <trkpt lat="47.16163" lon="-1.57237">
        <ele>74</ele>
        <time>2020-05-24T10:19:23.000Z</time>
      </trkpt>
      <trkpt lat="47.16164" lon="-1.57219">
        <ele>73</ele>
        <time>2020-05-24T10:19:25.000Z</time>
      </trkpt>
      <trkpt lat="47.16165" lon="-1.57202">
        <ele>73</ele>
        <time>2020-05-24T10:19:27.000Z</time>
      </trkpt>
      <trkpt lat="47.16166" lon="-1.57183">
        <ele>74</ele>
        <time>2020-05-24T10:19:29.000Z</time>
      </trkpt>
      <trkpt lat="47.16168" lon="-1.57164">
        <ele>73</ele>
        <time>2020-05-24T10:19:31.000Z</time>
      </trkpt>
      <trkpt lat="47.16169" lon="-1.57145">
        <ele>74</ele>
        <time>2020-05-24T10:19:33.000Z</time>
      </trkpt>
      <trkpt lat="47.16172" lon="-1.57126">
        <ele>74</ele>
        <time>2020-05-24T10:19:35.000Z</time>
      </trkpt>
      <trkpt lat="47.16175" lon="-1.57107">
        <ele>74</ele>
        <time>2020-05-24T10:19:37.000Z</time>
      </trkpt>
      <trkpt lat="47.16179" lon="-1.57089">
        <ele>73</ele>
        <time>2020-05-24T10:19:39.000Z</time>
      </trkpt>
      <trkpt lat="47.16182" lon="-1.57071">
        <ele>73</ele>
        <time>2020-05-24T10:19:41.000Z</time>
      </trkpt>
      <trkpt lat="47.16185" lon="-1.57053">
        <ele>73</ele>
        <time>2020-05-24T10:19:43.000Z</time>
      </trkpt>
      <trkpt lat="47.16188" lon="-1.57035">
        <ele>73</ele>
        <time>2020-05-24T10:19:45.000Z</time>
      </trkpt>
      <trkpt lat="47.16191" lon="-1.57017">
        <ele>73</ele>
        <time>2020-05-24T10:19:47.000Z</time>
      </trkpt>
      <trkpt lat="47.16194" lon="-1.57">
        <ele>72</ele>
        <time>2020-05-24T10:19:49.000Z</time>
      </trkpt>
      <trkpt lat="47.16196" lon="-1.56982">
        <ele>72</ele>
        <time>2020-05-24T10:19:51.000Z</time>
      </trkpt>
      <trkpt lat="47.16199" lon="-1.56964">
        <ele>72</ele>
        <time>2020-05-24T10:19:53.000Z</time>
      </trkpt>
      <trkpt lat="47.16201" lon="-1.56947">
        <ele>72</ele>
        <time>2020-05-24T10:19:55.000Z</time>
      </trkpt>
      <trkpt lat="47.16205" lon="-1.56929">
        <ele>72</ele>
        <time>2020-05-24T10:19:57.000Z</time>
      </trkpt>
      <trkpt lat="47.16208" lon="-1.56911">
        <ele>72</ele>
        <time>2020-05-24T10:19:59.000Z</time>
      </trkpt>
      <trkpt lat="47.16212" lon="-1.56893">
        <ele>72</ele>
        <time>2020-05-24T10:20:01.000Z</time>
      </trkpt>
      <trkpt lat="47.16215" lon="-1.56876">
        <ele>72</ele>
        <time>2020-05-24T10:20:03.000Z</time>
      </trkpt>
      <trkpt lat="47.16219" lon="-1.56858">
        <ele>72</ele>
        <time>2020-05-24T10:20:05.000Z</time>
      </trkpt>
      <trkpt lat="47.16223" lon="-1.56841">
        <ele>72</ele>
        <time>2020-05-24T10:20:07.000Z</time>
      </trkpt>
      <trkpt lat="47.16226" lon="-1.56824">
        <ele>72</ele>
        <time>2020-05-24T10:20:09.000Z</time>
      </trkpt>
      <trkpt lat="47.16229" lon="-1.56806">
        <ele>72</ele>
        <time>2020-05-24T10:20:11.000Z</time>
      </trkpt>
      <trkpt lat="47.16233" lon="-1.56789">
        <ele>71</ele>
        <time>2020-05-24T10:20:13.000Z</time>
      </trkpt>
      <trkpt lat="47.16236" lon="-1.56772">
        <ele>71</ele>
        <time>2020-05-24T10:20:15.000Z</time>
      </trkpt>
      <trkpt lat="47.16239" lon="-1.56755">
        <ele>72</ele>
        <time>2020-05-24T10:20:17.000Z</time>
      </trkpt>
      <trkpt lat="47.16241" lon="-1.56739">
        <ele>72</ele>
        <time>2020-05-24T10:20:19.000Z</time>
      </trkpt>
      <trkpt lat="47.16236" lon="-1.56723">
        <ele>71</ele>
        <time>2020-05-24T10:20:21.000Z</time>
      </trkpt>
      <trkpt lat="47.16223" lon="-1.56719">
        <ele>72</ele>
        <time>2020-05-24T10:20:23.000Z</time>
      </trkpt>
      <trkpt lat="47.1621" lon="-1.56721">
        <ele>72</ele>
        <time>2020-05-24T10:20:25.000Z</time>
      </trkpt>
      <trkpt lat="47.16198" lon="-1.56721">
        <ele>72</ele>
        <time>2020-05-24T10:20:27.000Z</time>
      </trkpt>
      <trkpt lat="47.16185" lon="-1.5672">
        <ele>72</ele>
        <time>2020-05-24T10:20:29.000Z</time>
      </trkpt>
      <trkpt lat="47.16173" lon="-1.56719">
        <ele>73</ele>
        <time>2020-05-24T10:20:31.000Z</time>
      </trkpt>
      <trkpt lat="47.16159" lon="-1.56717">
        <ele>73</ele>
        <time>2020-05-24T10:20:33.000Z</time>
      </trkpt>
      <trkpt lat="47.16146" lon="-1.56715">
        <ele>73</ele>
        <time>2020-05-24T10:20:35.000Z</time>
      </trkpt>
      <trkpt lat="47.16133" lon="-1.56714">
        <ele>73</ele>
        <time>2020-05-24T10:20:37.000Z</time>
      </trkpt>
      <trkpt lat="47.1612" lon="-1.56712">
        <ele>73</ele>
        <time>2020-05-24T10:20:39.000Z</time>
      </trkpt>
      <trkpt lat="47.16107" lon="-1.56712">
        <ele>73</ele>
        <time>2020-05-24T10:20:41.000Z</time>
      </trkpt>
      <trkpt lat="47.16093" lon="-1.56712">
        <ele>74</ele>
        <time>2020-05-24T10:20:43.000Z</time>
      </trkpt>
      <trkpt lat="47.1608" lon="-1.56713">
        <ele>74</ele>
        <time>2020-05-24T10:20:45.000Z</time>
      </trkpt>
      <trkpt lat="47.16066" lon="-1.56713">
        <ele>73</ele>
        <time>2020-05-24T10:20:47.000Z</time>
      </trkpt>
      <trkpt lat="47.16053" lon="-1.56712">
        <ele>73</ele>
        <time>2020-05-24T10:20:49.000Z</time>
      </trkpt>
      <trkpt lat="47.1604" lon="-1.56709">
        <ele>73</ele>
        <time>2020-05-24T10:20:51.000Z</time>
      </trkpt>
      <trkpt lat="47.16026" lon="-1.56706">
        <ele>73</ele>
        <time>2020-05-24T10:20:53.000Z</time>
      </trkpt>
      <trkpt lat="47.16013" lon="-1.56703">
        <ele>73</ele>
        <time>2020-05-24T10:20:55.000Z</time>
      </trkpt>
      <trkpt lat="47.16" lon="-1.56699">
        <ele>73</ele>
        <time>2020-05-24T10:20:57.000Z</time>
      </trkpt>
      <trkpt lat="47.15989" lon="-1.56691">
        <ele>73</ele>
        <time>2020-05-24T10:20:59.000Z</time>
      </trkpt>
      <trkpt lat="47.1598" lon="-1.56677">
        <ele>73</ele>
        <time>2020-05-24T10:21:01.000Z</time>
      </trkpt>
      <trkpt lat="47.15976" lon="-1.56658">
        <ele>73</ele>
        <time>2020-05-24T10:21:03.000Z</time>
      </trkpt>
      <trkpt lat="47.15974" lon="-1.5664">
        <ele>73</ele>
        <time>2020-05-24T10:21:05.000Z</time>
      </trkpt>
      <trkpt lat="47.15972" lon="-1.56622">
        <ele>73</ele>
        <time>2020-05-24T10:21:07.000Z</time>
      </trkpt>
      <trkpt lat="47.1597" lon="-1.56603">
        <ele>73</ele>
        <time>2020-05-24T10:21:09.000Z</time>
      </trkpt>
      <trkpt lat="47.15968" lon="-1.56585">
        <ele>73</ele>
        <time>2020-05-24T10:21:11.000Z</time>
      </trkpt>
      <trkpt lat="47.15966" lon="-1.56567">
        <ele>72</ele>
        <time>2020-05-24T10:21:13.000Z</time>
      </trkpt>
      <trkpt lat="47.15965" lon="-1.5655">
        <ele>72</ele>
        <time>2020-05-24T10:21:15.000Z</time>
      </trkpt>
      <trkpt lat="47.15966" lon="-1.56532">
        <ele>72</ele>
        <time>2020-05-24T10:21:17.000Z</time>
      </trkpt>
      <trkpt lat="47.15967" lon="-1.56513">
        <ele>72</ele>
        <time>2020-05-24T10:21:19.000Z</time>
      </trkpt>
      <trkpt lat="47.15968" lon="-1.56495">
        <ele>71</ele>
        <time>2020-05-24T10:21:21.000Z</time>
      </trkpt>
      <trkpt lat="47.15968" lon="-1.56477">
        <ele>71</ele>
        <time>2020-05-24T10:21:23.000Z</time>
      </trkpt>
      <trkpt lat="47.15969" lon="-1.56458">
        <ele>72</ele>
        <time>2020-05-24T10:21:25.000Z</time>
      </trkpt>
      <trkpt lat="47.15968" lon="-1.5644">
        <ele>72</ele>
        <time>2020-05-24T10:21:27.000Z</time>
      </trkpt>
      <trkpt lat="47.15969" lon="-1.56422">
        <ele>72</ele>
        <time>2020-05-24T10:21:29.000Z</time>
      </trkpt>
      <trkpt lat="47.15972" lon="-1.56404">
        <ele>72</ele>
        <time>2020-05-24T10:21:31.000Z</time>
      </trkpt>
      <trkpt lat="47.15977" lon="-1.56386">
        <ele>72</ele>
        <time>2020-05-24T10:21:33.000Z</time>
      </trkpt>
      <trkpt lat="47.15983" lon="-1.56369">
        <ele>71</ele>
        <time>2020-05-24T10:21:35.000Z</time>
      </trkpt>
      <trkpt lat="47.15988" lon="-1.56352">
        <ele>71</ele>
        <time>2020-05-24T10:21:37.000Z</time>
      </trkpt>
      <trkpt lat="47.15993" lon="-1.56335">
        <ele>71</ele>
        <time>2020-05-24T10:21:39.000Z</time>
      </trkpt>
      <trkpt lat="47.15998" lon="-1.5632">
        <ele>71</ele>
        <time>2020-05-24T10:21:41.000Z</time>
      </trkpt>
      <trkpt lat="47.16004" lon="-1.56303">
        <ele>70</ele>
        <time>2020-05-24T10:21:43.000Z</time>
      </trkpt>
      <trkpt lat="47.16009" lon="-1.56287">
        <ele>71</ele>
        <time>2020-05-24T10:21:45.000Z</time>
      </trkpt>
      <trkpt lat="47.16014" lon="-1.56271">
        <ele>71</ele>
        <time>2020-05-24T10:21:47.000Z</time>
      </trkpt>
      <trkpt lat="47.16018" lon="-1.56255">
        <ele>70</ele>
        <time>2020-05-24T10:21:49.000Z</time>
      </trkpt>
      <trkpt lat="47.16017" lon="-1.56239">
        <ele>70</ele>
        <time>2020-05-24T10:21:51.000Z</time>
      </trkpt>
      <trkpt lat="47.16007" lon="-1.5623">
        <ele>70</ele>
        <time>2020-05-24T10:21:53.000Z</time>
      </trkpt>
      <trkpt lat="47.15996" lon="-1.56226">
        <ele>71</ele>
        <time>2020-05-24T10:21:55.000Z</time>
      </trkpt>
      <trkpt lat="47.15984" lon="-1.56221">
        <ele>72</ele>
        <time>2020-05-24T10:21:57.000Z</time>
      </trkpt>
      <trkpt lat="47.15971" lon="-1.56216">
        <ele>73</ele>
        <time>2020-05-24T10:21:59.000Z</time>
      </trkpt>
      <trkpt lat="47.15958" lon="-1.56212">
        <ele>74</ele>
        <time>2020-05-24T10:22:01.000Z</time>
      </trkpt>
      <trkpt lat="47.15946" lon="-1.56206">
        <ele>74</ele>
        <time>2020-05-24T10:22:03.000Z</time>
      </trkpt>
      <trkpt lat="47.15934" lon="-1.56201">
        <ele>75</ele>
        <time>2020-05-24T10:22:05.000Z</time>
      </trkpt>
      <trkpt lat="47.15921" lon="-1.56197">
        <ele>75</ele>
        <time>2020-05-24T10:22:07.000Z</time>
      </trkpt>
      <trkpt lat="47.15909" lon="-1.56191">
        <ele>75</ele>
        <time>2020-05-24T10:22:09.000Z</time>
      </trkpt>
      <trkpt lat="47.15896" lon="-1.56185">
        <ele>75</ele>
        <time>2020-05-24T10:22:11.000Z</time>
      </trkpt>
      <trkpt lat="47.15884" lon="-1.56181">
        <ele>75</ele>
        <time>2020-05-24T10:22:13.000Z</time>
      </trkpt>
      <trkpt lat="47.15871" lon="-1.56175">
        <ele>74</ele>
        <time>2020-05-24T10:22:15.000Z</time>
      </trkpt>
      <trkpt lat="47.15858" lon="-1.5617">
        <ele>75</ele>
        <time>2020-05-24T10:22:17.000Z</time>
      </trkpt>
      <trkpt lat="47.15846" lon="-1.56166">
        <ele>75</ele>
        <time>2020-05-24T10:22:19.000Z</time>
      </trkpt>
      <trkpt lat="47.15832" lon="-1.5616">
        <ele>75</ele>
        <time>2020-05-24T10:22:21.000Z</time>
      </trkpt>
      <trkpt lat="47.1582" lon="-1.56154">
        <ele>75</ele>
        <time>2020-05-24T10:22:23.000Z</time>
      </trkpt>
      <trkpt lat="47.15807" lon="-1.56148">
        <ele>75</ele>
        <time>2020-05-24T10:22:25.000Z</time>
      </trkpt>
      <trkpt lat="47.15794" lon="-1.56142">
        <ele>75</ele>
        <time>2020-05-24T10:22:27.000Z</time>
      </trkpt>
      <trkpt lat="47.15781" lon="-1.56136">
        <ele>75</ele>
        <time>2020-05-24T10:22:29.000Z</time>
      </trkpt>
      <trkpt lat="47.15768" lon="-1.5613">
        <ele>76</ele>
        <time>2020-05-24T10:22:31.000Z</time>
      </trkpt>
      <trkpt lat="47.15756" lon="-1.56125">
        <ele>77</ele>
        <time>2020-05-24T10:22:33.000Z</time>
      </trkpt>
      <trkpt lat="47.15744" lon="-1.56121">
        <ele>77</ele>
        <time>2020-05-24T10:22:35.000Z</time>
      </trkpt>
      <trkpt lat="47.15731" lon="-1.56115">
        <ele>77</ele>
        <time>2020-05-24T10:22:37.000Z</time>
      </trkpt>
      <trkpt lat="47.15719" lon="-1.5611">
        <ele>77</ele>
        <time>2020-05-24T10:22:39.000Z</time>
      </trkpt>
      <trkpt lat="47.15707" lon="-1.56105">
        <ele>77</ele>
        <time>2020-05-24T10:22:41.000Z</time>
      </trkpt>
      <trkpt lat="47.15695" lon="-1.561">
        <ele>78</ele>
        <time>2020-05-24T10:22:43.000Z</time>
      </trkpt>
      <trkpt lat="47.15683" lon="-1.56094">
        <ele>78</ele>
        <time>2020-05-24T10:22:45.000Z</time>
      </trkpt>
      <trkpt lat="47.15671" lon="-1.5609">
        <ele>78</ele>
        <time>2020-05-24T10:22:47.000Z</time>
      </trkpt>
      <trkpt lat="47.15658" lon="-1.56084">
        <ele>78</ele>
        <time>2020-05-24T10:22:49.000Z</time>
      </trkpt>
      <trkpt lat="47.15645" lon="-1.56078">
        <ele>77</ele>
        <time>2020-05-24T10:22:51.000Z</time>
      </trkpt>
      <trkpt lat="47.15634" lon="-1.56073">
        <ele>78</ele>
        <time>2020-05-24T10:22:53.000Z</time>
      </trkpt>
      <trkpt lat="47.15622" lon="-1.56067">
        <ele>79</ele>
        <time>2020-05-24T10:22:55.000Z</time>
      </trkpt>
      <trkpt lat="47.15609" lon="-1.56059">
        <ele>80</ele>
        <time>2020-05-24T10:22:57.000Z</time>
      </trkpt>
      <trkpt lat="47.15597" lon="-1.5605">
        <ele>79</ele>
        <time>2020-05-24T10:22:59.000Z</time>
      </trkpt>
      <trkpt lat="47.15585" lon="-1.5604">
        <ele>78</ele>
        <time>2020-05-24T10:23:01.000Z</time>
      </trkpt>
      <trkpt lat="47.15573" lon="-1.56029">
        <ele>78</ele>
        <time>2020-05-24T10:23:03.000Z</time>
      </trkpt>
      <trkpt lat="47.1556" lon="-1.5602">
        <ele>78</ele>
        <time>2020-05-24T10:23:05.000Z</time>
      </trkpt>
      <trkpt lat="47.15548" lon="-1.5601">
        <ele>77</ele>
        <time>2020-05-24T10:23:07.000Z</time>
      </trkpt>
      <trkpt lat="47.15536" lon="-1.56">
        <ele>77</ele>
        <time>2020-05-24T10:23:09.000Z</time>
      </trkpt>
      <trkpt lat="47.15524" lon="-1.55991">
        <ele>76</ele>
        <time>2020-05-24T10:23:11.000Z</time>
      </trkpt>
      <trkpt lat="47.15512" lon="-1.55982">
        <ele>76</ele>
        <time>2020-05-24T10:23:13.000Z</time>
      </trkpt>
      <trkpt lat="47.155" lon="-1.55972">
        <ele>76</ele>
        <time>2020-05-24T10:23:15.000Z</time>
      </trkpt>
      <trkpt lat="47.15488" lon="-1.55963">
        <ele>76</ele>
        <time>2020-05-24T10:23:17.000Z</time>
      </trkpt>
      <trkpt lat="47.15477" lon="-1.55954">
        <ele>77</ele>
        <time>2020-05-24T10:23:19.000Z</time>
      </trkpt>
      <trkpt lat="47.15464" lon="-1.55945">
        <ele>77</ele>
        <time>2020-05-24T10:23:21.000Z</time>
      </trkpt>
      <trkpt lat="47.15452" lon="-1.55936">
        <ele>77</ele>
        <time>2020-05-24T10:23:23.000Z</time>
      </trkpt>
      <trkpt lat="47.1544" lon="-1.55925">
        <ele>76</ele>
        <time>2020-05-24T10:23:25.000Z</time>
      </trkpt>
      <trkpt lat="47.15428" lon="-1.55916">
        <ele>76</ele>
        <time>2020-05-24T10:23:27.000Z</time>
      </trkpt>
      <trkpt lat="47.15416" lon="-1.55907">
        <ele>75</ele>
        <time>2020-05-24T10:23:29.000Z</time>
      </trkpt>
      <trkpt lat="47.15406" lon="-1.55901">
        <ele>75</ele>
        <time>2020-05-24T10:23:31.000Z</time>
      </trkpt>
      <trkpt lat="47.15396" lon="-1.5589">
        <ele>75</ele>
        <time>2020-05-24T10:23:34.000Z</time>
      </trkpt>
      <trkpt lat="47.15389" lon="-1.55883">
        <ele>75</ele>
        <time>2020-05-24T10:23:36.000Z</time>
      </trkpt>
      <trkpt lat="47.15382" lon="-1.55867">
        <ele>75</ele>
        <time>2020-05-24T10:23:38.000Z</time>
      </trkpt>
      <trkpt lat="47.15377" lon="-1.55852">
        <ele>75</ele>
        <time>2020-05-24T10:23:40.000Z</time>
      </trkpt>
      <trkpt lat="47.15372" lon="-1.55838">
        <ele>75</ele>
        <time>2020-05-24T10:23:42.000Z</time>
      </trkpt>
      <trkpt lat="47.15364" lon="-1.55824">
        <ele>75</ele>
        <time>2020-05-24T10:23:44.000Z</time>
      </trkpt>
      <trkpt lat="47.15356" lon="-1.55809">
        <ele>74</ele>
        <time>2020-05-24T10:23:46.000Z</time>
      </trkpt>
      <trkpt lat="47.15348" lon="-1.55794">
        <ele>74</ele>
        <time>2020-05-24T10:23:48.000Z</time>
      </trkpt>
      <trkpt lat="47.1534" lon="-1.55778">
        <ele>74</ele>
        <time>2020-05-24T10:23:50.000Z</time>
      </trkpt>
      <trkpt lat="47.15332" lon="-1.55763">
        <ele>74</ele>
        <time>2020-05-24T10:23:52.000Z</time>
      </trkpt>
      <trkpt lat="47.15324" lon="-1.55746">
        <ele>74</ele>
        <time>2020-05-24T10:23:54.000Z</time>
      </trkpt>
      <trkpt lat="47.15316" lon="-1.55729">
        <ele>74</ele>
        <time>2020-05-24T10:23:56.000Z</time>
      </trkpt>
      <trkpt lat="47.15307" lon="-1.55714">
        <ele>74</ele>
        <time>2020-05-24T10:23:58.000Z</time>
      </trkpt>
      <trkpt lat="47.15299" lon="-1.55697">
        <ele>74</ele>
        <time>2020-05-24T10:24:00.000Z</time>
      </trkpt>
      <trkpt lat="47.1529" lon="-1.5568">
        <ele>73</ele>
        <time>2020-05-24T10:24:02.000Z</time>
      </trkpt>
      <trkpt lat="47.15282" lon="-1.55663">
        <ele>73</ele>
        <time>2020-05-24T10:24:04.000Z</time>
      </trkpt>
      <trkpt lat="47.15274" lon="-1.55646">
        <ele>73</ele>
        <time>2020-05-24T10:24:06.000Z</time>
      </trkpt>
      <trkpt lat="47.15266" lon="-1.55629">
        <ele>73</ele>
        <time>2020-05-24T10:24:08.000Z</time>
      </trkpt>
      <trkpt lat="47.15259" lon="-1.55612">
        <ele>73</ele>
        <time>2020-05-24T10:24:10.000Z</time>
      </trkpt>
      <trkpt lat="47.15252" lon="-1.55595">
        <ele>72</ele>
        <time>2020-05-24T10:24:12.000Z</time>
      </trkpt>
      <trkpt lat="47.15246" lon="-1.55576">
        <ele>72</ele>
        <time>2020-05-24T10:24:14.000Z</time>
      </trkpt>
      <trkpt lat="47.1524" lon="-1.55558">
        <ele>72</ele>
        <time>2020-05-24T10:24:16.000Z</time>
      </trkpt>
      <trkpt lat="47.15234" lon="-1.55541">
        <ele>72</ele>
        <time>2020-05-24T10:24:18.000Z</time>
      </trkpt>
      <trkpt lat="47.15228" lon="-1.55524">
        <ele>71</ele>
        <time>2020-05-24T10:24:20.000Z</time>
      </trkpt>
      <trkpt lat="47.15222" lon="-1.55507">
        <ele>70</ele>
        <time>2020-05-24T10:24:22.000Z</time>
      </trkpt>
      <trkpt lat="47.15215" lon="-1.5549">
        <ele>70</ele>
        <time>2020-05-24T10:24:24.000Z</time>
      </trkpt>
      <trkpt lat="47.15206" lon="-1.55477">
        <ele>71</ele>
        <time>2020-05-24T10:24:26.000Z</time>
      </trkpt>
      <trkpt lat="47.15194" lon="-1.55468">
        <ele>70</ele>
        <time>2020-05-24T10:24:28.000Z</time>
      </trkpt>
      <trkpt lat="47.1518" lon="-1.55465">
        <ele>70</ele>
        <time>2020-05-24T10:24:30.000Z</time>
      </trkpt>
      <trkpt lat="47.15167" lon="-1.55465">
        <ele>70</ele>
        <time>2020-05-24T10:24:32.000Z</time>
      </trkpt>
      <trkpt lat="47.15154" lon="-1.55467">
        <ele>71</ele>
        <time>2020-05-24T10:24:34.000Z</time>
      </trkpt>
      <trkpt lat="47.15141" lon="-1.55471">
        <ele>71</ele>
        <time>2020-05-24T10:24:36.000Z</time>
      </trkpt>
      <trkpt lat="47.15128" lon="-1.55475">
        <ele>71</ele>
        <time>2020-05-24T10:24:38.000Z</time>
      </trkpt>
      <trkpt lat="47.15115" lon="-1.55479">
        <ele>71</ele>
        <time>2020-05-24T10:24:40.000Z</time>
      </trkpt>
      <trkpt lat="47.15102" lon="-1.55482">
        <ele>71</ele>
        <time>2020-05-24T10:24:42.000Z</time>
      </trkpt>
      <trkpt lat="47.15089" lon="-1.55486">
        <ele>71</ele>
        <time>2020-05-24T10:24:44.000Z</time>
      </trkpt>
      <trkpt lat="47.15076" lon="-1.5549">
        <ele>71</ele>
        <time>2020-05-24T10:24:46.000Z</time>
      </trkpt>
      <trkpt lat="47.15062" lon="-1.55493">
        <ele>71</ele>
        <time>2020-05-24T10:24:48.000Z</time>
      </trkpt>
      <trkpt lat="47.15048" lon="-1.55497">
        <ele>70</ele>
        <time>2020-05-24T10:24:50.000Z</time>
      </trkpt>
      <trkpt lat="47.15035" lon="-1.55501">
        <ele>70</ele>
        <time>2020-05-24T10:24:52.000Z</time>
      </trkpt>
      <trkpt lat="47.15021" lon="-1.55504">
        <ele>70</ele>
        <time>2020-05-24T10:24:54.000Z</time>
      </trkpt>
      <trkpt lat="47.15007" lon="-1.55508">
        <ele>70</ele>
        <time>2020-05-24T10:24:56.000Z</time>
      </trkpt>
      <trkpt lat="47.14993" lon="-1.55512">
        <ele>70</ele>
        <time>2020-05-24T10:24:58.000Z</time>
      </trkpt>
      <trkpt lat="47.14979" lon="-1.55515">
        <ele>70</ele>
        <time>2020-05-24T10:25:00.000Z</time>
      </trkpt>
      <trkpt lat="47.14965" lon="-1.55519">
        <ele>70</ele>
        <time>2020-05-24T10:25:02.000Z</time>
      </trkpt>
      <trkpt lat="47.14952" lon="-1.55523">
        <ele>70</ele>
        <time>2020-05-24T10:25:04.000Z</time>
      </trkpt>
      <trkpt lat="47.14939" lon="-1.55527">
        <ele>70</ele>
        <time>2020-05-24T10:25:06.000Z</time>
      </trkpt>
      <trkpt lat="47.14925" lon="-1.5553">
        <ele>70</ele>
        <time>2020-05-24T10:25:08.000Z</time>
      </trkpt>
      <trkpt lat="47.14911" lon="-1.55534">
        <ele>69</ele>
        <time>2020-05-24T10:25:10.000Z</time>
      </trkpt>
      <trkpt lat="47.14898" lon="-1.55537">
        <ele>69</ele>
        <time>2020-05-24T10:25:12.000Z</time>
      </trkpt>
      <trkpt lat="47.14884" lon="-1.55538">
        <ele>70</ele>
        <time>2020-05-24T10:25:14.000Z</time>
      </trkpt>
      <trkpt lat="47.14871" lon="-1.55535">
        <ele>70</ele>
        <time>2020-05-24T10:25:16.000Z</time>
      </trkpt>
      <trkpt lat="47.14859" lon="-1.55529">
        <ele>70</ele>
        <time>2020-05-24T10:25:18.000Z</time>
      </trkpt>
      <trkpt lat="47.14847" lon="-1.55519">
        <ele>70</ele>
        <time>2020-05-24T10:25:20.000Z</time>
      </trkpt>
      <trkpt lat="47.14837" lon="-1.55507">
        <ele>70</ele>
        <time>2020-05-24T10:25:22.000Z</time>
      </trkpt>
      <trkpt lat="47.14827" lon="-1.55494">
        <ele>70</ele>
        <time>2020-05-24T10:25:24.000Z</time>
      </trkpt>
      <trkpt lat="47.14816" lon="-1.55481">
        <ele>70</ele>
        <time>2020-05-24T10:25:26.000Z</time>
      </trkpt>
      <trkpt lat="47.14805" lon="-1.55469">
        <ele>70</ele>
        <time>2020-05-24T10:25:28.000Z</time>
      </trkpt>
      <trkpt lat="47.14795" lon="-1.55458">
        <ele>69</ele>
        <time>2020-05-24T10:25:30.000Z</time>
      </trkpt>
      <trkpt lat="47.14784" lon="-1.55446">
        <ele>69</ele>
        <time>2020-05-24T10:25:32.000Z</time>
      </trkpt>
      <trkpt lat="47.14773" lon="-1.55436">
        <ele>70</ele>
        <time>2020-05-24T10:25:34.000Z</time>
      </trkpt>
      <trkpt lat="47.14762" lon="-1.55426">
        <ele>69</ele>
        <time>2020-05-24T10:25:36.000Z</time>
      </trkpt>
      <trkpt lat="47.1475" lon="-1.55416">
        <ele>69</ele>
        <time>2020-05-24T10:25:38.000Z</time>
      </trkpt>
      <trkpt lat="47.14739" lon="-1.55406">
        <ele>69</ele>
        <time>2020-05-24T10:25:40.000Z</time>
      </trkpt>
      <trkpt lat="47.14727" lon="-1.55395">
        <ele>69</ele>
        <time>2020-05-24T10:25:42.000Z</time>
      </trkpt>
      <trkpt lat="47.14715" lon="-1.55384">
        <ele>69</ele>
        <time>2020-05-24T10:25:44.000Z</time>
      </trkpt>
      <trkpt lat="47.14704" lon="-1.55372">
        <ele>68</ele>
        <time>2020-05-24T10:25:46.000Z</time>
      </trkpt>
      <trkpt lat="47.14693" lon="-1.55359">
        <ele>68</ele>
        <time>2020-05-24T10:25:48.000Z</time>
      </trkpt>
      <trkpt lat="47.14683" lon="-1.55346">
        <ele>68</ele>
        <time>2020-05-24T10:25:50.000Z</time>
      </trkpt>
      <trkpt lat="47.14673" lon="-1.55333">
        <ele>67</ele>
        <time>2020-05-24T10:25:52.000Z</time>
      </trkpt>
      <trkpt lat="47.14663" lon="-1.55319">
        <ele>67</ele>
        <time>2020-05-24T10:25:54.000Z</time>
      </trkpt>
      <trkpt lat="47.14653" lon="-1.55306">
        <ele>67</ele>
        <time>2020-05-24T10:25:56.000Z</time>
      </trkpt>
      <trkpt lat="47.14644" lon="-1.55292">
        <ele>67</ele>
        <time>2020-05-24T10:25:58.000Z</time>
      </trkpt>
      <trkpt lat="47.14634" lon="-1.55278">
        <ele>67</ele>
        <time>2020-05-24T10:26:00.000Z</time>
      </trkpt>
      <trkpt lat="47.14624" lon="-1.55264">
        <ele>67</ele>
        <time>2020-05-24T10:26:02.000Z</time>
      </trkpt>
      <trkpt lat="47.14614" lon="-1.55249">
        <ele>67</ele>
        <time>2020-05-24T10:26:04.000Z</time>
      </trkpt>
      <trkpt lat="47.14605" lon="-1.55233">
        <ele>67</ele>
        <time>2020-05-24T10:26:06.000Z</time>
      </trkpt>
      <trkpt lat="47.14597" lon="-1.55217">
        <ele>66</ele>
        <time>2020-05-24T10:26:08.000Z</time>
      </trkpt>
      <trkpt lat="47.14588" lon="-1.55201">
        <ele>66</ele>
        <time>2020-05-24T10:26:10.000Z</time>
      </trkpt>
      <trkpt lat="47.1458" lon="-1.55185">
        <ele>65</ele>
        <time>2020-05-24T10:26:12.000Z</time>
      </trkpt>
      <trkpt lat="47.14571" lon="-1.55169">
        <ele>65</ele>
        <time>2020-05-24T10:26:14.000Z</time>
      </trkpt>
      <trkpt lat="47.14563" lon="-1.55153">
        <ele>64</ele>
        <time>2020-05-24T10:26:16.000Z</time>
      </trkpt>
      <trkpt lat="47.14553" lon="-1.55137">
        <ele>64</ele>
        <time>2020-05-24T10:26:18.000Z</time>
      </trkpt>
      <trkpt lat="47.14544" lon="-1.5512">
        <ele>63</ele>
        <time>2020-05-24T10:26:20.000Z</time>
      </trkpt>
      <trkpt lat="47.14535" lon="-1.55103">
        <ele>63</ele>
        <time>2020-05-24T10:26:22.000Z</time>
      </trkpt>
      <trkpt lat="47.14527" lon="-1.55085">
        <ele>62</ele>
        <time>2020-05-24T10:26:24.000Z</time>
      </trkpt>
      <trkpt lat="47.14519" lon="-1.55066">
        <ele>62</ele>
        <time>2020-05-24T10:26:26.000Z</time>
      </trkpt>
      <trkpt lat="47.14511" lon="-1.55048">
        <ele>62</ele>
        <time>2020-05-24T10:26:28.000Z</time>
      </trkpt>
      <trkpt lat="47.14504" lon="-1.5503">
        <ele>61</ele>
        <time>2020-05-24T10:26:30.000Z</time>
      </trkpt>
      <trkpt lat="47.14495" lon="-1.55013">
        <ele>61</ele>
        <time>2020-05-24T10:26:32.000Z</time>
      </trkpt>
      <trkpt lat="47.14487" lon="-1.54998">
        <ele>61</ele>
        <time>2020-05-24T10:26:34.000Z</time>
      </trkpt>
      <trkpt lat="47.14477" lon="-1.54986">
        <ele>61</ele>
        <time>2020-05-24T10:26:36.000Z</time>
      </trkpt>
      <trkpt lat="47.14467" lon="-1.54975">
        <ele>61</ele>
        <time>2020-05-24T10:26:38.000Z</time>
      </trkpt>
      <trkpt lat="47.14456" lon="-1.54964">
        <ele>62</ele>
        <time>2020-05-24T10:26:40.000Z</time>
      </trkpt>
      <trkpt lat="47.14444" lon="-1.54952">
        <ele>62</ele>
        <time>2020-05-24T10:26:42.000Z</time>
      </trkpt>
      <trkpt lat="47.14434" lon="-1.54942">
        <ele>63</ele>
        <time>2020-05-24T10:26:44.000Z</time>
      </trkpt>
      <trkpt lat="47.14423" lon="-1.5493">
        <ele>63</ele>
        <time>2020-05-24T10:26:46.000Z</time>
      </trkpt>
      <trkpt lat="47.14411" lon="-1.54919">
        <ele>63</ele>
        <time>2020-05-24T10:26:48.000Z</time>
      </trkpt>
      <trkpt lat="47.144" lon="-1.54908">
        <ele>64</ele>
        <time>2020-05-24T10:26:50.000Z</time>
      </trkpt>
      <trkpt lat="47.14389" lon="-1.54897">
        <ele>64</ele>
        <time>2020-05-24T10:26:52.000Z</time>
      </trkpt>
      <trkpt lat="47.14378" lon="-1.54886">
        <ele>64</ele>
        <time>2020-05-24T10:26:54.000Z</time>
      </trkpt>
      <trkpt lat="47.14367" lon="-1.54875">
        <ele>64</ele>
        <time>2020-05-24T10:26:56.000Z</time>
      </trkpt>
      <trkpt lat="47.14356" lon="-1.54864">
        <ele>64</ele>
        <time>2020-05-24T10:26:58.000Z</time>
      </trkpt>
      <trkpt lat="47.14345" lon="-1.54854">
        <ele>63</ele>
        <time>2020-05-24T10:27:00.000Z</time>
      </trkpt>
      <trkpt lat="47.14333" lon="-1.54843">
        <ele>63</ele>
        <time>2020-05-24T10:27:02.000Z</time>
      </trkpt>
      <trkpt lat="47.14321" lon="-1.54832">
        <ele>63</ele>
        <time>2020-05-24T10:27:04.000Z</time>
      </trkpt>
      <trkpt lat="47.14309" lon="-1.54822">
        <ele>63</ele>
        <time>2020-05-24T10:27:06.000Z</time>
      </trkpt>
      <trkpt lat="47.14297" lon="-1.54814">
        <ele>64</ele>
        <time>2020-05-24T10:27:08.000Z</time>
      </trkpt>
      <trkpt lat="47.14285" lon="-1.54805">
        <ele>64</ele>
        <time>2020-05-24T10:27:10.000Z</time>
      </trkpt>
      <trkpt lat="47.14272" lon="-1.54796">
        <ele>64</ele>
        <time>2020-05-24T10:27:12.000Z</time>
      </trkpt>
      <trkpt lat="47.14259" lon="-1.54787">
        <ele>63</ele>
        <time>2020-05-24T10:27:14.000Z</time>
      </trkpt>
      <trkpt lat="47.14248" lon="-1.54777">
        <ele>63</ele>
        <time>2020-05-24T10:27:16.000Z</time>
      </trkpt>
      <trkpt lat="47.14236" lon="-1.54769">
        <ele>64</ele>
        <time>2020-05-24T10:27:18.000Z</time>
      </trkpt>
      <trkpt lat="47.14226" lon="-1.54761">
        <ele>64</ele>
        <time>2020-05-24T10:27:20.000Z</time>
      </trkpt>
      <trkpt lat="47.14216" lon="-1.54753">
        <ele>64</ele>
        <time>2020-05-24T10:27:22.000Z</time>
      </trkpt>
      <trkpt lat="47.14207" lon="-1.54747">
        <ele>65</ele>
        <time>2020-05-24T10:27:24.000Z</time>
      </trkpt>
      <trkpt lat="47.14198" lon="-1.54741">
        <ele>65</ele>
        <time>2020-05-24T10:27:26.000Z</time>
      </trkpt>
      <trkpt lat="47.14188" lon="-1.54729">
        <ele>66</ele>
        <time>2020-05-24T10:27:29.000Z</time>
      </trkpt>
      <trkpt lat="47.14187" lon="-1.54714">
        <ele>66</ele>
        <time>2020-05-24T10:27:31.000Z</time>
      </trkpt>
      <trkpt lat="47.14191" lon="-1.54697">
        <ele>66</ele>
        <time>2020-05-24T10:27:33.000Z</time>
      </trkpt>
      <trkpt lat="47.14195" lon="-1.54681">
        <ele>66</ele>
        <time>2020-05-24T10:27:35.000Z</time>
      </trkpt>
      <trkpt lat="47.14194" lon="-1.54664">
        <ele>66</ele>
        <time>2020-05-24T10:27:37.000Z</time>
      </trkpt>
      <trkpt lat="47.14187" lon="-1.5465">
        <ele>66</ele>
        <time>2020-05-24T10:27:39.000Z</time>
      </trkpt>
      <trkpt lat="47.14176" lon="-1.54639">
        <ele>66</ele>
        <time>2020-05-24T10:27:41.000Z</time>
      </trkpt>
      <trkpt lat="47.14166" lon="-1.54627">
        <ele>65</ele>
        <time>2020-05-24T10:27:43.000Z</time>
      </trkpt>
      <trkpt lat="47.14156" lon="-1.54615">
        <ele>65</ele>
        <time>2020-05-24T10:27:45.000Z</time>
      </trkpt>
      <trkpt lat="47.14147" lon="-1.54602">
        <ele>65</ele>
        <time>2020-05-24T10:27:47.000Z</time>
      </trkpt>
      <trkpt lat="47.14136" lon="-1.54591">
        <ele>65</ele>
        <time>2020-05-24T10:27:49.000Z</time>
      </trkpt>
      <trkpt lat="47.14126" lon="-1.54579">
        <ele>66</ele>
        <time>2020-05-24T10:27:51.000Z</time>
      </trkpt>
      <trkpt lat="47.14116" lon="-1.54567">
        <ele>66</ele>
        <time>2020-05-24T10:27:53.000Z</time>
      </trkpt>
      <trkpt lat="47.14106" lon="-1.54556">
        <ele>66</ele>
        <time>2020-05-24T10:27:55.000Z</time>
      </trkpt>
      <trkpt lat="47.14096" lon="-1.54545">
        <ele>66</ele>
        <time>2020-05-24T10:27:57.000Z</time>
      </trkpt>
      <trkpt lat="47.14085" lon="-1.54534">
        <ele>66</ele>
        <time>2020-05-24T10:27:59.000Z</time>
      </trkpt>
      <trkpt lat="47.14074" lon="-1.54522">
        <ele>67</ele>
        <time>2020-05-24T10:28:01.000Z</time>
      </trkpt>
      <trkpt lat="47.14064" lon="-1.54511">
        <ele>67</ele>
        <time>2020-05-24T10:28:03.000Z</time>
      </trkpt>
      <trkpt lat="47.14054" lon="-1.545">
        <ele>67</ele>
        <time>2020-05-24T10:28:05.000Z</time>
      </trkpt>
      <trkpt lat="47.14044" lon="-1.5449">
        <ele>67</ele>
        <time>2020-05-24T10:28:07.000Z</time>
      </trkpt>
      <trkpt lat="47.14033" lon="-1.54481">
        <ele>67</ele>
        <time>2020-05-24T10:28:09.000Z</time>
      </trkpt>
      <trkpt lat="47.14022" lon="-1.54472">
        <ele>67</ele>
        <time>2020-05-24T10:28:11.000Z</time>
      </trkpt>
      <trkpt lat="47.14011" lon="-1.54462">
        <ele>68</ele>
        <time>2020-05-24T10:28:13.000Z</time>
      </trkpt>
      <trkpt lat="47.14" lon="-1.54453">
        <ele>69</ele>
        <time>2020-05-24T10:28:15.000Z</time>
      </trkpt>
      <trkpt lat="47.13989" lon="-1.54444">
        <ele>69</ele>
        <time>2020-05-24T10:28:17.000Z</time>
      </trkpt>
      <trkpt lat="47.13978" lon="-1.54435">
        <ele>69</ele>
        <time>2020-05-24T10:28:19.000Z</time>
      </trkpt>
      <trkpt lat="47.13967" lon="-1.54426">
        <ele>69</ele>
        <time>2020-05-24T10:28:21.000Z</time>
      </trkpt>
      <trkpt lat="47.13955" lon="-1.54417">
        <ele>69</ele>
        <time>2020-05-24T10:28:23.000Z</time>
      </trkpt>
      <trkpt lat="47.13944" lon="-1.54407">
        <ele>70</ele>
        <time>2020-05-24T10:28:25.000Z</time>
      </trkpt>
      <trkpt lat="47.13933" lon="-1.54398">
        <ele>70</ele>
        <time>2020-05-24T10:28:27.000Z</time>
      </trkpt>
      <trkpt lat="47.13923" lon="-1.54389">
        <ele>71</ele>
        <time>2020-05-24T10:28:29.000Z</time>
      </trkpt>
      <trkpt lat="47.13912" lon="-1.5438">
        <ele>71</ele>
        <time>2020-05-24T10:28:31.000Z</time>
      </trkpt>
      <trkpt lat="47.13901" lon="-1.54371">
        <ele>71</ele>
        <time>2020-05-24T10:28:33.000Z</time>
      </trkpt>
      <trkpt lat="47.1389" lon="-1.54363">
        <ele>71</ele>
        <time>2020-05-24T10:28:35.000Z</time>
      </trkpt>
      <trkpt lat="47.13879" lon="-1.54354">
        <ele>71</ele>
        <time>2020-05-24T10:28:37.000Z</time>
      </trkpt>
      <trkpt lat="47.13868" lon="-1.54345">
        <ele>71</ele>
        <time>2020-05-24T10:28:39.000Z</time>
      </trkpt>
      <trkpt lat="47.13857" lon="-1.54335">
        <ele>71</ele>
        <time>2020-05-24T10:28:41.000Z</time>
      </trkpt>
      <trkpt lat="47.13846" lon="-1.54327">
        <ele>72</ele>
        <time>2020-05-24T10:28:43.000Z</time>
      </trkpt>
      <trkpt lat="47.13834" lon="-1.54319">
        <ele>72</ele>
        <time>2020-05-24T10:28:45.000Z</time>
      </trkpt>
      <trkpt lat="47.13822" lon="-1.54311">
        <ele>72</ele>
        <time>2020-05-24T10:28:47.000Z</time>
      </trkpt>
      <trkpt lat="47.1381" lon="-1.54305">
        <ele>72</ele>
        <time>2020-05-24T10:28:49.000Z</time>
      </trkpt>
      <trkpt lat="47.13798" lon="-1.543">
        <ele>72</ele>
        <time>2020-05-24T10:28:51.000Z</time>
      </trkpt>
      <trkpt lat="47.13786" lon="-1.54295">
        <ele>73</ele>
        <time>2020-05-24T10:28:53.000Z</time>
      </trkpt>
      <trkpt lat="47.13773" lon="-1.54291">
        <ele>73</ele>
        <time>2020-05-24T10:28:55.000Z</time>
      </trkpt>
      <trkpt lat="47.13761" lon="-1.54286">
        <ele>73</ele>
        <time>2020-05-24T10:28:57.000Z</time>
      </trkpt>
      <trkpt lat="47.13749" lon="-1.54281">
        <ele>74</ele>
        <time>2020-05-24T10:28:59.000Z</time>
      </trkpt>
      <trkpt lat="47.13737" lon="-1.54275">
        <ele>73</ele>
        <time>2020-05-24T10:29:01.000Z</time>
      </trkpt>
      <trkpt lat="47.13725" lon="-1.54269">
        <ele>72</ele>
        <time>2020-05-24T10:29:03.000Z</time>
      </trkpt>
      <trkpt lat="47.13712" lon="-1.54262">
        <ele>72</ele>
        <time>2020-05-24T10:29:05.000Z</time>
      </trkpt>
      <trkpt lat="47.13699" lon="-1.54255">
        <ele>71</ele>
        <time>2020-05-24T10:29:07.000Z</time>
      </trkpt>
      <trkpt lat="47.13686" lon="-1.54248">
        <ele>71</ele>
        <time>2020-05-24T10:29:09.000Z</time>
      </trkpt>
      <trkpt lat="47.13672" lon="-1.54241">
        <ele>71</ele>
        <time>2020-05-24T10:29:11.000Z</time>
      </trkpt>
      <trkpt lat="47.1366" lon="-1.54235">
        <ele>72</ele>
        <time>2020-05-24T10:29:13.000Z</time>
      </trkpt>
      <trkpt lat="47.13647" lon="-1.54228">
        <ele>72</ele>
        <time>2020-05-24T10:29:15.000Z</time>
      </trkpt>
      <trkpt lat="47.13635" lon="-1.54221">
        <ele>71</ele>
        <time>2020-05-24T10:29:17.000Z</time>
      </trkpt>
      <trkpt lat="47.13622" lon="-1.54214">
        <ele>72</ele>
        <time>2020-05-24T10:29:19.000Z</time>
      </trkpt>
      <trkpt lat="47.1361" lon="-1.54207">
        <ele>72</ele>
        <time>2020-05-24T10:29:21.000Z</time>
      </trkpt>
      <trkpt lat="47.13598" lon="-1.54198">
        <ele>73</ele>
        <time>2020-05-24T10:29:23.000Z</time>
      </trkpt>
      <trkpt lat="47.13586" lon="-1.54189">
        <ele>72</ele>
        <time>2020-05-24T10:29:25.000Z</time>
      </trkpt>
      <trkpt lat="47.13575" lon="-1.54176">
        <ele>71</ele>
        <time>2020-05-24T10:29:27.000Z</time>
      </trkpt>
      <trkpt lat="47.13565" lon="-1.54161">
        <ele>71</ele>
        <time>2020-05-24T10:29:29.000Z</time>
      </trkpt>
      <trkpt lat="47.13555" lon="-1.54146">
        <ele>70</ele>
        <time>2020-05-24T10:29:31.000Z</time>
      </trkpt>
      <trkpt lat="47.13545" lon="-1.5413">
        <ele>70</ele>
        <time>2020-05-24T10:29:33.000Z</time>
      </trkpt>
      <trkpt lat="47.13535" lon="-1.54115">
        <ele>70</ele>
        <time>2020-05-24T10:29:35.000Z</time>
      </trkpt>
      <trkpt lat="47.13525" lon="-1.54101">
        <ele>70</ele>
        <time>2020-05-24T10:29:37.000Z</time>
      </trkpt>
      <trkpt lat="47.13516" lon="-1.54086">
        <ele>71</ele>
        <time>2020-05-24T10:29:39.000Z</time>
      </trkpt>
      <trkpt lat="47.13505" lon="-1.54071">
        <ele>71</ele>
        <time>2020-05-24T10:29:41.000Z</time>
      </trkpt>
      <trkpt lat="47.13495" lon="-1.54057">
        <ele>71</ele>
        <time>2020-05-24T10:29:43.000Z</time>
      </trkpt>
      <trkpt lat="47.13486" lon="-1.54043">
        <ele>71</ele>
        <time>2020-05-24T10:29:45.000Z</time>
      </trkpt>
      <trkpt lat="47.13476" lon="-1.54027">
        <ele>70</ele>
        <time>2020-05-24T10:29:47.000Z</time>
      </trkpt>
      <trkpt lat="47.13467" lon="-1.54012">
        <ele>70</ele>
        <time>2020-05-24T10:29:49.000Z</time>
      </trkpt>
      <trkpt lat="47.13459" lon="-1.53995">
        <ele>70</ele>
        <time>2020-05-24T10:29:51.000Z</time>
      </trkpt>
      <trkpt lat="47.1345" lon="-1.53978">
        <ele>69</ele>
        <time>2020-05-24T10:29:53.000Z</time>
      </trkpt>
      <trkpt lat="47.13441" lon="-1.53962">
        <ele>69</ele>
        <time>2020-05-24T10:29:55.000Z</time>
      </trkpt>
      <trkpt lat="47.13433" lon="-1.53945">
        <ele>69</ele>
        <time>2020-05-24T10:29:57.000Z</time>
      </trkpt>
      <trkpt lat="47.13423" lon="-1.53928">
        <ele>68</ele>
        <time>2020-05-24T10:29:59.000Z</time>
      </trkpt>
      <trkpt lat="47.13415" lon="-1.53911">
        <ele>68</ele>
        <time>2020-05-24T10:30:01.000Z</time>
      </trkpt>
      <trkpt lat="47.13405" lon="-1.53894">
        <ele>68</ele>
        <time>2020-05-24T10:30:03.000Z</time>
      </trkpt>
      <trkpt lat="47.13396" lon="-1.53877">
        <ele>68</ele>
        <time>2020-05-24T10:30:05.000Z</time>
      </trkpt>
      <trkpt lat="47.13387" lon="-1.5386">
        <ele>68</ele>
        <time>2020-05-24T10:30:07.000Z</time>
      </trkpt>
      <trkpt lat="47.13379" lon="-1.53843">
        <ele>68</ele>
        <time>2020-05-24T10:30:09.000Z</time>
      </trkpt>
      <trkpt lat="47.1337" lon="-1.53827">
        <ele>68</ele>
        <time>2020-05-24T10:30:11.000Z</time>
      </trkpt>
      <trkpt lat="47.13362" lon="-1.53812">
        <ele>68</ele>
        <time>2020-05-24T10:30:13.000Z</time>
      </trkpt>
      <trkpt lat="47.13354" lon="-1.53797">
        <ele>68</ele>
        <time>2020-05-24T10:30:15.000Z</time>
      </trkpt>
      <trkpt lat="47.13346" lon="-1.53782">
        <ele>69</ele>
        <time>2020-05-24T10:30:17.000Z</time>
      </trkpt>
      <trkpt lat="47.13338" lon="-1.53767">
        <ele>69</ele>
        <time>2020-05-24T10:30:19.000Z</time>
      </trkpt>
      <trkpt lat="47.13331" lon="-1.53752">
        <ele>69</ele>
        <time>2020-05-24T10:30:21.000Z</time>
      </trkpt>
      <trkpt lat="47.13323" lon="-1.53737">
        <ele>69</ele>
        <time>2020-05-24T10:30:23.000Z</time>
      </trkpt>
      <trkpt lat="47.13317" lon="-1.53722">
        <ele>69</ele>
        <time>2020-05-24T10:30:25.000Z</time>
      </trkpt>
      <trkpt lat="47.1331" lon="-1.53705">
        <ele>70</ele>
        <time>2020-05-24T10:30:27.000Z</time>
      </trkpt>
      <trkpt lat="47.13304" lon="-1.53689">
        <ele>69</ele>
        <time>2020-05-24T10:30:29.000Z</time>
      </trkpt>
      <trkpt lat="47.13298" lon="-1.53672">
        <ele>69</ele>
        <time>2020-05-24T10:30:31.000Z</time>
      </trkpt>
      <trkpt lat="47.13292" lon="-1.53656">
        <ele>69</ele>
        <time>2020-05-24T10:30:33.000Z</time>
      </trkpt>
      <trkpt lat="47.13287" lon="-1.5364">
        <ele>69</ele>
        <time>2020-05-24T10:30:35.000Z</time>
      </trkpt>
      <trkpt lat="47.13282" lon="-1.53623">
        <ele>69</ele>
        <time>2020-05-24T10:30:37.000Z</time>
      </trkpt>
      <trkpt lat="47.13276" lon="-1.53606">
        <ele>70</ele>
        <time>2020-05-24T10:30:39.000Z</time>
      </trkpt>
      <trkpt lat="47.13271" lon="-1.53588">
        <ele>70</ele>
        <time>2020-05-24T10:30:41.000Z</time>
      </trkpt>
      <trkpt lat="47.13265" lon="-1.53571">
        <ele>70</ele>
        <time>2020-05-24T10:30:43.000Z</time>
      </trkpt>
      <trkpt lat="47.13259" lon="-1.53554">
        <ele>70</ele>
        <time>2020-05-24T10:30:45.000Z</time>
      </trkpt>
      <trkpt lat="47.13253" lon="-1.53537">
        <ele>70</ele>
        <time>2020-05-24T10:30:47.000Z</time>
      </trkpt>
      <trkpt lat="47.13248" lon="-1.5352">
        <ele>70</ele>
        <time>2020-05-24T10:30:49.000Z</time>
      </trkpt>
      <trkpt lat="47.13242" lon="-1.53503">
        <ele>70</ele>
        <time>2020-05-24T10:30:51.000Z</time>
      </trkpt>
      <trkpt lat="47.13237" lon="-1.53487">
        <ele>70</ele>
        <time>2020-05-24T10:30:53.000Z</time>
      </trkpt>
      <trkpt lat="47.13231" lon="-1.5347">
        <ele>70</ele>
        <time>2020-05-24T10:30:55.000Z</time>
      </trkpt>
      <trkpt lat="47.13226" lon="-1.53453">
        <ele>70</ele>
        <time>2020-05-24T10:30:57.000Z</time>
      </trkpt>
      <trkpt lat="47.1322" lon="-1.53435">
        <ele>70</ele>
        <time>2020-05-24T10:30:59.000Z</time>
      </trkpt>
      <trkpt lat="47.13215" lon="-1.53418">
        <ele>70</ele>
        <time>2020-05-24T10:31:01.000Z</time>
      </trkpt>
      <trkpt lat="47.13209" lon="-1.534">
        <ele>70</ele>
        <time>2020-05-24T10:31:03.000Z</time>
      </trkpt>
      <trkpt lat="47.13203" lon="-1.53383">
        <ele>71</ele>
        <time>2020-05-24T10:31:05.000Z</time>
      </trkpt>
      <trkpt lat="47.13197" lon="-1.53366">
        <ele>71</ele>
        <time>2020-05-24T10:31:07.000Z</time>
      </trkpt>
      <trkpt lat="47.13192" lon="-1.53348">
        <ele>71</ele>
        <time>2020-05-24T10:31:09.000Z</time>
      </trkpt>
      <trkpt lat="47.13186" lon="-1.53331">
        <ele>71</ele>
        <time>2020-05-24T10:31:11.000Z</time>
      </trkpt>
      <trkpt lat="47.13181" lon="-1.53314">
        <ele>71</ele>
        <time>2020-05-24T10:31:13.000Z</time>
      </trkpt>
      <trkpt lat="47.13176" lon="-1.53297">
        <ele>71</ele>
        <time>2020-05-24T10:31:15.000Z</time>
      </trkpt>
      <trkpt lat="47.13171" lon="-1.53281">
        <ele>71</ele>
        <time>2020-05-24T10:31:17.000Z</time>
      </trkpt>
      <trkpt lat="47.13167" lon="-1.53267">
        <ele>71</ele>
        <time>2020-05-24T10:31:19.000Z</time>
      </trkpt>
      <trkpt lat="47.13162" lon="-1.53253">
        <ele>71</ele>
        <time>2020-05-24T10:31:21.000Z</time>
      </trkpt>
      <trkpt lat="47.13158" lon="-1.5324">
        <ele>71</ele>
        <time>2020-05-24T10:31:23.000Z</time>
      </trkpt>
      <trkpt lat="47.13156" lon="-1.53223">
        <ele>72</ele>
        <time>2020-05-24T10:31:26.000Z</time>
      </trkpt>
      <trkpt lat="47.13163" lon="-1.53214">
        <ele>72</ele>
        <time>2020-05-24T10:31:28.000Z</time>
      </trkpt>
      <trkpt lat="47.13174" lon="-1.5321">
        <ele>72</ele>
        <time>2020-05-24T10:31:30.000Z</time>
      </trkpt>
      <trkpt lat="47.13185" lon="-1.53206">
        <ele>72</ele>
        <time>2020-05-24T10:31:32.000Z</time>
      </trkpt>
      <trkpt lat="47.13196" lon="-1.53202">
        <ele>72</ele>
        <time>2020-05-24T10:31:34.000Z</time>
      </trkpt>
      <trkpt lat="47.13207" lon="-1.53197">
        <ele>73</ele>
        <time>2020-05-24T10:31:36.000Z</time>
      </trkpt>
      <trkpt lat="47.13218" lon="-1.53193">
        <ele>73</ele>
        <time>2020-05-24T10:31:38.000Z</time>
      </trkpt>
      <trkpt lat="47.13229" lon="-1.53189">
        <ele>73</ele>
        <time>2020-05-24T10:31:40.000Z</time>
      </trkpt>
      <trkpt lat="47.13241" lon="-1.53184">
        <ele>73</ele>
        <time>2020-05-24T10:31:42.000Z</time>
      </trkpt>
      <trkpt lat="47.13251" lon="-1.53179">
        <ele>73</ele>
        <time>2020-05-24T10:31:44.000Z</time>
      </trkpt>
      <trkpt lat="47.13263" lon="-1.53174">
        <ele>74</ele>
        <time>2020-05-24T10:31:46.000Z</time>
      </trkpt>
      <trkpt lat="47.13274" lon="-1.53169">
        <ele>74</ele>
        <time>2020-05-24T10:31:48.000Z</time>
      </trkpt>
      <trkpt lat="47.13285" lon="-1.53165">
        <ele>74</ele>
        <time>2020-05-24T10:31:50.000Z</time>
      </trkpt>
      <trkpt lat="47.13297" lon="-1.53161">
        <ele>74</ele>
        <time>2020-05-24T10:31:52.000Z</time>
      </trkpt>
      <trkpt lat="47.13309" lon="-1.53157">
        <ele>74</ele>
        <time>2020-05-24T10:31:54.000Z</time>
      </trkpt>
      <trkpt lat="47.1332" lon="-1.53152">
        <ele>75</ele>
        <time>2020-05-24T10:31:56.000Z</time>
      </trkpt>
      <trkpt lat="47.13332" lon="-1.53149">
        <ele>75</ele>
        <time>2020-05-24T10:31:58.000Z</time>
      </trkpt>
      <trkpt lat="47.13343" lon="-1.53145">
        <ele>75</ele>
        <time>2020-05-24T10:32:00.000Z</time>
      </trkpt>
      <trkpt lat="47.13355" lon="-1.53143">
        <ele>75</ele>
        <time>2020-05-24T10:32:02.000Z</time>
      </trkpt>
      <trkpt lat="47.13366" lon="-1.53141">
        <ele>75</ele>
        <time>2020-05-24T10:32:04.000Z</time>
      </trkpt>
      <trkpt lat="47.13377" lon="-1.53139">
        <ele>75</ele>
        <time>2020-05-24T10:32:06.000Z</time>
      </trkpt>
      <trkpt lat="47.13389" lon="-1.53139">
        <ele>75</ele>
        <time>2020-05-24T10:32:08.000Z</time>
      </trkpt>
      <trkpt lat="47.13399" lon="-1.53139">
        <ele>75</ele>
        <time>2020-05-24T10:32:10.000Z</time>
      </trkpt>
      <trkpt lat="47.13411" lon="-1.53139">
        <ele>76</ele>
        <time>2020-05-24T10:32:12.000Z</time>
      </trkpt>
      <trkpt lat="47.13422" lon="-1.53138">
        <ele>76</ele>
        <time>2020-05-24T10:32:14.000Z</time>
      </trkpt>
      <trkpt lat="47.13431" lon="-1.53131">
        <ele>76</ele>
        <time>2020-05-24T10:32:16.000Z</time>
      </trkpt>
      <trkpt lat="47.13437" lon="-1.53115">
        <ele>76</ele>
        <time>2020-05-24T10:32:18.000Z</time>
      </trkpt>
      <trkpt lat="47.13445" lon="-1.531">
        <ele>76</ele>
        <time>2020-05-24T10:32:20.000Z</time>
      </trkpt>
      <trkpt lat="47.13451" lon="-1.53085">
        <ele>76</ele>
        <time>2020-05-24T10:32:22.000Z</time>
      </trkpt>
      <trkpt lat="47.13457" lon="-1.5307">
        <ele>76</ele>
        <time>2020-05-24T10:32:24.000Z</time>
      </trkpt>
      <trkpt lat="47.13464" lon="-1.53056">
        <ele>76</ele>
        <time>2020-05-24T10:32:26.000Z</time>
      </trkpt>
      <trkpt lat="47.1347" lon="-1.53041">
        <ele>76</ele>
        <time>2020-05-24T10:32:28.000Z</time>
      </trkpt>
      <trkpt lat="47.13477" lon="-1.53027">
        <ele>76</ele>
        <time>2020-05-24T10:32:30.000Z</time>
      </trkpt>
      <trkpt lat="47.13483" lon="-1.53014">
        <ele>76</ele>
        <time>2020-05-24T10:32:32.000Z</time>
      </trkpt>
      <trkpt lat="47.1349" lon="-1.53">
        <ele>76</ele>
        <time>2020-05-24T10:32:34.000Z</time>
      </trkpt>
      <trkpt lat="47.13496" lon="-1.52986">
        <ele>76</ele>
        <time>2020-05-24T10:32:36.000Z</time>
      </trkpt>
      <trkpt lat="47.13503" lon="-1.52972">
        <ele>76</ele>
        <time>2020-05-24T10:32:38.000Z</time>
      </trkpt>
      <trkpt lat="47.13509" lon="-1.52959">
        <ele>76</ele>
        <time>2020-05-24T10:32:40.000Z</time>
      </trkpt>
      <trkpt lat="47.13515" lon="-1.52946">
        <ele>75</ele>
        <time>2020-05-24T10:32:42.000Z</time>
      </trkpt>
      <trkpt lat="47.13521" lon="-1.52932">
        <ele>76</ele>
        <time>2020-05-24T10:32:44.000Z</time>
      </trkpt>
      <trkpt lat="47.13527" lon="-1.52917">
        <ele>76</ele>
        <time>2020-05-24T10:32:46.000Z</time>
      </trkpt>
      <trkpt lat="47.13532" lon="-1.52903">
        <ele>76</ele>
        <time>2020-05-24T10:32:48.000Z</time>
      </trkpt>
      <trkpt lat="47.13538" lon="-1.52891">
        <ele>76</ele>
        <time>2020-05-24T10:32:50.000Z</time>
      </trkpt>
      <trkpt lat="47.13545" lon="-1.52879">
        <ele>76</ele>
        <time>2020-05-24T10:32:52.000Z</time>
      </trkpt>
      <trkpt lat="47.1355" lon="-1.52866">
        <ele>77</ele>
        <time>2020-05-24T10:32:54.000Z</time>
      </trkpt>
      <trkpt lat="47.13556" lon="-1.52853">
        <ele>77</ele>
        <time>2020-05-24T10:32:56.000Z</time>
      </trkpt>
      <trkpt lat="47.13562" lon="-1.52839">
        <ele>77</ele>
        <time>2020-05-24T10:32:58.000Z</time>
      </trkpt>
      <trkpt lat="47.13568" lon="-1.52826">
        <ele>77</ele>
        <time>2020-05-24T10:33:00.000Z</time>
      </trkpt>
      <trkpt lat="47.13574" lon="-1.52812">
        <ele>77</ele>
        <time>2020-05-24T10:33:02.000Z</time>
      </trkpt>
      <trkpt lat="47.1358" lon="-1.52799">
        <ele>78</ele>
        <time>2020-05-24T10:33:04.000Z</time>
      </trkpt>
      <trkpt lat="47.13586" lon="-1.52785">
        <ele>78</ele>
        <time>2020-05-24T10:33:06.000Z</time>
      </trkpt>
      <trkpt lat="47.13593" lon="-1.52772">
        <ele>78</ele>
        <time>2020-05-24T10:33:08.000Z</time>
      </trkpt>
      <trkpt lat="47.136" lon="-1.52759">
        <ele>78</ele>
        <time>2020-05-24T10:33:10.000Z</time>
      </trkpt>
      <trkpt lat="47.13607" lon="-1.52746">
        <ele>78</ele>
        <time>2020-05-24T10:33:12.000Z</time>
      </trkpt>
      <trkpt lat="47.13614" lon="-1.52733">
        <ele>79</ele>
        <time>2020-05-24T10:33:14.000Z</time>
      </trkpt>
      <trkpt lat="47.13622" lon="-1.5272">
        <ele>79</ele>
        <time>2020-05-24T10:33:16.000Z</time>
      </trkpt>
      <trkpt lat="47.13629" lon="-1.52707">
        <ele>79</ele>
        <time>2020-05-24T10:33:18.000Z</time>
      </trkpt>
      <trkpt lat="47.13637" lon="-1.52696">
        <ele>79</ele>
        <time>2020-05-24T10:33:20.000Z</time>
      </trkpt>
      <trkpt lat="47.13645" lon="-1.52683">
        <ele>79</ele>
        <time>2020-05-24T10:33:22.000Z</time>
      </trkpt>
      <trkpt lat="47.13652" lon="-1.52671">
        <ele>80</ele>
        <time>2020-05-24T10:33:24.000Z</time>
      </trkpt>
      <trkpt lat="47.13659" lon="-1.52658">
        <ele>80</ele>
        <time>2020-05-24T10:33:26.000Z</time>
      </trkpt>
      <trkpt lat="47.13667" lon="-1.52645">
        <ele>81</ele>
        <time>2020-05-24T10:33:28.000Z</time>
      </trkpt>
      <trkpt lat="47.13675" lon="-1.52633">
        <ele>81</ele>
        <time>2020-05-24T10:33:30.000Z</time>
      </trkpt>
      <trkpt lat="47.13683" lon="-1.52621">
        <ele>81</ele>
        <time>2020-05-24T10:33:32.000Z</time>
      </trkpt>
      <trkpt lat="47.13691" lon="-1.52608">
        <ele>81</ele>
        <time>2020-05-24T10:33:34.000Z</time>
      </trkpt>
      <trkpt lat="47.13698" lon="-1.52595">
        <ele>81</ele>
        <time>2020-05-24T10:33:36.000Z</time>
      </trkpt>
      <trkpt lat="47.13706" lon="-1.52582">
        <ele>81</ele>
        <time>2020-05-24T10:33:38.000Z</time>
      </trkpt>
      <trkpt lat="47.13715" lon="-1.52569">
        <ele>81</ele>
        <time>2020-05-24T10:33:40.000Z</time>
      </trkpt>
      <trkpt lat="47.13723" lon="-1.52556">
        <ele>81</ele>
        <time>2020-05-24T10:33:42.000Z</time>
      </trkpt>
      <trkpt lat="47.13731" lon="-1.52542">
        <ele>81</ele>
        <time>2020-05-24T10:33:44.000Z</time>
      </trkpt>
      <trkpt lat="47.13739" lon="-1.52529">
        <ele>82</ele>
        <time>2020-05-24T10:33:46.000Z</time>
      </trkpt>
      <trkpt lat="47.13747" lon="-1.52517">
        <ele>82</ele>
        <time>2020-05-24T10:33:48.000Z</time>
      </trkpt>
      <trkpt lat="47.13755" lon="-1.52504">
        <ele>83</ele>
        <time>2020-05-24T10:33:50.000Z</time>
      </trkpt>
      <trkpt lat="47.13763" lon="-1.52491">
        <ele>83</ele>
        <time>2020-05-24T10:33:52.000Z</time>
      </trkpt>
      <trkpt lat="47.13772" lon="-1.52477">
        <ele>83</ele>
        <time>2020-05-24T10:33:54.000Z</time>
      </trkpt>
      <trkpt lat="47.13781" lon="-1.52464">
        <ele>83</ele>
        <time>2020-05-24T10:33:56.000Z</time>
      </trkpt>
      <trkpt lat="47.1379" lon="-1.52451">
        <ele>82</ele>
        <time>2020-05-24T10:33:58.000Z</time>
      </trkpt>
      <trkpt lat="47.13799" lon="-1.52436">
        <ele>82</ele>
        <time>2020-05-24T10:34:00.000Z</time>
      </trkpt>
      <trkpt lat="47.13808" lon="-1.52423">
        <ele>82</ele>
        <time>2020-05-24T10:34:02.000Z</time>
      </trkpt>
      <trkpt lat="47.13817" lon="-1.52409">
        <ele>83</ele>
        <time>2020-05-24T10:34:04.000Z</time>
      </trkpt>
      <trkpt lat="47.13826" lon="-1.52396">
        <ele>83</ele>
        <time>2020-05-24T10:34:06.000Z</time>
      </trkpt>
      <trkpt lat="47.13835" lon="-1.52384">
        <ele>82</ele>
        <time>2020-05-24T10:34:08.000Z</time>
      </trkpt>
      <trkpt lat="47.13843" lon="-1.52371">
        <ele>82</ele>
        <time>2020-05-24T10:34:10.000Z</time>
      </trkpt>
      <trkpt lat="47.13852" lon="-1.52358">
        <ele>82</ele>
        <time>2020-05-24T10:34:12.000Z</time>
      </trkpt>
      <trkpt lat="47.13858" lon="-1.52342">
        <ele>82</ele>
        <time>2020-05-24T10:34:14.000Z</time>
      </trkpt>
      <trkpt lat="47.13862" lon="-1.52326">
        <ele>82</ele>
        <time>2020-05-24T10:34:16.000Z</time>
      </trkpt>
      <trkpt lat="47.1387" lon="-1.52313">
        <ele>82</ele>
        <time>2020-05-24T10:34:18.000Z</time>
      </trkpt>
      <trkpt lat="47.1388" lon="-1.52304">
        <ele>82</ele>
        <time>2020-05-24T10:34:20.000Z</time>
      </trkpt>
      <trkpt lat="47.13891" lon="-1.52296">
        <ele>81</ele>
        <time>2020-05-24T10:34:22.000Z</time>
      </trkpt>
      <trkpt lat="47.139" lon="-1.52283">
        <ele>82</ele>
        <time>2020-05-24T10:34:24.000Z</time>
      </trkpt>
      <trkpt lat="47.1391" lon="-1.5227">
        <ele>82</ele>
        <time>2020-05-24T10:34:26.000Z</time>
      </trkpt>
      <trkpt lat="47.13919" lon="-1.52257">
        <ele>82</ele>
        <time>2020-05-24T10:34:28.000Z</time>
      </trkpt>
      <trkpt lat="47.13927" lon="-1.52242">
        <ele>83</ele>
        <time>2020-05-24T10:34:30.000Z</time>
      </trkpt>
      <trkpt lat="47.13936" lon="-1.5223">
        <ele>83</ele>
        <time>2020-05-24T10:34:32.000Z</time>
      </trkpt>
      <trkpt lat="47.13945" lon="-1.52218">
        <ele>83</ele>
        <time>2020-05-24T10:34:34.000Z</time>
      </trkpt>
      <trkpt lat="47.13954" lon="-1.52206">
        <ele>83</ele>
        <time>2020-05-24T10:34:36.000Z</time>
      </trkpt>
      <trkpt lat="47.13964" lon="-1.52195">
        <ele>82</ele>
        <time>2020-05-24T10:34:38.000Z</time>
      </trkpt>
      <trkpt lat="47.13972" lon="-1.52183">
        <ele>82</ele>
        <time>2020-05-24T10:34:40.000Z</time>
      </trkpt>
      <trkpt lat="47.13981" lon="-1.52171">
        <ele>82</ele>
        <time>2020-05-24T10:34:42.000Z</time>
      </trkpt>
      <trkpt lat="47.1399" lon="-1.5216">
        <ele>82</ele>
        <time>2020-05-24T10:34:44.000Z</time>
      </trkpt>
      <trkpt lat="47.14001" lon="-1.5215">
        <ele>82</ele>
        <time>2020-05-24T10:34:46.000Z</time>
      </trkpt>
      <trkpt lat="47.14011" lon="-1.52142">
        <ele>81</ele>
        <time>2020-05-24T10:34:48.000Z</time>
      </trkpt>
      <trkpt lat="47.14019" lon="-1.52132">
        <ele>81</ele>
        <time>2020-05-24T10:34:50.000Z</time>
      </trkpt>
      <trkpt lat="47.14024" lon="-1.52119">
        <ele>82</ele>
        <time>2020-05-24T10:34:52.000Z</time>
      </trkpt>
      <trkpt lat="47.14032" lon="-1.52109">
        <ele>82</ele>
        <time>2020-05-24T10:34:55.000Z</time>
      </trkpt>
      <trkpt lat="47.14044" lon="-1.52099">
        <ele>82</ele>
        <time>2020-05-24T10:34:58.000Z</time>
      </trkpt>
      <trkpt lat="47.14055" lon="-1.52089">
        <ele>82</ele>
        <time>2020-05-24T10:35:00.000Z</time>
      </trkpt>
      <trkpt lat="47.14066" lon="-1.52078">
        <ele>82</ele>
        <time>2020-05-24T10:35:02.000Z</time>
      </trkpt>
      <trkpt lat="47.14076" lon="-1.52065">
        <ele>82</ele>
        <time>2020-05-24T10:35:04.000Z</time>
      </trkpt>
      <trkpt lat="47.14086" lon="-1.52054">
        <ele>82</ele>
        <time>2020-05-24T10:35:06.000Z</time>
      </trkpt>
      <trkpt lat="47.14097" lon="-1.52043">
        <ele>82</ele>
        <time>2020-05-24T10:35:08.000Z</time>
      </trkpt>
      <trkpt lat="47.14108" lon="-1.52032">
        <ele>82</ele>
        <time>2020-05-24T10:35:10.000Z</time>
      </trkpt>
      <trkpt lat="47.14118" lon="-1.52022">
        <ele>82</ele>
        <time>2020-05-24T10:35:12.000Z</time>
      </trkpt>
      <trkpt lat="47.14129" lon="-1.52012">
        <ele>81</ele>
        <time>2020-05-24T10:35:14.000Z</time>
      </trkpt>
      <trkpt lat="47.14139" lon="-1.52003">
        <ele>81</ele>
        <time>2020-05-24T10:35:16.000Z</time>
      </trkpt>
      <trkpt lat="47.1415" lon="-1.51993">
        <ele>81</ele>
        <time>2020-05-24T10:35:18.000Z</time>
      </trkpt>
      <trkpt lat="47.1416" lon="-1.51984">
        <ele>81</ele>
        <time>2020-05-24T10:35:20.000Z</time>
      </trkpt>
      <trkpt lat="47.1417" lon="-1.51974">
        <ele>81</ele>
        <time>2020-05-24T10:35:22.000Z</time>
      </trkpt>
      <trkpt lat="47.14181" lon="-1.51964">
        <ele>81</ele>
        <time>2020-05-24T10:35:24.000Z</time>
      </trkpt>
      <trkpt lat="47.14191" lon="-1.51954">
        <ele>81</ele>
        <time>2020-05-24T10:35:26.000Z</time>
      </trkpt>
      <trkpt lat="47.14202" lon="-1.51944">
        <ele>82</ele>
        <time>2020-05-24T10:35:28.000Z</time>
      </trkpt>
      <trkpt lat="47.14211" lon="-1.51934">
        <ele>81</ele>
        <time>2020-05-24T10:35:30.000Z</time>
      </trkpt>
      <trkpt lat="47.14221" lon="-1.51924">
        <ele>81</ele>
        <time>2020-05-24T10:35:32.000Z</time>
      </trkpt>
      <trkpt lat="47.14231" lon="-1.51913">
        <ele>81</ele>
        <time>2020-05-24T10:35:34.000Z</time>
      </trkpt>
      <trkpt lat="47.14241" lon="-1.51903">
        <ele>81</ele>
        <time>2020-05-24T10:35:36.000Z</time>
      </trkpt>
      <trkpt lat="47.14252" lon="-1.51893">
        <ele>81</ele>
        <time>2020-05-24T10:35:38.000Z</time>
      </trkpt>
      <trkpt lat="47.14262" lon="-1.51883">
        <ele>81</ele>
        <time>2020-05-24T10:35:40.000Z</time>
      </trkpt>
      <trkpt lat="47.14272" lon="-1.51873">
        <ele>81</ele>
        <time>2020-05-24T10:35:42.000Z</time>
      </trkpt>
      <trkpt lat="47.14282" lon="-1.51863">
        <ele>81</ele>
        <time>2020-05-24T10:35:44.000Z</time>
      </trkpt>
      <trkpt lat="47.14292" lon="-1.51853">
        <ele>81</ele>
        <time>2020-05-24T10:35:46.000Z</time>
      </trkpt>
      <trkpt lat="47.14303" lon="-1.51843">
        <ele>81</ele>
        <time>2020-05-24T10:35:48.000Z</time>
      </trkpt>
      <trkpt lat="47.14313" lon="-1.51832">
        <ele>81</ele>
        <time>2020-05-24T10:35:50.000Z</time>
      </trkpt>
      <trkpt lat="47.14323" lon="-1.51822">
        <ele>81</ele>
        <time>2020-05-24T10:35:52.000Z</time>
      </trkpt>
      <trkpt lat="47.14332" lon="-1.51811">
        <ele>81</ele>
        <time>2020-05-24T10:35:54.000Z</time>
      </trkpt>
      <trkpt lat="47.14342" lon="-1.51801">
        <ele>81</ele>
        <time>2020-05-24T10:35:56.000Z</time>
      </trkpt>
      <trkpt lat="47.14352" lon="-1.51791">
        <ele>81</ele>
        <time>2020-05-24T10:35:58.000Z</time>
      </trkpt>
      <trkpt lat="47.14362" lon="-1.5178">
        <ele>81</ele>
        <time>2020-05-24T10:36:00.000Z</time>
      </trkpt>
      <trkpt lat="47.14372" lon="-1.51771">
        <ele>81</ele>
        <time>2020-05-24T10:36:02.000Z</time>
      </trkpt>
      <trkpt lat="47.14383" lon="-1.5176">
        <ele>81</ele>
        <time>2020-05-24T10:36:04.000Z</time>
      </trkpt>
      <trkpt lat="47.14393" lon="-1.51749">
        <ele>80</ele>
        <time>2020-05-24T10:36:06.000Z</time>
      </trkpt>
      <trkpt lat="47.14403" lon="-1.5174">
        <ele>80</ele>
        <time>2020-05-24T10:36:08.000Z</time>
      </trkpt>
      <trkpt lat="47.14414" lon="-1.5173">
        <ele>80</ele>
        <time>2020-05-24T10:36:10.000Z</time>
      </trkpt>
      <trkpt lat="47.14424" lon="-1.51718">
        <ele>80</ele>
        <time>2020-05-24T10:36:12.000Z</time>
      </trkpt>
      <trkpt lat="47.14434" lon="-1.51708">
        <ele>80</ele>
        <time>2020-05-24T10:36:14.000Z</time>
      </trkpt>
      <trkpt lat="47.14444" lon="-1.51696">
        <ele>80</ele>
        <time>2020-05-24T10:36:16.000Z</time>
      </trkpt>
      <trkpt lat="47.14454" lon="-1.51686">
        <ele>81</ele>
        <time>2020-05-24T10:36:18.000Z</time>
      </trkpt>
      <trkpt lat="47.14463" lon="-1.51676">
        <ele>80</ele>
        <time>2020-05-24T10:36:20.000Z</time>
      </trkpt>
      <trkpt lat="47.14473" lon="-1.51666">
        <ele>80</ele>
        <time>2020-05-24T10:36:22.000Z</time>
      </trkpt>
      <trkpt lat="47.14484" lon="-1.51655">
        <ele>80</ele>
        <time>2020-05-24T10:36:24.000Z</time>
      </trkpt>
      <trkpt lat="47.14495" lon="-1.51645">
        <ele>80</ele>
        <time>2020-05-24T10:36:26.000Z</time>
      </trkpt>
      <trkpt lat="47.14505" lon="-1.51634">
        <ele>80</ele>
        <time>2020-05-24T10:36:28.000Z</time>
      </trkpt>
      <trkpt lat="47.14515" lon="-1.51623">
        <ele>81</ele>
        <time>2020-05-24T10:36:30.000Z</time>
      </trkpt>
      <trkpt lat="47.14524" lon="-1.51612">
        <ele>80</ele>
        <time>2020-05-24T10:36:32.000Z</time>
      </trkpt>
      <trkpt lat="47.14534" lon="-1.51601">
        <ele>80</ele>
        <time>2020-05-24T10:36:34.000Z</time>
      </trkpt>
      <trkpt lat="47.14544" lon="-1.51589">
        <ele>80</ele>
        <time>2020-05-24T10:36:36.000Z</time>
      </trkpt>
      <trkpt lat="47.14553" lon="-1.51575">
        <ele>80</ele>
        <time>2020-05-24T10:36:38.000Z</time>
      </trkpt>
      <trkpt lat="47.14562" lon="-1.51563">
        <ele>80</ele>
        <time>2020-05-24T10:36:40.000Z</time>
      </trkpt>
      <trkpt lat="47.1457" lon="-1.5155">
        <ele>80</ele>
        <time>2020-05-24T10:36:42.000Z</time>
      </trkpt>
      <trkpt lat="47.14578" lon="-1.51536">
        <ele>80</ele>
        <time>2020-05-24T10:36:44.000Z</time>
      </trkpt>
      <trkpt lat="47.14584" lon="-1.51524">
        <ele>81</ele>
        <time>2020-05-24T10:36:46.000Z</time>
      </trkpt>
      <trkpt lat="47.14591" lon="-1.51511">
        <ele>81</ele>
        <time>2020-05-24T10:36:48.000Z</time>
      </trkpt>
      <trkpt lat="47.14597" lon="-1.51498">
        <ele>81</ele>
        <time>2020-05-24T10:36:50.000Z</time>
      </trkpt>
      <trkpt lat="47.14604" lon="-1.51485">
        <ele>82</ele>
        <time>2020-05-24T10:36:52.000Z</time>
      </trkpt>
      <trkpt lat="47.1461" lon="-1.51472">
        <ele>82</ele>
        <time>2020-05-24T10:36:54.000Z</time>
      </trkpt>
      <trkpt lat="47.14617" lon="-1.51458">
        <ele>81</ele>
        <time>2020-05-24T10:36:56.000Z</time>
      </trkpt>
      <trkpt lat="47.14624" lon="-1.51444">
        <ele>81</ele>
        <time>2020-05-24T10:36:58.000Z</time>
      </trkpt>
      <trkpt lat="47.14632" lon="-1.5143">
        <ele>81</ele>
        <time>2020-05-24T10:37:00.000Z</time>
      </trkpt>
      <trkpt lat="47.14639" lon="-1.51415">
        <ele>81</ele>
        <time>2020-05-24T10:37:02.000Z</time>
      </trkpt>
      <trkpt lat="47.14647" lon="-1.514">
        <ele>80</ele>
        <time>2020-05-24T10:37:04.000Z</time>
      </trkpt>
      <trkpt lat="47.14654" lon="-1.51385">
        <ele>79</ele>
        <time>2020-05-24T10:37:06.000Z</time>
      </trkpt>
      <trkpt lat="47.14663" lon="-1.51368">
        <ele>79</ele>
        <time>2020-05-24T10:37:08.000Z</time>
      </trkpt>
      <trkpt lat="47.14672" lon="-1.5135">
        <ele>78</ele>
        <time>2020-05-24T10:37:10.000Z</time>
      </trkpt>
      <trkpt lat="47.14681" lon="-1.51332">
        <ele>77</ele>
        <time>2020-05-24T10:37:12.000Z</time>
      </trkpt>
      <trkpt lat="47.1469" lon="-1.51315">
        <ele>77</ele>
        <time>2020-05-24T10:37:14.000Z</time>
      </trkpt>
      <trkpt lat="47.14698" lon="-1.51298">
        <ele>77</ele>
        <time>2020-05-24T10:37:16.000Z</time>
      </trkpt>
      <trkpt lat="47.14706" lon="-1.51281">
        <ele>77</ele>
        <time>2020-05-24T10:37:18.000Z</time>
      </trkpt>
      <trkpt lat="47.14714" lon="-1.51264">
        <ele>76</ele>
        <time>2020-05-24T10:37:20.000Z</time>
      </trkpt>
      <trkpt lat="47.14723" lon="-1.51247">
        <ele>77</ele>
        <time>2020-05-24T10:37:22.000Z</time>
      </trkpt>
      <trkpt lat="47.14731" lon="-1.5123">
        <ele>76</ele>
        <time>2020-05-24T10:37:24.000Z</time>
      </trkpt>
      <trkpt lat="47.1474" lon="-1.51215">
        <ele>76</ele>
        <time>2020-05-24T10:37:26.000Z</time>
      </trkpt>
      <trkpt lat="47.14748" lon="-1.51199">
        <ele>76</ele>
        <time>2020-05-24T10:37:28.000Z</time>
      </trkpt>
      <trkpt lat="47.14756" lon="-1.51183">
        <ele>76</ele>
        <time>2020-05-24T10:37:30.000Z</time>
      </trkpt>
      <trkpt lat="47.14765" lon="-1.51167">
        <ele>75</ele>
        <time>2020-05-24T10:37:32.000Z</time>
      </trkpt>
      <trkpt lat="47.14773" lon="-1.51151">
        <ele>76</ele>
        <time>2020-05-24T10:37:34.000Z</time>
      </trkpt>
      <trkpt lat="47.14781" lon="-1.51136">
        <ele>75</ele>
        <time>2020-05-24T10:37:36.000Z</time>
      </trkpt>
      <trkpt lat="47.14794" lon="-1.51113">
        <ele>75</ele>
        <time>2020-05-24T10:37:39.000Z</time>
      </trkpt>
      <trkpt lat="47.14803" lon="-1.51097">
        <ele>75</ele>
        <time>2020-05-24T10:37:41.000Z</time>
      </trkpt>
      <trkpt lat="47.14811" lon="-1.51082">
        <ele>75</ele>
        <time>2020-05-24T10:37:43.000Z</time>
      </trkpt>
      <trkpt lat="47.1482" lon="-1.51067">
        <ele>74</ele>
        <time>2020-05-24T10:37:45.000Z</time>
      </trkpt>
      <trkpt lat="47.14828" lon="-1.51051">
        <ele>74</ele>
        <time>2020-05-24T10:37:47.000Z</time>
      </trkpt>
      <trkpt lat="47.14837" lon="-1.51037">
        <ele>74</ele>
        <time>2020-05-24T10:37:49.000Z</time>
      </trkpt>
      <trkpt lat="47.14846" lon="-1.51022">
        <ele>74</ele>
        <time>2020-05-24T10:37:51.000Z</time>
      </trkpt>
      <trkpt lat="47.14855" lon="-1.51007">
        <ele>74</ele>
        <time>2020-05-24T10:37:53.000Z</time>
      </trkpt>
      <trkpt lat="47.14864" lon="-1.50992">
        <ele>73</ele>
        <time>2020-05-24T10:37:55.000Z</time>
      </trkpt>
      <trkpt lat="47.14874" lon="-1.50978">
        <ele>73</ele>
        <time>2020-05-24T10:37:57.000Z</time>
      </trkpt>
      <trkpt lat="47.14883" lon="-1.50963">
        <ele>72</ele>
        <time>2020-05-24T10:37:59.000Z</time>
      </trkpt>
      <trkpt lat="47.14892" lon="-1.50949">
        <ele>72</ele>
        <time>2020-05-24T10:38:01.000Z</time>
      </trkpt>
      <trkpt lat="47.14902" lon="-1.50934">
        <ele>71</ele>
        <time>2020-05-24T10:38:03.000Z</time>
      </trkpt>
      <trkpt lat="47.14912" lon="-1.50919">
        <ele>71</ele>
        <time>2020-05-24T10:38:05.000Z</time>
      </trkpt>
      <trkpt lat="47.14922" lon="-1.50904">
        <ele>71</ele>
        <time>2020-05-24T10:38:07.000Z</time>
      </trkpt>
      <trkpt lat="47.14933" lon="-1.5089">
        <ele>71</ele>
        <time>2020-05-24T10:38:09.000Z</time>
      </trkpt>
      <trkpt lat="47.14943" lon="-1.50876">
        <ele>70</ele>
        <time>2020-05-24T10:38:11.000Z</time>
      </trkpt>
      <trkpt lat="47.14953" lon="-1.50862">
        <ele>70</ele>
        <time>2020-05-24T10:38:13.000Z</time>
      </trkpt>
      <trkpt lat="47.14962" lon="-1.50849">
        <ele>70</ele>
        <time>2020-05-24T10:38:15.000Z</time>
      </trkpt>
      <trkpt lat="47.14972" lon="-1.50835">
        <ele>70</ele>
        <time>2020-05-24T10:38:17.000Z</time>
      </trkpt>
      <trkpt lat="47.14982" lon="-1.50822">
        <ele>70</ele>
        <time>2020-05-24T10:38:19.000Z</time>
      </trkpt>
      <trkpt lat="47.14991" lon="-1.50808">
        <ele>69</ele>
        <time>2020-05-24T10:38:21.000Z</time>
      </trkpt>
      <trkpt lat="47.15002" lon="-1.50795">
        <ele>69</ele>
        <time>2020-05-24T10:38:23.000Z</time>
      </trkpt>
      <trkpt lat="47.15012" lon="-1.50782">
        <ele>69</ele>
        <time>2020-05-24T10:38:25.000Z</time>
      </trkpt>
      <trkpt lat="47.15022" lon="-1.5077">
        <ele>69</ele>
        <time>2020-05-24T10:38:27.000Z</time>
      </trkpt>
      <trkpt lat="47.15032" lon="-1.50757">
        <ele>69</ele>
        <time>2020-05-24T10:38:29.000Z</time>
      </trkpt>
      <trkpt lat="47.15042" lon="-1.50744">
        <ele>70</ele>
        <time>2020-05-24T10:38:31.000Z</time>
      </trkpt>
      <trkpt lat="47.15052" lon="-1.50731">
        <ele>70</ele>
        <time>2020-05-24T10:38:33.000Z</time>
      </trkpt>
      <trkpt lat="47.15062" lon="-1.50719">
        <ele>70</ele>
        <time>2020-05-24T10:38:35.000Z</time>
      </trkpt>
      <trkpt lat="47.15072" lon="-1.50707">
        <ele>69</ele>
        <time>2020-05-24T10:38:37.000Z</time>
      </trkpt>
      <trkpt lat="47.15083" lon="-1.50695">
        <ele>69</ele>
        <time>2020-05-24T10:38:39.000Z</time>
      </trkpt>
      <trkpt lat="47.15092" lon="-1.50683">
        <ele>69</ele>
        <time>2020-05-24T10:38:41.000Z</time>
      </trkpt>
      <trkpt lat="47.15102" lon="-1.50672">
        <ele>70</ele>
        <time>2020-05-24T10:38:43.000Z</time>
      </trkpt>
      <trkpt lat="47.15112" lon="-1.5066">
        <ele>70</ele>
        <time>2020-05-24T10:38:45.000Z</time>
      </trkpt>
      <trkpt lat="47.15122" lon="-1.50649">
        <ele>70</ele>
        <time>2020-05-24T10:38:47.000Z</time>
      </trkpt>
      <trkpt lat="47.15132" lon="-1.50637">
        <ele>70</ele>
        <time>2020-05-24T10:38:49.000Z</time>
      </trkpt>
      <trkpt lat="47.15141" lon="-1.50626">
        <ele>70</ele>
        <time>2020-05-24T10:38:51.000Z</time>
      </trkpt>
      <trkpt lat="47.15151" lon="-1.50615">
        <ele>70</ele>
        <time>2020-05-24T10:38:53.000Z</time>
      </trkpt>
      <trkpt lat="47.1516" lon="-1.50604">
        <ele>70</ele>
        <time>2020-05-24T10:38:55.000Z</time>
      </trkpt>
      <trkpt lat="47.15169" lon="-1.50594">
        <ele>71</ele>
        <time>2020-05-24T10:38:57.000Z</time>
      </trkpt>
      <trkpt lat="47.15178" lon="-1.50583">
        <ele>71</ele>
        <time>2020-05-24T10:38:59.000Z</time>
      </trkpt>
      <trkpt lat="47.15186" lon="-1.50573">
        <ele>71</ele>
        <time>2020-05-24T10:39:01.000Z</time>
      </trkpt>
      <trkpt lat="47.15195" lon="-1.50563">
        <ele>72</ele>
        <time>2020-05-24T10:39:03.000Z</time>
      </trkpt>
      <trkpt lat="47.15203" lon="-1.50554">
        <ele>72</ele>
        <time>2020-05-24T10:39:05.000Z</time>
      </trkpt>
      <trkpt lat="47.15212" lon="-1.50543">
        <ele>72</ele>
        <time>2020-05-24T10:39:07.000Z</time>
      </trkpt>
      <trkpt lat="47.15221" lon="-1.50533">
        <ele>73</ele>
        <time>2020-05-24T10:39:09.000Z</time>
      </trkpt>
      <trkpt lat="47.15229" lon="-1.50523">
        <ele>73</ele>
        <time>2020-05-24T10:39:11.000Z</time>
      </trkpt>
      <trkpt lat="47.15238" lon="-1.50513">
        <ele>73</ele>
        <time>2020-05-24T10:39:13.000Z</time>
      </trkpt>
      <trkpt lat="47.15246" lon="-1.50504">
        <ele>73</ele>
        <time>2020-05-24T10:39:15.000Z</time>
      </trkpt>
      <trkpt lat="47.15255" lon="-1.50494">
        <ele>74</ele>
        <time>2020-05-24T10:39:17.000Z</time>
      </trkpt>
      <trkpt lat="47.15263" lon="-1.50484">
        <ele>74</ele>
        <time>2020-05-24T10:39:19.000Z</time>
      </trkpt>
      <trkpt lat="47.15272" lon="-1.50474">
        <ele>74</ele>
        <time>2020-05-24T10:39:21.000Z</time>
      </trkpt>
      <trkpt lat="47.15281" lon="-1.50464">
        <ele>74</ele>
        <time>2020-05-24T10:39:23.000Z</time>
      </trkpt>
      <trkpt lat="47.15289" lon="-1.50454">
        <ele>74</ele>
        <time>2020-05-24T10:39:25.000Z</time>
      </trkpt>
      <trkpt lat="47.15298" lon="-1.50444">
        <ele>75</ele>
        <time>2020-05-24T10:39:27.000Z</time>
      </trkpt>
      <trkpt lat="47.15307" lon="-1.50434">
        <ele>75</ele>
        <time>2020-05-24T10:39:29.000Z</time>
      </trkpt>
      <trkpt lat="47.15315" lon="-1.50425">
        <ele>75</ele>
        <time>2020-05-24T10:39:31.000Z</time>
      </trkpt>
      <trkpt lat="47.15324" lon="-1.50414">
        <ele>75</ele>
        <time>2020-05-24T10:39:33.000Z</time>
      </trkpt>
      <trkpt lat="47.15333" lon="-1.50404">
        <ele>75</ele>
        <time>2020-05-24T10:39:35.000Z</time>
      </trkpt>
      <trkpt lat="47.15341" lon="-1.50394">
        <ele>75</ele>
        <time>2020-05-24T10:39:37.000Z</time>
      </trkpt>
      <trkpt lat="47.15349" lon="-1.50383">
        <ele>75</ele>
        <time>2020-05-24T10:39:39.000Z</time>
      </trkpt>
      <trkpt lat="47.15357" lon="-1.50372">
        <ele>75</ele>
        <time>2020-05-24T10:39:41.000Z</time>
      </trkpt>
      <trkpt lat="47.15366" lon="-1.50363">
        <ele>75</ele>
        <time>2020-05-24T10:39:43.000Z</time>
      </trkpt>
      <trkpt lat="47.15375" lon="-1.50353">
        <ele>75</ele>
        <time>2020-05-24T10:39:45.000Z</time>
      </trkpt>
      <trkpt lat="47.15384" lon="-1.50343">
        <ele>75</ele>
        <time>2020-05-24T10:39:47.000Z</time>
      </trkpt>
      <trkpt lat="47.15393" lon="-1.50333">
        <ele>75</ele>
        <time>2020-05-24T10:39:49.000Z</time>
      </trkpt>
      <trkpt lat="47.15403" lon="-1.50324">
        <ele>75</ele>
        <time>2020-05-24T10:39:51.000Z</time>
      </trkpt>
      <trkpt lat="47.15412" lon="-1.50316">
        <ele>76</ele>
        <time>2020-05-24T10:39:53.000Z</time>
      </trkpt>
      <trkpt lat="47.15423" lon="-1.50308">
        <ele>76</ele>
        <time>2020-05-24T10:39:55.000Z</time>
      </trkpt>
      <trkpt lat="47.15434" lon="-1.50302">
        <ele>76</ele>
        <time>2020-05-24T10:39:57.000Z</time>
      </trkpt>
      <trkpt lat="47.15445" lon="-1.50295">
        <ele>76</ele>
        <time>2020-05-24T10:39:59.000Z</time>
      </trkpt>
      <trkpt lat="47.15456" lon="-1.50289">
        <ele>75</ele>
        <time>2020-05-24T10:40:01.000Z</time>
      </trkpt>
      <trkpt lat="47.15468" lon="-1.50284">
        <ele>75</ele>
        <time>2020-05-24T10:40:03.000Z</time>
      </trkpt>
      <trkpt lat="47.1548" lon="-1.50279">
        <ele>74</ele>
        <time>2020-05-24T10:40:05.000Z</time>
      </trkpt>
      <trkpt lat="47.15492" lon="-1.50274">
        <ele>74</ele>
        <time>2020-05-24T10:40:07.000Z</time>
      </trkpt>
      <trkpt lat="47.15504" lon="-1.50269">
        <ele>73</ele>
        <time>2020-05-24T10:40:09.000Z</time>
      </trkpt>
      <trkpt lat="47.15515" lon="-1.50264">
        <ele>73</ele>
        <time>2020-05-24T10:40:11.000Z</time>
      </trkpt>
      <trkpt lat="47.15526" lon="-1.50259">
        <ele>73</ele>
        <time>2020-05-24T10:40:13.000Z</time>
      </trkpt>
      <trkpt lat="47.15537" lon="-1.50251">
        <ele>73</ele>
        <time>2020-05-24T10:40:15.000Z</time>
      </trkpt>
      <trkpt lat="47.15548" lon="-1.50243">
        <ele>73</ele>
        <time>2020-05-24T10:40:17.000Z</time>
      </trkpt>
      <trkpt lat="47.15559" lon="-1.50233">
        <ele>73</ele>
        <time>2020-05-24T10:40:19.000Z</time>
      </trkpt>
      <trkpt lat="47.1557" lon="-1.50223">
        <ele>73</ele>
        <time>2020-05-24T10:40:21.000Z</time>
      </trkpt>
      <trkpt lat="47.1558" lon="-1.50213">
        <ele>73</ele>
        <time>2020-05-24T10:40:23.000Z</time>
      </trkpt>
      <trkpt lat="47.1559" lon="-1.50203">
        <ele>73</ele>
        <time>2020-05-24T10:40:25.000Z</time>
      </trkpt>
      <trkpt lat="47.15601" lon="-1.50193">
        <ele>73</ele>
        <time>2020-05-24T10:40:27.000Z</time>
      </trkpt>
      <trkpt lat="47.15611" lon="-1.50183">
        <ele>73</ele>
        <time>2020-05-24T10:40:29.000Z</time>
      </trkpt>
      <trkpt lat="47.15621" lon="-1.50173">
        <ele>73</ele>
        <time>2020-05-24T10:40:31.000Z</time>
      </trkpt>
      <trkpt lat="47.15632" lon="-1.50164">
        <ele>73</ele>
        <time>2020-05-24T10:40:33.000Z</time>
      </trkpt>
      <trkpt lat="47.15642" lon="-1.50154">
        <ele>73</ele>
        <time>2020-05-24T10:40:35.000Z</time>
      </trkpt>
      <trkpt lat="47.15652" lon="-1.50144">
        <ele>73</ele>
        <time>2020-05-24T10:40:37.000Z</time>
      </trkpt>
      <trkpt lat="47.15662" lon="-1.50134">
        <ele>73</ele>
        <time>2020-05-24T10:40:39.000Z</time>
      </trkpt>
      <trkpt lat="47.15671" lon="-1.50124">
        <ele>72</ele>
        <time>2020-05-24T10:40:41.000Z</time>
      </trkpt>
      <trkpt lat="47.15681" lon="-1.50113">
        <ele>72</ele>
        <time>2020-05-24T10:40:43.000Z</time>
      </trkpt>
      <trkpt lat="47.15689" lon="-1.50101">
        <ele>73</ele>
        <time>2020-05-24T10:40:45.000Z</time>
      </trkpt>
      <trkpt lat="47.15696" lon="-1.50088">
        <ele>73</ele>
        <time>2020-05-24T10:40:47.000Z</time>
      </trkpt>
      <trkpt lat="47.15704" lon="-1.50075">
        <ele>73</ele>
        <time>2020-05-24T10:40:49.000Z</time>
      </trkpt>
      <trkpt lat="47.15711" lon="-1.50061">
        <ele>74</ele>
        <time>2020-05-24T10:40:51.000Z</time>
      </trkpt>
      <trkpt lat="47.15718" lon="-1.50047">
        <ele>74</ele>
        <time>2020-05-24T10:40:53.000Z</time>
      </trkpt>
      <trkpt lat="47.15725" lon="-1.50033">
        <ele>74</ele>
        <time>2020-05-24T10:40:55.000Z</time>
      </trkpt>
      <trkpt lat="47.15732" lon="-1.50019">
        <ele>73</ele>
        <time>2020-05-24T10:40:57.000Z</time>
      </trkpt>
      <trkpt lat="47.1574" lon="-1.50005">
        <ele>73</ele>
        <time>2020-05-24T10:40:59.000Z</time>
      </trkpt>
      <trkpt lat="47.15747" lon="-1.49991">
        <ele>73</ele>
        <time>2020-05-24T10:41:01.000Z</time>
      </trkpt>
      <trkpt lat="47.15754" lon="-1.49977">
        <ele>73</ele>
        <time>2020-05-24T10:41:03.000Z</time>
      </trkpt>
      <trkpt lat="47.1576" lon="-1.49963">
        <ele>73</ele>
        <time>2020-05-24T10:41:05.000Z</time>
      </trkpt>
      <trkpt lat="47.15768" lon="-1.49948">
        <ele>73</ele>
        <time>2020-05-24T10:41:07.000Z</time>
      </trkpt>
      <trkpt lat="47.15776" lon="-1.49934">
        <ele>73</ele>
        <time>2020-05-24T10:41:09.000Z</time>
      </trkpt>
      <trkpt lat="47.15783" lon="-1.4992">
        <ele>73</ele>
        <time>2020-05-24T10:41:11.000Z</time>
      </trkpt>
      <trkpt lat="47.1579" lon="-1.49906">
        <ele>72</ele>
        <time>2020-05-24T10:41:13.000Z</time>
      </trkpt>
      <trkpt lat="47.15798" lon="-1.49892">
        <ele>72</ele>
        <time>2020-05-24T10:41:15.000Z</time>
      </trkpt>
      <trkpt lat="47.15805" lon="-1.49877">
        <ele>72</ele>
        <time>2020-05-24T10:41:17.000Z</time>
      </trkpt>
      <trkpt lat="47.15811" lon="-1.49863">
        <ele>72</ele>
        <time>2020-05-24T10:41:19.000Z</time>
      </trkpt>
      <trkpt lat="47.15818" lon="-1.49849">
        <ele>73</ele>
        <time>2020-05-24T10:41:21.000Z</time>
      </trkpt>
      <trkpt lat="47.15825" lon="-1.49835">
        <ele>73</ele>
        <time>2020-05-24T10:41:23.000Z</time>
      </trkpt>
      <trkpt lat="47.15832" lon="-1.49821">
        <ele>72</ele>
        <time>2020-05-24T10:41:25.000Z</time>
      </trkpt>
      <trkpt lat="47.15839" lon="-1.49806">
        <ele>72</ele>
        <time>2020-05-24T10:41:27.000Z</time>
      </trkpt>
      <trkpt lat="47.15847" lon="-1.49791">
        <ele>72</ele>
        <time>2020-05-24T10:41:29.000Z</time>
      </trkpt>
      <trkpt lat="47.15855" lon="-1.49776">
        <ele>71</ele>
        <time>2020-05-24T10:41:31.000Z</time>
      </trkpt>
      <trkpt lat="47.15863" lon="-1.4976">
        <ele>72</ele>
        <time>2020-05-24T10:41:33.000Z</time>
      </trkpt>
      <trkpt lat="47.15871" lon="-1.49744">
        <ele>71</ele>
        <time>2020-05-24T10:41:35.000Z</time>
      </trkpt>
      <trkpt lat="47.15879" lon="-1.49728">
        <ele>71</ele>
        <time>2020-05-24T10:41:37.000Z</time>
      </trkpt>
      <trkpt lat="47.15888" lon="-1.49712">
        <ele>71</ele>
        <time>2020-05-24T10:41:39.000Z</time>
      </trkpt>
      <trkpt lat="47.15897" lon="-1.49694">
        <ele>70</ele>
        <time>2020-05-24T10:41:41.000Z</time>
      </trkpt>
      <trkpt lat="47.15907" lon="-1.49676">
        <ele>68</ele>
        <time>2020-05-24T10:41:43.000Z</time>
      </trkpt>
      <trkpt lat="47.15917" lon="-1.49658">
        <ele>68</ele>
        <time>2020-05-24T10:41:45.000Z</time>
      </trkpt>
      <trkpt lat="47.15926" lon="-1.4964">
        <ele>68</ele>
        <time>2020-05-24T10:41:47.000Z</time>
      </trkpt>
      <trkpt lat="47.15935" lon="-1.49623">
        <ele>68</ele>
        <time>2020-05-24T10:41:49.000Z</time>
      </trkpt>
      <trkpt lat="47.15943" lon="-1.49605">
        <ele>67</ele>
        <time>2020-05-24T10:41:51.000Z</time>
      </trkpt>
      <trkpt lat="47.15953" lon="-1.49589">
        <ele>67</ele>
        <time>2020-05-24T10:41:53.000Z</time>
      </trkpt>
      <trkpt lat="47.15961" lon="-1.49572">
        <ele>66</ele>
        <time>2020-05-24T10:41:55.000Z</time>
      </trkpt>
      <trkpt lat="47.1597" lon="-1.49555">
        <ele>65</ele>
        <time>2020-05-24T10:41:57.000Z</time>
      </trkpt>
      <trkpt lat="47.15979" lon="-1.49539">
        <ele>65</ele>
        <time>2020-05-24T10:41:59.000Z</time>
      </trkpt>
      <trkpt lat="47.15988" lon="-1.49523">
        <ele>65</ele>
        <time>2020-05-24T10:42:01.000Z</time>
      </trkpt>
      <trkpt lat="47.15996" lon="-1.49507">
        <ele>64</ele>
        <time>2020-05-24T10:42:03.000Z</time>
      </trkpt>
      <trkpt lat="47.16005" lon="-1.4949">
        <ele>64</ele>
        <time>2020-05-24T10:42:05.000Z</time>
      </trkpt>
      <trkpt lat="47.16014" lon="-1.49474">
        <ele>64</ele>
        <time>2020-05-24T10:42:07.000Z</time>
      </trkpt>
      <trkpt lat="47.16022" lon="-1.49458">
        <ele>64</ele>
        <time>2020-05-24T10:42:09.000Z</time>
      </trkpt>
      <trkpt lat="47.1603" lon="-1.49442">
        <ele>64</ele>
        <time>2020-05-24T10:42:11.000Z</time>
      </trkpt>
      <trkpt lat="47.16038" lon="-1.49427">
        <ele>65</ele>
        <time>2020-05-24T10:42:13.000Z</time>
      </trkpt>
      <trkpt lat="47.16046" lon="-1.49411">
        <ele>65</ele>
        <time>2020-05-24T10:42:15.000Z</time>
      </trkpt>
      <trkpt lat="47.16054" lon="-1.49395">
        <ele>65</ele>
        <time>2020-05-24T10:42:17.000Z</time>
      </trkpt>
      <trkpt lat="47.16064" lon="-1.49383">
        <ele>65</ele>
        <time>2020-05-24T10:42:19.000Z</time>
      </trkpt>
      <trkpt lat="47.16073" lon="-1.49372">
        <ele>65</ele>
        <time>2020-05-24T10:42:21.000Z</time>
      </trkpt>
      <trkpt lat="47.16084" lon="-1.4936">
        <ele>64</ele>
        <time>2020-05-24T10:42:23.000Z</time>
      </trkpt>
      <trkpt lat="47.16094" lon="-1.49348">
        <ele>64</ele>
        <time>2020-05-24T10:42:25.000Z</time>
      </trkpt>
      <trkpt lat="47.16103" lon="-1.49337">
        <ele>64</ele>
        <time>2020-05-24T10:42:27.000Z</time>
      </trkpt>
      <trkpt lat="47.16112" lon="-1.49325">
        <ele>65</ele>
        <time>2020-05-24T10:42:29.000Z</time>
      </trkpt>
      <trkpt lat="47.16121" lon="-1.49315">
        <ele>65</ele>
        <time>2020-05-24T10:42:31.000Z</time>
      </trkpt>
      <trkpt lat="47.1613" lon="-1.49302">
        <ele>65</ele>
        <time>2020-05-24T10:42:33.000Z</time>
      </trkpt>
      <trkpt lat="47.16139" lon="-1.49289">
        <ele>66</ele>
        <time>2020-05-24T10:42:35.000Z</time>
      </trkpt>
      <trkpt lat="47.16147" lon="-1.49275">
        <ele>66</ele>
        <time>2020-05-24T10:42:37.000Z</time>
      </trkpt>
      <trkpt lat="47.16154" lon="-1.4926">
        <ele>67</ele>
        <time>2020-05-24T10:42:39.000Z</time>
      </trkpt>
      <trkpt lat="47.16161" lon="-1.49244">
        <ele>67</ele>
        <time>2020-05-24T10:42:41.000Z</time>
      </trkpt>
      <trkpt lat="47.16168" lon="-1.4923">
        <ele>68</ele>
        <time>2020-05-24T10:42:43.000Z</time>
      </trkpt>
      <trkpt lat="47.16175" lon="-1.49217">
        <ele>68</ele>
        <time>2020-05-24T10:42:45.000Z</time>
      </trkpt>
      <trkpt lat="47.16184" lon="-1.49206">
        <ele>68</ele>
        <time>2020-05-24T10:42:47.000Z</time>
      </trkpt>
      <trkpt lat="47.16193" lon="-1.49195">
        <ele>68</ele>
        <time>2020-05-24T10:42:49.000Z</time>
      </trkpt>
      <trkpt lat="47.16203" lon="-1.49185">
        <ele>68</ele>
        <time>2020-05-24T10:42:51.000Z</time>
      </trkpt>
      <trkpt lat="47.16213" lon="-1.49175">
        <ele>68</ele>
        <time>2020-05-24T10:42:53.000Z</time>
      </trkpt>
      <trkpt lat="47.16223" lon="-1.49165">
        <ele>68</ele>
        <time>2020-05-24T10:42:55.000Z</time>
      </trkpt>
      <trkpt lat="47.16234" lon="-1.49154">
        <ele>68</ele>
        <time>2020-05-24T10:42:57.000Z</time>
      </trkpt>
      <trkpt lat="47.16245" lon="-1.49144">
        <ele>68</ele>
        <time>2020-05-24T10:42:59.000Z</time>
      </trkpt>
      <trkpt lat="47.16255" lon="-1.49133">
        <ele>68</ele>
        <time>2020-05-24T10:43:01.000Z</time>
      </trkpt>
      <trkpt lat="47.16266" lon="-1.49122">
        <ele>68</ele>
        <time>2020-05-24T10:43:03.000Z</time>
      </trkpt>
      <trkpt lat="47.16277" lon="-1.49111">
        <ele>67</ele>
        <time>2020-05-24T10:43:05.000Z</time>
      </trkpt>
      <trkpt lat="47.16288" lon="-1.491">
        <ele>67</ele>
        <time>2020-05-24T10:43:07.000Z</time>
      </trkpt>
      <trkpt lat="47.163" lon="-1.49089">
        <ele>66</ele>
        <time>2020-05-24T10:43:09.000Z</time>
      </trkpt>
      <trkpt lat="47.16311" lon="-1.49077">
        <ele>66</ele>
        <time>2020-05-24T10:43:11.000Z</time>
      </trkpt>
      <trkpt lat="47.16322" lon="-1.49066">
        <ele>65</ele>
        <time>2020-05-24T10:43:13.000Z</time>
      </trkpt>
      <trkpt lat="47.16333" lon="-1.49054">
        <ele>65</ele>
        <time>2020-05-24T10:43:15.000Z</time>
      </trkpt>
      <trkpt lat="47.16345" lon="-1.49042">
        <ele>65</ele>
        <time>2020-05-24T10:43:17.000Z</time>
      </trkpt>
      <trkpt lat="47.16356" lon="-1.49029">
        <ele>65</ele>
        <time>2020-05-24T10:43:19.000Z</time>
      </trkpt>
      <trkpt lat="47.16366" lon="-1.49016">
        <ele>64</ele>
        <time>2020-05-24T10:43:21.000Z</time>
      </trkpt>
      <trkpt lat="47.16375" lon="-1.49">
        <ele>65</ele>
        <time>2020-05-24T10:43:23.000Z</time>
      </trkpt>
      <trkpt lat="47.16384" lon="-1.48985">
        <ele>64</ele>
        <time>2020-05-24T10:43:25.000Z</time>
      </trkpt>
      <trkpt lat="47.16393" lon="-1.4897">
        <ele>64</ele>
        <time>2020-05-24T10:43:27.000Z</time>
      </trkpt>
      <trkpt lat="47.16402" lon="-1.48957">
        <ele>65</ele>
        <time>2020-05-24T10:43:29.000Z</time>
      </trkpt>
      <trkpt lat="47.16412" lon="-1.48945">
        <ele>64</ele>
        <time>2020-05-24T10:43:31.000Z</time>
      </trkpt>
      <trkpt lat="47.16422" lon="-1.48934">
        <ele>64</ele>
        <time>2020-05-24T10:43:33.000Z</time>
      </trkpt>
      <trkpt lat="47.16432" lon="-1.48923">
        <ele>64</ele>
        <time>2020-05-24T10:43:35.000Z</time>
      </trkpt>
      <trkpt lat="47.16442" lon="-1.48911">
        <ele>64</ele>
        <time>2020-05-24T10:43:37.000Z</time>
      </trkpt>
      <trkpt lat="47.16451" lon="-1.48897">
        <ele>64</ele>
        <time>2020-05-24T10:43:39.000Z</time>
      </trkpt>
      <trkpt lat="47.1646" lon="-1.48884">
        <ele>64</ele>
        <time>2020-05-24T10:43:41.000Z</time>
      </trkpt>
      <trkpt lat="47.16468" lon="-1.48869">
        <ele>63</ele>
        <time>2020-05-24T10:43:43.000Z</time>
      </trkpt>
      <trkpt lat="47.16476" lon="-1.48851">
        <ele>62</ele>
        <time>2020-05-24T10:43:45.000Z</time>
      </trkpt>
      <trkpt lat="47.16482" lon="-1.48834">
        <ele>62</ele>
        <time>2020-05-24T10:43:47.000Z</time>
      </trkpt>
      <trkpt lat="47.16489" lon="-1.48817">
        <ele>62</ele>
        <time>2020-05-24T10:43:49.000Z</time>
      </trkpt>
      <trkpt lat="47.16497" lon="-1.48801">
        <ele>61</ele>
        <time>2020-05-24T10:43:51.000Z</time>
      </trkpt>
      <trkpt lat="47.16504" lon="-1.48784">
        <ele>60</ele>
        <time>2020-05-24T10:43:53.000Z</time>
      </trkpt>
      <trkpt lat="47.1651" lon="-1.48765">
        <ele>61</ele>
        <time>2020-05-24T10:43:55.000Z</time>
      </trkpt>
      <trkpt lat="47.16514" lon="-1.48748">
        <ele>60</ele>
        <time>2020-05-24T10:43:57.000Z</time>
      </trkpt>
      <trkpt lat="47.16517" lon="-1.48731">
        <ele>60</ele>
        <time>2020-05-24T10:43:59.000Z</time>
      </trkpt>
      <trkpt lat="47.1652" lon="-1.48714">
        <ele>61</ele>
        <time>2020-05-24T10:44:01.000Z</time>
      </trkpt>
      <trkpt lat="47.16522" lon="-1.48696">
        <ele>61</ele>
        <time>2020-05-24T10:44:03.000Z</time>
      </trkpt>
      <trkpt lat="47.16525" lon="-1.48679">
        <ele>60</ele>
        <time>2020-05-24T10:44:05.000Z</time>
      </trkpt>
      <trkpt lat="47.16528" lon="-1.48661">
        <ele>60</ele>
        <time>2020-05-24T10:44:07.000Z</time>
      </trkpt>
      <trkpt lat="47.1653" lon="-1.48643">
        <ele>60</ele>
        <time>2020-05-24T10:44:09.000Z</time>
      </trkpt>
      <trkpt lat="47.16533" lon="-1.48626">
        <ele>60</ele>
        <time>2020-05-24T10:44:11.000Z</time>
      </trkpt>
      <trkpt lat="47.16535" lon="-1.48608">
        <ele>60</ele>
        <time>2020-05-24T10:44:13.000Z</time>
      </trkpt>
      <trkpt lat="47.16537" lon="-1.48589">
        <ele>59</ele>
        <time>2020-05-24T10:44:15.000Z</time>
      </trkpt>
      <trkpt lat="47.16539" lon="-1.4857">
        <ele>58</ele>
        <time>2020-05-24T10:44:17.000Z</time>
      </trkpt>
      <trkpt lat="47.16537" lon="-1.4855">
        <ele>58</ele>
        <time>2020-05-24T10:44:19.000Z</time>
      </trkpt>
      <trkpt lat="47.16536" lon="-1.48531">
        <ele>58</ele>
        <time>2020-05-24T10:44:21.000Z</time>
      </trkpt>
      <trkpt lat="47.16532" lon="-1.48511">
        <ele>57</ele>
        <time>2020-05-24T10:44:23.000Z</time>
      </trkpt>
      <trkpt lat="47.16529" lon="-1.48492">
        <ele>57</ele>
        <time>2020-05-24T10:44:25.000Z</time>
      </trkpt>
      <trkpt lat="47.16527" lon="-1.48472">
        <ele>56</ele>
        <time>2020-05-24T10:44:27.000Z</time>
      </trkpt>
      <trkpt lat="47.16524" lon="-1.48454">
        <ele>56</ele>
        <time>2020-05-24T10:44:29.000Z</time>
      </trkpt>
      <trkpt lat="47.16521" lon="-1.48434">
        <ele>55</ele>
        <time>2020-05-24T10:44:31.000Z</time>
      </trkpt>
      <trkpt lat="47.16516" lon="-1.48415">
        <ele>55</ele>
        <time>2020-05-24T10:44:33.000Z</time>
      </trkpt>
      <trkpt lat="47.16511" lon="-1.48399">
        <ele>54</ele>
        <time>2020-05-24T10:44:35.000Z</time>
      </trkpt>
      <trkpt lat="47.16507" lon="-1.4838">
        <ele>54</ele>
        <time>2020-05-24T10:44:37.000Z</time>
      </trkpt>
      <trkpt lat="47.16505" lon="-1.4836">
        <ele>53</ele>
        <time>2020-05-24T10:44:39.000Z</time>
      </trkpt>
      <trkpt lat="47.16506" lon="-1.48337">
        <ele>53</ele>
        <time>2020-05-24T10:44:41.000Z</time>
      </trkpt>
      <trkpt lat="47.1651" lon="-1.48316">
        <ele>52</ele>
        <time>2020-05-24T10:44:43.000Z</time>
      </trkpt>
      <trkpt lat="47.16514" lon="-1.48295">
        <ele>52</ele>
        <time>2020-05-24T10:44:45.000Z</time>
      </trkpt>
      <trkpt lat="47.16517" lon="-1.48275">
        <ele>52</ele>
        <time>2020-05-24T10:44:47.000Z</time>
      </trkpt>
      <trkpt lat="47.16519" lon="-1.48256">
        <ele>52</ele>
        <time>2020-05-24T10:44:49.000Z</time>
      </trkpt>
      <trkpt lat="47.16519" lon="-1.48238">
        <ele>52</ele>
        <time>2020-05-24T10:44:51.000Z</time>
      </trkpt>
      <trkpt lat="47.16514" lon="-1.48219">
        <ele>53</ele>
        <time>2020-05-24T10:44:53.000Z</time>
      </trkpt>
      <trkpt lat="47.1651" lon="-1.48201">
        <ele>53</ele>
        <time>2020-05-24T10:44:55.000Z</time>
      </trkpt>
      <trkpt lat="47.16505" lon="-1.48181">
        <ele>53</ele>
        <time>2020-05-24T10:44:57.000Z</time>
      </trkpt>
      <trkpt lat="47.165" lon="-1.48162">
        <ele>53</ele>
        <time>2020-05-24T10:44:59.000Z</time>
      </trkpt>
      <trkpt lat="47.16494" lon="-1.48143">
        <ele>53</ele>
        <time>2020-05-24T10:45:01.000Z</time>
      </trkpt>
      <trkpt lat="47.16488" lon="-1.48124">
        <ele>53</ele>
        <time>2020-05-24T10:45:03.000Z</time>
      </trkpt>
      <trkpt lat="47.16482" lon="-1.48105">
        <ele>53</ele>
        <time>2020-05-24T10:45:05.000Z</time>
      </trkpt>
      <trkpt lat="47.16476" lon="-1.48085">
        <ele>53</ele>
        <time>2020-05-24T10:45:07.000Z</time>
      </trkpt>
      <trkpt lat="47.16471" lon="-1.48065">
        <ele>53</ele>
        <time>2020-05-24T10:45:09.000Z</time>
      </trkpt>
      <trkpt lat="47.16465" lon="-1.48045">
        <ele>53</ele>
        <time>2020-05-24T10:45:11.000Z</time>
      </trkpt>
      <trkpt lat="47.1646" lon="-1.48025">
        <ele>54</ele>
        <time>2020-05-24T10:45:13.000Z</time>
      </trkpt>
      <trkpt lat="47.16455" lon="-1.48006">
        <ele>54</ele>
        <time>2020-05-24T10:45:15.000Z</time>
      </trkpt>
      <trkpt lat="47.16451" lon="-1.47986">
        <ele>54</ele>
        <time>2020-05-24T10:45:17.000Z</time>
      </trkpt>
      <trkpt lat="47.16447" lon="-1.47967">
        <ele>55</ele>
        <time>2020-05-24T10:45:19.000Z</time>
      </trkpt>
      <trkpt lat="47.16442" lon="-1.47947">
        <ele>55</ele>
        <time>2020-05-24T10:45:21.000Z</time>
      </trkpt>
      <trkpt lat="47.16438" lon="-1.47927">
        <ele>55</ele>
        <time>2020-05-24T10:45:23.000Z</time>
      </trkpt>
      <trkpt lat="47.16434" lon="-1.47907">
        <ele>55</ele>
        <time>2020-05-24T10:45:25.000Z</time>
      </trkpt>
      <trkpt lat="47.1643" lon="-1.47888">
        <ele>56</ele>
        <time>2020-05-24T10:45:27.000Z</time>
      </trkpt>
      <trkpt lat="47.16426" lon="-1.47869">
        <ele>55</ele>
        <time>2020-05-24T10:45:29.000Z</time>
      </trkpt>
      <trkpt lat="47.16422" lon="-1.4785">
        <ele>56</ele>
        <time>2020-05-24T10:45:31.000Z</time>
      </trkpt>
      <trkpt lat="47.16418" lon="-1.47831">
        <ele>57</ele>
        <time>2020-05-24T10:45:33.000Z</time>
      </trkpt>
      <trkpt lat="47.16415" lon="-1.47813">
        <ele>57</ele>
        <time>2020-05-24T10:45:35.000Z</time>
      </trkpt>
      <trkpt lat="47.16411" lon="-1.47794">
        <ele>57</ele>
        <time>2020-05-24T10:45:37.000Z</time>
      </trkpt>
      <trkpt lat="47.16408" lon="-1.47776">
        <ele>57</ele>
        <time>2020-05-24T10:45:39.000Z</time>
      </trkpt>
      <trkpt lat="47.16404" lon="-1.4776">
        <ele>58</ele>
        <time>2020-05-24T10:45:41.000Z</time>
      </trkpt>
      <trkpt lat="47.164" lon="-1.47743">
        <ele>58</ele>
        <time>2020-05-24T10:45:43.000Z</time>
      </trkpt>
      <trkpt lat="47.16396" lon="-1.47725">
        <ele>58</ele>
        <time>2020-05-24T10:45:45.000Z</time>
      </trkpt>
      <trkpt lat="47.16392" lon="-1.47708">
        <ele>58</ele>
        <time>2020-05-24T10:45:47.000Z</time>
      </trkpt>
      <trkpt lat="47.16388" lon="-1.47692">
        <ele>58</ele>
        <time>2020-05-24T10:45:49.000Z</time>
      </trkpt>
      <trkpt lat="47.16385" lon="-1.47676">
        <ele>58</ele>
        <time>2020-05-24T10:45:51.000Z</time>
      </trkpt>
      <trkpt lat="47.16381" lon="-1.47659">
        <ele>58</ele>
        <time>2020-05-24T10:45:53.000Z</time>
      </trkpt>
      <trkpt lat="47.16377" lon="-1.47642">
        <ele>58</ele>
        <time>2020-05-24T10:45:55.000Z</time>
      </trkpt>
      <trkpt lat="47.16374" lon="-1.47625">
        <ele>58</ele>
        <time>2020-05-24T10:45:57.000Z</time>
      </trkpt>
      <trkpt lat="47.1637" lon="-1.47608">
        <ele>57</ele>
        <time>2020-05-24T10:45:59.000Z</time>
      </trkpt>
      <trkpt lat="47.16366" lon="-1.4759">
        <ele>58</ele>
        <time>2020-05-24T10:46:01.000Z</time>
      </trkpt>
      <trkpt lat="47.16363" lon="-1.47572">
        <ele>58</ele>
        <time>2020-05-24T10:46:03.000Z</time>
      </trkpt>
      <trkpt lat="47.1636" lon="-1.47555">
        <ele>58</ele>
        <time>2020-05-24T10:46:05.000Z</time>
      </trkpt>
      <trkpt lat="47.16356" lon="-1.47539">
        <ele>59</ele>
        <time>2020-05-24T10:46:07.000Z</time>
      </trkpt>
      <trkpt lat="47.16352" lon="-1.47523">
        <ele>59</ele>
        <time>2020-05-24T10:46:09.000Z</time>
      </trkpt>
      <trkpt lat="47.16348" lon="-1.47506">
        <ele>59</ele>
        <time>2020-05-24T10:46:11.000Z</time>
      </trkpt>
      <trkpt lat="47.16344" lon="-1.47489">
        <ele>59</ele>
        <time>2020-05-24T10:46:13.000Z</time>
      </trkpt>
      <trkpt lat="47.1634" lon="-1.47472">
        <ele>59</ele>
        <time>2020-05-24T10:46:15.000Z</time>
      </trkpt>
      <trkpt lat="47.16336" lon="-1.47456">
        <ele>59</ele>
        <time>2020-05-24T10:46:17.000Z</time>
      </trkpt>
      <trkpt lat="47.16331" lon="-1.47439">
        <ele>59</ele>
        <time>2020-05-24T10:46:19.000Z</time>
      </trkpt>
      <trkpt lat="47.16327" lon="-1.47422">
        <ele>58</ele>
        <time>2020-05-24T10:46:21.000Z</time>
      </trkpt>
      <trkpt lat="47.16324" lon="-1.47405">
        <ele>59</ele>
        <time>2020-05-24T10:46:23.000Z</time>
      </trkpt>
      <trkpt lat="47.16321" lon="-1.47387">
        <ele>60</ele>
        <time>2020-05-24T10:46:25.000Z</time>
      </trkpt>
      <trkpt lat="47.16319" lon="-1.47371">
        <ele>60</ele>
        <time>2020-05-24T10:46:27.000Z</time>
      </trkpt>
      <trkpt lat="47.16316" lon="-1.47354">
        <ele>61</ele>
        <time>2020-05-24T10:46:29.000Z</time>
      </trkpt>
      <trkpt lat="47.16316" lon="-1.47337">
        <ele>61</ele>
        <time>2020-05-24T10:46:31.000Z</time>
      </trkpt>
      <trkpt lat="47.16317" lon="-1.47319">
        <ele>61</ele>
        <time>2020-05-24T10:46:33.000Z</time>
      </trkpt>
      <trkpt lat="47.16317" lon="-1.47302">
        <ele>60</ele>
        <time>2020-05-24T10:46:35.000Z</time>
      </trkpt>
      <trkpt lat="47.16312" lon="-1.47287">
        <ele>61</ele>
        <time>2020-05-24T10:46:37.000Z</time>
      </trkpt>
      <trkpt lat="47.16307" lon="-1.47272">
        <ele>61</ele>
        <time>2020-05-24T10:46:39.000Z</time>
      </trkpt>
      <trkpt lat="47.16302" lon="-1.47258">
        <ele>61</ele>
        <time>2020-05-24T10:46:41.000Z</time>
      </trkpt>
      <trkpt lat="47.16296" lon="-1.47244">
        <ele>63</ele>
        <time>2020-05-24T10:46:43.000Z</time>
      </trkpt>
      <trkpt lat="47.16292" lon="-1.4723">
        <ele>63</ele>
        <time>2020-05-24T10:46:45.000Z</time>
      </trkpt>
      <trkpt lat="47.16288" lon="-1.47216">
        <ele>64</ele>
        <time>2020-05-24T10:46:47.000Z</time>
      </trkpt>
      <trkpt lat="47.16283" lon="-1.47202">
        <ele>64</ele>
        <time>2020-05-24T10:46:49.000Z</time>
      </trkpt>
      <trkpt lat="47.16279" lon="-1.47188">
        <ele>64</ele>
        <time>2020-05-24T10:46:51.000Z</time>
      </trkpt>
      <trkpt lat="47.16275" lon="-1.47174">
        <ele>65</ele>
        <time>2020-05-24T10:46:53.000Z</time>
      </trkpt>
      <trkpt lat="47.16271" lon="-1.4716">
        <ele>66</ele>
        <time>2020-05-24T10:46:55.000Z</time>
      </trkpt>
      <trkpt lat="47.16268" lon="-1.47147">
        <ele>66</ele>
        <time>2020-05-24T10:46:57.000Z</time>
      </trkpt>
      <trkpt lat="47.16264" lon="-1.47132">
        <ele>66</ele>
        <time>2020-05-24T10:46:59.000Z</time>
      </trkpt>
      <trkpt lat="47.16261" lon="-1.47118">
        <ele>66</ele>
        <time>2020-05-24T10:47:01.000Z</time>
      </trkpt>
      <trkpt lat="47.16259" lon="-1.47104">
        <ele>66</ele>
        <time>2020-05-24T10:47:03.000Z</time>
      </trkpt>
      <trkpt lat="47.16256" lon="-1.4709">
        <ele>65</ele>
        <time>2020-05-24T10:47:05.000Z</time>
      </trkpt>
      <trkpt lat="47.16255" lon="-1.47076">
        <ele>65</ele>
        <time>2020-05-24T10:47:07.000Z</time>
      </trkpt>
      <trkpt lat="47.16254" lon="-1.47061">
        <ele>66</ele>
        <time>2020-05-24T10:47:09.000Z</time>
      </trkpt>
      <trkpt lat="47.16254" lon="-1.47045">
        <ele>66</ele>
        <time>2020-05-24T10:47:11.000Z</time>
      </trkpt>
      <trkpt lat="47.16253" lon="-1.4703">
        <ele>67</ele>
        <time>2020-05-24T10:47:13.000Z</time>
      </trkpt>
      <trkpt lat="47.16253" lon="-1.47014">
        <ele>68</ele>
        <time>2020-05-24T10:47:15.000Z</time>
      </trkpt>
      <trkpt lat="47.16252" lon="-1.47">
        <ele>68</ele>
        <time>2020-05-24T10:47:17.000Z</time>
      </trkpt>
      <trkpt lat="47.16252" lon="-1.46986">
        <ele>69</ele>
        <time>2020-05-24T10:47:19.000Z</time>
      </trkpt>
      <trkpt lat="47.16253" lon="-1.46971">
        <ele>69</ele>
        <time>2020-05-24T10:47:21.000Z</time>
      </trkpt>
      <trkpt lat="47.16254" lon="-1.46956">
        <ele>69</ele>
        <time>2020-05-24T10:47:23.000Z</time>
      </trkpt>
      <trkpt lat="47.16254" lon="-1.46941">
        <ele>69</ele>
        <time>2020-05-24T10:47:25.000Z</time>
      </trkpt>
      <trkpt lat="47.16255" lon="-1.46927">
        <ele>69</ele>
        <time>2020-05-24T10:47:27.000Z</time>
      </trkpt>
      <trkpt lat="47.16255" lon="-1.46913">
        <ele>70</ele>
        <time>2020-05-24T10:47:29.000Z</time>
      </trkpt>
      <trkpt lat="47.16255" lon="-1.46899">
        <ele>70</ele>
        <time>2020-05-24T10:47:31.000Z</time>
      </trkpt>
      <trkpt lat="47.16255" lon="-1.46884">
        <ele>71</ele>
        <time>2020-05-24T10:47:33.000Z</time>
      </trkpt>
      <trkpt lat="47.16255" lon="-1.46869">
        <ele>71</ele>
        <time>2020-05-24T10:47:35.000Z</time>
      </trkpt>
      <trkpt lat="47.16255" lon="-1.46855">
        <ele>72</ele>
        <time>2020-05-24T10:47:37.000Z</time>
      </trkpt>
      <trkpt lat="47.16254" lon="-1.46841">
        <ele>72</ele>
        <time>2020-05-24T10:47:39.000Z</time>
      </trkpt>
      <trkpt lat="47.16251" lon="-1.46828">
        <ele>72</ele>
        <time>2020-05-24T10:47:41.000Z</time>
      </trkpt>
      <trkpt lat="47.1625" lon="-1.46812">
        <ele>73</ele>
        <time>2020-05-24T10:47:43.000Z</time>
      </trkpt>
      <trkpt lat="47.16255" lon="-1.46799">
        <ele>74</ele>
        <time>2020-05-24T10:47:45.000Z</time>
      </trkpt>
      <trkpt lat="47.16261" lon="-1.46785">
        <ele>73</ele>
        <time>2020-05-24T10:47:47.000Z</time>
      </trkpt>
      <trkpt lat="47.16264" lon="-1.4677">
        <ele>74</ele>
        <time>2020-05-24T10:47:49.000Z</time>
      </trkpt>
      <trkpt lat="47.16265" lon="-1.46754">
        <ele>75</ele>
        <time>2020-05-24T10:47:51.000Z</time>
      </trkpt>
      <trkpt lat="47.16267" lon="-1.46739">
        <ele>74</ele>
        <time>2020-05-24T10:47:53.000Z</time>
      </trkpt>
      <trkpt lat="47.16269" lon="-1.46724">
        <ele>74</ele>
        <time>2020-05-24T10:47:55.000Z</time>
      </trkpt>
      <trkpt lat="47.1627" lon="-1.4671">
        <ele>75</ele>
        <time>2020-05-24T10:47:57.000Z</time>
      </trkpt>
      <trkpt lat="47.16272" lon="-1.46695">
        <ele>75</ele>
        <time>2020-05-24T10:47:59.000Z</time>
      </trkpt>
      <trkpt lat="47.16273" lon="-1.46681">
        <ele>76</ele>
        <time>2020-05-24T10:48:01.000Z</time>
      </trkpt>
      <trkpt lat="47.16275" lon="-1.46666">
        <ele>76</ele>
        <time>2020-05-24T10:48:03.000Z</time>
      </trkpt>
      <trkpt lat="47.16276" lon="-1.46653">
        <ele>77</ele>
        <time>2020-05-24T10:48:05.000Z</time>
      </trkpt>
      <trkpt lat="47.16277" lon="-1.46639">
        <ele>77</ele>
        <time>2020-05-24T10:48:07.000Z</time>
      </trkpt>
      <trkpt lat="47.16278" lon="-1.46625">
        <ele>78</ele>
        <time>2020-05-24T10:48:09.000Z</time>
      </trkpt>
      <trkpt lat="47.16279" lon="-1.46612">
        <ele>78</ele>
        <time>2020-05-24T10:48:11.000Z</time>
      </trkpt>
      <trkpt lat="47.1628" lon="-1.46598">
        <ele>79</ele>
        <time>2020-05-24T10:48:13.000Z</time>
      </trkpt>
      <trkpt lat="47.16281" lon="-1.46584">
        <ele>79</ele>
        <time>2020-05-24T10:48:15.000Z</time>
      </trkpt>
      <trkpt lat="47.16282" lon="-1.46571">
        <ele>79</ele>
        <time>2020-05-24T10:48:17.000Z</time>
      </trkpt>
      <trkpt lat="47.16283" lon="-1.46557">
        <ele>80</ele>
        <time>2020-05-24T10:48:19.000Z</time>
      </trkpt>
      <trkpt lat="47.16285" lon="-1.46544">
        <ele>80</ele>
        <time>2020-05-24T10:48:21.000Z</time>
      </trkpt>
      <trkpt lat="47.16286" lon="-1.4653">
        <ele>81</ele>
        <time>2020-05-24T10:48:23.000Z</time>
      </trkpt>
      <trkpt lat="47.16288" lon="-1.46516">
        <ele>81</ele>
        <time>2020-05-24T10:48:25.000Z</time>
      </trkpt>
      <trkpt lat="47.1629" lon="-1.46502">
        <ele>81</ele>
        <time>2020-05-24T10:48:27.000Z</time>
      </trkpt>
      <trkpt lat="47.16291" lon="-1.46488">
        <ele>82</ele>
        <time>2020-05-24T10:48:29.000Z</time>
      </trkpt>
      <trkpt lat="47.16293" lon="-1.46474">
        <ele>82</ele>
        <time>2020-05-24T10:48:31.000Z</time>
      </trkpt>
      <trkpt lat="47.16295" lon="-1.46459">
        <ele>82</ele>
        <time>2020-05-24T10:48:33.000Z</time>
      </trkpt>
      <trkpt lat="47.16299" lon="-1.46444">
        <ele>83</ele>
        <time>2020-05-24T10:48:35.000Z</time>
      </trkpt>
      <trkpt lat="47.16302" lon="-1.46429">
        <ele>83</ele>
        <time>2020-05-24T10:48:37.000Z</time>
      </trkpt>
      <trkpt lat="47.16304" lon="-1.46415">
        <ele>84</ele>
        <time>2020-05-24T10:48:39.000Z</time>
      </trkpt>
      <trkpt lat="47.16308" lon="-1.464">
        <ele>84</ele>
        <time>2020-05-24T10:48:41.000Z</time>
      </trkpt>
      <trkpt lat="47.16312" lon="-1.46386">
        <ele>83</ele>
        <time>2020-05-24T10:48:43.000Z</time>
      </trkpt>
      <trkpt lat="47.16315" lon="-1.46373">
        <ele>83</ele>
        <time>2020-05-24T10:48:45.000Z</time>
      </trkpt>
      <trkpt lat="47.16319" lon="-1.46358">
        <ele>83</ele>
        <time>2020-05-24T10:48:47.000Z</time>
      </trkpt>
      <trkpt lat="47.16324" lon="-1.46344">
        <ele>83</ele>
        <time>2020-05-24T10:48:49.000Z</time>
      </trkpt>
      <trkpt lat="47.1633" lon="-1.4633">
        <ele>83</ele>
        <time>2020-05-24T10:48:51.000Z</time>
      </trkpt>
      <trkpt lat="47.16336" lon="-1.46317">
        <ele>83</ele>
        <time>2020-05-24T10:48:53.000Z</time>
      </trkpt>
      <trkpt lat="47.16342" lon="-1.46304">
        <ele>83</ele>
        <time>2020-05-24T10:48:55.000Z</time>
      </trkpt>
      <trkpt lat="47.16348" lon="-1.46291">
        <ele>83</ele>
        <time>2020-05-24T10:48:57.000Z</time>
      </trkpt>
      <trkpt lat="47.16354" lon="-1.46279">
        <ele>83</ele>
        <time>2020-05-24T10:48:59.000Z</time>
      </trkpt>
      <trkpt lat="47.16361" lon="-1.46267">
        <ele>83</ele>
        <time>2020-05-24T10:49:01.000Z</time>
      </trkpt>
      <trkpt lat="47.16368" lon="-1.46255">
        <ele>83</ele>
        <time>2020-05-24T10:49:03.000Z</time>
      </trkpt>
      <trkpt lat="47.16375" lon="-1.46243">
        <ele>82</ele>
        <time>2020-05-24T10:49:05.000Z</time>
      </trkpt>
      <trkpt lat="47.16382" lon="-1.46232">
        <ele>83</ele>
        <time>2020-05-24T10:49:07.000Z</time>
      </trkpt>
      <trkpt lat="47.1639" lon="-1.46221">
        <ele>82</ele>
        <time>2020-05-24T10:49:09.000Z</time>
      </trkpt>
      <trkpt lat="47.16398" lon="-1.4621">
        <ele>83</ele>
        <time>2020-05-24T10:49:11.000Z</time>
      </trkpt>
      <trkpt lat="47.16406" lon="-1.462">
        <ele>82</ele>
        <time>2020-05-24T10:49:13.000Z</time>
      </trkpt>
      <trkpt lat="47.16414" lon="-1.4619">
        <ele>82</ele>
        <time>2020-05-24T10:49:15.000Z</time>
      </trkpt>
      <trkpt lat="47.16423" lon="-1.4618">
        <ele>83</ele>
        <time>2020-05-24T10:49:17.000Z</time>
      </trkpt>
      <trkpt lat="47.16432" lon="-1.4617">
        <ele>82</ele>
        <time>2020-05-24T10:49:19.000Z</time>
      </trkpt>
      <trkpt lat="47.16441" lon="-1.46159">
        <ele>82</ele>
        <time>2020-05-24T10:49:21.000Z</time>
      </trkpt>
      <trkpt lat="47.16449" lon="-1.4615">
        <ele>82</ele>
        <time>2020-05-24T10:49:23.000Z</time>
      </trkpt>
      <trkpt lat="47.16457" lon="-1.4614">
        <ele>83</ele>
        <time>2020-05-24T10:49:25.000Z</time>
      </trkpt>
      <trkpt lat="47.16466" lon="-1.46129">
        <ele>83</ele>
        <time>2020-05-24T10:49:27.000Z</time>
      </trkpt>
      <trkpt lat="47.16474" lon="-1.46119">
        <ele>83</ele>
        <time>2020-05-24T10:49:29.000Z</time>
      </trkpt>
      <trkpt lat="47.16482" lon="-1.46109">
        <ele>83</ele>
        <time>2020-05-24T10:49:31.000Z</time>
      </trkpt>
      <trkpt lat="47.1649" lon="-1.46099">
        <ele>83</ele>
        <time>2020-05-24T10:49:33.000Z</time>
      </trkpt>
      <trkpt lat="47.16497" lon="-1.46088">
        <ele>83</ele>
        <time>2020-05-24T10:49:35.000Z</time>
      </trkpt>
      <trkpt lat="47.16503" lon="-1.46076">
        <ele>83</ele>
        <time>2020-05-24T10:49:37.000Z</time>
      </trkpt>
      <trkpt lat="47.16505" lon="-1.4606">
        <ele>82</ele>
        <time>2020-05-24T10:49:39.000Z</time>
      </trkpt>
      <trkpt lat="47.16508" lon="-1.46043">
        <ele>82</ele>
        <time>2020-05-24T10:49:41.000Z</time>
      </trkpt>
      <trkpt lat="47.16505" lon="-1.46024">
        <ele>82</ele>
        <time>2020-05-24T10:49:43.000Z</time>
      </trkpt>
      <trkpt lat="47.16499" lon="-1.46007">
        <ele>81</ele>
        <time>2020-05-24T10:49:45.000Z</time>
      </trkpt>
      <trkpt lat="47.16494" lon="-1.45989">
        <ele>81</ele>
        <time>2020-05-24T10:49:47.000Z</time>
      </trkpt>
      <trkpt lat="47.16488" lon="-1.45971">
        <ele>80</ele>
        <time>2020-05-24T10:49:49.000Z</time>
      </trkpt>
      <trkpt lat="47.16483" lon="-1.45952">
        <ele>80</ele>
        <time>2020-05-24T10:49:51.000Z</time>
      </trkpt>
      <trkpt lat="47.16478" lon="-1.45932">
        <ele>79</ele>
        <time>2020-05-24T10:49:53.000Z</time>
      </trkpt>
      <trkpt lat="47.16472" lon="-1.45912">
        <ele>79</ele>
        <time>2020-05-24T10:49:55.000Z</time>
      </trkpt>
      <trkpt lat="47.16466" lon="-1.45893">
        <ele>78</ele>
        <time>2020-05-24T10:49:57.000Z</time>
      </trkpt>
      <trkpt lat="47.1646" lon="-1.45873">
        <ele>77</ele>
        <time>2020-05-24T10:49:59.000Z</time>
      </trkpt>
      <trkpt lat="47.16455" lon="-1.45853">
        <ele>76</ele>
        <time>2020-05-24T10:50:01.000Z</time>
      </trkpt>
      <trkpt lat="47.1645" lon="-1.45833">
        <ele>76</ele>
        <time>2020-05-24T10:50:03.000Z</time>
      </trkpt>
      <trkpt lat="47.16445" lon="-1.45812">
        <ele>77</ele>
        <time>2020-05-24T10:50:05.000Z</time>
      </trkpt>
      <trkpt lat="47.1644" lon="-1.45792">
        <ele>77</ele>
        <time>2020-05-24T10:50:07.000Z</time>
      </trkpt>
      <trkpt lat="47.16435" lon="-1.4577">
        <ele>77</ele>
        <time>2020-05-24T10:50:09.000Z</time>
      </trkpt>
      <trkpt lat="47.16431" lon="-1.4575">
        <ele>77</ele>
        <time>2020-05-24T10:50:11.000Z</time>
      </trkpt>
      <trkpt lat="47.16426" lon="-1.4573">
        <ele>77</ele>
        <time>2020-05-24T10:50:13.000Z</time>
      </trkpt>
      <trkpt lat="47.16422" lon="-1.4571">
        <ele>77</ele>
        <time>2020-05-24T10:50:15.000Z</time>
      </trkpt>
      <trkpt lat="47.16417" lon="-1.4569">
        <ele>77</ele>
        <time>2020-05-24T10:50:17.000Z</time>
      </trkpt>
      <trkpt lat="47.16412" lon="-1.45671">
        <ele>77</ele>
        <time>2020-05-24T10:50:19.000Z</time>
      </trkpt>
      <trkpt lat="47.16406" lon="-1.45651">
        <ele>77</ele>
        <time>2020-05-24T10:50:21.000Z</time>
      </trkpt>
      <trkpt lat="47.164" lon="-1.45632">
        <ele>77</ele>
        <time>2020-05-24T10:50:23.000Z</time>
      </trkpt>
      <trkpt lat="47.16393" lon="-1.45615">
        <ele>78</ele>
        <time>2020-05-24T10:50:25.000Z</time>
      </trkpt>
      <trkpt lat="47.16387" lon="-1.45598">
        <ele>78</ele>
        <time>2020-05-24T10:50:27.000Z</time>
      </trkpt>
      <trkpt lat="47.16379" lon="-1.45583">
        <ele>78</ele>
        <time>2020-05-24T10:50:29.000Z</time>
      </trkpt>
      <trkpt lat="47.16371" lon="-1.45569">
        <ele>78</ele>
        <time>2020-05-24T10:50:31.000Z</time>
      </trkpt>
      <trkpt lat="47.16363" lon="-1.45554">
        <ele>77</ele>
        <time>2020-05-24T10:50:33.000Z</time>
      </trkpt>
      <trkpt lat="47.16354" lon="-1.45539">
        <ele>78</ele>
        <time>2020-05-24T10:50:35.000Z</time>
      </trkpt>
      <trkpt lat="47.16346" lon="-1.45524">
        <ele>78</ele>
        <time>2020-05-24T10:50:37.000Z</time>
      </trkpt>
      <trkpt lat="47.16338" lon="-1.4551">
        <ele>78</ele>
        <time>2020-05-24T10:50:39.000Z</time>
      </trkpt>
      <trkpt lat="47.1633" lon="-1.45496">
        <ele>77</ele>
        <time>2020-05-24T10:50:41.000Z</time>
      </trkpt>
      <trkpt lat="47.16321" lon="-1.45481">
        <ele>78</ele>
        <time>2020-05-24T10:50:43.000Z</time>
      </trkpt>
      <trkpt lat="47.16314" lon="-1.45466">
        <ele>77</ele>
        <time>2020-05-24T10:50:45.000Z</time>
      </trkpt>
      <trkpt lat="47.16307" lon="-1.45451">
        <ele>78</ele>
        <time>2020-05-24T10:50:47.000Z</time>
      </trkpt>
      <trkpt lat="47.163" lon="-1.45436">
        <ele>79</ele>
        <time>2020-05-24T10:50:49.000Z</time>
      </trkpt>
      <trkpt lat="47.16294" lon="-1.4542">
        <ele>80</ele>
        <time>2020-05-24T10:50:51.000Z</time>
      </trkpt>
      <trkpt lat="47.1629" lon="-1.45403">
        <ele>81</ele>
        <time>2020-05-24T10:50:53.000Z</time>
      </trkpt>
      <trkpt lat="47.16288" lon="-1.45386">
        <ele>81</ele>
        <time>2020-05-24T10:50:55.000Z</time>
      </trkpt>
      <trkpt lat="47.16287" lon="-1.4537">
        <ele>81</ele>
        <time>2020-05-24T10:50:57.000Z</time>
      </trkpt>
      <trkpt lat="47.16285" lon="-1.45354">
        <ele>81</ele>
        <time>2020-05-24T10:50:59.000Z</time>
      </trkpt>
      <trkpt lat="47.16283" lon="-1.45338">
        <ele>80</ele>
        <time>2020-05-24T10:51:01.000Z</time>
      </trkpt>
      <trkpt lat="47.16279" lon="-1.45324">
        <ele>80</ele>
        <time>2020-05-24T10:51:03.000Z</time>
      </trkpt>
      <trkpt lat="47.16275" lon="-1.4531">
        <ele>81</ele>
        <time>2020-05-24T10:51:05.000Z</time>
      </trkpt>
      <trkpt lat="47.16269" lon="-1.45296">
        <ele>81</ele>
        <time>2020-05-24T10:51:07.000Z</time>
      </trkpt>
      <trkpt lat="47.16264" lon="-1.45283">
        <ele>81</ele>
        <time>2020-05-24T10:51:09.000Z</time>
      </trkpt>
      <trkpt lat="47.16259" lon="-1.45269">
        <ele>82</ele>
        <time>2020-05-24T10:51:11.000Z</time>
      </trkpt>
      <trkpt lat="47.16255" lon="-1.45255">
        <ele>82</ele>
        <time>2020-05-24T10:51:13.000Z</time>
      </trkpt>
      <trkpt lat="47.16251" lon="-1.45242">
        <ele>83</ele>
        <time>2020-05-24T10:51:15.000Z</time>
      </trkpt>
      <trkpt lat="47.16247" lon="-1.45227">
        <ele>83</ele>
        <time>2020-05-24T10:51:17.000Z</time>
      </trkpt>
      <trkpt lat="47.16247" lon="-1.45212">
        <ele>84</ele>
        <time>2020-05-24T10:51:19.000Z</time>
      </trkpt>
      <trkpt lat="47.16251" lon="-1.45196">
        <ele>83</ele>
        <time>2020-05-24T10:51:21.000Z</time>
      </trkpt>
      <trkpt lat="47.16251" lon="-1.4518">
        <ele>83</ele>
        <time>2020-05-24T10:51:23.000Z</time>
      </trkpt>
      <trkpt lat="47.1625" lon="-1.45163">
        <ele>84</ele>
        <time>2020-05-24T10:51:25.000Z</time>
      </trkpt>
      <trkpt lat="47.16249" lon="-1.45147">
        <ele>84</ele>
        <time>2020-05-24T10:51:27.000Z</time>
      </trkpt>
      <trkpt lat="47.16249" lon="-1.4513">
        <ele>85</ele>
        <time>2020-05-24T10:51:29.000Z</time>
      </trkpt>
      <trkpt lat="47.16248" lon="-1.45112">
        <ele>84</ele>
        <time>2020-05-24T10:51:31.000Z</time>
      </trkpt>
      <trkpt lat="47.16248" lon="-1.45095">
        <ele>84</ele>
        <time>2020-05-24T10:51:33.000Z</time>
      </trkpt>
      <trkpt lat="47.16247" lon="-1.45077">
        <ele>84</ele>
        <time>2020-05-24T10:51:35.000Z</time>
      </trkpt>
      <trkpt lat="47.16246" lon="-1.45059">
        <ele>84</ele>
        <time>2020-05-24T10:51:37.000Z</time>
      </trkpt>
      <trkpt lat="47.16245" lon="-1.4504">
        <ele>84</ele>
        <time>2020-05-24T10:51:39.000Z</time>
      </trkpt>
      <trkpt lat="47.16245" lon="-1.45022">
        <ele>84</ele>
        <time>2020-05-24T10:51:41.000Z</time>
      </trkpt>
      <trkpt lat="47.16244" lon="-1.45004">
        <ele>84</ele>
        <time>2020-05-24T10:51:43.000Z</time>
      </trkpt>
      <trkpt lat="47.16243" lon="-1.44986">
        <ele>83</ele>
        <time>2020-05-24T10:51:45.000Z</time>
      </trkpt>
      <trkpt lat="47.16242" lon="-1.44969">
        <ele>83</ele>
        <time>2020-05-24T10:51:47.000Z</time>
      </trkpt>
      <trkpt lat="47.16241" lon="-1.44952">
        <ele>83</ele>
        <time>2020-05-24T10:51:49.000Z</time>
      </trkpt>
      <trkpt lat="47.16241" lon="-1.44933">
        <ele>82</ele>
        <time>2020-05-24T10:51:51.000Z</time>
      </trkpt>
      <trkpt lat="47.1624" lon="-1.44916">
        <ele>81</ele>
        <time>2020-05-24T10:51:53.000Z</time>
      </trkpt>
      <trkpt lat="47.1624" lon="-1.44897">
        <ele>82</ele>
        <time>2020-05-24T10:51:55.000Z</time>
      </trkpt>
      <trkpt lat="47.16239" lon="-1.44879">
        <ele>81</ele>
        <time>2020-05-24T10:51:57.000Z</time>
      </trkpt>
      <trkpt lat="47.16238" lon="-1.4486">
        <ele>82</ele>
        <time>2020-05-24T10:51:59.000Z</time>
      </trkpt>
      <trkpt lat="47.16239" lon="-1.44842">
        <ele>81</ele>
        <time>2020-05-24T10:52:01.000Z</time>
      </trkpt>
      <trkpt lat="47.16238" lon="-1.44823">
        <ele>81</ele>
        <time>2020-05-24T10:52:03.000Z</time>
      </trkpt>
      <trkpt lat="47.16238" lon="-1.44804">
        <ele>82</ele>
        <time>2020-05-24T10:52:05.000Z</time>
      </trkpt>
      <trkpt lat="47.16237" lon="-1.44786">
        <ele>82</ele>
        <time>2020-05-24T10:52:07.000Z</time>
      </trkpt>
      <trkpt lat="47.16236" lon="-1.44768">
        <ele>83</ele>
        <time>2020-05-24T10:52:09.000Z</time>
      </trkpt>
      <trkpt lat="47.16235" lon="-1.44751">
        <ele>83</ele>
        <time>2020-05-24T10:52:11.000Z</time>
      </trkpt>
      <trkpt lat="47.16235" lon="-1.44734">
        <ele>83</ele>
        <time>2020-05-24T10:52:13.000Z</time>
      </trkpt>
      <trkpt lat="47.16234" lon="-1.44717">
        <ele>83</ele>
        <time>2020-05-24T10:52:15.000Z</time>
      </trkpt>
      <trkpt lat="47.16234" lon="-1.447">
        <ele>83</ele>
        <time>2020-05-24T10:52:17.000Z</time>
      </trkpt>
      <trkpt lat="47.16233" lon="-1.44683">
        <ele>83</ele>
        <time>2020-05-24T10:52:19.000Z</time>
      </trkpt>
      <trkpt lat="47.16234" lon="-1.44665">
        <ele>82</ele>
        <time>2020-05-24T10:52:21.000Z</time>
      </trkpt>
      <trkpt lat="47.16234" lon="-1.44646">
        <ele>82</ele>
        <time>2020-05-24T10:52:23.000Z</time>
      </trkpt>
      <trkpt lat="47.16234" lon="-1.44628">
        <ele>82</ele>
        <time>2020-05-24T10:52:25.000Z</time>
      </trkpt>
      <trkpt lat="47.16234" lon="-1.4461">
        <ele>82</ele>
        <time>2020-05-24T10:52:27.000Z</time>
      </trkpt>
      <trkpt lat="47.16234" lon="-1.44593">
        <ele>82</ele>
        <time>2020-05-24T10:52:29.000Z</time>
      </trkpt>
      <trkpt lat="47.16234" lon="-1.44576">
        <ele>82</ele>
        <time>2020-05-24T10:52:31.000Z</time>
      </trkpt>
      <trkpt lat="47.16233" lon="-1.44559">
        <ele>81</ele>
        <time>2020-05-24T10:52:33.000Z</time>
      </trkpt>
      <trkpt lat="47.16233" lon="-1.44542">
        <ele>81</ele>
        <time>2020-05-24T10:52:35.000Z</time>
      </trkpt>
      <trkpt lat="47.16232" lon="-1.44524">
        <ele>81</ele>
        <time>2020-05-24T10:52:37.000Z</time>
      </trkpt>
      <trkpt lat="47.16231" lon="-1.44506">
        <ele>81</ele>
        <time>2020-05-24T10:52:39.000Z</time>
      </trkpt>
      <trkpt lat="47.16231" lon="-1.44489">
        <ele>81</ele>
        <time>2020-05-24T10:52:41.000Z</time>
      </trkpt>
      <trkpt lat="47.1623" lon="-1.44472">
        <ele>81</ele>
        <time>2020-05-24T10:52:43.000Z</time>
      </trkpt>
      <trkpt lat="47.1623" lon="-1.44454">
        <ele>82</ele>
        <time>2020-05-24T10:52:45.000Z</time>
      </trkpt>
      <trkpt lat="47.16229" lon="-1.44436">
        <ele>81</ele>
        <time>2020-05-24T10:52:47.000Z</time>
      </trkpt>
      <trkpt lat="47.16229" lon="-1.44419">
        <ele>81</ele>
        <time>2020-05-24T10:52:49.000Z</time>
      </trkpt>
      <trkpt lat="47.16228" lon="-1.44401">
        <ele>81</ele>
        <time>2020-05-24T10:52:51.000Z</time>
      </trkpt>
      <trkpt lat="47.16228" lon="-1.44382">
        <ele>81</ele>
        <time>2020-05-24T10:52:53.000Z</time>
      </trkpt>
      <trkpt lat="47.16227" lon="-1.44364">
        <ele>81</ele>
        <time>2020-05-24T10:52:55.000Z</time>
      </trkpt>
      <trkpt lat="47.16226" lon="-1.44346">
        <ele>81</ele>
        <time>2020-05-24T10:52:57.000Z</time>
      </trkpt>
      <trkpt lat="47.16226" lon="-1.44327">
        <ele>81</ele>
        <time>2020-05-24T10:52:59.000Z</time>
      </trkpt>
      <trkpt lat="47.16225" lon="-1.44309">
        <ele>81</ele>
        <time>2020-05-24T10:53:01.000Z</time>
      </trkpt>
      <trkpt lat="47.16224" lon="-1.44291">
        <ele>81</ele>
        <time>2020-05-24T10:53:03.000Z</time>
      </trkpt>
      <trkpt lat="47.16224" lon="-1.44273">
        <ele>80</ele>
        <time>2020-05-24T10:53:05.000Z</time>
      </trkpt>
      <trkpt lat="47.16223" lon="-1.44255">
        <ele>80</ele>
        <time>2020-05-24T10:53:07.000Z</time>
      </trkpt>
      <trkpt lat="47.16222" lon="-1.44237">
        <ele>80</ele>
        <time>2020-05-24T10:53:09.000Z</time>
      </trkpt>
      <trkpt lat="47.16222" lon="-1.44219">
        <ele>80</ele>
        <time>2020-05-24T10:53:11.000Z</time>
      </trkpt>
      <trkpt lat="47.16222" lon="-1.44201">
        <ele>80</ele>
        <time>2020-05-24T10:53:13.000Z</time>
      </trkpt>
      <trkpt lat="47.16221" lon="-1.44184">
        <ele>80</ele>
        <time>2020-05-24T10:53:15.000Z</time>
      </trkpt>
      <trkpt lat="47.1622" lon="-1.44166">
        <ele>79</ele>
        <time>2020-05-24T10:53:17.000Z</time>
      </trkpt>
      <trkpt lat="47.1622" lon="-1.44148">
        <ele>79</ele>
        <time>2020-05-24T10:53:19.000Z</time>
      </trkpt>
      <trkpt lat="47.16219" lon="-1.44131">
        <ele>80</ele>
        <time>2020-05-24T10:53:21.000Z</time>
      </trkpt>
      <trkpt lat="47.16219" lon="-1.44113">
        <ele>79</ele>
        <time>2020-05-24T10:53:23.000Z</time>
      </trkpt>
      <trkpt lat="47.16218" lon="-1.44096">
        <ele>79</ele>
        <time>2020-05-24T10:53:25.000Z</time>
      </trkpt>
      <trkpt lat="47.16217" lon="-1.44078">
        <ele>79</ele>
        <time>2020-05-24T10:53:27.000Z</time>
      </trkpt>
      <trkpt lat="47.16217" lon="-1.44061">
        <ele>80</ele>
        <time>2020-05-24T10:53:29.000Z</time>
      </trkpt>
      <trkpt lat="47.16216" lon="-1.44043">
        <ele>80</ele>
        <time>2020-05-24T10:53:31.000Z</time>
      </trkpt>
      <trkpt lat="47.16216" lon="-1.44025">
        <ele>80</ele>
        <time>2020-05-24T10:53:33.000Z</time>
      </trkpt>
      <trkpt lat="47.16215" lon="-1.44008">
        <ele>80</ele>
        <time>2020-05-24T10:53:35.000Z</time>
      </trkpt>
      <trkpt lat="47.16215" lon="-1.4399">
        <ele>80</ele>
        <time>2020-05-24T10:53:37.000Z</time>
      </trkpt>
      <trkpt lat="47.16214" lon="-1.43973">
        <ele>80</ele>
        <time>2020-05-24T10:53:39.000Z</time>
      </trkpt>
      <trkpt lat="47.16214" lon="-1.43955">
        <ele>80</ele>
        <time>2020-05-24T10:53:41.000Z</time>
      </trkpt>
      <trkpt lat="47.16213" lon="-1.43938">
        <ele>80</ele>
        <time>2020-05-24T10:53:43.000Z</time>
      </trkpt>
      <trkpt lat="47.16213" lon="-1.4392">
        <ele>81</ele>
        <time>2020-05-24T10:53:45.000Z</time>
      </trkpt>
      <trkpt lat="47.16211" lon="-1.43903">
        <ele>81</ele>
        <time>2020-05-24T10:53:47.000Z</time>
      </trkpt>
      <trkpt lat="47.16211" lon="-1.43886">
        <ele>81</ele>
        <time>2020-05-24T10:53:49.000Z</time>
      </trkpt>
      <trkpt lat="47.1621" lon="-1.43868">
        <ele>81</ele>
        <time>2020-05-24T10:53:51.000Z</time>
      </trkpt>
      <trkpt lat="47.1621" lon="-1.43851">
        <ele>80</ele>
        <time>2020-05-24T10:53:53.000Z</time>
      </trkpt>
      <trkpt lat="47.1621" lon="-1.43834">
        <ele>80</ele>
        <time>2020-05-24T10:53:55.000Z</time>
      </trkpt>
      <trkpt lat="47.1621" lon="-1.43818">
        <ele>80</ele>
        <time>2020-05-24T10:53:57.000Z</time>
      </trkpt>
      <trkpt lat="47.16209" lon="-1.43802">
        <ele>80</ele>
        <time>2020-05-24T10:53:59.000Z</time>
      </trkpt>
      <trkpt lat="47.16208" lon="-1.43787">
        <ele>80</ele>
        <time>2020-05-24T10:54:01.000Z</time>
      </trkpt>
      <trkpt lat="47.16208" lon="-1.43771">
        <ele>81</ele>
        <time>2020-05-24T10:54:03.000Z</time>
      </trkpt>
      <trkpt lat="47.16208" lon="-1.43754">
        <ele>81</ele>
        <time>2020-05-24T10:54:05.000Z</time>
      </trkpt>
      <trkpt lat="47.16208" lon="-1.43738">
        <ele>81</ele>
        <time>2020-05-24T10:54:07.000Z</time>
      </trkpt>
      <trkpt lat="47.16208" lon="-1.43723">
        <ele>82</ele>
        <time>2020-05-24T10:54:09.000Z</time>
      </trkpt>
      <trkpt lat="47.16207" lon="-1.43707">
        <ele>82</ele>
        <time>2020-05-24T10:54:11.000Z</time>
      </trkpt>
      <trkpt lat="47.16206" lon="-1.43691">
        <ele>82</ele>
        <time>2020-05-24T10:54:13.000Z</time>
      </trkpt>
      <trkpt lat="47.16205" lon="-1.43675">
        <ele>83</ele>
        <time>2020-05-24T10:54:15.000Z</time>
      </trkpt>
      <trkpt lat="47.16204" lon="-1.43657">
        <ele>82</ele>
        <time>2020-05-24T10:54:17.000Z</time>
      </trkpt>
      <trkpt lat="47.16204" lon="-1.43639">
        <ele>82</ele>
        <time>2020-05-24T10:54:19.000Z</time>
      </trkpt>
      <trkpt lat="47.16203" lon="-1.4362">
        <ele>82</ele>
        <time>2020-05-24T10:54:21.000Z</time>
      </trkpt>
      <trkpt lat="47.16203" lon="-1.436">
        <ele>81</ele>
        <time>2020-05-24T10:54:23.000Z</time>
      </trkpt>
      <trkpt lat="47.16203" lon="-1.43579">
        <ele>80</ele>
        <time>2020-05-24T10:54:25.000Z</time>
      </trkpt>
      <trkpt lat="47.16201" lon="-1.43558">
        <ele>79</ele>
        <time>2020-05-24T10:54:27.000Z</time>
      </trkpt>
      <trkpt lat="47.162" lon="-1.43535">
        <ele>78</ele>
        <time>2020-05-24T10:54:29.000Z</time>
      </trkpt>
      <trkpt lat="47.16198" lon="-1.43511">
        <ele>78</ele>
        <time>2020-05-24T10:54:31.000Z</time>
      </trkpt>
      <trkpt lat="47.16195" lon="-1.43488">
        <ele>77</ele>
        <time>2020-05-24T10:54:33.000Z</time>
      </trkpt>
      <trkpt lat="47.16191" lon="-1.43464">
        <ele>76</ele>
        <time>2020-05-24T10:54:35.000Z</time>
      </trkpt>
      <trkpt lat="47.16186" lon="-1.43439">
        <ele>75</ele>
        <time>2020-05-24T10:54:37.000Z</time>
      </trkpt>
      <trkpt lat="47.1618" lon="-1.43415">
        <ele>74</ele>
        <time>2020-05-24T10:54:39.000Z</time>
      </trkpt>
      <trkpt lat="47.16173" lon="-1.43391">
        <ele>73</ele>
        <time>2020-05-24T10:54:41.000Z</time>
      </trkpt>
      <trkpt lat="47.16165" lon="-1.43367">
        <ele>72</ele>
        <time>2020-05-24T10:54:43.000Z</time>
      </trkpt>
      <trkpt lat="47.16161" lon="-1.43355">
        <ele>71</ele>
        <time>2020-05-24T10:54:44.000Z</time>
      </trkpt>
      <trkpt lat="47.16156" lon="-1.43344">
        <ele>70</ele>
        <time>2020-05-24T10:54:45.000Z</time>
      </trkpt>
      <trkpt lat="47.16151" lon="-1.43332">
        <ele>70</ele>
        <time>2020-05-24T10:54:46.000Z</time>
      </trkpt>
      <trkpt lat="47.16146" lon="-1.43321">
        <ele>70</ele>
        <time>2020-05-24T10:54:47.000Z</time>
      </trkpt>
      <trkpt lat="47.16141" lon="-1.43309">
        <ele>69</ele>
        <time>2020-05-24T10:54:48.000Z</time>
      </trkpt>
      <trkpt lat="47.16135" lon="-1.43298">
        <ele>69</ele>
        <time>2020-05-24T10:54:49.000Z</time>
      </trkpt>
      <trkpt lat="47.1613" lon="-1.43286">
        <ele>68</ele>
        <time>2020-05-24T10:54:50.000Z</time>
      </trkpt>
      <trkpt lat="47.16124" lon="-1.43275">
        <ele>68</ele>
        <time>2020-05-24T10:54:51.000Z</time>
      </trkpt>
      <trkpt lat="47.16119" lon="-1.43264">
        <ele>67</ele>
        <time>2020-05-24T10:54:52.000Z</time>
      </trkpt>
      <trkpt lat="47.16114" lon="-1.43252">
        <ele>67</ele>
        <time>2020-05-24T10:54:53.000Z</time>
      </trkpt>
      <trkpt lat="47.16108" lon="-1.43241">
        <ele>67</ele>
        <time>2020-05-24T10:54:54.000Z</time>
      </trkpt>
      <trkpt lat="47.16103" lon="-1.43229">
        <ele>66</ele>
        <time>2020-05-24T10:54:55.000Z</time>
      </trkpt>
      <trkpt lat="47.16097" lon="-1.43217">
        <ele>66</ele>
        <time>2020-05-24T10:54:56.000Z</time>
      </trkpt>
      <trkpt lat="47.16092" lon="-1.43206">
        <ele>65</ele>
        <time>2020-05-24T10:54:57.000Z</time>
      </trkpt>
      <trkpt lat="47.16086" lon="-1.43194">
        <ele>64</ele>
        <time>2020-05-24T10:54:58.000Z</time>
      </trkpt>
      <trkpt lat="47.16081" lon="-1.43182">
        <ele>64</ele>
        <time>2020-05-24T10:54:59.000Z</time>
      </trkpt>
      <trkpt lat="47.16075" lon="-1.4317">
        <ele>64</ele>
        <time>2020-05-24T10:55:00.000Z</time>
      </trkpt>
      <trkpt lat="47.1607" lon="-1.43158">
        <ele>63</ele>
        <time>2020-05-24T10:55:01.000Z</time>
      </trkpt>
      <trkpt lat="47.16065" lon="-1.43147">
        <ele>63</ele>
        <time>2020-05-24T10:55:02.000Z</time>
      </trkpt>
      <trkpt lat="47.16059" lon="-1.43135">
        <ele>63</ele>
        <time>2020-05-24T10:55:03.000Z</time>
      </trkpt>
      <trkpt lat="47.16054" lon="-1.43123">
        <ele>62</ele>
        <time>2020-05-24T10:55:04.000Z</time>
      </trkpt>
      <trkpt lat="47.16048" lon="-1.43111">
        <ele>62</ele>
        <time>2020-05-24T10:55:05.000Z</time>
      </trkpt>
      <trkpt lat="47.16043" lon="-1.431">
        <ele>62</ele>
        <time>2020-05-24T10:55:06.000Z</time>
      </trkpt>
      <trkpt lat="47.16038" lon="-1.43088">
        <ele>62</ele>
        <time>2020-05-24T10:55:07.000Z</time>
      </trkpt>
      <trkpt lat="47.16032" lon="-1.43076">
        <ele>61</ele>
        <time>2020-05-24T10:55:08.000Z</time>
      </trkpt>
      <trkpt lat="47.16027" lon="-1.43064">
        <ele>61</ele>
        <time>2020-05-24T10:55:09.000Z</time>
      </trkpt>
      <trkpt lat="47.16021" lon="-1.43052">
        <ele>61</ele>
        <time>2020-05-24T10:55:10.000Z</time>
      </trkpt>
      <trkpt lat="47.16016" lon="-1.4304">
        <ele>61</ele>
        <time>2020-05-24T10:55:11.000Z</time>
      </trkpt>
      <trkpt lat="47.1601" lon="-1.43028">
        <ele>60</ele>
        <time>2020-05-24T10:55:12.000Z</time>
      </trkpt>
      <trkpt lat="47.16004" lon="-1.43016">
        <ele>59</ele>
        <time>2020-05-24T10:55:13.000Z</time>
      </trkpt>
      <trkpt lat="47.15998" lon="-1.43003">
        <ele>59</ele>
        <time>2020-05-24T10:55:14.000Z</time>
      </trkpt>
      <trkpt lat="47.15992" lon="-1.42991">
        <ele>58</ele>
        <time>2020-05-24T10:55:15.000Z</time>
      </trkpt>
      <trkpt lat="47.15986" lon="-1.42978">
        <ele>58</ele>
        <time>2020-05-24T10:55:16.000Z</time>
      </trkpt>
      <trkpt lat="47.15981" lon="-1.42965">
        <ele>57</ele>
        <time>2020-05-24T10:55:17.000Z</time>
      </trkpt>
      <trkpt lat="47.15975" lon="-1.42952">
        <ele>57</ele>
        <time>2020-05-24T10:55:18.000Z</time>
      </trkpt>
      <trkpt lat="47.1597" lon="-1.42939">
        <ele>56</ele>
        <time>2020-05-24T10:55:19.000Z</time>
      </trkpt>
      <trkpt lat="47.15965" lon="-1.42927">
        <ele>56</ele>
        <time>2020-05-24T10:55:20.000Z</time>
      </trkpt>
      <trkpt lat="47.15955" lon="-1.42906">
        <ele>55</ele>
        <time>2020-05-24T10:55:22.000Z</time>
      </trkpt>
      <trkpt lat="47.15947" lon="-1.42887">
        <ele>56</ele>
        <time>2020-05-24T10:55:24.000Z</time>
      </trkpt>
      <trkpt lat="47.1594" lon="-1.42871">
        <ele>56</ele>
        <time>2020-05-24T10:55:26.000Z</time>
      </trkpt>
      <trkpt lat="47.15933" lon="-1.42856">
        <ele>57</ele>
        <time>2020-05-24T10:55:28.000Z</time>
      </trkpt>
      <trkpt lat="47.15928" lon="-1.42842">
        <ele>57</ele>
        <time>2020-05-24T10:55:30.000Z</time>
      </trkpt>
      <trkpt lat="47.15921" lon="-1.42831">
        <ele>58</ele>
        <time>2020-05-24T10:55:32.000Z</time>
      </trkpt>
      <trkpt lat="47.15916" lon="-1.4282">
        <ele>58</ele>
        <time>2020-05-24T10:55:34.000Z</time>
      </trkpt>
      <trkpt lat="47.1591" lon="-1.42808">
        <ele>59</ele>
        <time>2020-05-24T10:55:36.000Z</time>
      </trkpt>
      <trkpt lat="47.15905" lon="-1.42795">
        <ele>59</ele>
        <time>2020-05-24T10:55:38.000Z</time>
      </trkpt>
      <trkpt lat="47.159" lon="-1.42784">
        <ele>60</ele>
        <time>2020-05-24T10:55:40.000Z</time>
      </trkpt>
      <trkpt lat="47.15895" lon="-1.42773">
        <ele>60</ele>
        <time>2020-05-24T10:55:42.000Z</time>
      </trkpt>
      <trkpt lat="47.1589" lon="-1.42761">
        <ele>60</ele>
        <time>2020-05-24T10:55:44.000Z</time>
      </trkpt>
      <trkpt lat="47.15884" lon="-1.42749">
        <ele>60</ele>
        <time>2020-05-24T10:55:46.000Z</time>
      </trkpt>
      <trkpt lat="47.15879" lon="-1.42737">
        <ele>61</ele>
        <time>2020-05-24T10:55:48.000Z</time>
      </trkpt>
      <trkpt lat="47.15874" lon="-1.42725">
        <ele>61</ele>
        <time>2020-05-24T10:55:50.000Z</time>
      </trkpt>
      <trkpt lat="47.15869" lon="-1.42713">
        <ele>62</ele>
        <time>2020-05-24T10:55:52.000Z</time>
      </trkpt>
      <trkpt lat="47.15862" lon="-1.42696">
        <ele>62</ele>
        <time>2020-05-24T10:55:55.000Z</time>
      </trkpt>
      <trkpt lat="47.15856" lon="-1.42679">
        <ele>63</ele>
        <time>2020-05-24T10:55:58.000Z</time>
      </trkpt>
      <trkpt lat="47.15851" lon="-1.42661">
        <ele>64</ele>
        <time>2020-05-24T10:56:01.000Z</time>
      </trkpt>
      <trkpt lat="47.15847" lon="-1.42644">
        <ele>64</ele>
        <time>2020-05-24T10:56:04.000Z</time>
      </trkpt>
      <trkpt lat="47.15842" lon="-1.42626">
        <ele>65</ele>
        <time>2020-05-24T10:56:07.000Z</time>
      </trkpt>
      <trkpt lat="47.15839" lon="-1.42609">
        <ele>66</ele>
        <time>2020-05-24T10:56:10.000Z</time>
      </trkpt>
      <trkpt lat="47.15835" lon="-1.42591">
        <ele>67</ele>
        <time>2020-05-24T10:56:13.000Z</time>
      </trkpt>
      <trkpt lat="47.15832" lon="-1.42573">
        <ele>68</ele>
        <time>2020-05-24T10:56:16.000Z</time>
      </trkpt>
      <trkpt lat="47.15829" lon="-1.42555">
        <ele>68</ele>
        <time>2020-05-24T10:56:19.000Z</time>
      </trkpt>
      <trkpt lat="47.15828" lon="-1.42542">
        <ele>68</ele>
        <time>2020-05-24T10:56:21.000Z</time>
      </trkpt>
      <trkpt lat="47.15827" lon="-1.42528">
        <ele>68</ele>
        <time>2020-05-24T10:56:23.000Z</time>
      </trkpt>
      <trkpt lat="47.15826" lon="-1.42509">
        <ele>69</ele>
        <time>2020-05-24T10:56:26.000Z</time>
      </trkpt>
      <trkpt lat="47.15826" lon="-1.4249">
        <ele>69</ele>
        <time>2020-05-24T10:56:29.000Z</time>
      </trkpt>
      <trkpt lat="47.15826" lon="-1.42471">
        <ele>69</ele>
        <time>2020-05-24T10:56:32.000Z</time>
      </trkpt>
      <trkpt lat="47.15827" lon="-1.42452">
        <ele>69</ele>
        <time>2020-05-24T10:56:35.000Z</time>
      </trkpt>
      <trkpt lat="47.15828" lon="-1.42434">
        <ele>70</ele>
        <time>2020-05-24T10:56:38.000Z</time>
      </trkpt>
      <trkpt lat="47.15828" lon="-1.42416">
        <ele>70</ele>
        <time>2020-05-24T10:56:41.000Z</time>
      </trkpt>
      <trkpt lat="47.15829" lon="-1.42398">
        <ele>71</ele>
        <time>2020-05-24T10:56:44.000Z</time>
      </trkpt>
      <trkpt lat="47.15829" lon="-1.42381">
        <ele>71</ele>
        <time>2020-05-24T10:56:47.000Z</time>
      </trkpt>
      <trkpt lat="47.15831" lon="-1.42362">
        <ele>71</ele>
        <time>2020-05-24T10:56:50.000Z</time>
      </trkpt>
      <trkpt lat="47.15831" lon="-1.42343">
        <ele>71</ele>
        <time>2020-05-24T10:56:53.000Z</time>
      </trkpt>
      <trkpt lat="47.15832" lon="-1.42325">
        <ele>73</ele>
        <time>2020-05-24T10:56:56.000Z</time>
      </trkpt>
      <trkpt lat="47.15832" lon="-1.42308">
        <ele>74</ele>
        <time>2020-05-24T10:56:59.000Z</time>
      </trkpt>
      <trkpt lat="47.15832" lon="-1.42291">
        <ele>74</ele>
        <time>2020-05-24T10:57:02.000Z</time>
      </trkpt>
      <trkpt lat="47.15832" lon="-1.42274">
        <ele>75</ele>
        <time>2020-05-24T10:57:05.000Z</time>
      </trkpt>
      <trkpt lat="47.15833" lon="-1.42256">
        <ele>76</ele>
        <time>2020-05-24T10:57:08.000Z</time>
      </trkpt>
      <trkpt lat="47.15833" lon="-1.42238">
        <ele>77</ele>
        <time>2020-05-24T10:57:11.000Z</time>
      </trkpt>
      <trkpt lat="47.15833" lon="-1.42221">
        <ele>77</ele>
        <time>2020-05-24T10:57:14.000Z</time>
      </trkpt>
      <trkpt lat="47.15834" lon="-1.42203">
        <ele>78</ele>
        <time>2020-05-24T10:57:17.000Z</time>
      </trkpt>
      <trkpt lat="47.15834" lon="-1.42186">
        <ele>78</ele>
        <time>2020-05-24T10:57:20.000Z</time>
      </trkpt>
      <trkpt lat="47.15835" lon="-1.42168">
        <ele>79</ele>
        <time>2020-05-24T10:57:23.000Z</time>
      </trkpt>
      <trkpt lat="47.15835" lon="-1.4215">
        <ele>80</ele>
        <time>2020-05-24T10:57:26.000Z</time>
      </trkpt>
      <trkpt lat="47.15836" lon="-1.42133">
        <ele>80</ele>
        <time>2020-05-24T10:57:29.000Z</time>
      </trkpt>
      <trkpt lat="47.15836" lon="-1.42115">
        <ele>81</ele>
        <time>2020-05-24T10:57:32.000Z</time>
      </trkpt>
      <trkpt lat="47.15836" lon="-1.42098">
        <ele>83</ele>
        <time>2020-05-24T10:57:35.000Z</time>
      </trkpt>
      <trkpt lat="47.15836" lon="-1.42081">
        <ele>84</ele>
        <time>2020-05-24T10:57:38.000Z</time>
      </trkpt>
      <trkpt lat="47.15836" lon="-1.42064">
        <ele>86</ele>
        <time>2020-05-24T10:57:41.000Z</time>
      </trkpt>
      <trkpt lat="47.15837" lon="-1.42046">
        <ele>86</ele>
        <time>2020-05-24T10:57:44.000Z</time>
      </trkpt>
      <trkpt lat="47.15837" lon="-1.42028">
        <ele>87</ele>
        <time>2020-05-24T10:57:47.000Z</time>
      </trkpt>
      <trkpt lat="47.15837" lon="-1.42009">
        <ele>88</ele>
        <time>2020-05-24T10:57:50.000Z</time>
      </trkpt>
      <trkpt lat="47.15837" lon="-1.4199">
        <ele>88</ele>
        <time>2020-05-24T10:57:53.000Z</time>
      </trkpt>
      <trkpt lat="47.15838" lon="-1.41971">
        <ele>88</ele>
        <time>2020-05-24T10:57:56.000Z</time>
      </trkpt>
      <trkpt lat="47.15838" lon="-1.41953">
        <ele>88</ele>
        <time>2020-05-24T10:57:59.000Z</time>
      </trkpt>
      <trkpt lat="47.15838" lon="-1.41934">
        <ele>88</ele>
        <time>2020-05-24T10:58:02.000Z</time>
      </trkpt>
      <trkpt lat="47.15838" lon="-1.41915">
        <ele>89</ele>
        <time>2020-05-24T10:58:05.000Z</time>
      </trkpt>
      <trkpt lat="47.15837" lon="-1.41896">
        <ele>89</ele>
        <time>2020-05-24T10:58:08.000Z</time>
      </trkpt>
      <trkpt lat="47.15837" lon="-1.41877">
        <ele>89</ele>
        <time>2020-05-24T10:58:11.000Z</time>
      </trkpt>
      <trkpt lat="47.15836" lon="-1.41858">
        <ele>90</ele>
        <time>2020-05-24T10:58:14.000Z</time>
      </trkpt>
      <trkpt lat="47.15835" lon="-1.41839">
        <ele>90</ele>
        <time>2020-05-24T10:58:17.000Z</time>
      </trkpt>
      <trkpt lat="47.15834" lon="-1.41826">
        <ele>90</ele>
        <time>2020-05-24T10:58:19.000Z</time>
      </trkpt>
      <trkpt lat="47.15833" lon="-1.41812">
        <ele>91</ele>
        <time>2020-05-24T10:58:21.000Z</time>
      </trkpt>
      <trkpt lat="47.15832" lon="-1.41799">
        <ele>91</ele>
        <time>2020-05-24T10:58:23.000Z</time>
      </trkpt>
      <trkpt lat="47.1583" lon="-1.4178">
        <ele>92</ele>
        <time>2020-05-24T10:58:26.000Z</time>
      </trkpt>
      <trkpt lat="47.15829" lon="-1.41767">
        <ele>92</ele>
        <time>2020-05-24T10:58:28.000Z</time>
      </trkpt>
      <trkpt lat="47.15827" lon="-1.41747">
        <ele>93</ele>
        <time>2020-05-24T10:58:31.000Z</time>
      </trkpt>
      <trkpt lat="47.15825" lon="-1.41733">
        <ele>93</ele>
        <time>2020-05-24T10:58:33.000Z</time>
      </trkpt>
      <trkpt lat="47.15823" lon="-1.41719">
        <ele>93</ele>
        <time>2020-05-24T10:58:35.000Z</time>
      </trkpt>
      <trkpt lat="47.15821" lon="-1.41705">
        <ele>93</ele>
        <time>2020-05-24T10:58:37.000Z</time>
      </trkpt>
      <trkpt lat="47.15819" lon="-1.4169">
        <ele>93</ele>
        <time>2020-05-24T10:58:39.000Z</time>
      </trkpt>
      <trkpt lat="47.15817" lon="-1.41675">
        <ele>93</ele>
        <time>2020-05-24T10:58:41.000Z</time>
      </trkpt>
      <trkpt lat="47.15814" lon="-1.4166">
        <ele>93</ele>
        <time>2020-05-24T10:58:43.000Z</time>
      </trkpt>
      <trkpt lat="47.15811" lon="-1.41643">
        <ele>92</ele>
        <time>2020-05-24T10:58:45.000Z</time>
      </trkpt>
      <trkpt lat="47.15808" lon="-1.41626">
        <ele>92</ele>
        <time>2020-05-24T10:58:47.000Z</time>
      </trkpt>
      <trkpt lat="47.15805" lon="-1.4161">
        <ele>92</ele>
        <time>2020-05-24T10:58:49.000Z</time>
      </trkpt>
      <trkpt lat="47.15802" lon="-1.41594">
        <ele>92</ele>
        <time>2020-05-24T10:58:51.000Z</time>
      </trkpt>
      <trkpt lat="47.15799" lon="-1.41577">
        <ele>92</ele>
        <time>2020-05-24T10:58:53.000Z</time>
      </trkpt>
      <trkpt lat="47.15795" lon="-1.41561">
        <ele>92</ele>
        <time>2020-05-24T10:58:55.000Z</time>
      </trkpt>
      <trkpt lat="47.15791" lon="-1.41544">
        <ele>92</ele>
        <time>2020-05-24T10:58:57.000Z</time>
      </trkpt>
      <trkpt lat="47.15787" lon="-1.41528">
        <ele>92</ele>
        <time>2020-05-24T10:58:59.000Z</time>
      </trkpt>
      <trkpt lat="47.15783" lon="-1.41512">
        <ele>92</ele>
        <time>2020-05-24T10:59:01.000Z</time>
      </trkpt>
      <trkpt lat="47.15778" lon="-1.41495">
        <ele>92</ele>
        <time>2020-05-24T10:59:03.000Z</time>
      </trkpt>
      <trkpt lat="47.15774" lon="-1.41478">
        <ele>92</ele>
        <time>2020-05-24T10:59:05.000Z</time>
      </trkpt>
      <trkpt lat="47.15768" lon="-1.41461">
        <ele>92</ele>
        <time>2020-05-24T10:59:07.000Z</time>
      </trkpt>
      <trkpt lat="47.15763" lon="-1.41445">
        <ele>92</ele>
        <time>2020-05-24T10:59:09.000Z</time>
      </trkpt>
      <trkpt lat="47.15758" lon="-1.41428">
        <ele>92</ele>
        <time>2020-05-24T10:59:11.000Z</time>
      </trkpt>
      <trkpt lat="47.15752" lon="-1.41411">
        <ele>93</ele>
        <time>2020-05-24T10:59:13.000Z</time>
      </trkpt>
      <trkpt lat="47.15746" lon="-1.41394">
        <ele>93</ele>
        <time>2020-05-24T10:59:15.000Z</time>
      </trkpt>
      <trkpt lat="47.15741" lon="-1.41377">
        <ele>93</ele>
        <time>2020-05-24T10:59:17.000Z</time>
      </trkpt>
      <trkpt lat="47.15735" lon="-1.41359">
        <ele>93</ele>
        <time>2020-05-24T10:59:19.000Z</time>
      </trkpt>
      <trkpt lat="47.15729" lon="-1.41341">
        <ele>92</ele>
        <time>2020-05-24T10:59:21.000Z</time>
      </trkpt>
      <trkpt lat="47.15723" lon="-1.41322">
        <ele>92</ele>
        <time>2020-05-24T10:59:23.000Z</time>
      </trkpt>
      <trkpt lat="47.15717" lon="-1.41304">
        <ele>92</ele>
        <time>2020-05-24T10:59:25.000Z</time>
      </trkpt>
      <trkpt lat="47.15711" lon="-1.41285">
        <ele>91</ele>
        <time>2020-05-24T10:59:27.000Z</time>
      </trkpt>
      <trkpt lat="47.15705" lon="-1.41267">
        <ele>91</ele>
        <time>2020-05-24T10:59:29.000Z</time>
      </trkpt>
      <trkpt lat="47.15699" lon="-1.41249">
        <ele>91</ele>
        <time>2020-05-24T10:59:31.000Z</time>
      </trkpt>
      <trkpt lat="47.15694" lon="-1.41232">
        <ele>91</ele>
        <time>2020-05-24T10:59:33.000Z</time>
      </trkpt>
      <trkpt lat="47.15688" lon="-1.41216">
        <ele>91</ele>
        <time>2020-05-24T10:59:35.000Z</time>
      </trkpt>
      <trkpt lat="47.15683" lon="-1.41199">
        <ele>91</ele>
        <time>2020-05-24T10:59:37.000Z</time>
      </trkpt>
      <trkpt lat="47.15678" lon="-1.41182">
        <ele>91</ele>
        <time>2020-05-24T10:59:39.000Z</time>
      </trkpt>
      <trkpt lat="47.15673" lon="-1.41165">
        <ele>91</ele>
        <time>2020-05-24T10:59:41.000Z</time>
      </trkpt>
      <trkpt lat="47.15668" lon="-1.41149">
        <ele>91</ele>
        <time>2020-05-24T10:59:43.000Z</time>
      </trkpt>
      <trkpt lat="47.15664" lon="-1.41131">
        <ele>91</ele>
        <time>2020-05-24T10:59:45.000Z</time>
      </trkpt>
      <trkpt lat="47.15659" lon="-1.41114">
        <ele>91</ele>
        <time>2020-05-24T10:59:47.000Z</time>
      </trkpt>
      <trkpt lat="47.15655" lon="-1.41096">
        <ele>90</ele>
        <time>2020-05-24T10:59:49.000Z</time>
      </trkpt>
      <trkpt lat="47.1565" lon="-1.41077">
        <ele>90</ele>
        <time>2020-05-24T10:59:51.000Z</time>
      </trkpt>
      <trkpt lat="47.15646" lon="-1.41058">
        <ele>89</ele>
        <time>2020-05-24T10:59:53.000Z</time>
      </trkpt>
      <trkpt lat="47.15641" lon="-1.41039">
        <ele>89</ele>
        <time>2020-05-24T10:59:55.000Z</time>
      </trkpt>
      <trkpt lat="47.15637" lon="-1.41021">
        <ele>89</ele>
        <time>2020-05-24T10:59:57.000Z</time>
      </trkpt>
      <trkpt lat="47.15632" lon="-1.41001">
        <ele>88</ele>
        <time>2020-05-24T10:59:59.000Z</time>
      </trkpt>
      <trkpt lat="47.15627" lon="-1.40981">
        <ele>88</ele>
        <time>2020-05-24T11:00:01.000Z</time>
      </trkpt>
      <trkpt lat="47.15622" lon="-1.40961">
        <ele>88</ele>
        <time>2020-05-24T11:00:03.000Z</time>
      </trkpt>
      <trkpt lat="47.15618" lon="-1.40943">
        <ele>88</ele>
        <time>2020-05-24T11:00:05.000Z</time>
      </trkpt>
      <trkpt lat="47.15613" lon="-1.40924">
        <ele>88</ele>
        <time>2020-05-24T11:00:07.000Z</time>
      </trkpt>
      <trkpt lat="47.15608" lon="-1.40906">
        <ele>88</ele>
        <time>2020-05-24T11:00:09.000Z</time>
      </trkpt>
      <trkpt lat="47.15603" lon="-1.40887">
        <ele>89</ele>
        <time>2020-05-24T11:00:11.000Z</time>
      </trkpt>
      <trkpt lat="47.15599" lon="-1.40869">
        <ele>89</ele>
        <time>2020-05-24T11:00:13.000Z</time>
      </trkpt>
      <trkpt lat="47.15594" lon="-1.40851">
        <ele>89</ele>
        <time>2020-05-24T11:00:15.000Z</time>
      </trkpt>
      <trkpt lat="47.15589" lon="-1.40834">
        <ele>89</ele>
        <time>2020-05-24T11:00:17.000Z</time>
      </trkpt>
      <trkpt lat="47.15585" lon="-1.40814">
        <ele>89</ele>
        <time>2020-05-24T11:00:19.000Z</time>
      </trkpt>
      <trkpt lat="47.15581" lon="-1.40796">
        <ele>89</ele>
        <time>2020-05-24T11:00:21.000Z</time>
      </trkpt>
      <trkpt lat="47.15576" lon="-1.40777">
        <ele>90</ele>
        <time>2020-05-24T11:00:23.000Z</time>
      </trkpt>
      <trkpt lat="47.15572" lon="-1.40759">
        <ele>89</ele>
        <time>2020-05-24T11:00:25.000Z</time>
      </trkpt>
      <trkpt lat="47.15569" lon="-1.40741">
        <ele>89</ele>
        <time>2020-05-24T11:00:27.000Z</time>
      </trkpt>
      <trkpt lat="47.15565" lon="-1.40723">
        <ele>89</ele>
        <time>2020-05-24T11:00:29.000Z</time>
      </trkpt>
      <trkpt lat="47.15563" lon="-1.40706">
        <ele>89</ele>
        <time>2020-05-24T11:00:31.000Z</time>
      </trkpt>
      <trkpt lat="47.15562" lon="-1.40687">
        <ele>89</ele>
        <time>2020-05-24T11:00:33.000Z</time>
      </trkpt>
      <trkpt lat="47.15561" lon="-1.40668">
        <ele>88</ele>
        <time>2020-05-24T11:00:35.000Z</time>
      </trkpt>
      <trkpt lat="47.15561" lon="-1.40651">
        <ele>88</ele>
        <time>2020-05-24T11:00:37.000Z</time>
      </trkpt>
      <trkpt lat="47.15562" lon="-1.40633">
        <ele>88</ele>
        <time>2020-05-24T11:00:39.000Z</time>
      </trkpt>
      <trkpt lat="47.15562" lon="-1.40615">
        <ele>88</ele>
        <time>2020-05-24T11:00:41.000Z</time>
      </trkpt>
      <trkpt lat="47.15562" lon="-1.40598">
        <ele>89</ele>
        <time>2020-05-24T11:00:43.000Z</time>
      </trkpt>
      <trkpt lat="47.15562" lon="-1.40579">
        <ele>88</ele>
        <time>2020-05-24T11:00:45.000Z</time>
      </trkpt>
      <trkpt lat="47.15563" lon="-1.4056">
        <ele>89</ele>
        <time>2020-05-24T11:00:47.000Z</time>
      </trkpt>
      <trkpt lat="47.15563" lon="-1.40541">
        <ele>88</ele>
        <time>2020-05-24T11:00:49.000Z</time>
      </trkpt>
      <trkpt lat="47.15563" lon="-1.40522">
        <ele>87</ele>
        <time>2020-05-24T11:00:51.000Z</time>
      </trkpt>
      <trkpt lat="47.15564" lon="-1.40503">
        <ele>86</ele>
        <time>2020-05-24T11:00:53.000Z</time>
      </trkpt>
      <trkpt lat="47.15565" lon="-1.40484">
        <ele>86</ele>
        <time>2020-05-24T11:00:55.000Z</time>
      </trkpt>
      <trkpt lat="47.15566" lon="-1.40465">
        <ele>86</ele>
        <time>2020-05-24T11:00:57.000Z</time>
      </trkpt>
      <trkpt lat="47.15568" lon="-1.40446">
        <ele>86</ele>
        <time>2020-05-24T11:00:59.000Z</time>
      </trkpt>
      <trkpt lat="47.15567" lon="-1.40425">
        <ele>85</ele>
        <time>2020-05-24T11:01:01.000Z</time>
      </trkpt>
      <trkpt lat="47.15567" lon="-1.40405">
        <ele>85</ele>
        <time>2020-05-24T11:01:03.000Z</time>
      </trkpt>
      <trkpt lat="47.15568" lon="-1.40386">
        <ele>84</ele>
        <time>2020-05-24T11:01:05.000Z</time>
      </trkpt>
      <trkpt lat="47.15569" lon="-1.40367">
        <ele>84</ele>
        <time>2020-05-24T11:01:07.000Z</time>
      </trkpt>
      <trkpt lat="47.1557" lon="-1.40348">
        <ele>84</ele>
        <time>2020-05-24T11:01:09.000Z</time>
      </trkpt>
      <trkpt lat="47.1557" lon="-1.4033">
        <ele>84</ele>
        <time>2020-05-24T11:01:11.000Z</time>
      </trkpt>
      <trkpt lat="47.15571" lon="-1.40311">
        <ele>84</ele>
        <time>2020-05-24T11:01:13.000Z</time>
      </trkpt>
      <trkpt lat="47.15572" lon="-1.4029">
        <ele>84</ele>
        <time>2020-05-24T11:01:15.000Z</time>
      </trkpt>
      <trkpt lat="47.15572" lon="-1.40268">
        <ele>84</ele>
        <time>2020-05-24T11:01:17.000Z</time>
      </trkpt>
      <trkpt lat="47.15573" lon="-1.40245">
        <ele>82</ele>
        <time>2020-05-24T11:01:19.000Z</time>
      </trkpt>
      <trkpt lat="47.15575" lon="-1.4022">
        <ele>80</ele>
        <time>2020-05-24T11:01:21.000Z</time>
      </trkpt>
      <trkpt lat="47.15574" lon="-1.40206">
        <ele>78</ele>
        <time>2020-05-24T11:01:22.000Z</time>
      </trkpt>
      <trkpt lat="47.15571" lon="-1.4018">
        <ele>77</ele>
        <time>2020-05-24T11:01:24.000Z</time>
      </trkpt>
      <trkpt lat="47.15565" lon="-1.40157">
        <ele>76</ele>
        <time>2020-05-24T11:01:26.000Z</time>
      </trkpt>
      <trkpt lat="47.15558" lon="-1.40138">
        <ele>75</ele>
        <time>2020-05-24T11:01:28.000Z</time>
      </trkpt>
      <trkpt lat="47.1555" lon="-1.4012">
        <ele>75</ele>
        <time>2020-05-24T11:01:30.000Z</time>
      </trkpt>
      <trkpt lat="47.15541" lon="-1.40105">
        <ele>74</ele>
        <time>2020-05-24T11:01:32.000Z</time>
      </trkpt>
      <trkpt lat="47.15532" lon="-1.40089">
        <ele>75</ele>
        <time>2020-05-24T11:01:34.000Z</time>
      </trkpt>
      <trkpt lat="47.15524" lon="-1.40074">
        <ele>75</ele>
        <time>2020-05-24T11:01:36.000Z</time>
      </trkpt>
      <trkpt lat="47.15517" lon="-1.40061">
        <ele>74</ele>
        <time>2020-05-24T11:01:38.000Z</time>
      </trkpt>
      <trkpt lat="47.15507" lon="-1.40055">
        <ele>74</ele>
        <time>2020-05-24T11:01:40.000Z</time>
      </trkpt>
      <trkpt lat="47.15497" lon="-1.40047">
        <ele>75</ele>
        <time>2020-05-24T11:01:42.000Z</time>
      </trkpt>
      <trkpt lat="47.1549" lon="-1.40033">
        <ele>75</ele>
        <time>2020-05-24T11:01:44.000Z</time>
      </trkpt>
      <trkpt lat="47.15485" lon="-1.40019">
        <ele>75</ele>
        <time>2020-05-24T11:01:46.000Z</time>
      </trkpt>
      <trkpt lat="47.15482" lon="-1.40006">
        <ele>76</ele>
        <time>2020-05-24T11:01:48.000Z</time>
      </trkpt>
      <trkpt lat="47.15477" lon="-1.3999">
        <ele>76</ele>
        <time>2020-05-24T11:01:51.000Z</time>
      </trkpt>
      <trkpt lat="47.15477" lon="-1.39976">
        <ele>76</ele>
        <time>2020-05-24T11:01:54.000Z</time>
      </trkpt>
      <trkpt lat="47.15484" lon="-1.39966">
        <ele>76</ele>
        <time>2020-05-24T11:01:56.000Z</time>
      </trkpt>
      <trkpt lat="47.15494" lon="-1.39957">
        <ele>76</ele>
        <time>2020-05-24T11:01:58.000Z</time>
      </trkpt>
      <trkpt lat="47.15506" lon="-1.39948">
        <ele>76</ele>
        <time>2020-05-24T11:02:00.000Z</time>
      </trkpt>
      <trkpt lat="47.15517" lon="-1.39939">
        <ele>76</ele>
        <time>2020-05-24T11:02:02.000Z</time>
      </trkpt>
      <trkpt lat="47.15528" lon="-1.39932">
        <ele>76</ele>
        <time>2020-05-24T11:02:04.000Z</time>
      </trkpt>
      <trkpt lat="47.15539" lon="-1.39924">
        <ele>76</ele>
        <time>2020-05-24T11:02:06.000Z</time>
      </trkpt>
      <trkpt lat="47.15548" lon="-1.39914">
        <ele>75</ele>
        <time>2020-05-24T11:02:08.000Z</time>
      </trkpt>
      <trkpt lat="47.15559" lon="-1.39906">
        <ele>75</ele>
        <time>2020-05-24T11:02:10.000Z</time>
      </trkpt>
      <trkpt lat="47.15569" lon="-1.39898">
        <ele>75</ele>
        <time>2020-05-24T11:02:12.000Z</time>
      </trkpt>
      <trkpt lat="47.1558" lon="-1.39889">
        <ele>75</ele>
        <time>2020-05-24T11:02:14.000Z</time>
      </trkpt>
      <trkpt lat="47.15592" lon="-1.3988">
        <ele>75</ele>
        <time>2020-05-24T11:02:16.000Z</time>
      </trkpt>
      <trkpt lat="47.15603" lon="-1.39872">
        <ele>75</ele>
        <time>2020-05-24T11:02:18.000Z</time>
      </trkpt>
      <trkpt lat="47.15613" lon="-1.39863">
        <ele>75</ele>
        <time>2020-05-24T11:02:20.000Z</time>
      </trkpt>
      <trkpt lat="47.15624" lon="-1.39856">
        <ele>75</ele>
        <time>2020-05-24T11:02:22.000Z</time>
      </trkpt>
      <trkpt lat="47.15635" lon="-1.39848">
        <ele>75</ele>
        <time>2020-05-24T11:02:24.000Z</time>
      </trkpt>
      <trkpt lat="47.15645" lon="-1.39841">
        <ele>76</ele>
        <time>2020-05-24T11:02:26.000Z</time>
      </trkpt>
      <trkpt lat="47.15655" lon="-1.39834">
        <ele>76</ele>
        <time>2020-05-24T11:02:28.000Z</time>
      </trkpt>
      <trkpt lat="47.15665" lon="-1.39827">
        <ele>75</ele>
        <time>2020-05-24T11:02:30.000Z</time>
      </trkpt>
      <trkpt lat="47.15675" lon="-1.39821">
        <ele>76</ele>
        <time>2020-05-24T11:02:32.000Z</time>
      </trkpt>
      <trkpt lat="47.15685" lon="-1.39814">
        <ele>75</ele>
        <time>2020-05-24T11:02:34.000Z</time>
      </trkpt>
      <trkpt lat="47.15696" lon="-1.39808">
        <ele>76</ele>
        <time>2020-05-24T11:02:36.000Z</time>
      </trkpt>
      <trkpt lat="47.15707" lon="-1.398">
        <ele>77</ele>
        <time>2020-05-24T11:02:38.000Z</time>
      </trkpt>
      <trkpt lat="47.15718" lon="-1.39793">
        <ele>77</ele>
        <time>2020-05-24T11:02:40.000Z</time>
      </trkpt>
      <trkpt lat="47.15728" lon="-1.39787">
        <ele>78</ele>
        <time>2020-05-24T11:02:42.000Z</time>
      </trkpt>
      <trkpt lat="47.15738" lon="-1.3978">
        <ele>78</ele>
        <time>2020-05-24T11:02:44.000Z</time>
      </trkpt>
      <trkpt lat="47.15748" lon="-1.39774">
        <ele>78</ele>
        <time>2020-05-24T11:02:46.000Z</time>
      </trkpt>
      <trkpt lat="47.15758" lon="-1.39767">
        <ele>77</ele>
        <time>2020-05-24T11:02:48.000Z</time>
      </trkpt>
      <trkpt lat="47.15768" lon="-1.3976">
        <ele>78</ele>
        <time>2020-05-24T11:02:50.000Z</time>
      </trkpt>
      <trkpt lat="47.15777" lon="-1.39754">
        <ele>78</ele>
        <time>2020-05-24T11:02:52.000Z</time>
      </trkpt>
      <trkpt lat="47.15787" lon="-1.39747">
        <ele>78</ele>
        <time>2020-05-24T11:02:54.000Z</time>
      </trkpt>
      <trkpt lat="47.15797" lon="-1.39741">
        <ele>79</ele>
        <time>2020-05-24T11:02:56.000Z</time>
      </trkpt>
      <trkpt lat="47.15806" lon="-1.39736">
        <ele>80</ele>
        <time>2020-05-24T11:02:58.000Z</time>
      </trkpt>
      <trkpt lat="47.15816" lon="-1.39731">
        <ele>80</ele>
        <time>2020-05-24T11:03:00.000Z</time>
      </trkpt>
      <trkpt lat="47.15826" lon="-1.39725">
        <ele>80</ele>
        <time>2020-05-24T11:03:02.000Z</time>
      </trkpt>
      <trkpt lat="47.15836" lon="-1.39719">
        <ele>80</ele>
        <time>2020-05-24T11:03:04.000Z</time>
      </trkpt>
      <trkpt lat="47.15845" lon="-1.39712">
        <ele>80</ele>
        <time>2020-05-24T11:03:06.000Z</time>
      </trkpt>
      <trkpt lat="47.15854" lon="-1.39705">
        <ele>80</ele>
        <time>2020-05-24T11:03:08.000Z</time>
      </trkpt>
      <trkpt lat="47.15863" lon="-1.397">
        <ele>80</ele>
        <time>2020-05-24T11:03:10.000Z</time>
      </trkpt>
      <trkpt lat="47.15874" lon="-1.39693">
        <ele>80</ele>
        <time>2020-05-24T11:03:12.000Z</time>
      </trkpt>
      <trkpt lat="47.15883" lon="-1.39688">
        <ele>79</ele>
        <time>2020-05-24T11:03:14.000Z</time>
      </trkpt>
      <trkpt lat="47.15894" lon="-1.39682">
        <ele>79</ele>
        <time>2020-05-24T11:03:16.000Z</time>
      </trkpt>
      <trkpt lat="47.15904" lon="-1.39674">
        <ele>79</ele>
        <time>2020-05-24T11:03:18.000Z</time>
      </trkpt>
      <trkpt lat="47.15915" lon="-1.39667">
        <ele>79</ele>
        <time>2020-05-24T11:03:20.000Z</time>
      </trkpt>
      <trkpt lat="47.15926" lon="-1.39662">
        <ele>78</ele>
        <time>2020-05-24T11:03:22.000Z</time>
      </trkpt>
      <trkpt lat="47.15938" lon="-1.39657">
        <ele>78</ele>
        <time>2020-05-24T11:03:24.000Z</time>
      </trkpt>
      <trkpt lat="47.1595" lon="-1.39653">
        <ele>78</ele>
        <time>2020-05-24T11:03:26.000Z</time>
      </trkpt>
      <trkpt lat="47.15961" lon="-1.39648">
        <ele>77</ele>
        <time>2020-05-24T11:03:28.000Z</time>
      </trkpt>
      <trkpt lat="47.15973" lon="-1.39643">
        <ele>77</ele>
        <time>2020-05-24T11:03:30.000Z</time>
      </trkpt>
      <trkpt lat="47.15985" lon="-1.39635">
        <ele>77</ele>
        <time>2020-05-24T11:03:32.000Z</time>
      </trkpt>
      <trkpt lat="47.15997" lon="-1.39627">
        <ele>76</ele>
        <time>2020-05-24T11:03:34.000Z</time>
      </trkpt>
      <trkpt lat="47.16011" lon="-1.39618">
        <ele>75</ele>
        <time>2020-05-24T11:03:36.000Z</time>
      </trkpt>
      <trkpt lat="47.16024" lon="-1.39608">
        <ele>75</ele>
        <time>2020-05-24T11:03:38.000Z</time>
      </trkpt>
      <trkpt lat="47.16038" lon="-1.39598">
        <ele>74</ele>
        <time>2020-05-24T11:03:40.000Z</time>
      </trkpt>
      <trkpt lat="47.16053" lon="-1.39589">
        <ele>73</ele>
        <time>2020-05-24T11:03:42.000Z</time>
      </trkpt>
      <trkpt lat="47.16068" lon="-1.3958">
        <ele>72</ele>
        <time>2020-05-24T11:03:44.000Z</time>
      </trkpt>
      <trkpt lat="47.16084" lon="-1.39571">
        <ele>71</ele>
        <time>2020-05-24T11:03:46.000Z</time>
      </trkpt>
      <trkpt lat="47.161" lon="-1.39563">
        <ele>71</ele>
        <time>2020-05-24T11:03:48.000Z</time>
      </trkpt>
      <trkpt lat="47.16116" lon="-1.39555">
        <ele>70</ele>
        <time>2020-05-24T11:03:50.000Z</time>
      </trkpt>
      <trkpt lat="47.1613" lon="-1.39546">
        <ele>70</ele>
        <time>2020-05-24T11:03:52.000Z</time>
      </trkpt>
      <trkpt lat="47.16144" lon="-1.39538">
        <ele>70</ele>
        <time>2020-05-24T11:03:54.000Z</time>
      </trkpt>
      <trkpt lat="47.16158" lon="-1.39529">
        <ele>70</ele>
        <time>2020-05-24T11:03:56.000Z</time>
      </trkpt>
      <trkpt lat="47.16173" lon="-1.39522">
        <ele>69</ele>
        <time>2020-05-24T11:03:58.000Z</time>
      </trkpt>
      <trkpt lat="47.16187" lon="-1.39514">
        <ele>70</ele>
        <time>2020-05-24T11:04:00.000Z</time>
      </trkpt>
      <trkpt lat="47.162" lon="-1.39507">
        <ele>70</ele>
        <time>2020-05-24T11:04:02.000Z</time>
      </trkpt>
      <trkpt lat="47.16213" lon="-1.395">
        <ele>70</ele>
        <time>2020-05-24T11:04:04.000Z</time>
      </trkpt>
      <trkpt lat="47.16227" lon="-1.39493">
        <ele>68</ele>
        <time>2020-05-24T11:04:06.000Z</time>
      </trkpt>
      <trkpt lat="47.16242" lon="-1.39486">
        <ele>68</ele>
        <time>2020-05-24T11:04:08.000Z</time>
      </trkpt>
      <trkpt lat="47.16256" lon="-1.3948">
        <ele>67</ele>
        <time>2020-05-24T11:04:10.000Z</time>
      </trkpt>
      <trkpt lat="47.1627" lon="-1.39472">
        <ele>67</ele>
        <time>2020-05-24T11:04:12.000Z</time>
      </trkpt>
      <trkpt lat="47.16285" lon="-1.39465">
        <ele>66</ele>
        <time>2020-05-24T11:04:14.000Z</time>
      </trkpt>
      <trkpt lat="47.16298" lon="-1.39458">
        <ele>66</ele>
        <time>2020-05-24T11:04:16.000Z</time>
      </trkpt>
      <trkpt lat="47.16311" lon="-1.3945">
        <ele>66</ele>
        <time>2020-05-24T11:04:18.000Z</time>
      </trkpt>
      <trkpt lat="47.16325" lon="-1.39443">
        <ele>67</ele>
        <time>2020-05-24T11:04:20.000Z</time>
      </trkpt>
      <trkpt lat="47.16338" lon="-1.39434">
        <ele>66</ele>
        <time>2020-05-24T11:04:22.000Z</time>
      </trkpt>
      <trkpt lat="47.16351" lon="-1.39427">
        <ele>66</ele>
        <time>2020-05-24T11:04:24.000Z</time>
      </trkpt>
      <trkpt lat="47.16363" lon="-1.39421">
        <ele>66</ele>
        <time>2020-05-24T11:04:26.000Z</time>
      </trkpt>
      <trkpt lat="47.16377" lon="-1.39414">
        <ele>66</ele>
        <time>2020-05-24T11:04:28.000Z</time>
      </trkpt>
      <trkpt lat="47.16389" lon="-1.39406">
        <ele>66</ele>
        <time>2020-05-24T11:04:30.000Z</time>
      </trkpt>
      <trkpt lat="47.16403" lon="-1.39398">
        <ele>66</ele>
        <time>2020-05-24T11:04:32.000Z</time>
      </trkpt>
      <trkpt lat="47.16416" lon="-1.39392">
        <ele>66</ele>
        <time>2020-05-24T11:04:34.000Z</time>
      </trkpt>
      <trkpt lat="47.16429" lon="-1.39384">
        <ele>65</ele>
        <time>2020-05-24T11:04:36.000Z</time>
      </trkpt>
      <trkpt lat="47.16442" lon="-1.39378">
        <ele>66</ele>
        <time>2020-05-24T11:04:38.000Z</time>
      </trkpt>
      <trkpt lat="47.16455" lon="-1.39371">
        <ele>66</ele>
        <time>2020-05-24T11:04:40.000Z</time>
      </trkpt>
      <trkpt lat="47.16467" lon="-1.39365">
        <ele>65</ele>
        <time>2020-05-24T11:04:42.000Z</time>
      </trkpt>
      <trkpt lat="47.16479" lon="-1.39358">
        <ele>65</ele>
        <time>2020-05-24T11:04:44.000Z</time>
      </trkpt>
      <trkpt lat="47.16492" lon="-1.39351">
        <ele>64</ele>
        <time>2020-05-24T11:04:46.000Z</time>
      </trkpt>
      <trkpt lat="47.16506" lon="-1.39344">
        <ele>64</ele>
        <time>2020-05-24T11:04:48.000Z</time>
      </trkpt>
      <trkpt lat="47.16519" lon="-1.39337">
        <ele>63</ele>
        <time>2020-05-24T11:04:50.000Z</time>
      </trkpt>
      <trkpt lat="47.16532" lon="-1.3933">
        <ele>63</ele>
        <time>2020-05-24T11:04:52.000Z</time>
      </trkpt>
      <trkpt lat="47.16545" lon="-1.39322">
        <ele>64</ele>
        <time>2020-05-24T11:04:54.000Z</time>
      </trkpt>
      <trkpt lat="47.16558" lon="-1.39316">
        <ele>63</ele>
        <time>2020-05-24T11:04:56.000Z</time>
      </trkpt>
      <trkpt lat="47.16571" lon="-1.39308">
        <ele>62</ele>
        <time>2020-05-24T11:04:58.000Z</time>
      </trkpt>
      <trkpt lat="47.16585" lon="-1.39301">
        <ele>62</ele>
        <time>2020-05-24T11:05:00.000Z</time>
      </trkpt>
      <trkpt lat="47.16598" lon="-1.39295">
        <ele>61</ele>
        <time>2020-05-24T11:05:02.000Z</time>
      </trkpt>
      <trkpt lat="47.1661" lon="-1.3929">
        <ele>61</ele>
        <time>2020-05-24T11:05:04.000Z</time>
      </trkpt>
      <trkpt lat="47.16622" lon="-1.39284">
        <ele>61</ele>
        <time>2020-05-24T11:05:06.000Z</time>
      </trkpt>
      <trkpt lat="47.16628" lon="-1.39268">
        <ele>61</ele>
        <time>2020-05-24T11:05:08.000Z</time>
      </trkpt>
      <trkpt lat="47.16638" lon="-1.39256">
        <ele>61</ele>
        <time>2020-05-24T11:05:10.000Z</time>
      </trkpt>
      <trkpt lat="47.16652" lon="-1.39254">
        <ele>61</ele>
        <time>2020-05-24T11:05:12.000Z</time>
      </trkpt>
      <trkpt lat="47.16665" lon="-1.3926">
        <ele>61</ele>
        <time>2020-05-24T11:05:14.000Z</time>
      </trkpt>
      <trkpt lat="47.16677" lon="-1.39263">
        <ele>61</ele>
        <time>2020-05-24T11:05:16.000Z</time>
      </trkpt>
      <trkpt lat="47.16692" lon="-1.39261">
        <ele>61</ele>
        <time>2020-05-24T11:05:18.000Z</time>
      </trkpt>
      <trkpt lat="47.16704" lon="-1.39259">
        <ele>61</ele>
        <time>2020-05-24T11:05:20.000Z</time>
      </trkpt>
      <trkpt lat="47.16718" lon="-1.39257">
        <ele>61</ele>
        <time>2020-05-24T11:05:22.000Z</time>
      </trkpt>
      <trkpt lat="47.16732" lon="-1.39255">
        <ele>61</ele>
        <time>2020-05-24T11:05:24.000Z</time>
      </trkpt>
      <trkpt lat="47.16746" lon="-1.39252">
        <ele>61</ele>
        <time>2020-05-24T11:05:26.000Z</time>
      </trkpt>
      <trkpt lat="47.1676" lon="-1.39249">
        <ele>61</ele>
        <time>2020-05-24T11:05:28.000Z</time>
      </trkpt>
      <trkpt lat="47.16773" lon="-1.39247">
        <ele>60</ele>
        <time>2020-05-24T11:05:30.000Z</time>
      </trkpt>
      <trkpt lat="47.16787" lon="-1.39245">
        <ele>60</ele>
        <time>2020-05-24T11:05:32.000Z</time>
      </trkpt>
      <trkpt lat="47.168" lon="-1.39242">
        <ele>60</ele>
        <time>2020-05-24T11:05:34.000Z</time>
      </trkpt>
      <trkpt lat="47.16813" lon="-1.39239">
        <ele>60</ele>
        <time>2020-05-24T11:05:36.000Z</time>
      </trkpt>
      <trkpt lat="47.16826" lon="-1.39236">
        <ele>60</ele>
        <time>2020-05-24T11:05:38.000Z</time>
      </trkpt>
      <trkpt lat="47.1684" lon="-1.39234">
        <ele>60</ele>
        <time>2020-05-24T11:05:40.000Z</time>
      </trkpt>
      <trkpt lat="47.16853" lon="-1.39231">
        <ele>60</ele>
        <time>2020-05-24T11:05:42.000Z</time>
      </trkpt>
      <trkpt lat="47.16866" lon="-1.39228">
        <ele>60</ele>
        <time>2020-05-24T11:05:44.000Z</time>
      </trkpt>
      <trkpt lat="47.16879" lon="-1.39226">
        <ele>60</ele>
        <time>2020-05-24T11:05:46.000Z</time>
      </trkpt>
      <trkpt lat="47.16892" lon="-1.39223">
        <ele>60</ele>
        <time>2020-05-24T11:05:48.000Z</time>
      </trkpt>
      <trkpt lat="47.16905" lon="-1.3922">
        <ele>60</ele>
        <time>2020-05-24T11:05:50.000Z</time>
      </trkpt>
      <trkpt lat="47.16918" lon="-1.39217">
        <ele>60</ele>
        <time>2020-05-24T11:05:52.000Z</time>
      </trkpt>
      <trkpt lat="47.1693" lon="-1.39215">
        <ele>59</ele>
        <time>2020-05-24T11:05:54.000Z</time>
      </trkpt>
      <trkpt lat="47.16942" lon="-1.39213">
        <ele>59</ele>
        <time>2020-05-24T11:05:56.000Z</time>
      </trkpt>
      <trkpt lat="47.16955" lon="-1.39212">
        <ele>59</ele>
        <time>2020-05-24T11:05:58.000Z</time>
      </trkpt>
      <trkpt lat="47.16967" lon="-1.39211">
        <ele>59</ele>
        <time>2020-05-24T11:06:00.000Z</time>
      </trkpt>
      <trkpt lat="47.16979" lon="-1.3921">
        <ele>59</ele>
        <time>2020-05-24T11:06:02.000Z</time>
      </trkpt>
      <trkpt lat="47.16991" lon="-1.3921">
        <ele>59</ele>
        <time>2020-05-24T11:06:04.000Z</time>
      </trkpt>
      <trkpt lat="47.17003" lon="-1.3921">
        <ele>60</ele>
        <time>2020-05-24T11:06:06.000Z</time>
      </trkpt>
      <trkpt lat="47.17015" lon="-1.39211">
        <ele>60</ele>
        <time>2020-05-24T11:06:08.000Z</time>
      </trkpt>
      <trkpt lat="47.17026" lon="-1.39212">
        <ele>59</ele>
        <time>2020-05-24T11:06:10.000Z</time>
      </trkpt>
      <trkpt lat="47.17037" lon="-1.39214">
        <ele>60</ele>
        <time>2020-05-24T11:06:12.000Z</time>
      </trkpt>
      <trkpt lat="47.17048" lon="-1.39215">
        <ele>60</ele>
        <time>2020-05-24T11:06:14.000Z</time>
      </trkpt>
      <trkpt lat="47.17059" lon="-1.39215">
        <ele>60</ele>
        <time>2020-05-24T11:06:16.000Z</time>
      </trkpt>
      <trkpt lat="47.17069" lon="-1.39217">
        <ele>60</ele>
        <time>2020-05-24T11:06:18.000Z</time>
      </trkpt>
      <trkpt lat="47.17079" lon="-1.39218">
        <ele>60</ele>
        <time>2020-05-24T11:06:20.000Z</time>
      </trkpt>
      <trkpt lat="47.17089" lon="-1.39219">
        <ele>60</ele>
        <time>2020-05-24T11:06:22.000Z</time>
      </trkpt>
      <trkpt lat="47.17099" lon="-1.3922">
        <ele>61</ele>
        <time>2020-05-24T11:06:24.000Z</time>
      </trkpt>
      <trkpt lat="47.17109" lon="-1.39221">
        <ele>61</ele>
        <time>2020-05-24T11:06:26.000Z</time>
      </trkpt>
      <trkpt lat="47.1712" lon="-1.39222">
        <ele>61</ele>
        <time>2020-05-24T11:06:28.000Z</time>
      </trkpt>
      <trkpt lat="47.17129" lon="-1.39223">
        <ele>62</ele>
        <time>2020-05-24T11:06:30.000Z</time>
      </trkpt>
      <trkpt lat="47.17139" lon="-1.39224">
        <ele>62</ele>
        <time>2020-05-24T11:06:32.000Z</time>
      </trkpt>
      <trkpt lat="47.17149" lon="-1.39224">
        <ele>62</ele>
        <time>2020-05-24T11:06:34.000Z</time>
      </trkpt>
      <trkpt lat="47.1716" lon="-1.39224">
        <ele>63</ele>
        <time>2020-05-24T11:06:36.000Z</time>
      </trkpt>
      <trkpt lat="47.1717" lon="-1.39224">
        <ele>63</ele>
        <time>2020-05-24T11:06:38.000Z</time>
      </trkpt>
      <trkpt lat="47.1718" lon="-1.39223">
        <ele>63</ele>
        <time>2020-05-24T11:06:40.000Z</time>
      </trkpt>
      <trkpt lat="47.17191" lon="-1.39222">
        <ele>63</ele>
        <time>2020-05-24T11:06:42.000Z</time>
      </trkpt>
      <trkpt lat="47.17201" lon="-1.39222">
        <ele>63</ele>
        <time>2020-05-24T11:06:44.000Z</time>
      </trkpt>
      <trkpt lat="47.17211" lon="-1.39221">
        <ele>64</ele>
        <time>2020-05-24T11:06:46.000Z</time>
      </trkpt>
      <trkpt lat="47.17221" lon="-1.3922">
        <ele>64</ele>
        <time>2020-05-24T11:06:48.000Z</time>
      </trkpt>
      <trkpt lat="47.17231" lon="-1.39219">
        <ele>64</ele>
        <time>2020-05-24T11:06:50.000Z</time>
      </trkpt>
      <trkpt lat="47.17241" lon="-1.39217">
        <ele>64</ele>
        <time>2020-05-24T11:06:52.000Z</time>
      </trkpt>
      <trkpt lat="47.17251" lon="-1.39216">
        <ele>64</ele>
        <time>2020-05-24T11:06:54.000Z</time>
      </trkpt>
      <trkpt lat="47.17261" lon="-1.39214">
        <ele>64</ele>
        <time>2020-05-24T11:06:56.000Z</time>
      </trkpt>
      <trkpt lat="47.17272" lon="-1.39213">
        <ele>64</ele>
        <time>2020-05-24T11:06:58.000Z</time>
      </trkpt>
      <trkpt lat="47.17284" lon="-1.39211">
        <ele>64</ele>
        <time>2020-05-24T11:07:00.000Z</time>
      </trkpt>
      <trkpt lat="47.17295" lon="-1.3921">
        <ele>63</ele>
        <time>2020-05-24T11:07:02.000Z</time>
      </trkpt>
      <trkpt lat="47.17306" lon="-1.39208">
        <ele>63</ele>
        <time>2020-05-24T11:07:04.000Z</time>
      </trkpt>
      <trkpt lat="47.17318" lon="-1.39207">
        <ele>63</ele>
        <time>2020-05-24T11:07:06.000Z</time>
      </trkpt>
      <trkpt lat="47.17331" lon="-1.39205">
        <ele>63</ele>
        <time>2020-05-24T11:07:08.000Z</time>
      </trkpt>
      <trkpt lat="47.17342" lon="-1.39201">
        <ele>63</ele>
        <time>2020-05-24T11:07:10.000Z</time>
      </trkpt>
      <trkpt lat="47.17354" lon="-1.39198">
        <ele>62</ele>
        <time>2020-05-24T11:07:12.000Z</time>
      </trkpt>
      <trkpt lat="47.17365" lon="-1.39194">
        <ele>61</ele>
        <time>2020-05-24T11:07:14.000Z</time>
      </trkpt>
      <trkpt lat="47.17377" lon="-1.39189">
        <ele>61</ele>
        <time>2020-05-24T11:07:16.000Z</time>
      </trkpt>
      <trkpt lat="47.17388" lon="-1.39182">
        <ele>61</ele>
        <time>2020-05-24T11:07:18.000Z</time>
      </trkpt>
      <trkpt lat="47.174" lon="-1.39176">
        <ele>61</ele>
        <time>2020-05-24T11:07:20.000Z</time>
      </trkpt>
      <trkpt lat="47.17411" lon="-1.39169">
        <ele>61</ele>
        <time>2020-05-24T11:07:22.000Z</time>
      </trkpt>
      <trkpt lat="47.17424" lon="-1.39159">
        <ele>61</ele>
        <time>2020-05-24T11:07:24.000Z</time>
      </trkpt>
      <trkpt lat="47.17436" lon="-1.3915">
        <ele>60</ele>
        <time>2020-05-24T11:07:26.000Z</time>
      </trkpt>
      <trkpt lat="47.1745" lon="-1.39139">
        <ele>58</ele>
        <time>2020-05-24T11:07:28.000Z</time>
      </trkpt>
      <trkpt lat="47.17463" lon="-1.39129">
        <ele>58</ele>
        <time>2020-05-24T11:07:30.000Z</time>
      </trkpt>
      <trkpt lat="47.17476" lon="-1.39118">
        <ele>58</ele>
        <time>2020-05-24T11:07:32.000Z</time>
      </trkpt>
      <trkpt lat="47.17488" lon="-1.39108">
        <ele>57</ele>
        <time>2020-05-24T11:07:34.000Z</time>
      </trkpt>
      <trkpt lat="47.175" lon="-1.39097">
        <ele>57</ele>
        <time>2020-05-24T11:07:36.000Z</time>
      </trkpt>
      <trkpt lat="47.17512" lon="-1.39087">
        <ele>57</ele>
        <time>2020-05-24T11:07:38.000Z</time>
      </trkpt>
      <trkpt lat="47.17523" lon="-1.39076">
        <ele>57</ele>
        <time>2020-05-24T11:07:40.000Z</time>
      </trkpt>
      <trkpt lat="47.17535" lon="-1.39066">
        <ele>57</ele>
        <time>2020-05-24T11:07:42.000Z</time>
      </trkpt>
      <trkpt lat="47.17546" lon="-1.39055">
        <ele>57</ele>
        <time>2020-05-24T11:07:44.000Z</time>
      </trkpt>
      <trkpt lat="47.17555" lon="-1.39043">
        <ele>57</ele>
        <time>2020-05-24T11:07:46.000Z</time>
      </trkpt>
      <trkpt lat="47.17562" lon="-1.39027">
        <ele>57</ele>
        <time>2020-05-24T11:07:48.000Z</time>
      </trkpt>
      <trkpt lat="47.17566" lon="-1.39008">
        <ele>57</ele>
        <time>2020-05-24T11:07:50.000Z</time>
      </trkpt>
      <trkpt lat="47.1757" lon="-1.38989">
        <ele>56</ele>
        <time>2020-05-24T11:07:52.000Z</time>
      </trkpt>
      <trkpt lat="47.17574" lon="-1.3897">
        <ele>56</ele>
        <time>2020-05-24T11:07:54.000Z</time>
      </trkpt>
      <trkpt lat="47.17581" lon="-1.38954">
        <ele>56</ele>
        <time>2020-05-24T11:07:56.000Z</time>
      </trkpt>
      <trkpt lat="47.17589" lon="-1.3894">
        <ele>55</ele>
        <time>2020-05-24T11:07:58.000Z</time>
      </trkpt>
      <trkpt lat="47.17597" lon="-1.38926">
        <ele>55</ele>
        <time>2020-05-24T11:08:00.000Z</time>
      </trkpt>
      <trkpt lat="47.17605" lon="-1.38912">
        <ele>55</ele>
        <time>2020-05-24T11:08:02.000Z</time>
      </trkpt>
      <trkpt lat="47.17613" lon="-1.38897">
        <ele>55</ele>
        <time>2020-05-24T11:08:04.000Z</time>
      </trkpt>
      <trkpt lat="47.1762" lon="-1.38884">
        <ele>54</ele>
        <time>2020-05-24T11:08:06.000Z</time>
      </trkpt>
      <trkpt lat="47.17625" lon="-1.38868">
        <ele>54</ele>
        <time>2020-05-24T11:08:08.000Z</time>
      </trkpt>
      <trkpt lat="47.17629" lon="-1.38854">
        <ele>55</ele>
        <time>2020-05-24T11:08:10.000Z</time>
      </trkpt>
      <trkpt lat="47.1763" lon="-1.38837">
        <ele>55</ele>
        <time>2020-05-24T11:08:12.000Z</time>
      </trkpt>
      <trkpt lat="47.1763" lon="-1.38817">
        <ele>55</ele>
        <time>2020-05-24T11:08:14.000Z</time>
      </trkpt>
      <trkpt lat="47.17628" lon="-1.38799">
        <ele>55</ele>
        <time>2020-05-24T11:08:16.000Z</time>
      </trkpt>
      <trkpt lat="47.17626" lon="-1.38781">
        <ele>56</ele>
        <time>2020-05-24T11:08:18.000Z</time>
      </trkpt>
      <trkpt lat="47.17624" lon="-1.38764">
        <ele>56</ele>
        <time>2020-05-24T11:08:20.000Z</time>
      </trkpt>
      <trkpt lat="47.17621" lon="-1.38747">
        <ele>56</ele>
        <time>2020-05-24T11:08:22.000Z</time>
      </trkpt>
      <trkpt lat="47.17619" lon="-1.38732">
        <ele>57</ele>
        <time>2020-05-24T11:08:24.000Z</time>
      </trkpt>
      <trkpt lat="47.17618" lon="-1.38718">
        <ele>57</ele>
        <time>2020-05-24T11:08:26.000Z</time>
      </trkpt>
      <trkpt lat="47.17616" lon="-1.38704">
        <ele>58</ele>
        <time>2020-05-24T11:08:28.000Z</time>
      </trkpt>
      <trkpt lat="47.17614" lon="-1.38691">
        <ele>58</ele>
        <time>2020-05-24T11:08:30.000Z</time>
      </trkpt>
      <trkpt lat="47.17613" lon="-1.38672">
        <ele>59</ele>
        <time>2020-05-24T11:08:33.000Z</time>
      </trkpt>
      <trkpt lat="47.1761" lon="-1.38659">
        <ele>59</ele>
        <time>2020-05-24T11:08:35.000Z</time>
      </trkpt>
      <trkpt lat="47.17609" lon="-1.38645">
        <ele>59</ele>
        <time>2020-05-24T11:08:37.000Z</time>
      </trkpt>
      <trkpt lat="47.17607" lon="-1.3863">
        <ele>60</ele>
        <time>2020-05-24T11:08:39.000Z</time>
      </trkpt>
      <trkpt lat="47.17605" lon="-1.38613">
        <ele>60</ele>
        <time>2020-05-24T11:08:41.000Z</time>
      </trkpt>
      <trkpt lat="47.17603" lon="-1.38597">
        <ele>60</ele>
        <time>2020-05-24T11:08:43.000Z</time>
      </trkpt>
      <trkpt lat="47.17602" lon="-1.38581">
        <ele>60</ele>
        <time>2020-05-24T11:08:45.000Z</time>
      </trkpt>
      <trkpt lat="47.17599" lon="-1.38567">
        <ele>59</ele>
        <time>2020-05-24T11:08:47.000Z</time>
      </trkpt>
      <trkpt lat="47.17597" lon="-1.38551">
        <ele>59</ele>
        <time>2020-05-24T11:08:49.000Z</time>
      </trkpt>
      <trkpt lat="47.17595" lon="-1.38535">
        <ele>59</ele>
        <time>2020-05-24T11:08:51.000Z</time>
      </trkpt>
      <trkpt lat="47.17593" lon="-1.38518">
        <ele>59</ele>
        <time>2020-05-24T11:08:53.000Z</time>
      </trkpt>
      <trkpt lat="47.17591" lon="-1.38502">
        <ele>59</ele>
        <time>2020-05-24T11:08:55.000Z</time>
      </trkpt>
      <trkpt lat="47.1759" lon="-1.38486">
        <ele>59</ele>
        <time>2020-05-24T11:08:57.000Z</time>
      </trkpt>
      <trkpt lat="47.17588" lon="-1.38469">
        <ele>60</ele>
        <time>2020-05-24T11:08:59.000Z</time>
      </trkpt>
      <trkpt lat="47.17587" lon="-1.3845">
        <ele>60</ele>
        <time>2020-05-24T11:09:01.000Z</time>
      </trkpt>
      <trkpt lat="47.17587" lon="-1.38432">
        <ele>60</ele>
        <time>2020-05-24T11:09:03.000Z</time>
      </trkpt>
      <trkpt lat="47.17586" lon="-1.38414">
        <ele>61</ele>
        <time>2020-05-24T11:09:05.000Z</time>
      </trkpt>
      <trkpt lat="47.17586" lon="-1.38396">
        <ele>61</ele>
        <time>2020-05-24T11:09:07.000Z</time>
      </trkpt>
      <trkpt lat="47.17585" lon="-1.38378">
        <ele>61</ele>
        <time>2020-05-24T11:09:09.000Z</time>
      </trkpt>
      <trkpt lat="47.17583" lon="-1.38359">
        <ele>61</ele>
        <time>2020-05-24T11:09:11.000Z</time>
      </trkpt>
      <trkpt lat="47.17581" lon="-1.38339">
        <ele>61</ele>
        <time>2020-05-24T11:09:13.000Z</time>
      </trkpt>
      <trkpt lat="47.17579" lon="-1.3832">
        <ele>61</ele>
        <time>2020-05-24T11:09:15.000Z</time>
      </trkpt>
      <trkpt lat="47.17576" lon="-1.38302">
        <ele>61</ele>
        <time>2020-05-24T11:09:17.000Z</time>
      </trkpt>
      <trkpt lat="47.17574" lon="-1.38284">
        <ele>60</ele>
        <time>2020-05-24T11:09:19.000Z</time>
      </trkpt>
      <trkpt lat="47.17571" lon="-1.38267">
        <ele>61</ele>
        <time>2020-05-24T11:09:21.000Z</time>
      </trkpt>
      <trkpt lat="47.17567" lon="-1.38248">
        <ele>60</ele>
        <time>2020-05-24T11:09:23.000Z</time>
      </trkpt>
      <trkpt lat="47.17565" lon="-1.3823">
        <ele>60</ele>
        <time>2020-05-24T11:09:25.000Z</time>
      </trkpt>
      <trkpt lat="47.17562" lon="-1.3821">
        <ele>60</ele>
        <time>2020-05-24T11:09:27.000Z</time>
      </trkpt>
      <trkpt lat="47.1756" lon="-1.38192">
        <ele>59</ele>
        <time>2020-05-24T11:09:29.000Z</time>
      </trkpt>
      <trkpt lat="47.17557" lon="-1.38173">
        <ele>59</ele>
        <time>2020-05-24T11:09:31.000Z</time>
      </trkpt>
      <trkpt lat="47.17554" lon="-1.38154">
        <ele>59</ele>
        <time>2020-05-24T11:09:33.000Z</time>
      </trkpt>
      <trkpt lat="47.17552" lon="-1.38137">
        <ele>58</ele>
        <time>2020-05-24T11:09:35.000Z</time>
      </trkpt>
      <trkpt lat="47.17549" lon="-1.3812">
        <ele>58</ele>
        <time>2020-05-24T11:09:37.000Z</time>
      </trkpt>
      <trkpt lat="47.17546" lon="-1.38103">
        <ele>59</ele>
        <time>2020-05-24T11:09:39.000Z</time>
      </trkpt>
      <trkpt lat="47.17544" lon="-1.38085">
        <ele>59</ele>
        <time>2020-05-24T11:09:41.000Z</time>
      </trkpt>
      <trkpt lat="47.17541" lon="-1.38068">
        <ele>58</ele>
        <time>2020-05-24T11:09:43.000Z</time>
      </trkpt>
      <trkpt lat="47.17539" lon="-1.38051">
        <ele>59</ele>
        <time>2020-05-24T11:09:45.000Z</time>
      </trkpt>
      <trkpt lat="47.17536" lon="-1.38035">
        <ele>59</ele>
        <time>2020-05-24T11:09:47.000Z</time>
      </trkpt>
      <trkpt lat="47.17533" lon="-1.38018">
        <ele>59</ele>
        <time>2020-05-24T11:09:49.000Z</time>
      </trkpt>
      <trkpt lat="47.17531" lon="-1.38002">
        <ele>60</ele>
        <time>2020-05-24T11:09:51.000Z</time>
      </trkpt>
      <trkpt lat="47.17528" lon="-1.37985">
        <ele>60</ele>
        <time>2020-05-24T11:09:53.000Z</time>
      </trkpt>
      <trkpt lat="47.17525" lon="-1.37968">
        <ele>60</ele>
        <time>2020-05-24T11:09:55.000Z</time>
      </trkpt>
      <trkpt lat="47.17523" lon="-1.3795">
        <ele>60</ele>
        <time>2020-05-24T11:09:57.000Z</time>
      </trkpt>
      <trkpt lat="47.17519" lon="-1.37932">
        <ele>59</ele>
        <time>2020-05-24T11:09:59.000Z</time>
      </trkpt>
      <trkpt lat="47.17516" lon="-1.37914">
        <ele>59</ele>
        <time>2020-05-24T11:10:01.000Z</time>
      </trkpt>
      <trkpt lat="47.17511" lon="-1.37895">
        <ele>59</ele>
        <time>2020-05-24T11:10:03.000Z</time>
      </trkpt>
      <trkpt lat="47.17507" lon="-1.37875">
        <ele>58</ele>
        <time>2020-05-24T11:10:05.000Z</time>
      </trkpt>
      <trkpt lat="47.17503" lon="-1.37855">
        <ele>57</ele>
        <time>2020-05-24T11:10:07.000Z</time>
      </trkpt>
      <trkpt lat="47.17499" lon="-1.37834">
        <ele>56</ele>
        <time>2020-05-24T11:10:09.000Z</time>
      </trkpt>
      <trkpt lat="47.17495" lon="-1.37812">
        <ele>56</ele>
        <time>2020-05-24T11:10:11.000Z</time>
      </trkpt>
      <trkpt lat="47.17491" lon="-1.37791">
        <ele>56</ele>
        <time>2020-05-24T11:10:13.000Z</time>
      </trkpt>
      <trkpt lat="47.17487" lon="-1.3777">
        <ele>55</ele>
        <time>2020-05-24T11:10:15.000Z</time>
      </trkpt>
      <trkpt lat="47.17483" lon="-1.37748">
        <ele>55</ele>
        <time>2020-05-24T11:10:17.000Z</time>
      </trkpt>
      <trkpt lat="47.17481" lon="-1.37727">
        <ele>54</ele>
        <time>2020-05-24T11:10:19.000Z</time>
      </trkpt>
      <trkpt lat="47.17477" lon="-1.37706">
        <ele>54</ele>
        <time>2020-05-24T11:10:21.000Z</time>
      </trkpt>
      <trkpt lat="47.17475" lon="-1.37687">
        <ele>54</ele>
        <time>2020-05-24T11:10:23.000Z</time>
      </trkpt>
      <trkpt lat="47.17472" lon="-1.37668">
        <ele>54</ele>
        <time>2020-05-24T11:10:25.000Z</time>
      </trkpt>
      <trkpt lat="47.17469" lon="-1.3765">
        <ele>53</ele>
        <time>2020-05-24T11:10:27.000Z</time>
      </trkpt>
      <trkpt lat="47.17466" lon="-1.37632">
        <ele>54</ele>
        <time>2020-05-24T11:10:29.000Z</time>
      </trkpt>
      <trkpt lat="47.17463" lon="-1.37616">
        <ele>54</ele>
        <time>2020-05-24T11:10:31.000Z</time>
      </trkpt>
      <trkpt lat="47.17461" lon="-1.376">
        <ele>54</ele>
        <time>2020-05-24T11:10:33.000Z</time>
      </trkpt>
      <trkpt lat="47.17458" lon="-1.37583">
        <ele>53</ele>
        <time>2020-05-24T11:10:35.000Z</time>
      </trkpt>
      <trkpt lat="47.17455" lon="-1.37566">
        <ele>53</ele>
        <time>2020-05-24T11:10:37.000Z</time>
      </trkpt>
      <trkpt lat="47.17452" lon="-1.37549">
        <ele>53</ele>
        <time>2020-05-24T11:10:39.000Z</time>
      </trkpt>
      <trkpt lat="47.17449" lon="-1.37532">
        <ele>53</ele>
        <time>2020-05-24T11:10:41.000Z</time>
      </trkpt>
      <trkpt lat="47.17446" lon="-1.37515">
        <ele>52</ele>
        <time>2020-05-24T11:10:43.000Z</time>
      </trkpt>
      <trkpt lat="47.17443" lon="-1.375">
        <ele>52</ele>
        <time>2020-05-24T11:10:45.000Z</time>
      </trkpt>
      <trkpt lat="47.1744" lon="-1.37487">
        <ele>52</ele>
        <time>2020-05-24T11:10:47.000Z</time>
      </trkpt>
      <trkpt lat="47.17436" lon="-1.37469">
        <ele>51</ele>
        <time>2020-05-24T11:10:50.000Z</time>
      </trkpt>
      <trkpt lat="47.17432" lon="-1.37452">
        <ele>52</ele>
        <time>2020-05-24T11:10:53.000Z</time>
      </trkpt>
      <trkpt lat="47.17429" lon="-1.37434">
        <ele>52</ele>
        <time>2020-05-24T11:10:56.000Z</time>
      </trkpt>
      <trkpt lat="47.17425" lon="-1.37421">
        <ele>52</ele>
        <time>2020-05-24T11:11:25.000Z</time>
      </trkpt>
      <trkpt lat="47.17424" lon="-1.37408">
        <ele>58</ele>
        <time>2020-05-24T11:28:30.000Z</time>
      </trkpt>
      <trkpt lat="47.17421" lon="-1.37392">
        <ele>60</ele>
        <time>2020-05-24T11:28:34.000Z</time>
      </trkpt>
      <trkpt lat="47.17416" lon="-1.37375">
        <ele>59</ele>
        <time>2020-05-24T11:28:38.000Z</time>
      </trkpt>
      <trkpt lat="47.17413" lon="-1.3736">
        <ele>58</ele>
        <time>2020-05-24T11:28:41.000Z</time>
      </trkpt>
      <trkpt lat="47.17411" lon="-1.37346">
        <ele>57</ele>
        <time>2020-05-24T11:28:43.000Z</time>
      </trkpt>
      <trkpt lat="47.17408" lon="-1.37329">
        <ele>56</ele>
        <time>2020-05-24T11:28:45.000Z</time>
      </trkpt>
      <trkpt lat="47.17405" lon="-1.37311">
        <ele>56</ele>
        <time>2020-05-24T11:28:47.000Z</time>
      </trkpt>
      <trkpt lat="47.17401" lon="-1.37293">
        <ele>55</ele>
        <time>2020-05-24T11:28:49.000Z</time>
      </trkpt>
      <trkpt lat="47.17398" lon="-1.37276">
        <ele>56</ele>
        <time>2020-05-24T11:28:51.000Z</time>
      </trkpt>
      <trkpt lat="47.17396" lon="-1.37258">
        <ele>55</ele>
        <time>2020-05-24T11:28:53.000Z</time>
      </trkpt>
      <trkpt lat="47.17392" lon="-1.3724">
        <ele>56</ele>
        <time>2020-05-24T11:28:55.000Z</time>
      </trkpt>
      <trkpt lat="47.17389" lon="-1.37221">
        <ele>55</ele>
        <time>2020-05-24T11:28:57.000Z</time>
      </trkpt>
      <trkpt lat="47.17385" lon="-1.37203">
        <ele>56</ele>
        <time>2020-05-24T11:28:59.000Z</time>
      </trkpt>
      <trkpt lat="47.17381" lon="-1.37184">
        <ele>56</ele>
        <time>2020-05-24T11:29:01.000Z</time>
      </trkpt>
      <trkpt lat="47.17377" lon="-1.37166">
        <ele>56</ele>
        <time>2020-05-24T11:29:03.000Z</time>
      </trkpt>
      <trkpt lat="47.17372" lon="-1.37148">
        <ele>57</ele>
        <time>2020-05-24T11:29:05.000Z</time>
      </trkpt>
      <trkpt lat="47.17367" lon="-1.37128">
        <ele>56</ele>
        <time>2020-05-24T11:29:07.000Z</time>
      </trkpt>
      <trkpt lat="47.17362" lon="-1.37109">
        <ele>57</ele>
        <time>2020-05-24T11:29:09.000Z</time>
      </trkpt>
      <trkpt lat="47.17357" lon="-1.37089">
        <ele>57</ele>
        <time>2020-05-24T11:29:11.000Z</time>
      </trkpt>
      <trkpt lat="47.17352" lon="-1.3707">
        <ele>57</ele>
        <time>2020-05-24T11:29:13.000Z</time>
      </trkpt>
      <trkpt lat="47.17346" lon="-1.3705">
        <ele>57</ele>
        <time>2020-05-24T11:29:15.000Z</time>
      </trkpt>
      <trkpt lat="47.17341" lon="-1.3703">
        <ele>57</ele>
        <time>2020-05-24T11:29:17.000Z</time>
      </trkpt>
      <trkpt lat="47.17335" lon="-1.37012">
        <ele>56</ele>
        <time>2020-05-24T11:29:19.000Z</time>
      </trkpt>
      <trkpt lat="47.17329" lon="-1.36993">
        <ele>57</ele>
        <time>2020-05-24T11:29:21.000Z</time>
      </trkpt>
      <trkpt lat="47.17323" lon="-1.36973">
        <ele>57</ele>
        <time>2020-05-24T11:29:23.000Z</time>
      </trkpt>
      <trkpt lat="47.17319" lon="-1.36953">
        <ele>57</ele>
        <time>2020-05-24T11:29:25.000Z</time>
      </trkpt>
      <trkpt lat="47.17315" lon="-1.36933">
        <ele>58</ele>
        <time>2020-05-24T11:29:27.000Z</time>
      </trkpt>
      <trkpt lat="47.17311" lon="-1.36914">
        <ele>58</ele>
        <time>2020-05-24T11:29:29.000Z</time>
      </trkpt>
      <trkpt lat="47.17306" lon="-1.36896">
        <ele>58</ele>
        <time>2020-05-24T11:29:31.000Z</time>
      </trkpt>
      <trkpt lat="47.17302" lon="-1.36877">
        <ele>58</ele>
        <time>2020-05-24T11:29:33.000Z</time>
      </trkpt>
      <trkpt lat="47.17298" lon="-1.36859">
        <ele>58</ele>
        <time>2020-05-24T11:29:35.000Z</time>
      </trkpt>
      <trkpt lat="47.17294" lon="-1.36841">
        <ele>58</ele>
        <time>2020-05-24T11:29:37.000Z</time>
      </trkpt>
      <trkpt lat="47.17291" lon="-1.36823">
        <ele>58</ele>
        <time>2020-05-24T11:29:39.000Z</time>
      </trkpt>
      <trkpt lat="47.17287" lon="-1.36806">
        <ele>58</ele>
        <time>2020-05-24T11:29:41.000Z</time>
      </trkpt>
      <trkpt lat="47.17282" lon="-1.36789">
        <ele>59</ele>
        <time>2020-05-24T11:29:43.000Z</time>
      </trkpt>
      <trkpt lat="47.17277" lon="-1.36771">
        <ele>59</ele>
        <time>2020-05-24T11:29:45.000Z</time>
      </trkpt>
      <trkpt lat="47.17273" lon="-1.36752">
        <ele>59</ele>
        <time>2020-05-24T11:29:47.000Z</time>
      </trkpt>
      <trkpt lat="47.1727" lon="-1.36734">
        <ele>59</ele>
        <time>2020-05-24T11:29:49.000Z</time>
      </trkpt>
      <trkpt lat="47.17266" lon="-1.36715">
        <ele>58</ele>
        <time>2020-05-24T11:29:51.000Z</time>
      </trkpt>
      <trkpt lat="47.17262" lon="-1.36697">
        <ele>59</ele>
        <time>2020-05-24T11:29:53.000Z</time>
      </trkpt>
      <trkpt lat="47.17259" lon="-1.36679">
        <ele>59</ele>
        <time>2020-05-24T11:29:55.000Z</time>
      </trkpt>
      <trkpt lat="47.17255" lon="-1.3666">
        <ele>59</ele>
        <time>2020-05-24T11:29:57.000Z</time>
      </trkpt>
      <trkpt lat="47.17251" lon="-1.36641">
        <ele>59</ele>
        <time>2020-05-24T11:29:59.000Z</time>
      </trkpt>
      <trkpt lat="47.17247" lon="-1.36622">
        <ele>59</ele>
        <time>2020-05-24T11:30:01.000Z</time>
      </trkpt>
      <trkpt lat="47.17244" lon="-1.36602">
        <ele>60</ele>
        <time>2020-05-24T11:30:03.000Z</time>
      </trkpt>
      <trkpt lat="47.1724" lon="-1.36584">
        <ele>60</ele>
        <time>2020-05-24T11:30:05.000Z</time>
      </trkpt>
      <trkpt lat="47.17236" lon="-1.36565">
        <ele>60</ele>
        <time>2020-05-24T11:30:07.000Z</time>
      </trkpt>
      <trkpt lat="47.17233" lon="-1.36545">
        <ele>60</ele>
        <time>2020-05-24T11:30:09.000Z</time>
      </trkpt>
      <trkpt lat="47.1723" lon="-1.36525">
        <ele>60</ele>
        <time>2020-05-24T11:30:11.000Z</time>
      </trkpt>
      <trkpt lat="47.17227" lon="-1.36505">
        <ele>59</ele>
        <time>2020-05-24T11:30:13.000Z</time>
      </trkpt>
      <trkpt lat="47.17224" lon="-1.36485">
        <ele>58</ele>
        <time>2020-05-24T11:30:15.000Z</time>
      </trkpt>
      <trkpt lat="47.17221" lon="-1.36465">
        <ele>58</ele>
        <time>2020-05-24T11:30:17.000Z</time>
      </trkpt>
      <trkpt lat="47.17219" lon="-1.36445">
        <ele>58</ele>
        <time>2020-05-24T11:30:19.000Z</time>
      </trkpt>
      <trkpt lat="47.17216" lon="-1.36424">
        <ele>58</ele>
        <time>2020-05-24T11:30:21.000Z</time>
      </trkpt>
      <trkpt lat="47.17214" lon="-1.36404">
        <ele>58</ele>
        <time>2020-05-24T11:30:23.000Z</time>
      </trkpt>
      <trkpt lat="47.17211" lon="-1.36382">
        <ele>58</ele>
        <time>2020-05-24T11:30:25.000Z</time>
      </trkpt>
      <trkpt lat="47.17209" lon="-1.36362">
        <ele>58</ele>
        <time>2020-05-24T11:30:27.000Z</time>
      </trkpt>
      <trkpt lat="47.17207" lon="-1.36342">
        <ele>58</ele>
        <time>2020-05-24T11:30:29.000Z</time>
      </trkpt>
      <trkpt lat="47.17203" lon="-1.36322">
        <ele>58</ele>
        <time>2020-05-24T11:30:31.000Z</time>
      </trkpt>
      <trkpt lat="47.172" lon="-1.36301">
        <ele>58</ele>
        <time>2020-05-24T11:30:33.000Z</time>
      </trkpt>
      <trkpt lat="47.17199" lon="-1.36281">
        <ele>58</ele>
        <time>2020-05-24T11:30:35.000Z</time>
      </trkpt>
      <trkpt lat="47.17197" lon="-1.3626">
        <ele>58</ele>
        <time>2020-05-24T11:30:37.000Z</time>
      </trkpt>
      <trkpt lat="47.17194" lon="-1.36239">
        <ele>58</ele>
        <time>2020-05-24T11:30:39.000Z</time>
      </trkpt>
      <trkpt lat="47.17192" lon="-1.36219">
        <ele>57</ele>
        <time>2020-05-24T11:30:41.000Z</time>
      </trkpt>
      <trkpt lat="47.17189" lon="-1.36199">
        <ele>57</ele>
        <time>2020-05-24T11:30:43.000Z</time>
      </trkpt>
      <trkpt lat="47.17187" lon="-1.36179">
        <ele>57</ele>
        <time>2020-05-24T11:30:45.000Z</time>
      </trkpt>
      <trkpt lat="47.17185" lon="-1.36158">
        <ele>56</ele>
        <time>2020-05-24T11:30:47.000Z</time>
      </trkpt>
      <trkpt lat="47.17183" lon="-1.36138">
        <ele>56</ele>
        <time>2020-05-24T11:30:49.000Z</time>
      </trkpt>
      <trkpt lat="47.17181" lon="-1.36117">
        <ele>57</ele>
        <time>2020-05-24T11:30:51.000Z</time>
      </trkpt>
      <trkpt lat="47.17178" lon="-1.36096">
        <ele>57</ele>
        <time>2020-05-24T11:30:53.000Z</time>
      </trkpt>
      <trkpt lat="47.17177" lon="-1.36074">
        <ele>56</ele>
        <time>2020-05-24T11:30:55.000Z</time>
      </trkpt>
      <trkpt lat="47.17177" lon="-1.36052">
        <ele>56</ele>
        <time>2020-05-24T11:30:57.000Z</time>
      </trkpt>
      <trkpt lat="47.17179" lon="-1.36032">
        <ele>56</ele>
        <time>2020-05-24T11:30:59.000Z</time>
      </trkpt>
      <trkpt lat="47.1718" lon="-1.3601">
        <ele>56</ele>
        <time>2020-05-24T11:31:01.000Z</time>
      </trkpt>
      <trkpt lat="47.17182" lon="-1.35989">
        <ele>56</ele>
        <time>2020-05-24T11:31:03.000Z</time>
      </trkpt>
      <trkpt lat="47.17184" lon="-1.35969">
        <ele>56</ele>
        <time>2020-05-24T11:31:05.000Z</time>
      </trkpt>
      <trkpt lat="47.17189" lon="-1.35951">
        <ele>56</ele>
        <time>2020-05-24T11:31:07.000Z</time>
      </trkpt>
      <trkpt lat="47.17194" lon="-1.35934">
        <ele>57</ele>
        <time>2020-05-24T11:31:09.000Z</time>
      </trkpt>
      <trkpt lat="47.17198" lon="-1.35918">
        <ele>56</ele>
        <time>2020-05-24T11:31:11.000Z</time>
      </trkpt>
      <trkpt lat="47.17201" lon="-1.359">
        <ele>55</ele>
        <time>2020-05-24T11:31:13.000Z</time>
      </trkpt>
      <trkpt lat="47.17204" lon="-1.35883">
        <ele>56</ele>
        <time>2020-05-24T11:31:15.000Z</time>
      </trkpt>
      <trkpt lat="47.17207" lon="-1.35865">
        <ele>57</ele>
        <time>2020-05-24T11:31:17.000Z</time>
      </trkpt>
      <trkpt lat="47.17209" lon="-1.35848">
        <ele>57</ele>
        <time>2020-05-24T11:31:19.000Z</time>
      </trkpt>
      <trkpt lat="47.17213" lon="-1.35831">
        <ele>57</ele>
        <time>2020-05-24T11:31:21.000Z</time>
      </trkpt>
      <trkpt lat="47.17217" lon="-1.35814">
        <ele>58</ele>
        <time>2020-05-24T11:31:23.000Z</time>
      </trkpt>
      <trkpt lat="47.17219" lon="-1.35799">
        <ele>58</ele>
        <time>2020-05-24T11:31:25.000Z</time>
      </trkpt>
      <trkpt lat="47.17223" lon="-1.35782">
        <ele>59</ele>
        <time>2020-05-24T11:31:27.000Z</time>
      </trkpt>
      <trkpt lat="47.17226" lon="-1.35765">
        <ele>59</ele>
        <time>2020-05-24T11:31:29.000Z</time>
      </trkpt>
      <trkpt lat="47.17229" lon="-1.35749">
        <ele>59</ele>
        <time>2020-05-24T11:31:31.000Z</time>
      </trkpt>
      <trkpt lat="47.17231" lon="-1.35733">
        <ele>59</ele>
        <time>2020-05-24T11:31:33.000Z</time>
      </trkpt>
      <trkpt lat="47.17234" lon="-1.35716">
        <ele>59</ele>
        <time>2020-05-24T11:31:35.000Z</time>
      </trkpt>
      <trkpt lat="47.17237" lon="-1.357">
        <ele>59</ele>
        <time>2020-05-24T11:31:37.000Z</time>
      </trkpt>
      <trkpt lat="47.1724" lon="-1.35683">
        <ele>59</ele>
        <time>2020-05-24T11:31:39.000Z</time>
      </trkpt>
      <trkpt lat="47.17242" lon="-1.35667">
        <ele>60</ele>
        <time>2020-05-24T11:31:41.000Z</time>
      </trkpt>
      <trkpt lat="47.17246" lon="-1.35649">
        <ele>59</ele>
        <time>2020-05-24T11:31:43.000Z</time>
      </trkpt>
      <trkpt lat="47.17249" lon="-1.35632">
        <ele>59</ele>
        <time>2020-05-24T11:31:45.000Z</time>
      </trkpt>
      <trkpt lat="47.17252" lon="-1.35614">
        <ele>59</ele>
        <time>2020-05-24T11:31:47.000Z</time>
      </trkpt>
      <trkpt lat="47.17255" lon="-1.35597">
        <ele>58</ele>
        <time>2020-05-24T11:31:49.000Z</time>
      </trkpt>
      <trkpt lat="47.17259" lon="-1.3558">
        <ele>58</ele>
        <time>2020-05-24T11:31:51.000Z</time>
      </trkpt>
      <trkpt lat="47.17262" lon="-1.35562">
        <ele>58</ele>
        <time>2020-05-24T11:31:53.000Z</time>
      </trkpt>
      <trkpt lat="47.17266" lon="-1.35545">
        <ele>57</ele>
        <time>2020-05-24T11:31:55.000Z</time>
      </trkpt>
      <trkpt lat="47.17269" lon="-1.35527">
        <ele>57</ele>
        <time>2020-05-24T11:31:57.000Z</time>
      </trkpt>
      <trkpt lat="47.17272" lon="-1.3551">
        <ele>58</ele>
        <time>2020-05-24T11:31:59.000Z</time>
      </trkpt>
      <trkpt lat="47.17274" lon="-1.35492">
        <ele>57</ele>
        <time>2020-05-24T11:32:01.000Z</time>
      </trkpt>
      <trkpt lat="47.17278" lon="-1.35474">
        <ele>57</ele>
        <time>2020-05-24T11:32:03.000Z</time>
      </trkpt>
      <trkpt lat="47.1728" lon="-1.35457">
        <ele>57</ele>
        <time>2020-05-24T11:32:05.000Z</time>
      </trkpt>
      <trkpt lat="47.17283" lon="-1.35439">
        <ele>57</ele>
        <time>2020-05-24T11:32:07.000Z</time>
      </trkpt>
      <trkpt lat="47.17286" lon="-1.35422">
        <ele>57</ele>
        <time>2020-05-24T11:32:09.000Z</time>
      </trkpt>
      <trkpt lat="47.17289" lon="-1.35405">
        <ele>57</ele>
        <time>2020-05-24T11:32:11.000Z</time>
      </trkpt>
      <trkpt lat="47.17289" lon="-1.3539">
        <ele>57</ele>
        <time>2020-05-24T11:32:13.000Z</time>
      </trkpt>
      <trkpt lat="47.17298" lon="-1.35375">
        <ele>58</ele>
        <time>2020-05-24T11:32:16.000Z</time>
      </trkpt>
      <trkpt lat="47.17304" lon="-1.35363">
        <ele>58</ele>
        <time>2020-05-24T11:32:18.000Z</time>
      </trkpt>
      <trkpt lat="47.17306" lon="-1.35346">
        <ele>58</ele>
        <time>2020-05-24T11:32:20.000Z</time>
      </trkpt>
      <trkpt lat="47.17307" lon="-1.35328">
        <ele>58</ele>
        <time>2020-05-24T11:32:22.000Z</time>
      </trkpt>
      <trkpt lat="47.17311" lon="-1.35311">
        <ele>59</ele>
        <time>2020-05-24T11:32:24.000Z</time>
      </trkpt>
      <trkpt lat="47.17313" lon="-1.35294">
        <ele>59</ele>
        <time>2020-05-24T11:32:26.000Z</time>
      </trkpt>
      <trkpt lat="47.17315" lon="-1.35276">
        <ele>59</ele>
        <time>2020-05-24T11:32:28.000Z</time>
      </trkpt>
      <trkpt lat="47.17316" lon="-1.35258">
        <ele>59</ele>
        <time>2020-05-24T11:32:30.000Z</time>
      </trkpt>
      <trkpt lat="47.17318" lon="-1.35241">
        <ele>59</ele>
        <time>2020-05-24T11:32:32.000Z</time>
      </trkpt>
      <trkpt lat="47.1732" lon="-1.35224">
        <ele>60</ele>
        <time>2020-05-24T11:32:34.000Z</time>
      </trkpt>
      <trkpt lat="47.17324" lon="-1.35209">
        <ele>60</ele>
        <time>2020-05-24T11:32:36.000Z</time>
      </trkpt>
      <trkpt lat="47.17326" lon="-1.35192">
        <ele>60</ele>
        <time>2020-05-24T11:32:38.000Z</time>
      </trkpt>
      <trkpt lat="47.17329" lon="-1.35174">
        <ele>60</ele>
        <time>2020-05-24T11:32:40.000Z</time>
      </trkpt>
      <trkpt lat="47.17333" lon="-1.35157">
        <ele>60</ele>
        <time>2020-05-24T11:32:42.000Z</time>
      </trkpt>
      <trkpt lat="47.17337" lon="-1.35139">
        <ele>60</ele>
        <time>2020-05-24T11:32:44.000Z</time>
      </trkpt>
      <trkpt lat="47.17341" lon="-1.3512">
        <ele>60</ele>
        <time>2020-05-24T11:32:46.000Z</time>
      </trkpt>
      <trkpt lat="47.17345" lon="-1.35102">
        <ele>59</ele>
        <time>2020-05-24T11:32:48.000Z</time>
      </trkpt>
      <trkpt lat="47.17348" lon="-1.35085">
        <ele>59</ele>
        <time>2020-05-24T11:32:50.000Z</time>
      </trkpt>
      <trkpt lat="47.17352" lon="-1.35068">
        <ele>59</ele>
        <time>2020-05-24T11:32:52.000Z</time>
      </trkpt>
      <trkpt lat="47.17355" lon="-1.35051">
        <ele>59</ele>
        <time>2020-05-24T11:32:54.000Z</time>
      </trkpt>
      <trkpt lat="47.17359" lon="-1.35035">
        <ele>59</ele>
        <time>2020-05-24T11:32:56.000Z</time>
      </trkpt>
      <trkpt lat="47.17362" lon="-1.35019">
        <ele>59</ele>
        <time>2020-05-24T11:32:58.000Z</time>
      </trkpt>
      <trkpt lat="47.17365" lon="-1.35003">
        <ele>60</ele>
        <time>2020-05-24T11:33:00.000Z</time>
      </trkpt>
      <trkpt lat="47.17368" lon="-1.34986">
        <ele>60</ele>
        <time>2020-05-24T11:33:02.000Z</time>
      </trkpt>
      <trkpt lat="47.17372" lon="-1.3497">
        <ele>60</ele>
        <time>2020-05-24T11:33:04.000Z</time>
      </trkpt>
      <trkpt lat="47.17375" lon="-1.34953">
        <ele>60</ele>
        <time>2020-05-24T11:33:06.000Z</time>
      </trkpt>
      <trkpt lat="47.17379" lon="-1.34938">
        <ele>60</ele>
        <time>2020-05-24T11:33:08.000Z</time>
      </trkpt>
      <trkpt lat="47.17382" lon="-1.34923">
        <ele>61</ele>
        <time>2020-05-24T11:33:10.000Z</time>
      </trkpt>
      <trkpt lat="47.17385" lon="-1.34908">
        <ele>61</ele>
        <time>2020-05-24T11:33:12.000Z</time>
      </trkpt>
      <trkpt lat="47.17388" lon="-1.34894">
        <ele>61</ele>
        <time>2020-05-24T11:33:14.000Z</time>
      </trkpt>
      <trkpt lat="47.1739" lon="-1.3488">
        <ele>61</ele>
        <time>2020-05-24T11:33:16.000Z</time>
      </trkpt>
      <trkpt lat="47.17393" lon="-1.34866">
        <ele>62</ele>
        <time>2020-05-24T11:33:18.000Z</time>
      </trkpt>
      <trkpt lat="47.17395" lon="-1.34852">
        <ele>62</ele>
        <time>2020-05-24T11:33:20.000Z</time>
      </trkpt>
      <trkpt lat="47.17397" lon="-1.34836">
        <ele>63</ele>
        <time>2020-05-24T11:33:22.000Z</time>
      </trkpt>
      <trkpt lat="47.17398" lon="-1.34821">
        <ele>63</ele>
        <time>2020-05-24T11:33:24.000Z</time>
      </trkpt>
      <trkpt lat="47.174" lon="-1.34807">
        <ele>63</ele>
        <time>2020-05-24T11:33:26.000Z</time>
      </trkpt>
      <trkpt lat="47.17402" lon="-1.34791">
        <ele>63</ele>
        <time>2020-05-24T11:33:28.000Z</time>
      </trkpt>
      <trkpt lat="47.17403" lon="-1.34778">
        <ele>63</ele>
        <time>2020-05-24T11:33:30.000Z</time>
      </trkpt>
      <trkpt lat="47.17404" lon="-1.34764">
        <ele>64</ele>
        <time>2020-05-24T11:33:32.000Z</time>
      </trkpt>
      <trkpt lat="47.17406" lon="-1.3475">
        <ele>64</ele>
        <time>2020-05-24T11:33:34.000Z</time>
      </trkpt>
      <trkpt lat="47.17408" lon="-1.34735">
        <ele>65</ele>
        <time>2020-05-24T11:33:36.000Z</time>
      </trkpt>
      <trkpt lat="47.1741" lon="-1.34721">
        <ele>65</ele>
        <time>2020-05-24T11:33:38.000Z</time>
      </trkpt>
      <trkpt lat="47.17413" lon="-1.34706">
        <ele>65</ele>
        <time>2020-05-24T11:33:40.000Z</time>
      </trkpt>
      <trkpt lat="47.17416" lon="-1.34691">
        <ele>65</ele>
        <time>2020-05-24T11:33:42.000Z</time>
      </trkpt>
      <trkpt lat="47.17418" lon="-1.34677">
        <ele>65</ele>
        <time>2020-05-24T11:33:44.000Z</time>
      </trkpt>
      <trkpt lat="47.17421" lon="-1.34663">
        <ele>65</ele>
        <time>2020-05-24T11:33:46.000Z</time>
      </trkpt>
      <trkpt lat="47.17425" lon="-1.34648">
        <ele>65</ele>
        <time>2020-05-24T11:33:48.000Z</time>
      </trkpt>
      <trkpt lat="47.1743" lon="-1.34634">
        <ele>65</ele>
        <time>2020-05-24T11:33:50.000Z</time>
      </trkpt>
      <trkpt lat="47.17436" lon="-1.34619">
        <ele>65</ele>
        <time>2020-05-24T11:33:52.000Z</time>
      </trkpt>
      <trkpt lat="47.17439" lon="-1.34604">
        <ele>65</ele>
        <time>2020-05-24T11:33:54.000Z</time>
      </trkpt>
      <trkpt lat="47.17442" lon="-1.34589">
        <ele>65</ele>
        <time>2020-05-24T11:33:56.000Z</time>
      </trkpt>
      <trkpt lat="47.17445" lon="-1.34573">
        <ele>65</ele>
        <time>2020-05-24T11:33:58.000Z</time>
      </trkpt>
      <trkpt lat="47.17448" lon="-1.34558">
        <ele>65</ele>
        <time>2020-05-24T11:34:00.000Z</time>
      </trkpt>
      <trkpt lat="47.17451" lon="-1.34545">
        <ele>65</ele>
        <time>2020-05-24T11:34:02.000Z</time>
      </trkpt>
      <trkpt lat="47.17454" lon="-1.34531">
        <ele>66</ele>
        <time>2020-05-24T11:34:04.000Z</time>
      </trkpt>
      <trkpt lat="47.17457" lon="-1.34516">
        <ele>66</ele>
        <time>2020-05-24T11:34:06.000Z</time>
      </trkpt>
      <trkpt lat="47.1746" lon="-1.34501">
        <ele>66</ele>
        <time>2020-05-24T11:34:08.000Z</time>
      </trkpt>
      <trkpt lat="47.17462" lon="-1.34486">
        <ele>66</ele>
        <time>2020-05-24T11:34:10.000Z</time>
      </trkpt>
      <trkpt lat="47.17463" lon="-1.34471">
        <ele>67</ele>
        <time>2020-05-24T11:34:12.000Z</time>
      </trkpt>
      <trkpt lat="47.17464" lon="-1.34456">
        <ele>67</ele>
        <time>2020-05-24T11:34:14.000Z</time>
      </trkpt>
      <trkpt lat="47.17465" lon="-1.34442">
        <ele>67</ele>
        <time>2020-05-24T11:34:16.000Z</time>
      </trkpt>
      <trkpt lat="47.17468" lon="-1.34428">
        <ele>67</ele>
        <time>2020-05-24T11:34:18.000Z</time>
      </trkpt>
      <trkpt lat="47.17473" lon="-1.34414">
        <ele>67</ele>
        <time>2020-05-24T11:34:20.000Z</time>
      </trkpt>
      <trkpt lat="47.17477" lon="-1.34398">
        <ele>68</ele>
        <time>2020-05-24T11:34:22.000Z</time>
      </trkpt>
      <trkpt lat="47.1748" lon="-1.34383">
        <ele>67</ele>
        <time>2020-05-24T11:34:24.000Z</time>
      </trkpt>
      <trkpt lat="47.17483" lon="-1.34367">
        <ele>68</ele>
        <time>2020-05-24T11:34:26.000Z</time>
      </trkpt>
      <trkpt lat="47.17485" lon="-1.34352">
        <ele>68</ele>
        <time>2020-05-24T11:34:28.000Z</time>
      </trkpt>
      <trkpt lat="47.17488" lon="-1.34338">
        <ele>68</ele>
        <time>2020-05-24T11:34:30.000Z</time>
      </trkpt>
      <trkpt lat="47.1749" lon="-1.34324">
        <ele>68</ele>
        <time>2020-05-24T11:34:32.000Z</time>
      </trkpt>
      <trkpt lat="47.17493" lon="-1.34309">
        <ele>68</ele>
        <time>2020-05-24T11:34:34.000Z</time>
      </trkpt>
      <trkpt lat="47.17496" lon="-1.34294">
        <ele>68</ele>
        <time>2020-05-24T11:34:36.000Z</time>
      </trkpt>
      <trkpt lat="47.17499" lon="-1.34279">
        <ele>68</ele>
        <time>2020-05-24T11:34:38.000Z</time>
      </trkpt>
      <trkpt lat="47.17502" lon="-1.34264">
        <ele>67</ele>
        <time>2020-05-24T11:34:40.000Z</time>
      </trkpt>
      <trkpt lat="47.17505" lon="-1.34248">
        <ele>67</ele>
        <time>2020-05-24T11:34:42.000Z</time>
      </trkpt>
      <trkpt lat="47.17507" lon="-1.34233">
        <ele>67</ele>
        <time>2020-05-24T11:34:44.000Z</time>
      </trkpt>
      <trkpt lat="47.17511" lon="-1.34217">
        <ele>67</ele>
        <time>2020-05-24T11:34:46.000Z</time>
      </trkpt>
      <trkpt lat="47.17515" lon="-1.34202">
        <ele>67</ele>
        <time>2020-05-24T11:34:48.000Z</time>
      </trkpt>
      <trkpt lat="47.17521" lon="-1.34187">
        <ele>67</ele>
        <time>2020-05-24T11:34:50.000Z</time>
      </trkpt>
      <trkpt lat="47.17526" lon="-1.34171">
        <ele>66</ele>
        <time>2020-05-24T11:34:52.000Z</time>
      </trkpt>
      <trkpt lat="47.1753" lon="-1.34156">
        <ele>66</ele>
        <time>2020-05-24T11:34:54.000Z</time>
      </trkpt>
      <trkpt lat="47.17537" lon="-1.34143">
        <ele>66</ele>
        <time>2020-05-24T11:34:56.000Z</time>
      </trkpt>
      <trkpt lat="47.17548" lon="-1.34136">
        <ele>65</ele>
        <time>2020-05-24T11:34:58.000Z</time>
      </trkpt>
      <trkpt lat="47.17558" lon="-1.34133">
        <ele>66</ele>
        <time>2020-05-24T11:35:00.000Z</time>
      </trkpt>
      <trkpt lat="47.17568" lon="-1.34126">
        <ele>66</ele>
        <time>2020-05-24T11:35:02.000Z</time>
      </trkpt>
      <trkpt lat="47.17578" lon="-1.34118">
        <ele>66</ele>
        <time>2020-05-24T11:35:04.000Z</time>
      </trkpt>
      <trkpt lat="47.17588" lon="-1.34111">
        <ele>66</ele>
        <time>2020-05-24T11:35:06.000Z</time>
      </trkpt>
      <trkpt lat="47.17597" lon="-1.34102">
        <ele>66</ele>
        <time>2020-05-24T11:35:08.000Z</time>
      </trkpt>
      <trkpt lat="47.17607" lon="-1.34093">
        <ele>66</ele>
        <time>2020-05-24T11:35:10.000Z</time>
      </trkpt>
      <trkpt lat="47.17617" lon="-1.34085">
        <ele>67</ele>
        <time>2020-05-24T11:35:12.000Z</time>
      </trkpt>
      <trkpt lat="47.17627" lon="-1.34078">
        <ele>67</ele>
        <time>2020-05-24T11:35:14.000Z</time>
      </trkpt>
      <trkpt lat="47.17636" lon="-1.34072">
        <ele>67</ele>
        <time>2020-05-24T11:35:16.000Z</time>
      </trkpt>
      <trkpt lat="47.17647" lon="-1.34069">
        <ele>67</ele>
        <time>2020-05-24T11:35:18.000Z</time>
      </trkpt>
      <trkpt lat="47.17659" lon="-1.34068">
        <ele>67</ele>
        <time>2020-05-24T11:35:20.000Z</time>
      </trkpt>
      <trkpt lat="47.1767" lon="-1.34069">
        <ele>66</ele>
        <time>2020-05-24T11:35:22.000Z</time>
      </trkpt>
      <trkpt lat="47.17682" lon="-1.34069">
        <ele>66</ele>
        <time>2020-05-24T11:35:24.000Z</time>
      </trkpt>
      <trkpt lat="47.17695" lon="-1.34069">
        <ele>65</ele>
        <time>2020-05-24T11:35:26.000Z</time>
      </trkpt>
      <trkpt lat="47.17708" lon="-1.3407">
        <ele>64</ele>
        <time>2020-05-24T11:35:28.000Z</time>
      </trkpt>
      <trkpt lat="47.1772" lon="-1.3407">
        <ele>64</ele>
        <time>2020-05-24T11:35:30.000Z</time>
      </trkpt>
      <trkpt lat="47.17732" lon="-1.34071">
        <ele>64</ele>
        <time>2020-05-24T11:35:32.000Z</time>
      </trkpt>
      <trkpt lat="47.17744" lon="-1.34072">
        <ele>63</ele>
        <time>2020-05-24T11:35:34.000Z</time>
      </trkpt>
      <trkpt lat="47.17755" lon="-1.34075">
        <ele>63</ele>
        <time>2020-05-24T11:35:36.000Z</time>
      </trkpt>
      <trkpt lat="47.17767" lon="-1.34081">
        <ele>62</ele>
        <time>2020-05-24T11:35:38.000Z</time>
      </trkpt>
      <trkpt lat="47.17779" lon="-1.34088">
        <ele>62</ele>
        <time>2020-05-24T11:35:40.000Z</time>
      </trkpt>
      <trkpt lat="47.17791" lon="-1.34096">
        <ele>61</ele>
        <time>2020-05-24T11:35:42.000Z</time>
      </trkpt>
      <trkpt lat="47.17803" lon="-1.34103">
        <ele>61</ele>
        <time>2020-05-24T11:35:44.000Z</time>
      </trkpt>
      <trkpt lat="47.17814" lon="-1.34111">
        <ele>61</ele>
        <time>2020-05-24T11:35:46.000Z</time>
      </trkpt>
      <trkpt lat="47.17826" lon="-1.34119">
        <ele>61</ele>
        <time>2020-05-24T11:35:48.000Z</time>
      </trkpt>
      <trkpt lat="47.17838" lon="-1.34123">
        <ele>61</ele>
        <time>2020-05-24T11:35:50.000Z</time>
      </trkpt>
      <trkpt lat="47.17851" lon="-1.34128">
        <ele>60</ele>
        <time>2020-05-24T11:35:52.000Z</time>
      </trkpt>
      <trkpt lat="47.17863" lon="-1.34131">
        <ele>60</ele>
        <time>2020-05-24T11:35:54.000Z</time>
      </trkpt>
      <trkpt lat="47.17876" lon="-1.34133">
        <ele>60</ele>
        <time>2020-05-24T11:35:56.000Z</time>
      </trkpt>
      <trkpt lat="47.17889" lon="-1.34133">
        <ele>59</ele>
        <time>2020-05-24T11:35:58.000Z</time>
      </trkpt>
      <trkpt lat="47.17901" lon="-1.34133">
        <ele>59</ele>
        <time>2020-05-24T11:36:00.000Z</time>
      </trkpt>
      <trkpt lat="47.17913" lon="-1.3413">
        <ele>60</ele>
        <time>2020-05-24T11:36:02.000Z</time>
      </trkpt>
      <trkpt lat="47.17924" lon="-1.34124">
        <ele>60</ele>
        <time>2020-05-24T11:36:04.000Z</time>
      </trkpt>
      <trkpt lat="47.17936" lon="-1.34117">
        <ele>60</ele>
        <time>2020-05-24T11:36:06.000Z</time>
      </trkpt>
      <trkpt lat="47.17946" lon="-1.34108">
        <ele>59</ele>
        <time>2020-05-24T11:36:08.000Z</time>
      </trkpt>
      <trkpt lat="47.17956" lon="-1.34098">
        <ele>59</ele>
        <time>2020-05-24T11:36:10.000Z</time>
      </trkpt>
      <trkpt lat="47.17965" lon="-1.34086">
        <ele>59</ele>
        <time>2020-05-24T11:36:12.000Z</time>
      </trkpt>
      <trkpt lat="47.17975" lon="-1.34075">
        <ele>59</ele>
        <time>2020-05-24T11:36:14.000Z</time>
      </trkpt>
      <trkpt lat="47.17984" lon="-1.34063">
        <ele>59</ele>
        <time>2020-05-24T11:36:16.000Z</time>
      </trkpt>
      <trkpt lat="47.17992" lon="-1.34051">
        <ele>60</ele>
        <time>2020-05-24T11:36:18.000Z</time>
      </trkpt>
      <trkpt lat="47.18" lon="-1.34039">
        <ele>59</ele>
        <time>2020-05-24T11:36:20.000Z</time>
      </trkpt>
      <trkpt lat="47.1801" lon="-1.34035">
        <ele>59</ele>
        <time>2020-05-24T11:36:22.000Z</time>
      </trkpt>
      <trkpt lat="47.18019" lon="-1.34045">
        <ele>59</ele>
        <time>2020-05-24T11:36:24.000Z</time>
      </trkpt>
      <trkpt lat="47.18029" lon="-1.34055">
        <ele>59</ele>
        <time>2020-05-24T11:36:26.000Z</time>
      </trkpt>
      <trkpt lat="47.18041" lon="-1.34059">
        <ele>59</ele>
        <time>2020-05-24T11:36:28.000Z</time>
      </trkpt>
      <trkpt lat="47.18054" lon="-1.34064">
        <ele>59</ele>
        <time>2020-05-24T11:36:30.000Z</time>
      </trkpt>
      <trkpt lat="47.18065" lon="-1.34068">
        <ele>59</ele>
        <time>2020-05-24T11:36:32.000Z</time>
      </trkpt>
      <trkpt lat="47.18078" lon="-1.34072">
        <ele>59</ele>
        <time>2020-05-24T11:36:34.000Z</time>
      </trkpt>
      <trkpt lat="47.18091" lon="-1.34077">
        <ele>59</ele>
        <time>2020-05-24T11:36:36.000Z</time>
      </trkpt>
      <trkpt lat="47.18104" lon="-1.34082">
        <ele>59</ele>
        <time>2020-05-24T11:36:38.000Z</time>
      </trkpt>
      <trkpt lat="47.18117" lon="-1.34086">
        <ele>59</ele>
        <time>2020-05-24T11:36:40.000Z</time>
      </trkpt>
      <trkpt lat="47.1813" lon="-1.34089">
        <ele>59</ele>
        <time>2020-05-24T11:36:42.000Z</time>
      </trkpt>
      <trkpt lat="47.18142" lon="-1.3409">
        <ele>58</ele>
        <time>2020-05-24T11:36:44.000Z</time>
      </trkpt>
      <trkpt lat="47.18156" lon="-1.34091">
        <ele>58</ele>
        <time>2020-05-24T11:36:46.000Z</time>
      </trkpt>
      <trkpt lat="47.18169" lon="-1.34091">
        <ele>58</ele>
        <time>2020-05-24T11:36:48.000Z</time>
      </trkpt>
      <trkpt lat="47.18183" lon="-1.34092">
        <ele>58</ele>
        <time>2020-05-24T11:36:50.000Z</time>
      </trkpt>
      <trkpt lat="47.18196" lon="-1.34092">
        <ele>58</ele>
        <time>2020-05-24T11:36:52.000Z</time>
      </trkpt>
      <trkpt lat="47.1821" lon="-1.34093">
        <ele>58</ele>
        <time>2020-05-24T11:36:54.000Z</time>
      </trkpt>
      <trkpt lat="47.18223" lon="-1.34093">
        <ele>58</ele>
        <time>2020-05-24T11:36:56.000Z</time>
      </trkpt>
      <trkpt lat="47.18237" lon="-1.34094">
        <ele>58</ele>
        <time>2020-05-24T11:36:58.000Z</time>
      </trkpt>
      <trkpt lat="47.1825" lon="-1.34095">
        <ele>58</ele>
        <time>2020-05-24T11:37:00.000Z</time>
      </trkpt>
      <trkpt lat="47.18264" lon="-1.34096">
        <ele>58</ele>
        <time>2020-05-24T11:37:02.000Z</time>
      </trkpt>
      <trkpt lat="47.18277" lon="-1.34096">
        <ele>58</ele>
        <time>2020-05-24T11:37:04.000Z</time>
      </trkpt>
      <trkpt lat="47.1829" lon="-1.34096">
        <ele>58</ele>
        <time>2020-05-24T11:37:06.000Z</time>
      </trkpt>
      <trkpt lat="47.18303" lon="-1.34097">
        <ele>58</ele>
        <time>2020-05-24T11:37:08.000Z</time>
      </trkpt>
      <trkpt lat="47.18317" lon="-1.34098">
        <ele>58</ele>
        <time>2020-05-24T11:37:10.000Z</time>
      </trkpt>
      <trkpt lat="47.1833" lon="-1.34098">
        <ele>58</ele>
        <time>2020-05-24T11:37:12.000Z</time>
      </trkpt>
      <trkpt lat="47.18342" lon="-1.34098">
        <ele>58</ele>
        <time>2020-05-24T11:37:14.000Z</time>
      </trkpt>
      <trkpt lat="47.18356" lon="-1.34099">
        <ele>58</ele>
        <time>2020-05-24T11:37:16.000Z</time>
      </trkpt>
      <trkpt lat="47.18368" lon="-1.341">
        <ele>58</ele>
        <time>2020-05-24T11:37:18.000Z</time>
      </trkpt>
      <trkpt lat="47.18381" lon="-1.34101">
        <ele>58</ele>
        <time>2020-05-24T11:37:20.000Z</time>
      </trkpt>
      <trkpt lat="47.18394" lon="-1.34104">
        <ele>58</ele>
        <time>2020-05-24T11:37:22.000Z</time>
      </trkpt>
      <trkpt lat="47.18407" lon="-1.3411">
        <ele>59</ele>
        <time>2020-05-24T11:37:24.000Z</time>
      </trkpt>
      <trkpt lat="47.18419" lon="-1.34116">
        <ele>58</ele>
        <time>2020-05-24T11:37:26.000Z</time>
      </trkpt>
      <trkpt lat="47.18431" lon="-1.34125">
        <ele>58</ele>
        <time>2020-05-24T11:37:28.000Z</time>
      </trkpt>
      <trkpt lat="47.18443" lon="-1.34134">
        <ele>58</ele>
        <time>2020-05-24T11:37:30.000Z</time>
      </trkpt>
      <trkpt lat="47.18455" lon="-1.34143">
        <ele>58</ele>
        <time>2020-05-24T11:37:32.000Z</time>
      </trkpt>
      <trkpt lat="47.18467" lon="-1.34151">
        <ele>58</ele>
        <time>2020-05-24T11:37:34.000Z</time>
      </trkpt>
      <trkpt lat="47.18478" lon="-1.3416">
        <ele>58</ele>
        <time>2020-05-24T11:37:36.000Z</time>
      </trkpt>
      <trkpt lat="47.1849" lon="-1.34169">
        <ele>57</ele>
        <time>2020-05-24T11:37:38.000Z</time>
      </trkpt>
      <trkpt lat="47.18502" lon="-1.34178">
        <ele>57</ele>
        <time>2020-05-24T11:37:40.000Z</time>
      </trkpt>
      <trkpt lat="47.18514" lon="-1.34185">
        <ele>57</ele>
        <time>2020-05-24T11:37:42.000Z</time>
      </trkpt>
      <trkpt lat="47.18527" lon="-1.34192">
        <ele>56</ele>
        <time>2020-05-24T11:37:44.000Z</time>
      </trkpt>
      <trkpt lat="47.1854" lon="-1.34195">
        <ele>57</ele>
        <time>2020-05-24T11:37:46.000Z</time>
      </trkpt>
      <trkpt lat="47.18553" lon="-1.34195">
        <ele>56</ele>
        <time>2020-05-24T11:37:48.000Z</time>
      </trkpt>
      <trkpt lat="47.18566" lon="-1.34191">
        <ele>56</ele>
        <time>2020-05-24T11:37:50.000Z</time>
      </trkpt>
      <trkpt lat="47.18579" lon="-1.34185">
        <ele>57</ele>
        <time>2020-05-24T11:37:52.000Z</time>
      </trkpt>
      <trkpt lat="47.18591" lon="-1.34179">
        <ele>57</ele>
        <time>2020-05-24T11:37:54.000Z</time>
      </trkpt>
      <trkpt lat="47.18604" lon="-1.34174">
        <ele>57</ele>
        <time>2020-05-24T11:37:56.000Z</time>
      </trkpt>
      <trkpt lat="47.18617" lon="-1.34168">
        <ele>58</ele>
        <time>2020-05-24T11:37:58.000Z</time>
      </trkpt>
      <trkpt lat="47.18629" lon="-1.34163">
        <ele>58</ele>
        <time>2020-05-24T11:38:00.000Z</time>
      </trkpt>
      <trkpt lat="47.18641" lon="-1.34156">
        <ele>57</ele>
        <time>2020-05-24T11:38:02.000Z</time>
      </trkpt>
      <trkpt lat="47.18653" lon="-1.34151">
        <ele>57</ele>
        <time>2020-05-24T11:38:04.000Z</time>
      </trkpt>
      <trkpt lat="47.18666" lon="-1.34144">
        <ele>57</ele>
        <time>2020-05-24T11:38:06.000Z</time>
      </trkpt>
      <trkpt lat="47.18678" lon="-1.34138">
        <ele>58</ele>
        <time>2020-05-24T11:38:08.000Z</time>
      </trkpt>
      <trkpt lat="47.1869" lon="-1.34132">
        <ele>57</ele>
        <time>2020-05-24T11:38:10.000Z</time>
      </trkpt>
      <trkpt lat="47.18701" lon="-1.34127">
        <ele>57</ele>
        <time>2020-05-24T11:38:12.000Z</time>
      </trkpt>
      <trkpt lat="47.18714" lon="-1.34122">
        <ele>57</ele>
        <time>2020-05-24T11:38:14.000Z</time>
      </trkpt>
      <trkpt lat="47.18726" lon="-1.34121">
        <ele>57</ele>
        <time>2020-05-24T11:38:16.000Z</time>
      </trkpt>
      <trkpt lat="47.18738" lon="-1.34122">
        <ele>56</ele>
        <time>2020-05-24T11:38:18.000Z</time>
      </trkpt>
      <trkpt lat="47.1875" lon="-1.34124">
        <ele>55</ele>
        <time>2020-05-24T11:38:20.000Z</time>
      </trkpt>
      <trkpt lat="47.18762" lon="-1.34128">
        <ele>55</ele>
        <time>2020-05-24T11:38:22.000Z</time>
      </trkpt>
      <trkpt lat="47.18774" lon="-1.34131">
        <ele>54</ele>
        <time>2020-05-24T11:38:24.000Z</time>
      </trkpt>
      <trkpt lat="47.18786" lon="-1.34134">
        <ele>54</ele>
        <time>2020-05-24T11:38:26.000Z</time>
      </trkpt>
      <trkpt lat="47.18798" lon="-1.34137">
        <ele>55</ele>
        <time>2020-05-24T11:38:28.000Z</time>
      </trkpt>
      <trkpt lat="47.1881" lon="-1.34141">
        <ele>55</ele>
        <time>2020-05-24T11:38:30.000Z</time>
      </trkpt>
      <trkpt lat="47.18821" lon="-1.34144">
        <ele>55</ele>
        <time>2020-05-24T11:38:32.000Z</time>
      </trkpt>
      <trkpt lat="47.18832" lon="-1.34148">
        <ele>55</ele>
        <time>2020-05-24T11:38:34.000Z</time>
      </trkpt>
      <trkpt lat="47.18843" lon="-1.34151">
        <ele>55</ele>
        <time>2020-05-24T11:38:36.000Z</time>
      </trkpt>
      <trkpt lat="47.18854" lon="-1.34156">
        <ele>55</ele>
        <time>2020-05-24T11:38:38.000Z</time>
      </trkpt>
      <trkpt lat="47.18865" lon="-1.3416">
        <ele>55</ele>
        <time>2020-05-24T11:38:40.000Z</time>
      </trkpt>
      <trkpt lat="47.18875" lon="-1.34164">
        <ele>55</ele>
        <time>2020-05-24T11:38:42.000Z</time>
      </trkpt>
      <trkpt lat="47.18886" lon="-1.34169">
        <ele>55</ele>
        <time>2020-05-24T11:38:44.000Z</time>
      </trkpt>
      <trkpt lat="47.18896" lon="-1.34173">
        <ele>56</ele>
        <time>2020-05-24T11:38:46.000Z</time>
      </trkpt>
      <trkpt lat="47.18907" lon="-1.34177">
        <ele>56</ele>
        <time>2020-05-24T11:38:48.000Z</time>
      </trkpt>
      <trkpt lat="47.18917" lon="-1.34182">
        <ele>56</ele>
        <time>2020-05-24T11:38:50.000Z</time>
      </trkpt>
      <trkpt lat="47.18927" lon="-1.34186">
        <ele>56</ele>
        <time>2020-05-24T11:38:52.000Z</time>
      </trkpt>
      <trkpt lat="47.18938" lon="-1.34191">
        <ele>57</ele>
        <time>2020-05-24T11:38:54.000Z</time>
      </trkpt>
      <trkpt lat="47.18948" lon="-1.34195">
        <ele>57</ele>
        <time>2020-05-24T11:38:56.000Z</time>
      </trkpt>
      <trkpt lat="47.18959" lon="-1.342">
        <ele>57</ele>
        <time>2020-05-24T11:38:58.000Z</time>
      </trkpt>
      <trkpt lat="47.18969" lon="-1.34204">
        <ele>57</ele>
        <time>2020-05-24T11:39:00.000Z</time>
      </trkpt>
      <trkpt lat="47.1898" lon="-1.34208">
        <ele>57</ele>
        <time>2020-05-24T11:39:02.000Z</time>
      </trkpt>
      <trkpt lat="47.1899" lon="-1.34212">
        <ele>58</ele>
        <time>2020-05-24T11:39:04.000Z</time>
      </trkpt>
      <trkpt lat="47.19" lon="-1.34216">
        <ele>58</ele>
        <time>2020-05-24T11:39:06.000Z</time>
      </trkpt>
      <trkpt lat="47.1901" lon="-1.34221">
        <ele>59</ele>
        <time>2020-05-24T11:39:08.000Z</time>
      </trkpt>
      <trkpt lat="47.1902" lon="-1.34224">
        <ele>59</ele>
        <time>2020-05-24T11:39:10.000Z</time>
      </trkpt>
      <trkpt lat="47.1903" lon="-1.34228">
        <ele>59</ele>
        <time>2020-05-24T11:39:12.000Z</time>
      </trkpt>
      <trkpt lat="47.1904" lon="-1.34232">
        <ele>59</ele>
        <time>2020-05-24T11:39:14.000Z</time>
      </trkpt>
      <trkpt lat="47.1905" lon="-1.34237">
        <ele>59</ele>
        <time>2020-05-24T11:39:16.000Z</time>
      </trkpt>
      <trkpt lat="47.19061" lon="-1.34242">
        <ele>59</ele>
        <time>2020-05-24T11:39:18.000Z</time>
      </trkpt>
      <trkpt lat="47.19071" lon="-1.34247">
        <ele>59</ele>
        <time>2020-05-24T11:39:20.000Z</time>
      </trkpt>
      <trkpt lat="47.19083" lon="-1.34251">
        <ele>58</ele>
        <time>2020-05-24T11:39:22.000Z</time>
      </trkpt>
      <trkpt lat="47.19094" lon="-1.34256">
        <ele>58</ele>
        <time>2020-05-24T11:39:24.000Z</time>
      </trkpt>
      <trkpt lat="47.19105" lon="-1.34262">
        <ele>58</ele>
        <time>2020-05-24T11:39:26.000Z</time>
      </trkpt>
      <trkpt lat="47.19117" lon="-1.34267">
        <ele>57</ele>
        <time>2020-05-24T11:39:28.000Z</time>
      </trkpt>
      <trkpt lat="47.19129" lon="-1.34272">
        <ele>57</ele>
        <time>2020-05-24T11:39:30.000Z</time>
      </trkpt>
      <trkpt lat="47.1914" lon="-1.34277">
        <ele>57</ele>
        <time>2020-05-24T11:39:32.000Z</time>
      </trkpt>
      <trkpt lat="47.19152" lon="-1.34282">
        <ele>57</ele>
        <time>2020-05-24T11:39:34.000Z</time>
      </trkpt>
      <trkpt lat="47.19163" lon="-1.34287">
        <ele>57</ele>
        <time>2020-05-24T11:39:36.000Z</time>
      </trkpt>
      <trkpt lat="47.19175" lon="-1.34292">
        <ele>57</ele>
        <time>2020-05-24T11:39:38.000Z</time>
      </trkpt>
      <trkpt lat="47.19187" lon="-1.34297">
        <ele>57</ele>
        <time>2020-05-24T11:39:40.000Z</time>
      </trkpt>
      <trkpt lat="47.19198" lon="-1.34302">
        <ele>57</ele>
        <time>2020-05-24T11:39:42.000Z</time>
      </trkpt>
      <trkpt lat="47.1921" lon="-1.34307">
        <ele>56</ele>
        <time>2020-05-24T11:39:44.000Z</time>
      </trkpt>
      <trkpt lat="47.19222" lon="-1.34312">
        <ele>56</ele>
        <time>2020-05-24T11:39:46.000Z</time>
      </trkpt>
      <trkpt lat="47.19235" lon="-1.34317">
        <ele>56</ele>
        <time>2020-05-24T11:39:48.000Z</time>
      </trkpt>
      <trkpt lat="47.19247" lon="-1.34323">
        <ele>56</ele>
        <time>2020-05-24T11:39:50.000Z</time>
      </trkpt>
      <trkpt lat="47.1926" lon="-1.34328">
        <ele>56</ele>
        <time>2020-05-24T11:39:52.000Z</time>
      </trkpt>
      <trkpt lat="47.19271" lon="-1.34334">
        <ele>56</ele>
        <time>2020-05-24T11:39:54.000Z</time>
      </trkpt>
      <trkpt lat="47.19283" lon="-1.34342">
        <ele>56</ele>
        <time>2020-05-24T11:39:56.000Z</time>
      </trkpt>
      <trkpt lat="47.19294" lon="-1.34351">
        <ele>56</ele>
        <time>2020-05-24T11:39:58.000Z</time>
      </trkpt>
      <trkpt lat="47.19305" lon="-1.34361">
        <ele>56</ele>
        <time>2020-05-24T11:40:00.000Z</time>
      </trkpt>
      <trkpt lat="47.19315" lon="-1.34372">
        <ele>56</ele>
        <time>2020-05-24T11:40:02.000Z</time>
      </trkpt>
      <trkpt lat="47.19326" lon="-1.34384">
        <ele>56</ele>
        <time>2020-05-24T11:40:04.000Z</time>
      </trkpt>
      <trkpt lat="47.19336" lon="-1.34395">
        <ele>55</ele>
        <time>2020-05-24T11:40:06.000Z</time>
      </trkpt>
      <trkpt lat="47.19348" lon="-1.34406">
        <ele>56</ele>
        <time>2020-05-24T11:40:08.000Z</time>
      </trkpt>
      <trkpt lat="47.19358" lon="-1.34418">
        <ele>56</ele>
        <time>2020-05-24T11:40:10.000Z</time>
      </trkpt>
      <trkpt lat="47.19368" lon="-1.34429">
        <ele>56</ele>
        <time>2020-05-24T11:40:12.000Z</time>
      </trkpt>
      <trkpt lat="47.19379" lon="-1.3444">
        <ele>56</ele>
        <time>2020-05-24T11:40:14.000Z</time>
      </trkpt>
      <trkpt lat="47.19389" lon="-1.34452">
        <ele>56</ele>
        <time>2020-05-24T11:40:16.000Z</time>
      </trkpt>
      <trkpt lat="47.194" lon="-1.34463">
        <ele>55</ele>
        <time>2020-05-24T11:40:18.000Z</time>
      </trkpt>
      <trkpt lat="47.19411" lon="-1.34474">
        <ele>55</ele>
        <time>2020-05-24T11:40:20.000Z</time>
      </trkpt>
      <trkpt lat="47.19421" lon="-1.34486">
        <ele>55</ele>
        <time>2020-05-24T11:40:22.000Z</time>
      </trkpt>
      <trkpt lat="47.19431" lon="-1.34498">
        <ele>55</ele>
        <time>2020-05-24T11:40:24.000Z</time>
      </trkpt>
      <trkpt lat="47.19442" lon="-1.34509">
        <ele>56</ele>
        <time>2020-05-24T11:40:26.000Z</time>
      </trkpt>
      <trkpt lat="47.19452" lon="-1.34521">
        <ele>56</ele>
        <time>2020-05-24T11:40:28.000Z</time>
      </trkpt>
      <trkpt lat="47.19463" lon="-1.34532">
        <ele>56</ele>
        <time>2020-05-24T11:40:30.000Z</time>
      </trkpt>
      <trkpt lat="47.19473" lon="-1.34543">
        <ele>56</ele>
        <time>2020-05-24T11:40:32.000Z</time>
      </trkpt>
      <trkpt lat="47.19483" lon="-1.34553">
        <ele>55</ele>
        <time>2020-05-24T11:40:34.000Z</time>
      </trkpt>
      <trkpt lat="47.19494" lon="-1.34564">
        <ele>56</ele>
        <time>2020-05-24T11:40:36.000Z</time>
      </trkpt>
      <trkpt lat="47.19504" lon="-1.34575">
        <ele>56</ele>
        <time>2020-05-24T11:40:38.000Z</time>
      </trkpt>
      <trkpt lat="47.19515" lon="-1.34586">
        <ele>55</ele>
        <time>2020-05-24T11:40:40.000Z</time>
      </trkpt>
      <trkpt lat="47.19526" lon="-1.34596">
        <ele>56</ele>
        <time>2020-05-24T11:40:42.000Z</time>
      </trkpt>
      <trkpt lat="47.19537" lon="-1.34605">
        <ele>56</ele>
        <time>2020-05-24T11:40:44.000Z</time>
      </trkpt>
      <trkpt lat="47.19549" lon="-1.34613">
        <ele>56</ele>
        <time>2020-05-24T11:40:46.000Z</time>
      </trkpt>
      <trkpt lat="47.1956" lon="-1.34622">
        <ele>56</ele>
        <time>2020-05-24T11:40:48.000Z</time>
      </trkpt>
      <trkpt lat="47.19571" lon="-1.34629">
        <ele>56</ele>
        <time>2020-05-24T11:40:50.000Z</time>
      </trkpt>
      <trkpt lat="47.19582" lon="-1.34637">
        <ele>56</ele>
        <time>2020-05-24T11:40:52.000Z</time>
      </trkpt>
      <trkpt lat="47.19594" lon="-1.34645">
        <ele>56</ele>
        <time>2020-05-24T11:40:54.000Z</time>
      </trkpt>
      <trkpt lat="47.19605" lon="-1.34653">
        <ele>56</ele>
        <time>2020-05-24T11:40:56.000Z</time>
      </trkpt>
      <trkpt lat="47.19616" lon="-1.34661">
        <ele>56</ele>
        <time>2020-05-24T11:40:58.000Z</time>
      </trkpt>
      <trkpt lat="47.19628" lon="-1.34669">
        <ele>56</ele>
        <time>2020-05-24T11:41:00.000Z</time>
      </trkpt>
      <trkpt lat="47.19639" lon="-1.34677">
        <ele>55</ele>
        <time>2020-05-24T11:41:02.000Z</time>
      </trkpt>
      <trkpt lat="47.19651" lon="-1.34685">
        <ele>55</ele>
        <time>2020-05-24T11:41:04.000Z</time>
      </trkpt>
      <trkpt lat="47.19662" lon="-1.34693">
        <ele>55</ele>
        <time>2020-05-24T11:41:06.000Z</time>
      </trkpt>
      <trkpt lat="47.19674" lon="-1.34701">
        <ele>55</ele>
        <time>2020-05-24T11:41:08.000Z</time>
      </trkpt>
      <trkpt lat="47.19685" lon="-1.3471">
        <ele>55</ele>
        <time>2020-05-24T11:41:10.000Z</time>
      </trkpt>
      <trkpt lat="47.19697" lon="-1.34717">
        <ele>55</ele>
        <time>2020-05-24T11:41:12.000Z</time>
      </trkpt>
      <trkpt lat="47.19708" lon="-1.34726">
        <ele>55</ele>
        <time>2020-05-24T11:41:14.000Z</time>
      </trkpt>
      <trkpt lat="47.1972" lon="-1.34734">
        <ele>55</ele>
        <time>2020-05-24T11:41:16.000Z</time>
      </trkpt>
      <trkpt lat="47.19733" lon="-1.34741">
        <ele>54</ele>
        <time>2020-05-24T11:41:18.000Z</time>
      </trkpt>
      <trkpt lat="47.19745" lon="-1.34747">
        <ele>54</ele>
        <time>2020-05-24T11:41:20.000Z</time>
      </trkpt>
      <trkpt lat="47.19757" lon="-1.34752">
        <ele>54</ele>
        <time>2020-05-24T11:41:22.000Z</time>
      </trkpt>
      <trkpt lat="47.1977" lon="-1.34755">
        <ele>53</ele>
        <time>2020-05-24T11:41:24.000Z</time>
      </trkpt>
      <trkpt lat="47.19783" lon="-1.34757">
        <ele>53</ele>
        <time>2020-05-24T11:41:26.000Z</time>
      </trkpt>
      <trkpt lat="47.19796" lon="-1.34758">
        <ele>53</ele>
        <time>2020-05-24T11:41:28.000Z</time>
      </trkpt>
      <trkpt lat="47.19809" lon="-1.34758">
        <ele>54</ele>
        <time>2020-05-24T11:41:30.000Z</time>
      </trkpt>
      <trkpt lat="47.19823" lon="-1.34757">
        <ele>54</ele>
        <time>2020-05-24T11:41:32.000Z</time>
      </trkpt>
      <trkpt lat="47.19836" lon="-1.34756">
        <ele>54</ele>
        <time>2020-05-24T11:41:34.000Z</time>
      </trkpt>
      <trkpt lat="47.19849" lon="-1.34756">
        <ele>54</ele>
        <time>2020-05-24T11:41:36.000Z</time>
      </trkpt>
      <trkpt lat="47.19863" lon="-1.34755">
        <ele>54</ele>
        <time>2020-05-24T11:41:38.000Z</time>
      </trkpt>
      <trkpt lat="47.19876" lon="-1.34755">
        <ele>54</ele>
        <time>2020-05-24T11:41:40.000Z</time>
      </trkpt>
      <trkpt lat="47.19888" lon="-1.34754">
        <ele>54</ele>
        <time>2020-05-24T11:41:42.000Z</time>
      </trkpt>
      <trkpt lat="47.19901" lon="-1.34754">
        <ele>55</ele>
        <time>2020-05-24T11:41:44.000Z</time>
      </trkpt>
      <trkpt lat="47.19914" lon="-1.34755">
        <ele>55</ele>
        <time>2020-05-24T11:41:46.000Z</time>
      </trkpt>
      <trkpt lat="47.19927" lon="-1.34756">
        <ele>55</ele>
        <time>2020-05-24T11:41:48.000Z</time>
      </trkpt>
      <trkpt lat="47.1994" lon="-1.34759">
        <ele>55</ele>
        <time>2020-05-24T11:41:50.000Z</time>
      </trkpt>
      <trkpt lat="47.19953" lon="-1.34762">
        <ele>55</ele>
        <time>2020-05-24T11:41:52.000Z</time>
      </trkpt>
      <trkpt lat="47.19965" lon="-1.34767">
        <ele>54</ele>
        <time>2020-05-24T11:41:54.000Z</time>
      </trkpt>
      <trkpt lat="47.19977" lon="-1.34774">
        <ele>54</ele>
        <time>2020-05-24T11:41:56.000Z</time>
      </trkpt>
      <trkpt lat="47.19989" lon="-1.34781">
        <ele>54</ele>
        <time>2020-05-24T11:41:58.000Z</time>
      </trkpt>
      <trkpt lat="47.20002" lon="-1.34789">
        <ele>54</ele>
        <time>2020-05-24T11:42:00.000Z</time>
      </trkpt>
      <trkpt lat="47.20013" lon="-1.34797">
        <ele>54</ele>
        <time>2020-05-24T11:42:02.000Z</time>
      </trkpt>
      <trkpt lat="47.20025" lon="-1.34804">
        <ele>55</ele>
        <time>2020-05-24T11:42:04.000Z</time>
      </trkpt>
      <trkpt lat="47.20037" lon="-1.34812">
        <ele>54</ele>
        <time>2020-05-24T11:42:06.000Z</time>
      </trkpt>
      <trkpt lat="47.20049" lon="-1.34819">
        <ele>55</ele>
        <time>2020-05-24T11:42:08.000Z</time>
      </trkpt>
      <trkpt lat="47.20061" lon="-1.34827">
        <ele>54</ele>
        <time>2020-05-24T11:42:10.000Z</time>
      </trkpt>
      <trkpt lat="47.20073" lon="-1.34835">
        <ele>54</ele>
        <time>2020-05-24T11:42:12.000Z</time>
      </trkpt>
      <trkpt lat="47.20085" lon="-1.34841">
        <ele>54</ele>
        <time>2020-05-24T11:42:14.000Z</time>
      </trkpt>
      <trkpt lat="47.20097" lon="-1.34846">
        <ele>54</ele>
        <time>2020-05-24T11:42:16.000Z</time>
      </trkpt>
      <trkpt lat="47.2011" lon="-1.3485">
        <ele>54</ele>
        <time>2020-05-24T11:42:18.000Z</time>
      </trkpt>
      <trkpt lat="47.20122" lon="-1.34853">
        <ele>54</ele>
        <time>2020-05-24T11:42:20.000Z</time>
      </trkpt>
      <trkpt lat="47.20134" lon="-1.34855">
        <ele>54</ele>
        <time>2020-05-24T11:42:22.000Z</time>
      </trkpt>
      <trkpt lat="47.20146" lon="-1.34855">
        <ele>53</ele>
        <time>2020-05-24T11:42:24.000Z</time>
      </trkpt>
      <trkpt lat="47.20159" lon="-1.34854">
        <ele>54</ele>
        <time>2020-05-24T11:42:26.000Z</time>
      </trkpt>
      <trkpt lat="47.20172" lon="-1.34851">
        <ele>53</ele>
        <time>2020-05-24T11:42:28.000Z</time>
      </trkpt>
      <trkpt lat="47.20184" lon="-1.34848">
        <ele>53</ele>
        <time>2020-05-24T11:42:30.000Z</time>
      </trkpt>
      <trkpt lat="47.20197" lon="-1.34843">
        <ele>53</ele>
        <time>2020-05-24T11:42:32.000Z</time>
      </trkpt>
      <trkpt lat="47.2021" lon="-1.34839">
        <ele>53</ele>
        <time>2020-05-24T11:42:34.000Z</time>
      </trkpt>
      <trkpt lat="47.20222" lon="-1.34834">
        <ele>53</ele>
        <time>2020-05-24T11:42:36.000Z</time>
      </trkpt>
      <trkpt lat="47.20234" lon="-1.3483">
        <ele>53</ele>
        <time>2020-05-24T11:42:38.000Z</time>
      </trkpt>
      <trkpt lat="47.20246" lon="-1.34825">
        <ele>52</ele>
        <time>2020-05-24T11:42:40.000Z</time>
      </trkpt>
      <trkpt lat="47.20258" lon="-1.3482">
        <ele>52</ele>
        <time>2020-05-24T11:42:42.000Z</time>
      </trkpt>
      <trkpt lat="47.20271" lon="-1.34815">
        <ele>52</ele>
        <time>2020-05-24T11:42:44.000Z</time>
      </trkpt>
      <trkpt lat="47.20283" lon="-1.3481">
        <ele>52</ele>
        <time>2020-05-24T11:42:46.000Z</time>
      </trkpt>
      <trkpt lat="47.20295" lon="-1.34805">
        <ele>52</ele>
        <time>2020-05-24T11:42:48.000Z</time>
      </trkpt>
      <trkpt lat="47.20307" lon="-1.348">
        <ele>52</ele>
        <time>2020-05-24T11:42:50.000Z</time>
      </trkpt>
      <trkpt lat="47.20318" lon="-1.34795">
        <ele>52</ele>
        <time>2020-05-24T11:42:52.000Z</time>
      </trkpt>
      <trkpt lat="47.2033" lon="-1.34791">
        <ele>53</ele>
        <time>2020-05-24T11:42:54.000Z</time>
      </trkpt>
      <trkpt lat="47.20341" lon="-1.34786">
        <ele>53</ele>
        <time>2020-05-24T11:42:56.000Z</time>
      </trkpt>
      <trkpt lat="47.20353" lon="-1.34781">
        <ele>53</ele>
        <time>2020-05-24T11:42:58.000Z</time>
      </trkpt>
      <trkpt lat="47.20366" lon="-1.34778">
        <ele>53</ele>
        <time>2020-05-24T11:43:00.000Z</time>
      </trkpt>
      <trkpt lat="47.20378" lon="-1.34776">
        <ele>54</ele>
        <time>2020-05-24T11:43:02.000Z</time>
      </trkpt>
      <trkpt lat="47.20391" lon="-1.34775">
        <ele>54</ele>
        <time>2020-05-24T11:43:04.000Z</time>
      </trkpt>
      <trkpt lat="47.20403" lon="-1.34775">
        <ele>54</ele>
        <time>2020-05-24T11:43:06.000Z</time>
      </trkpt>
      <trkpt lat="47.20416" lon="-1.34776">
        <ele>54</ele>
        <time>2020-05-24T11:43:08.000Z</time>
      </trkpt>
      <trkpt lat="47.20429" lon="-1.34777">
        <ele>54</ele>
        <time>2020-05-24T11:43:10.000Z</time>
      </trkpt>
      <trkpt lat="47.20441" lon="-1.34778">
        <ele>54</ele>
        <time>2020-05-24T11:43:12.000Z</time>
      </trkpt>
      <trkpt lat="47.20454" lon="-1.34779">
        <ele>55</ele>
        <time>2020-05-24T11:43:14.000Z</time>
      </trkpt>
      <trkpt lat="47.20466" lon="-1.3478">
        <ele>55</ele>
        <time>2020-05-24T11:43:16.000Z</time>
      </trkpt>
      <trkpt lat="47.20478" lon="-1.34781">
        <ele>55</ele>
        <time>2020-05-24T11:43:18.000Z</time>
      </trkpt>
      <trkpt lat="47.2049" lon="-1.34781">
        <ele>55</ele>
        <time>2020-05-24T11:43:20.000Z</time>
      </trkpt>
      <trkpt lat="47.20502" lon="-1.34782">
        <ele>55</ele>
        <time>2020-05-24T11:43:22.000Z</time>
      </trkpt>
      <trkpt lat="47.20515" lon="-1.34782">
        <ele>55</ele>
        <time>2020-05-24T11:43:24.000Z</time>
      </trkpt>
      <trkpt lat="47.20527" lon="-1.34783">
        <ele>55</ele>
        <time>2020-05-24T11:43:26.000Z</time>
      </trkpt>
      <trkpt lat="47.2054" lon="-1.34783">
        <ele>55</ele>
        <time>2020-05-24T11:43:28.000Z</time>
      </trkpt>
      <trkpt lat="47.20552" lon="-1.34784">
        <ele>55</ele>
        <time>2020-05-24T11:43:30.000Z</time>
      </trkpt>
      <trkpt lat="47.20565" lon="-1.34786">
        <ele>55</ele>
        <time>2020-05-24T11:43:32.000Z</time>
      </trkpt>
      <trkpt lat="47.20577" lon="-1.34788">
        <ele>55</ele>
        <time>2020-05-24T11:43:34.000Z</time>
      </trkpt>
      <trkpt lat="47.20589" lon="-1.34792">
        <ele>55</ele>
        <time>2020-05-24T11:43:36.000Z</time>
      </trkpt>
      <trkpt lat="47.20601" lon="-1.34797">
        <ele>55</ele>
        <time>2020-05-24T11:43:38.000Z</time>
      </trkpt>
      <trkpt lat="47.20613" lon="-1.34803">
        <ele>55</ele>
        <time>2020-05-24T11:43:40.000Z</time>
      </trkpt>
      <trkpt lat="47.20626" lon="-1.3481">
        <ele>54</ele>
        <time>2020-05-24T11:43:42.000Z</time>
      </trkpt>
      <trkpt lat="47.20638" lon="-1.34819">
        <ele>55</ele>
        <time>2020-05-24T11:43:44.000Z</time>
      </trkpt>
      <trkpt lat="47.20649" lon="-1.34828">
        <ele>55</ele>
        <time>2020-05-24T11:43:46.000Z</time>
      </trkpt>
      <trkpt lat="47.2066" lon="-1.34838">
        <ele>54</ele>
        <time>2020-05-24T11:43:48.000Z</time>
      </trkpt>
      <trkpt lat="47.20671" lon="-1.34849">
        <ele>54</ele>
        <time>2020-05-24T11:43:50.000Z</time>
      </trkpt>
      <trkpt lat="47.20683" lon="-1.34859">
        <ele>54</ele>
        <time>2020-05-24T11:43:52.000Z</time>
      </trkpt>
      <trkpt lat="47.20694" lon="-1.3487">
        <ele>54</ele>
        <time>2020-05-24T11:43:54.000Z</time>
      </trkpt>
      <trkpt lat="47.20705" lon="-1.3488">
        <ele>54</ele>
        <time>2020-05-24T11:43:56.000Z</time>
      </trkpt>
      <trkpt lat="47.20716" lon="-1.3489">
        <ele>54</ele>
        <time>2020-05-24T11:43:58.000Z</time>
      </trkpt>
      <trkpt lat="47.20726" lon="-1.349">
        <ele>54</ele>
        <time>2020-05-24T11:44:00.000Z</time>
      </trkpt>
      <trkpt lat="47.20737" lon="-1.34911">
        <ele>54</ele>
        <time>2020-05-24T11:44:02.000Z</time>
      </trkpt>
      <trkpt lat="47.20747" lon="-1.34922">
        <ele>54</ele>
        <time>2020-05-24T11:44:04.000Z</time>
      </trkpt>
      <trkpt lat="47.20757" lon="-1.34931">
        <ele>55</ele>
        <time>2020-05-24T11:44:06.000Z</time>
      </trkpt>
      <trkpt lat="47.20767" lon="-1.3494">
        <ele>55</ele>
        <time>2020-05-24T11:44:08.000Z</time>
      </trkpt>
      <trkpt lat="47.20777" lon="-1.34949">
        <ele>55</ele>
        <time>2020-05-24T11:44:10.000Z</time>
      </trkpt>
      <trkpt lat="47.20787" lon="-1.34958">
        <ele>56</ele>
        <time>2020-05-24T11:44:12.000Z</time>
      </trkpt>
      <trkpt lat="47.20797" lon="-1.34966">
        <ele>56</ele>
        <time>2020-05-24T11:44:14.000Z</time>
      </trkpt>
      <trkpt lat="47.20807" lon="-1.34976">
        <ele>56</ele>
        <time>2020-05-24T11:44:16.000Z</time>
      </trkpt>
      <trkpt lat="47.20816" lon="-1.34985">
        <ele>56</ele>
        <time>2020-05-24T11:44:18.000Z</time>
      </trkpt>
      <trkpt lat="47.20825" lon="-1.34994">
        <ele>56</ele>
        <time>2020-05-24T11:44:20.000Z</time>
      </trkpt>
      <trkpt lat="47.20834" lon="-1.35003">
        <ele>57</ele>
        <time>2020-05-24T11:44:22.000Z</time>
      </trkpt>
      <trkpt lat="47.20844" lon="-1.35013">
        <ele>57</ele>
        <time>2020-05-24T11:44:24.000Z</time>
      </trkpt>
      <trkpt lat="47.20853" lon="-1.35024">
        <ele>57</ele>
        <time>2020-05-24T11:44:26.000Z</time>
      </trkpt>
      <trkpt lat="47.20862" lon="-1.35035">
        <ele>57</ele>
        <time>2020-05-24T11:44:28.000Z</time>
      </trkpt>
      <trkpt lat="47.2087" lon="-1.35046">
        <ele>57</ele>
        <time>2020-05-24T11:44:30.000Z</time>
      </trkpt>
      <trkpt lat="47.20878" lon="-1.3506">
        <ele>57</ele>
        <time>2020-05-24T11:44:32.000Z</time>
      </trkpt>
      <trkpt lat="47.20885" lon="-1.35074">
        <ele>57</ele>
        <time>2020-05-24T11:44:34.000Z</time>
      </trkpt>
      <trkpt lat="47.20892" lon="-1.35088">
        <ele>57</ele>
        <time>2020-05-24T11:44:36.000Z</time>
      </trkpt>
      <trkpt lat="47.20899" lon="-1.35103">
        <ele>57</ele>
        <time>2020-05-24T11:44:38.000Z</time>
      </trkpt>
      <trkpt lat="47.20906" lon="-1.35117">
        <ele>57</ele>
        <time>2020-05-24T11:44:40.000Z</time>
      </trkpt>
      <trkpt lat="47.20912" lon="-1.35132">
        <ele>57</ele>
        <time>2020-05-24T11:44:42.000Z</time>
      </trkpt>
      <trkpt lat="47.20918" lon="-1.35146">
        <ele>57</ele>
        <time>2020-05-24T11:44:44.000Z</time>
      </trkpt>
      <trkpt lat="47.20924" lon="-1.3516">
        <ele>57</ele>
        <time>2020-05-24T11:44:46.000Z</time>
      </trkpt>
      <trkpt lat="47.2093" lon="-1.35174">
        <ele>58</ele>
        <time>2020-05-24T11:44:48.000Z</time>
      </trkpt>
      <trkpt lat="47.20937" lon="-1.35188">
        <ele>58</ele>
        <time>2020-05-24T11:44:50.000Z</time>
      </trkpt>
      <trkpt lat="47.20943" lon="-1.35203">
        <ele>58</ele>
        <time>2020-05-24T11:44:52.000Z</time>
      </trkpt>
      <trkpt lat="47.2095" lon="-1.35218">
        <ele>58</ele>
        <time>2020-05-24T11:44:54.000Z</time>
      </trkpt>
      <trkpt lat="47.20956" lon="-1.35233">
        <ele>58</ele>
        <time>2020-05-24T11:44:56.000Z</time>
      </trkpt>
      <trkpt lat="47.20963" lon="-1.35248">
        <ele>57</ele>
        <time>2020-05-24T11:44:58.000Z</time>
      </trkpt>
      <trkpt lat="47.2097" lon="-1.35263">
        <ele>58</ele>
        <time>2020-05-24T11:45:00.000Z</time>
      </trkpt>
      <trkpt lat="47.20978" lon="-1.35278">
        <ele>57</ele>
        <time>2020-05-24T11:45:02.000Z</time>
      </trkpt>
      <trkpt lat="47.20987" lon="-1.35293">
        <ele>57</ele>
        <time>2020-05-24T11:45:04.000Z</time>
      </trkpt>
      <trkpt lat="47.20996" lon="-1.35306">
        <ele>57</ele>
        <time>2020-05-24T11:45:06.000Z</time>
      </trkpt>
      <trkpt lat="47.21007" lon="-1.35318">
        <ele>56</ele>
        <time>2020-05-24T11:45:08.000Z</time>
      </trkpt>
      <trkpt lat="47.21018" lon="-1.35328">
        <ele>56</ele>
        <time>2020-05-24T11:45:10.000Z</time>
      </trkpt>
      <trkpt lat="47.21029" lon="-1.35338">
        <ele>56</ele>
        <time>2020-05-24T11:45:12.000Z</time>
      </trkpt>
      <trkpt lat="47.21042" lon="-1.35345">
        <ele>55</ele>
        <time>2020-05-24T11:45:14.000Z</time>
      </trkpt>
      <trkpt lat="47.21054" lon="-1.3535">
        <ele>56</ele>
        <time>2020-05-24T11:45:16.000Z</time>
      </trkpt>
      <trkpt lat="47.21066" lon="-1.35355">
        <ele>56</ele>
        <time>2020-05-24T11:45:18.000Z</time>
      </trkpt>
      <trkpt lat="47.21079" lon="-1.35358">
        <ele>56</ele>
        <time>2020-05-24T11:45:20.000Z</time>
      </trkpt>
      <trkpt lat="47.21092" lon="-1.35362">
        <ele>56</ele>
        <time>2020-05-24T11:45:22.000Z</time>
      </trkpt>
      <trkpt lat="47.21105" lon="-1.35365">
        <ele>55</ele>
        <time>2020-05-24T11:45:24.000Z</time>
      </trkpt>
      <trkpt lat="47.21118" lon="-1.35368">
        <ele>55</ele>
        <time>2020-05-24T11:45:26.000Z</time>
      </trkpt>
      <trkpt lat="47.21131" lon="-1.35371">
        <ele>55</ele>
        <time>2020-05-24T11:45:28.000Z</time>
      </trkpt>
      <trkpt lat="47.21143" lon="-1.35374">
        <ele>56</ele>
        <time>2020-05-24T11:45:30.000Z</time>
      </trkpt>
      <trkpt lat="47.21156" lon="-1.35377">
        <ele>56</ele>
        <time>2020-05-24T11:45:32.000Z</time>
      </trkpt>
      <trkpt lat="47.21167" lon="-1.35381">
        <ele>57</ele>
        <time>2020-05-24T11:45:34.000Z</time>
      </trkpt>
      <trkpt lat="47.2118" lon="-1.35384">
        <ele>57</ele>
        <time>2020-05-24T11:45:36.000Z</time>
      </trkpt>
      <trkpt lat="47.21192" lon="-1.35387">
        <ele>58</ele>
        <time>2020-05-24T11:45:38.000Z</time>
      </trkpt>
      <trkpt lat="47.21205" lon="-1.3539">
        <ele>58</ele>
        <time>2020-05-24T11:45:40.000Z</time>
      </trkpt>
      <trkpt lat="47.21217" lon="-1.35395">
        <ele>58</ele>
        <time>2020-05-24T11:45:42.000Z</time>
      </trkpt>
      <trkpt lat="47.2123" lon="-1.354">
        <ele>59</ele>
        <time>2020-05-24T11:45:44.000Z</time>
      </trkpt>
      <trkpt lat="47.21241" lon="-1.35407">
        <ele>59</ele>
        <time>2020-05-24T11:45:46.000Z</time>
      </trkpt>
      <trkpt lat="47.21252" lon="-1.35416">
        <ele>59</ele>
        <time>2020-05-24T11:45:48.000Z</time>
      </trkpt>
      <trkpt lat="47.21262" lon="-1.35427">
        <ele>59</ele>
        <time>2020-05-24T11:45:50.000Z</time>
      </trkpt>
      <trkpt lat="47.21271" lon="-1.35436">
        <ele>59</ele>
        <time>2020-05-24T11:45:52.000Z</time>
      </trkpt>
      <trkpt lat="47.21279" lon="-1.35445">
        <ele>59</ele>
        <time>2020-05-24T11:45:54.000Z</time>
      </trkpt>
      <trkpt lat="47.21286" lon="-1.35453">
        <ele>59</ele>
        <time>2020-05-24T11:45:56.000Z</time>
      </trkpt>
      <trkpt lat="47.21293" lon="-1.35461">
        <ele>60</ele>
        <time>2020-05-24T11:45:58.000Z</time>
      </trkpt>
      <trkpt lat="47.21303" lon="-1.35473">
        <ele>61</ele>
        <time>2020-05-24T11:46:01.000Z</time>
      </trkpt>
      <trkpt lat="47.21313" lon="-1.35486">
        <ele>62</ele>
        <time>2020-05-24T11:46:04.000Z</time>
      </trkpt>
      <trkpt lat="47.21323" lon="-1.35498">
        <ele>62</ele>
        <time>2020-05-24T11:46:07.000Z</time>
      </trkpt>
      <trkpt lat="47.21331" lon="-1.35506">
        <ele>62</ele>
        <time>2020-05-24T11:46:09.000Z</time>
      </trkpt>
      <trkpt lat="47.2134" lon="-1.35518">
        <ele>62</ele>
        <time>2020-05-24T11:46:12.000Z</time>
      </trkpt>
      <trkpt lat="47.21349" lon="-1.35528">
        <ele>64</ele>
        <time>2020-05-24T11:46:15.000Z</time>
      </trkpt>
      <trkpt lat="47.21359" lon="-1.35539">
        <ele>65</ele>
        <time>2020-05-24T11:46:18.000Z</time>
      </trkpt>
      <trkpt lat="47.21369" lon="-1.3555">
        <ele>65</ele>
        <time>2020-05-24T11:46:21.000Z</time>
      </trkpt>
      <trkpt lat="47.21379" lon="-1.35562">
        <ele>66</ele>
        <time>2020-05-24T11:46:24.000Z</time>
      </trkpt>
      <trkpt lat="47.21388" lon="-1.35574">
        <ele>67</ele>
        <time>2020-05-24T11:46:27.000Z</time>
      </trkpt>
      <trkpt lat="47.21398" lon="-1.35584">
        <ele>68</ele>
        <time>2020-05-24T11:46:30.000Z</time>
      </trkpt>
      <trkpt lat="47.21407" lon="-1.35595">
        <ele>69</ele>
        <time>2020-05-24T11:46:33.000Z</time>
      </trkpt>
      <trkpt lat="47.21416" lon="-1.35605">
        <ele>70</ele>
        <time>2020-05-24T11:46:36.000Z</time>
      </trkpt>
      <trkpt lat="47.21424" lon="-1.35615">
        <ele>70</ele>
        <time>2020-05-24T11:46:39.000Z</time>
      </trkpt>
      <trkpt lat="47.21432" lon="-1.35625">
        <ele>71</ele>
        <time>2020-05-24T11:46:42.000Z</time>
      </trkpt>
      <trkpt lat="47.2144" lon="-1.35635">
        <ele>72</ele>
        <time>2020-05-24T11:46:45.000Z</time>
      </trkpt>
      <trkpt lat="47.21449" lon="-1.35646">
        <ele>72</ele>
        <time>2020-05-24T11:46:48.000Z</time>
      </trkpt>
      <trkpt lat="47.21457" lon="-1.35655">
        <ele>73</ele>
        <time>2020-05-24T11:46:51.000Z</time>
      </trkpt>
      <trkpt lat="47.21465" lon="-1.35665">
        <ele>74</ele>
        <time>2020-05-24T11:46:54.000Z</time>
      </trkpt>
      <trkpt lat="47.21474" lon="-1.35674">
        <ele>74</ele>
        <time>2020-05-24T11:46:57.000Z</time>
      </trkpt>
      <trkpt lat="47.21481" lon="-1.35683">
        <ele>75</ele>
        <time>2020-05-24T11:47:00.000Z</time>
      </trkpt>
      <trkpt lat="47.2149" lon="-1.35693">
        <ele>76</ele>
        <time>2020-05-24T11:47:03.000Z</time>
      </trkpt>
      <trkpt lat="47.21497" lon="-1.35702">
        <ele>76</ele>
        <time>2020-05-24T11:47:06.000Z</time>
      </trkpt>
      <trkpt lat="47.21505" lon="-1.35711">
        <ele>77</ele>
        <time>2020-05-24T11:47:09.000Z</time>
      </trkpt>
      <trkpt lat="47.21513" lon="-1.3572">
        <ele>78</ele>
        <time>2020-05-24T11:47:12.000Z</time>
      </trkpt>
      <trkpt lat="47.21521" lon="-1.3573">
        <ele>78</ele>
        <time>2020-05-24T11:47:15.000Z</time>
      </trkpt>
      <trkpt lat="47.21529" lon="-1.3574">
        <ele>79</ele>
        <time>2020-05-24T11:47:18.000Z</time>
      </trkpt>
      <trkpt lat="47.21537" lon="-1.35748">
        <ele>80</ele>
        <time>2020-05-24T11:47:21.000Z</time>
      </trkpt>
      <trkpt lat="47.21546" lon="-1.35757">
        <ele>80</ele>
        <time>2020-05-24T11:47:24.000Z</time>
      </trkpt>
      <trkpt lat="47.21555" lon="-1.35764">
        <ele>81</ele>
        <time>2020-05-24T11:47:27.000Z</time>
      </trkpt>
      <trkpt lat="47.21565" lon="-1.3577">
        <ele>82</ele>
        <time>2020-05-24T11:47:30.000Z</time>
      </trkpt>
      <trkpt lat="47.21575" lon="-1.35777">
        <ele>83</ele>
        <time>2020-05-24T11:47:33.000Z</time>
      </trkpt>
      <trkpt lat="47.21587" lon="-1.35782">
        <ele>84</ele>
        <time>2020-05-24T11:47:36.000Z</time>
      </trkpt>
      <trkpt lat="47.21598" lon="-1.35786">
        <ele>84</ele>
        <time>2020-05-24T11:47:39.000Z</time>
      </trkpt>
      <trkpt lat="47.2161" lon="-1.35789">
        <ele>83</ele>
        <time>2020-05-24T11:47:42.000Z</time>
      </trkpt>
      <trkpt lat="47.21623" lon="-1.3579">
        <ele>83</ele>
        <time>2020-05-24T11:47:45.000Z</time>
      </trkpt>
      <trkpt lat="47.21632" lon="-1.35789">
        <ele>83</ele>
        <time>2020-05-24T11:47:47.000Z</time>
      </trkpt>
      <trkpt lat="47.21646" lon="-1.35787">
        <ele>83</ele>
        <time>2020-05-24T11:47:50.000Z</time>
      </trkpt>
      <trkpt lat="47.21655" lon="-1.35784">
        <ele>83</ele>
        <time>2020-05-24T11:47:52.000Z</time>
      </trkpt>
      <trkpt lat="47.21665" lon="-1.35781">
        <ele>83</ele>
        <time>2020-05-24T11:47:54.000Z</time>
      </trkpt>
      <trkpt lat="47.21675" lon="-1.35777">
        <ele>83</ele>
        <time>2020-05-24T11:47:56.000Z</time>
      </trkpt>
      <trkpt lat="47.21684" lon="-1.35772">
        <ele>82</ele>
        <time>2020-05-24T11:47:58.000Z</time>
      </trkpt>
      <trkpt lat="47.21692" lon="-1.35767">
        <ele>82</ele>
        <time>2020-05-24T11:48:00.000Z</time>
      </trkpt>
      <trkpt lat="47.21701" lon="-1.35762">
        <ele>82</ele>
        <time>2020-05-24T11:48:02.000Z</time>
      </trkpt>
      <trkpt lat="47.21709" lon="-1.35754">
        <ele>83</ele>
        <time>2020-05-24T11:48:04.000Z</time>
      </trkpt>
      <trkpt lat="47.21717" lon="-1.35747">
        <ele>83</ele>
        <time>2020-05-24T11:48:06.000Z</time>
      </trkpt>
      <trkpt lat="47.21726" lon="-1.35739">
        <ele>83</ele>
        <time>2020-05-24T11:48:08.000Z</time>
      </trkpt>
      <trkpt lat="47.21735" lon="-1.3573">
        <ele>83</ele>
        <time>2020-05-24T11:48:10.000Z</time>
      </trkpt>
      <trkpt lat="47.21745" lon="-1.35721">
        <ele>83</ele>
        <time>2020-05-24T11:48:12.000Z</time>
      </trkpt>
      <trkpt lat="47.21755" lon="-1.35712">
        <ele>82</ele>
        <time>2020-05-24T11:48:14.000Z</time>
      </trkpt>
      <trkpt lat="47.21767" lon="-1.35703">
        <ele>82</ele>
        <time>2020-05-24T11:48:16.000Z</time>
      </trkpt>
      <trkpt lat="47.21778" lon="-1.35693">
        <ele>81</ele>
        <time>2020-05-24T11:48:18.000Z</time>
      </trkpt>
      <trkpt lat="47.21791" lon="-1.35684">
        <ele>80</ele>
        <time>2020-05-24T11:48:20.000Z</time>
      </trkpt>
      <trkpt lat="47.21804" lon="-1.35676">
        <ele>80</ele>
        <time>2020-05-24T11:48:22.000Z</time>
      </trkpt>
      <trkpt lat="47.21819" lon="-1.35671">
        <ele>78</ele>
        <time>2020-05-24T11:48:24.000Z</time>
      </trkpt>
      <trkpt lat="47.21834" lon="-1.35667">
        <ele>77</ele>
        <time>2020-05-24T11:48:26.000Z</time>
      </trkpt>
      <trkpt lat="47.2185" lon="-1.35667">
        <ele>77</ele>
        <time>2020-05-24T11:48:28.000Z</time>
      </trkpt>
      <trkpt lat="47.21865" lon="-1.35669">
        <ele>76</ele>
        <time>2020-05-24T11:48:30.000Z</time>
      </trkpt>
      <trkpt lat="47.21881" lon="-1.35672">
        <ele>75</ele>
        <time>2020-05-24T11:48:32.000Z</time>
      </trkpt>
      <trkpt lat="47.21896" lon="-1.35674">
        <ele>75</ele>
        <time>2020-05-24T11:48:34.000Z</time>
      </trkpt>
      <trkpt lat="47.21912" lon="-1.35678">
        <ele>75</ele>
        <time>2020-05-24T11:48:36.000Z</time>
      </trkpt>
      <trkpt lat="47.21928" lon="-1.35681">
        <ele>74</ele>
        <time>2020-05-24T11:48:38.000Z</time>
      </trkpt>
      <trkpt lat="47.21943" lon="-1.35685">
        <ele>74</ele>
        <time>2020-05-24T11:48:40.000Z</time>
      </trkpt>
      <trkpt lat="47.21959" lon="-1.35688">
        <ele>73</ele>
        <time>2020-05-24T11:48:42.000Z</time>
      </trkpt>
      <trkpt lat="47.21975" lon="-1.35691">
        <ele>73</ele>
        <time>2020-05-24T11:48:44.000Z</time>
      </trkpt>
      <trkpt lat="47.2199" lon="-1.35695">
        <ele>72</ele>
        <time>2020-05-24T11:48:46.000Z</time>
      </trkpt>
      <trkpt lat="47.22006" lon="-1.35698">
        <ele>71</ele>
        <time>2020-05-24T11:48:48.000Z</time>
      </trkpt>
      <trkpt lat="47.22022" lon="-1.35701">
        <ele>71</ele>
        <time>2020-05-24T11:48:50.000Z</time>
      </trkpt>
      <trkpt lat="47.22039" lon="-1.35705">
        <ele>70</ele>
        <time>2020-05-24T11:48:52.000Z</time>
      </trkpt>
      <trkpt lat="47.22055" lon="-1.35708">
        <ele>69</ele>
        <time>2020-05-24T11:48:54.000Z</time>
      </trkpt>
      <trkpt lat="47.22072" lon="-1.35712">
        <ele>68</ele>
        <time>2020-05-24T11:48:56.000Z</time>
      </trkpt>
      <trkpt lat="47.22088" lon="-1.35716">
        <ele>68</ele>
        <time>2020-05-24T11:48:58.000Z</time>
      </trkpt>
      <trkpt lat="47.22104" lon="-1.35719">
        <ele>67</ele>
        <time>2020-05-24T11:49:00.000Z</time>
      </trkpt>
      <trkpt lat="47.2212" lon="-1.35723">
        <ele>66</ele>
        <time>2020-05-24T11:49:02.000Z</time>
      </trkpt>
      <trkpt lat="47.22136" lon="-1.35726">
        <ele>66</ele>
        <time>2020-05-24T11:49:04.000Z</time>
      </trkpt>
      <trkpt lat="47.22153" lon="-1.3573">
        <ele>65</ele>
        <time>2020-05-24T11:49:06.000Z</time>
      </trkpt>
      <trkpt lat="47.22169" lon="-1.35734">
        <ele>65</ele>
        <time>2020-05-24T11:49:08.000Z</time>
      </trkpt>
      <trkpt lat="47.22185" lon="-1.35738">
        <ele>65</ele>
        <time>2020-05-24T11:49:10.000Z</time>
      </trkpt>
      <trkpt lat="47.22201" lon="-1.35741">
        <ele>65</ele>
        <time>2020-05-24T11:49:12.000Z</time>
      </trkpt>
      <trkpt lat="47.22216" lon="-1.35743">
        <ele>64</ele>
        <time>2020-05-24T11:49:14.000Z</time>
      </trkpt>
      <trkpt lat="47.2223" lon="-1.35743">
        <ele>64</ele>
        <time>2020-05-24T11:49:16.000Z</time>
      </trkpt>
      <trkpt lat="47.22245" lon="-1.35742">
        <ele>64</ele>
        <time>2020-05-24T11:49:18.000Z</time>
      </trkpt>
      <trkpt lat="47.2226" lon="-1.35739">
        <ele>64</ele>
        <time>2020-05-24T11:49:20.000Z</time>
      </trkpt>
      <trkpt lat="47.22274" lon="-1.35734">
        <ele>64</ele>
        <time>2020-05-24T11:49:22.000Z</time>
      </trkpt>
      <trkpt lat="47.22287" lon="-1.35728">
        <ele>63</ele>
        <time>2020-05-24T11:49:24.000Z</time>
      </trkpt>
      <trkpt lat="47.22302" lon="-1.35722">
        <ele>63</ele>
        <time>2020-05-24T11:49:26.000Z</time>
      </trkpt>
      <trkpt lat="47.22316" lon="-1.35717">
        <ele>63</ele>
        <time>2020-05-24T11:49:28.000Z</time>
      </trkpt>
      <trkpt lat="47.2233" lon="-1.3571">
        <ele>63</ele>
        <time>2020-05-24T11:49:30.000Z</time>
      </trkpt>
      <trkpt lat="47.22343" lon="-1.35705">
        <ele>63</ele>
        <time>2020-05-24T11:49:32.000Z</time>
      </trkpt>
      <trkpt lat="47.22356" lon="-1.357">
        <ele>63</ele>
        <time>2020-05-24T11:49:34.000Z</time>
      </trkpt>
      <trkpt lat="47.2237" lon="-1.35694">
        <ele>63</ele>
        <time>2020-05-24T11:49:36.000Z</time>
      </trkpt>
      <trkpt lat="47.22382" lon="-1.35689">
        <ele>63</ele>
        <time>2020-05-24T11:49:38.000Z</time>
      </trkpt>
      <trkpt lat="47.22395" lon="-1.35684">
        <ele>63</ele>
        <time>2020-05-24T11:49:40.000Z</time>
      </trkpt>
      <trkpt lat="47.22407" lon="-1.3568">
        <ele>63</ele>
        <time>2020-05-24T11:49:42.000Z</time>
      </trkpt>
      <trkpt lat="47.22419" lon="-1.35675">
        <ele>63</ele>
        <time>2020-05-24T11:49:44.000Z</time>
      </trkpt>
      <trkpt lat="47.22431" lon="-1.35669">
        <ele>63</ele>
        <time>2020-05-24T11:49:46.000Z</time>
      </trkpt>
      <trkpt lat="47.22444" lon="-1.35664">
        <ele>63</ele>
        <time>2020-05-24T11:49:48.000Z</time>
      </trkpt>
      <trkpt lat="47.22457" lon="-1.35661">
        <ele>63</ele>
        <time>2020-05-24T11:49:50.000Z</time>
      </trkpt>
      <trkpt lat="47.22469" lon="-1.35659">
        <ele>63</ele>
        <time>2020-05-24T11:49:52.000Z</time>
      </trkpt>
      <trkpt lat="47.22481" lon="-1.35657">
        <ele>63</ele>
        <time>2020-05-24T11:49:54.000Z</time>
      </trkpt>
      <trkpt lat="47.22494" lon="-1.35655">
        <ele>64</ele>
        <time>2020-05-24T11:49:56.000Z</time>
      </trkpt>
      <trkpt lat="47.22507" lon="-1.35654">
        <ele>64</ele>
        <time>2020-05-24T11:49:58.000Z</time>
      </trkpt>
      <trkpt lat="47.2252" lon="-1.35652">
        <ele>64</ele>
        <time>2020-05-24T11:50:00.000Z</time>
      </trkpt>
      <trkpt lat="47.22533" lon="-1.3565">
        <ele>63</ele>
        <time>2020-05-24T11:50:02.000Z</time>
      </trkpt>
      <trkpt lat="47.22546" lon="-1.35649">
        <ele>63</ele>
        <time>2020-05-24T11:50:04.000Z</time>
      </trkpt>
      <trkpt lat="47.2256" lon="-1.35645">
        <ele>63</ele>
        <time>2020-05-24T11:50:06.000Z</time>
      </trkpt>
      <trkpt lat="47.22572" lon="-1.35641">
        <ele>62</ele>
        <time>2020-05-24T11:50:08.000Z</time>
      </trkpt>
      <trkpt lat="47.22585" lon="-1.35636">
        <ele>62</ele>
        <time>2020-05-24T11:50:10.000Z</time>
      </trkpt>
      <trkpt lat="47.22598" lon="-1.35629">
        <ele>62</ele>
        <time>2020-05-24T11:50:12.000Z</time>
      </trkpt>
      <trkpt lat="47.2261" lon="-1.35623">
        <ele>62</ele>
        <time>2020-05-24T11:50:14.000Z</time>
      </trkpt>
      <trkpt lat="47.22621" lon="-1.35615">
        <ele>62</ele>
        <time>2020-05-24T11:50:16.000Z</time>
      </trkpt>
      <trkpt lat="47.22633" lon="-1.35607">
        <ele>62</ele>
        <time>2020-05-24T11:50:18.000Z</time>
      </trkpt>
      <trkpt lat="47.22644" lon="-1.35598">
        <ele>63</ele>
        <time>2020-05-24T11:50:20.000Z</time>
      </trkpt>
      <trkpt lat="47.22655" lon="-1.35591">
        <ele>63</ele>
        <time>2020-05-24T11:50:22.000Z</time>
      </trkpt>
      <trkpt lat="47.22666" lon="-1.35584">
        <ele>63</ele>
        <time>2020-05-24T11:50:24.000Z</time>
      </trkpt>
      <trkpt lat="47.22677" lon="-1.35576">
        <ele>63</ele>
        <time>2020-05-24T11:50:26.000Z</time>
      </trkpt>
      <trkpt lat="47.22688" lon="-1.35568">
        <ele>62</ele>
        <time>2020-05-24T11:50:28.000Z</time>
      </trkpt>
      <trkpt lat="47.22699" lon="-1.35561">
        <ele>62</ele>
        <time>2020-05-24T11:50:30.000Z</time>
      </trkpt>
      <trkpt lat="47.2271" lon="-1.35553">
        <ele>63</ele>
        <time>2020-05-24T11:50:32.000Z</time>
      </trkpt>
      <trkpt lat="47.22721" lon="-1.35546">
        <ele>63</ele>
        <time>2020-05-24T11:50:34.000Z</time>
      </trkpt>
      <trkpt lat="47.22731" lon="-1.35539">
        <ele>63</ele>
        <time>2020-05-24T11:50:36.000Z</time>
      </trkpt>
      <trkpt lat="47.22741" lon="-1.35532">
        <ele>63</ele>
        <time>2020-05-24T11:50:38.000Z</time>
      </trkpt>
      <trkpt lat="47.2275" lon="-1.35526">
        <ele>63</ele>
        <time>2020-05-24T11:50:40.000Z</time>
      </trkpt>
      <trkpt lat="47.2276" lon="-1.35519">
        <ele>63</ele>
        <time>2020-05-24T11:50:42.000Z</time>
      </trkpt>
      <trkpt lat="47.22769" lon="-1.35512">
        <ele>63</ele>
        <time>2020-05-24T11:50:44.000Z</time>
      </trkpt>
      <trkpt lat="47.22778" lon="-1.35506">
        <ele>64</ele>
        <time>2020-05-24T11:50:46.000Z</time>
      </trkpt>
      <trkpt lat="47.22787" lon="-1.355">
        <ele>64</ele>
        <time>2020-05-24T11:50:48.000Z</time>
      </trkpt>
      <trkpt lat="47.22795" lon="-1.35494">
        <ele>64</ele>
        <time>2020-05-24T11:50:50.000Z</time>
      </trkpt>
      <trkpt lat="47.22804" lon="-1.35487">
        <ele>64</ele>
        <time>2020-05-24T11:50:52.000Z</time>
      </trkpt>
      <trkpt lat="47.22813" lon="-1.35482">
        <ele>64</ele>
        <time>2020-05-24T11:50:54.000Z</time>
      </trkpt>
      <trkpt lat="47.22822" lon="-1.35476">
        <ele>64</ele>
        <time>2020-05-24T11:50:56.000Z</time>
      </trkpt>
      <trkpt lat="47.22831" lon="-1.3547">
        <ele>65</ele>
        <time>2020-05-24T11:50:58.000Z</time>
      </trkpt>
      <trkpt lat="47.2284" lon="-1.35464">
        <ele>65</ele>
        <time>2020-05-24T11:51:00.000Z</time>
      </trkpt>
      <trkpt lat="47.22849" lon="-1.35457">
        <ele>65</ele>
        <time>2020-05-24T11:51:02.000Z</time>
      </trkpt>
      <trkpt lat="47.22858" lon="-1.35452">
        <ele>66</ele>
        <time>2020-05-24T11:51:04.000Z</time>
      </trkpt>
      <trkpt lat="47.22867" lon="-1.35446">
        <ele>66</ele>
        <time>2020-05-24T11:51:06.000Z</time>
      </trkpt>
      <trkpt lat="47.22876" lon="-1.35441">
        <ele>67</ele>
        <time>2020-05-24T11:51:08.000Z</time>
      </trkpt>
      <trkpt lat="47.22886" lon="-1.35437">
        <ele>68</ele>
        <time>2020-05-24T11:51:10.000Z</time>
      </trkpt>
      <trkpt lat="47.22896" lon="-1.35433">
        <ele>68</ele>
        <time>2020-05-24T11:51:12.000Z</time>
      </trkpt>
      <trkpt lat="47.22905" lon="-1.35431">
        <ele>69</ele>
        <time>2020-05-24T11:51:14.000Z</time>
      </trkpt>
      <trkpt lat="47.22915" lon="-1.35429">
        <ele>70</ele>
        <time>2020-05-24T11:51:16.000Z</time>
      </trkpt>
      <trkpt lat="47.22925" lon="-1.35428">
        <ele>70</ele>
        <time>2020-05-24T11:51:18.000Z</time>
      </trkpt>
      <trkpt lat="47.22935" lon="-1.35429">
        <ele>70</ele>
        <time>2020-05-24T11:51:20.000Z</time>
      </trkpt>
      <trkpt lat="47.22945" lon="-1.3543">
        <ele>71</ele>
        <time>2020-05-24T11:51:22.000Z</time>
      </trkpt>
      <trkpt lat="47.22956" lon="-1.35431">
        <ele>71</ele>
        <time>2020-05-24T11:51:24.000Z</time>
      </trkpt>
      <trkpt lat="47.22966" lon="-1.35433">
        <ele>71</ele>
        <time>2020-05-24T11:51:26.000Z</time>
      </trkpt>
      <trkpt lat="47.22977" lon="-1.35435">
        <ele>71</ele>
        <time>2020-05-24T11:51:28.000Z</time>
      </trkpt>
      <trkpt lat="47.22987" lon="-1.35437">
        <ele>71</ele>
        <time>2020-05-24T11:51:30.000Z</time>
      </trkpt>
      <trkpt lat="47.22997" lon="-1.3544">
        <ele>71</ele>
        <time>2020-05-24T11:51:32.000Z</time>
      </trkpt>
      <trkpt lat="47.23007" lon="-1.35443">
        <ele>71</ele>
        <time>2020-05-24T11:51:34.000Z</time>
      </trkpt>
      <trkpt lat="47.23017" lon="-1.35445">
        <ele>71</ele>
        <time>2020-05-24T11:51:36.000Z</time>
      </trkpt>
      <trkpt lat="47.23027" lon="-1.35448">
        <ele>71</ele>
        <time>2020-05-24T11:51:38.000Z</time>
      </trkpt>
      <trkpt lat="47.23036" lon="-1.3545">
        <ele>71</ele>
        <time>2020-05-24T11:51:40.000Z</time>
      </trkpt>
      <trkpt lat="47.23046" lon="-1.35453">
        <ele>71</ele>
        <time>2020-05-24T11:51:42.000Z</time>
      </trkpt>
      <trkpt lat="47.23056" lon="-1.35455">
        <ele>72</ele>
        <time>2020-05-24T11:51:44.000Z</time>
      </trkpt>
      <trkpt lat="47.23067" lon="-1.35458">
        <ele>72</ele>
        <time>2020-05-24T11:51:46.000Z</time>
      </trkpt>
      <trkpt lat="47.23078" lon="-1.35459">
        <ele>71</ele>
        <time>2020-05-24T11:51:48.000Z</time>
      </trkpt>
      <trkpt lat="47.2309" lon="-1.3546">
        <ele>71</ele>
        <time>2020-05-24T11:51:50.000Z</time>
      </trkpt>
      <trkpt lat="47.23102" lon="-1.35459">
        <ele>71</ele>
        <time>2020-05-24T11:51:52.000Z</time>
      </trkpt>
      <trkpt lat="47.23115" lon="-1.35458">
        <ele>70</ele>
        <time>2020-05-24T11:51:54.000Z</time>
      </trkpt>
      <trkpt lat="47.23128" lon="-1.35455">
        <ele>70</ele>
        <time>2020-05-24T11:51:56.000Z</time>
      </trkpt>
      <trkpt lat="47.23142" lon="-1.3545">
        <ele>69</ele>
        <time>2020-05-24T11:51:58.000Z</time>
      </trkpt>
      <trkpt lat="47.23156" lon="-1.35443">
        <ele>68</ele>
        <time>2020-05-24T11:52:00.000Z</time>
      </trkpt>
      <trkpt lat="47.23169" lon="-1.35434">
        <ele>68</ele>
        <time>2020-05-24T11:52:02.000Z</time>
      </trkpt>
      <trkpt lat="47.23183" lon="-1.35424">
        <ele>67</ele>
        <time>2020-05-24T11:52:04.000Z</time>
      </trkpt>
      <trkpt lat="47.23196" lon="-1.35413">
        <ele>67</ele>
        <time>2020-05-24T11:52:06.000Z</time>
      </trkpt>
      <trkpt lat="47.23209" lon="-1.35401">
        <ele>67</ele>
        <time>2020-05-24T11:52:08.000Z</time>
      </trkpt>
      <trkpt lat="47.23221" lon="-1.3539">
        <ele>67</ele>
        <time>2020-05-24T11:52:10.000Z</time>
      </trkpt>
      <trkpt lat="47.23233" lon="-1.35379">
        <ele>68</ele>
        <time>2020-05-24T11:52:12.000Z</time>
      </trkpt>
      <trkpt lat="47.23245" lon="-1.35369">
        <ele>68</ele>
        <time>2020-05-24T11:52:14.000Z</time>
      </trkpt>
      <trkpt lat="47.23256" lon="-1.3536">
        <ele>68</ele>
        <time>2020-05-24T11:52:16.000Z</time>
      </trkpt>
      <trkpt lat="47.23265" lon="-1.35351">
        <ele>69</ele>
        <time>2020-05-24T11:52:18.000Z</time>
      </trkpt>
      <trkpt lat="47.23274" lon="-1.35341">
        <ele>70</ele>
        <time>2020-05-24T11:52:20.000Z</time>
      </trkpt>
      <trkpt lat="47.23281" lon="-1.35332">
        <ele>70</ele>
        <time>2020-05-24T11:52:22.000Z</time>
      </trkpt>
      <trkpt lat="47.23288" lon="-1.35322">
        <ele>72</ele>
        <time>2020-05-24T11:52:24.000Z</time>
      </trkpt>
      <trkpt lat="47.23294" lon="-1.35312">
        <ele>73</ele>
        <time>2020-05-24T11:52:26.000Z</time>
      </trkpt>
      <trkpt lat="47.233" lon="-1.35302">
        <ele>73</ele>
        <time>2020-05-24T11:52:28.000Z</time>
      </trkpt>
      <trkpt lat="47.23307" lon="-1.35286">
        <ele>74</ele>
        <time>2020-05-24T11:52:31.000Z</time>
      </trkpt>
      <trkpt lat="47.23314" lon="-1.35271">
        <ele>74</ele>
        <time>2020-05-24T11:52:34.000Z</time>
      </trkpt>
      <trkpt lat="47.23322" lon="-1.35255">
        <ele>75</ele>
        <time>2020-05-24T11:52:37.000Z</time>
      </trkpt>
      <trkpt lat="47.23327" lon="-1.35244">
        <ele>75</ele>
        <time>2020-05-24T11:52:39.000Z</time>
      </trkpt>
      <trkpt lat="47.23334" lon="-1.35229">
        <ele>75</ele>
        <time>2020-05-24T11:52:42.000Z</time>
      </trkpt>
      <trkpt lat="47.2334" lon="-1.35214">
        <ele>75</ele>
        <time>2020-05-24T11:52:45.000Z</time>
      </trkpt>
      <trkpt lat="47.23347" lon="-1.35199">
        <ele>76</ele>
        <time>2020-05-24T11:52:48.000Z</time>
      </trkpt>
      <trkpt lat="47.23353" lon="-1.35184">
        <ele>77</ele>
        <time>2020-05-24T11:52:51.000Z</time>
      </trkpt>
      <trkpt lat="47.23359" lon="-1.3517">
        <ele>77</ele>
        <time>2020-05-24T11:52:54.000Z</time>
      </trkpt>
      <trkpt lat="47.23366" lon="-1.35155">
        <ele>78</ele>
        <time>2020-05-24T11:52:57.000Z</time>
      </trkpt>
      <trkpt lat="47.23372" lon="-1.35142">
        <ele>78</ele>
        <time>2020-05-24T11:53:00.000Z</time>
      </trkpt>
      <trkpt lat="47.2338" lon="-1.35128">
        <ele>79</ele>
        <time>2020-05-24T11:53:03.000Z</time>
      </trkpt>
      <trkpt lat="47.23388" lon="-1.35115">
        <ele>80</ele>
        <time>2020-05-24T11:53:06.000Z</time>
      </trkpt>
      <trkpt lat="47.23396" lon="-1.35103">
        <ele>80</ele>
        <time>2020-05-24T11:53:09.000Z</time>
      </trkpt>
      <trkpt lat="47.23405" lon="-1.35093">
        <ele>81</ele>
        <time>2020-05-24T11:53:12.000Z</time>
      </trkpt>
      <trkpt lat="47.23414" lon="-1.35083">
        <ele>81</ele>
        <time>2020-05-24T11:53:15.000Z</time>
      </trkpt>
      <trkpt lat="47.23423" lon="-1.35074">
        <ele>82</ele>
        <time>2020-05-24T11:53:18.000Z</time>
      </trkpt>
      <trkpt lat="47.23432" lon="-1.35065">
        <ele>83</ele>
        <time>2020-05-24T11:53:21.000Z</time>
      </trkpt>
      <trkpt lat="47.23441" lon="-1.35056">
        <ele>84</ele>
        <time>2020-05-24T11:53:24.000Z</time>
      </trkpt>
      <trkpt lat="47.2345" lon="-1.35047">
        <ele>85</ele>
        <time>2020-05-24T11:53:27.000Z</time>
      </trkpt>
      <trkpt lat="47.23459" lon="-1.35037">
        <ele>86</ele>
        <time>2020-05-24T11:53:30.000Z</time>
      </trkpt>
      <trkpt lat="47.23468" lon="-1.35029">
        <ele>87</ele>
        <time>2020-05-24T11:53:33.000Z</time>
      </trkpt>
      <trkpt lat="47.23477" lon="-1.3502">
        <ele>87</ele>
        <time>2020-05-24T11:53:36.000Z</time>
      </trkpt>
      <trkpt lat="47.23486" lon="-1.35012">
        <ele>88</ele>
        <time>2020-05-24T11:53:39.000Z</time>
      </trkpt>
      <trkpt lat="47.23495" lon="-1.35002">
        <ele>89</ele>
        <time>2020-05-24T11:53:42.000Z</time>
      </trkpt>
      <trkpt lat="47.23503" lon="-1.34993">
        <ele>90</ele>
        <time>2020-05-24T11:53:45.000Z</time>
      </trkpt>
      <trkpt lat="47.23513" lon="-1.34987">
        <ele>90</ele>
        <time>2020-05-24T11:53:48.000Z</time>
      </trkpt>
      <trkpt lat="47.23522" lon="-1.34979">
        <ele>90</ele>
        <time>2020-05-24T11:53:51.000Z</time>
      </trkpt>
      <trkpt lat="47.23532" lon="-1.3497">
        <ele>91</ele>
        <time>2020-05-24T11:53:54.000Z</time>
      </trkpt>
      <trkpt lat="47.23542" lon="-1.3496">
        <ele>91</ele>
        <time>2020-05-24T11:53:57.000Z</time>
      </trkpt>
      <trkpt lat="47.23553" lon="-1.3495">
        <ele>91</ele>
        <time>2020-05-24T11:54:00.000Z</time>
      </trkpt>
      <trkpt lat="47.23564" lon="-1.34939">
        <ele>91</ele>
        <time>2020-05-24T11:54:03.000Z</time>
      </trkpt>
      <trkpt lat="47.23572" lon="-1.34931">
        <ele>91</ele>
        <time>2020-05-24T11:54:05.000Z</time>
      </trkpt>
      <trkpt lat="47.2358" lon="-1.34923">
        <ele>91</ele>
        <time>2020-05-24T11:54:07.000Z</time>
      </trkpt>
      <trkpt lat="47.23589" lon="-1.34914">
        <ele>92</ele>
        <time>2020-05-24T11:54:09.000Z</time>
      </trkpt>
      <trkpt lat="47.23597" lon="-1.34906">
        <ele>92</ele>
        <time>2020-05-24T11:54:11.000Z</time>
      </trkpt>
      <trkpt lat="47.23606" lon="-1.34898">
        <ele>92</ele>
        <time>2020-05-24T11:54:13.000Z</time>
      </trkpt>
      <trkpt lat="47.23615" lon="-1.3489">
        <ele>92</ele>
        <time>2020-05-24T11:54:15.000Z</time>
      </trkpt>
      <trkpt lat="47.23624" lon="-1.34881">
        <ele>92</ele>
        <time>2020-05-24T11:54:17.000Z</time>
      </trkpt>
      <trkpt lat="47.23632" lon="-1.34872">
        <ele>92</ele>
        <time>2020-05-24T11:54:19.000Z</time>
      </trkpt>
      <trkpt lat="47.2364" lon="-1.34862">
        <ele>92</ele>
        <time>2020-05-24T11:54:21.000Z</time>
      </trkpt>
      <trkpt lat="47.23648" lon="-1.34853">
        <ele>92</ele>
        <time>2020-05-24T11:54:23.000Z</time>
      </trkpt>
      <trkpt lat="47.23658" lon="-1.34846">
        <ele>92</ele>
        <time>2020-05-24T11:54:25.000Z</time>
      </trkpt>
      <trkpt lat="47.23667" lon="-1.34842">
        <ele>92</ele>
        <time>2020-05-24T11:54:27.000Z</time>
      </trkpt>
      <trkpt lat="47.23677" lon="-1.34837">
        <ele>92</ele>
        <time>2020-05-24T11:54:29.000Z</time>
      </trkpt>
      <trkpt lat="47.23686" lon="-1.34832">
        <ele>92</ele>
        <time>2020-05-24T11:54:31.000Z</time>
      </trkpt>
      <trkpt lat="47.23695" lon="-1.34825">
        <ele>93</ele>
        <time>2020-05-24T11:54:33.000Z</time>
      </trkpt>
      <trkpt lat="47.23703" lon="-1.34819">
        <ele>93</ele>
        <time>2020-05-24T11:54:35.000Z</time>
      </trkpt>
      <trkpt lat="47.23713" lon="-1.34814">
        <ele>93</ele>
        <time>2020-05-24T11:54:37.000Z</time>
      </trkpt>
      <trkpt lat="47.23722" lon="-1.34809">
        <ele>94</ele>
        <time>2020-05-24T11:54:39.000Z</time>
      </trkpt>
      <trkpt lat="47.23731" lon="-1.34804">
        <ele>94</ele>
        <time>2020-05-24T11:54:41.000Z</time>
      </trkpt>
      <trkpt lat="47.23742" lon="-1.34798">
        <ele>93</ele>
        <time>2020-05-24T11:54:44.000Z</time>
      </trkpt>
      <trkpt lat="47.23751" lon="-1.34804">
        <ele>93</ele>
        <time>2020-05-24T11:54:51.000Z</time>
      </trkpt>
      <trkpt lat="47.23757" lon="-1.34817">
        <ele>93</ele>
        <time>2020-05-24T11:54:54.000Z</time>
      </trkpt>
      <trkpt lat="47.23764" lon="-1.34831">
        <ele>94</ele>
        <time>2020-05-24T11:54:57.000Z</time>
      </trkpt>
      <trkpt lat="47.23773" lon="-1.34844">
        <ele>95</ele>
        <time>2020-05-24T11:55:00.000Z</time>
      </trkpt>
      <trkpt lat="47.23782" lon="-1.34848">
        <ele>96</ele>
        <time>2020-05-24T11:55:02.000Z</time>
      </trkpt>
      <trkpt lat="47.23791" lon="-1.34846">
        <ele>97</ele>
        <time>2020-05-24T11:55:04.000Z</time>
      </trkpt>
      <trkpt lat="47.238" lon="-1.34838">
        <ele>97</ele>
        <time>2020-05-24T11:55:06.000Z</time>
      </trkpt>
      <trkpt lat="47.23809" lon="-1.34834">
        <ele>98</ele>
        <time>2020-05-24T11:55:08.000Z</time>
      </trkpt>
      <trkpt lat="47.23818" lon="-1.34833">
        <ele>98</ele>
        <time>2020-05-24T11:55:10.000Z</time>
      </trkpt>
      <trkpt lat="47.23828" lon="-1.34832">
        <ele>99</ele>
        <time>2020-05-24T11:55:12.000Z</time>
      </trkpt>
      <trkpt lat="47.23839" lon="-1.34831">
        <ele>100</ele>
        <time>2020-05-24T11:55:14.000Z</time>
      </trkpt>
      <trkpt lat="47.23849" lon="-1.34831">
        <ele>99</ele>
        <time>2020-05-24T11:55:16.000Z</time>
      </trkpt>
      <trkpt lat="47.23859" lon="-1.34831">
        <ele>99</ele>
        <time>2020-05-24T11:55:18.000Z</time>
      </trkpt>
      <trkpt lat="47.23869" lon="-1.34833">
        <ele>99</ele>
        <time>2020-05-24T11:55:20.000Z</time>
      </trkpt>
      <trkpt lat="47.23879" lon="-1.34838">
        <ele>99</ele>
        <time>2020-05-24T11:55:22.000Z</time>
      </trkpt>
      <trkpt lat="47.23889" lon="-1.34848">
        <ele>99</ele>
        <time>2020-05-24T11:55:24.000Z</time>
      </trkpt>
      <trkpt lat="47.23899" lon="-1.34859">
        <ele>99</ele>
        <time>2020-05-24T11:55:26.000Z</time>
      </trkpt>
      <trkpt lat="47.23914" lon="-1.34871">
        <ele>99</ele>
        <time>2020-05-24T11:55:29.000Z</time>
      </trkpt>
      <trkpt lat="47.23924" lon="-1.34878">
        <ele>99</ele>
        <time>2020-05-24T11:55:31.000Z</time>
      </trkpt>
      <trkpt lat="47.23934" lon="-1.34885">
        <ele>99</ele>
        <time>2020-05-24T11:55:33.000Z</time>
      </trkpt>
      <trkpt lat="47.23944" lon="-1.34892">
        <ele>99</ele>
        <time>2020-05-24T11:55:35.000Z</time>
      </trkpt>
      <trkpt lat="47.23954" lon="-1.34898">
        <ele>99</ele>
        <time>2020-05-24T11:55:37.000Z</time>
      </trkpt>
      <trkpt lat="47.23965" lon="-1.34904">
        <ele>99</ele>
        <time>2020-05-24T11:55:39.000Z</time>
      </trkpt>
      <trkpt lat="47.23976" lon="-1.3491">
        <ele>99</ele>
        <time>2020-05-24T11:55:41.000Z</time>
      </trkpt>
      <trkpt lat="47.23985" lon="-1.34915">
        <ele>99</ele>
        <time>2020-05-24T11:55:43.000Z</time>
      </trkpt>
      <trkpt lat="47.23997" lon="-1.34918">
        <ele>99</ele>
        <time>2020-05-24T11:55:45.000Z</time>
      </trkpt>
      <trkpt lat="47.24007" lon="-1.34922">
        <ele>99</ele>
        <time>2020-05-24T11:55:47.000Z</time>
      </trkpt>
      <trkpt lat="47.24019" lon="-1.34927">
        <ele>99</ele>
        <time>2020-05-24T11:55:49.000Z</time>
      </trkpt>
      <trkpt lat="47.24029" lon="-1.34929">
        <ele>98</ele>
        <time>2020-05-24T11:55:51.000Z</time>
      </trkpt>
      <trkpt lat="47.24041" lon="-1.34932">
        <ele>98</ele>
        <time>2020-05-24T11:55:53.000Z</time>
      </trkpt>
      <trkpt lat="47.24052" lon="-1.34935">
        <ele>98</ele>
        <time>2020-05-24T11:55:55.000Z</time>
      </trkpt>
      <trkpt lat="47.24063" lon="-1.34938">
        <ele>99</ele>
        <time>2020-05-24T11:55:57.000Z</time>
      </trkpt>
      <trkpt lat="47.24074" lon="-1.34942">
        <ele>99</ele>
        <time>2020-05-24T11:55:59.000Z</time>
      </trkpt>
      <trkpt lat="47.24086" lon="-1.34945">
        <ele>99</ele>
        <time>2020-05-24T11:56:01.000Z</time>
      </trkpt>
      <trkpt lat="47.24097" lon="-1.34949">
        <ele>99</ele>
        <time>2020-05-24T11:56:03.000Z</time>
      </trkpt>
      <trkpt lat="47.24107" lon="-1.34952">
        <ele>99</ele>
        <time>2020-05-24T11:56:05.000Z</time>
      </trkpt>
      <trkpt lat="47.24118" lon="-1.34955">
        <ele>99</ele>
        <time>2020-05-24T11:56:07.000Z</time>
      </trkpt>
      <trkpt lat="47.24128" lon="-1.34959">
        <ele>99</ele>
        <time>2020-05-24T11:56:09.000Z</time>
      </trkpt>
      <trkpt lat="47.24138" lon="-1.34964">
        <ele>100</ele>
        <time>2020-05-24T11:56:11.000Z</time>
      </trkpt>
      <trkpt lat="47.24148" lon="-1.34968">
        <ele>100</ele>
        <time>2020-05-24T11:56:13.000Z</time>
      </trkpt>
      <trkpt lat="47.24158" lon="-1.34972">
        <ele>101</ele>
        <time>2020-05-24T11:56:15.000Z</time>
      </trkpt>
      <trkpt lat="47.24169" lon="-1.34975">
        <ele>101</ele>
        <time>2020-05-24T11:56:17.000Z</time>
      </trkpt>
      <trkpt lat="47.24179" lon="-1.34978">
        <ele>101</ele>
        <time>2020-05-24T11:56:19.000Z</time>
      </trkpt>
      <trkpt lat="47.2419" lon="-1.34981">
        <ele>101</ele>
        <time>2020-05-24T11:56:21.000Z</time>
      </trkpt>
      <trkpt lat="47.242" lon="-1.34982">
        <ele>101</ele>
        <time>2020-05-24T11:56:23.000Z</time>
      </trkpt>
      <trkpt lat="47.2421" lon="-1.34985">
        <ele>101</ele>
        <time>2020-05-24T11:56:25.000Z</time>
      </trkpt>
      <trkpt lat="47.24224" lon="-1.34988">
        <ele>101</ele>
        <time>2020-05-24T11:56:28.000Z</time>
      </trkpt>
      <trkpt lat="47.24239" lon="-1.34992">
        <ele>101</ele>
        <time>2020-05-24T11:56:31.000Z</time>
      </trkpt>
      <trkpt lat="47.24248" lon="-1.34996">
        <ele>102</ele>
        <time>2020-05-24T11:56:33.000Z</time>
      </trkpt>
      <trkpt lat="47.24257" lon="-1.34999">
        <ele>102</ele>
        <time>2020-05-24T11:56:35.000Z</time>
      </trkpt>
      <trkpt lat="47.24267" lon="-1.35002">
        <ele>103</ele>
        <time>2020-05-24T11:56:37.000Z</time>
      </trkpt>
      <trkpt lat="47.24276" lon="-1.35005">
        <ele>103</ele>
        <time>2020-05-24T11:56:39.000Z</time>
      </trkpt>
      <trkpt lat="47.24285" lon="-1.35009">
        <ele>103</ele>
        <time>2020-05-24T11:56:41.000Z</time>
      </trkpt>
      <trkpt lat="47.24295" lon="-1.35011">
        <ele>103</ele>
        <time>2020-05-24T11:56:43.000Z</time>
      </trkpt>
      <trkpt lat="47.24305" lon="-1.35014">
        <ele>103</ele>
        <time>2020-05-24T11:56:45.000Z</time>
      </trkpt>
      <trkpt lat="47.24315" lon="-1.35017">
        <ele>103</ele>
        <time>2020-05-24T11:56:47.000Z</time>
      </trkpt>
      <trkpt lat="47.2433" lon="-1.35022">
        <ele>103</ele>
        <time>2020-05-24T11:56:50.000Z</time>
      </trkpt>
      <trkpt lat="47.2434" lon="-1.35026">
        <ele>103</ele>
        <time>2020-05-24T11:56:52.000Z</time>
      </trkpt>
      <trkpt lat="47.2435" lon="-1.3503">
        <ele>103</ele>
        <time>2020-05-24T11:56:54.000Z</time>
      </trkpt>
      <trkpt lat="47.24359" lon="-1.35033">
        <ele>103</ele>
        <time>2020-05-24T11:56:56.000Z</time>
      </trkpt>
      <trkpt lat="47.2437" lon="-1.35036">
        <ele>104</ele>
        <time>2020-05-24T11:56:58.000Z</time>
      </trkpt>
      <trkpt lat="47.2438" lon="-1.3504">
        <ele>104</ele>
        <time>2020-05-24T11:57:00.000Z</time>
      </trkpt>
      <trkpt lat="47.2439" lon="-1.35044">
        <ele>104</ele>
        <time>2020-05-24T11:57:02.000Z</time>
      </trkpt>
      <trkpt lat="47.244" lon="-1.35046">
        <ele>104</ele>
        <time>2020-05-24T11:57:04.000Z</time>
      </trkpt>
      <trkpt lat="47.2441" lon="-1.3505">
        <ele>104</ele>
        <time>2020-05-24T11:57:06.000Z</time>
      </trkpt>
      <trkpt lat="47.2442" lon="-1.35052">
        <ele>105</ele>
        <time>2020-05-24T11:57:08.000Z</time>
      </trkpt>
      <trkpt lat="47.24431" lon="-1.35053">
        <ele>104</ele>
        <time>2020-05-24T11:57:10.000Z</time>
      </trkpt>
      <trkpt lat="47.24442" lon="-1.35055">
        <ele>105</ele>
        <time>2020-05-24T11:57:12.000Z</time>
      </trkpt>
      <trkpt lat="47.24453" lon="-1.35058">
        <ele>104</ele>
        <time>2020-05-24T11:57:14.000Z</time>
      </trkpt>
      <trkpt lat="47.24462" lon="-1.3506">
        <ele>105</ele>
        <time>2020-05-24T11:57:16.000Z</time>
      </trkpt>
      <trkpt lat="47.24473" lon="-1.35061">
        <ele>105</ele>
        <time>2020-05-24T11:57:18.000Z</time>
      </trkpt>
      <trkpt lat="47.24483" lon="-1.35063">
        <ele>105</ele>
        <time>2020-05-24T11:57:20.000Z</time>
      </trkpt>
      <trkpt lat="47.24495" lon="-1.35065">
        <ele>104</ele>
        <time>2020-05-24T11:57:22.000Z</time>
      </trkpt>
      <trkpt lat="47.24507" lon="-1.35067">
        <ele>104</ele>
        <time>2020-05-24T11:57:24.000Z</time>
      </trkpt>
      <trkpt lat="47.2452" lon="-1.35069">
        <ele>103</ele>
        <time>2020-05-24T11:57:26.000Z</time>
      </trkpt>
      <trkpt lat="47.24534" lon="-1.35071">
        <ele>102</ele>
        <time>2020-05-24T11:57:28.000Z</time>
      </trkpt>
      <trkpt lat="47.24549" lon="-1.35074">
        <ele>101</ele>
        <time>2020-05-24T11:57:30.000Z</time>
      </trkpt>
      <trkpt lat="47.24564" lon="-1.35076">
        <ele>99</ele>
        <time>2020-05-24T11:57:32.000Z</time>
      </trkpt>
      <trkpt lat="47.2458" lon="-1.35081">
        <ele>99</ele>
        <time>2020-05-24T11:57:34.000Z</time>
      </trkpt>
      <trkpt lat="47.24597" lon="-1.35086">
        <ele>98</ele>
        <time>2020-05-24T11:57:36.000Z</time>
      </trkpt>
      <trkpt lat="47.24613" lon="-1.35089">
        <ele>98</ele>
        <time>2020-05-24T11:57:38.000Z</time>
      </trkpt>
      <trkpt lat="47.24628" lon="-1.35091">
        <ele>97</ele>
        <time>2020-05-24T11:57:40.000Z</time>
      </trkpt>
      <trkpt lat="47.24638" lon="-1.35089">
        <ele>97</ele>
        <time>2020-05-24T11:57:42.000Z</time>
      </trkpt>
      <trkpt lat="47.24647" lon="-1.35081">
        <ele>97</ele>
        <time>2020-05-24T11:57:49.000Z</time>
      </trkpt>
      <trkpt lat="47.24663" lon="-1.35086">
        <ele>98</ele>
        <time>2020-05-24T11:57:54.000Z</time>
      </trkpt>
      <trkpt lat="47.24672" lon="-1.35088">
        <ele>98</ele>
        <time>2020-05-24T11:57:56.000Z</time>
      </trkpt>
      <trkpt lat="47.24682" lon="-1.35088">
        <ele>98</ele>
        <time>2020-05-24T11:57:58.000Z</time>
      </trkpt>
      <trkpt lat="47.24691" lon="-1.35087">
        <ele>99</ele>
        <time>2020-05-24T11:58:00.000Z</time>
      </trkpt>
      <trkpt lat="47.24701" lon="-1.35086">
        <ele>99</ele>
        <time>2020-05-24T11:58:02.000Z</time>
      </trkpt>
      <trkpt lat="47.2471" lon="-1.35084">
        <ele>100</ele>
        <time>2020-05-24T11:58:04.000Z</time>
      </trkpt>
      <trkpt lat="47.24719" lon="-1.35083">
        <ele>100</ele>
        <time>2020-05-24T11:58:06.000Z</time>
      </trkpt>
      <trkpt lat="47.24728" lon="-1.3508">
        <ele>101</ele>
        <time>2020-05-24T11:58:08.000Z</time>
      </trkpt>
      <trkpt lat="47.24737" lon="-1.35078">
        <ele>101</ele>
        <time>2020-05-24T11:58:10.000Z</time>
      </trkpt>
      <trkpt lat="47.24746" lon="-1.35077">
        <ele>102</ele>
        <time>2020-05-24T11:58:12.000Z</time>
      </trkpt>
      <trkpt lat="47.24756" lon="-1.35077">
        <ele>103</ele>
        <time>2020-05-24T11:58:14.000Z</time>
      </trkpt>
      <trkpt lat="47.24766" lon="-1.35078">
        <ele>103</ele>
        <time>2020-05-24T11:58:16.000Z</time>
      </trkpt>
      <trkpt lat="47.24775" lon="-1.3508">
        <ele>104</ele>
        <time>2020-05-24T11:58:18.000Z</time>
      </trkpt>
      <trkpt lat="47.24784" lon="-1.35082">
        <ele>104</ele>
        <time>2020-05-24T11:58:20.000Z</time>
      </trkpt>
      <trkpt lat="47.24798" lon="-1.35087">
        <ele>105</ele>
        <time>2020-05-24T11:58:23.000Z</time>
      </trkpt>
      <trkpt lat="47.24807" lon="-1.35091">
        <ele>105</ele>
        <time>2020-05-24T11:58:25.000Z</time>
      </trkpt>
      <trkpt lat="47.24819" lon="-1.35098">
        <ele>106</ele>
        <time>2020-05-24T11:58:28.000Z</time>
      </trkpt>
      <trkpt lat="47.24827" lon="-1.35103">
        <ele>106</ele>
        <time>2020-05-24T11:58:30.000Z</time>
      </trkpt>
      <trkpt lat="47.24836" lon="-1.35108">
        <ele>106</ele>
        <time>2020-05-24T11:58:32.000Z</time>
      </trkpt>
      <trkpt lat="47.24845" lon="-1.35113">
        <ele>106</ele>
        <time>2020-05-24T11:58:34.000Z</time>
      </trkpt>
      <trkpt lat="47.24854" lon="-1.35117">
        <ele>106</ele>
        <time>2020-05-24T11:58:36.000Z</time>
      </trkpt>
      <trkpt lat="47.24864" lon="-1.3512">
        <ele>106</ele>
        <time>2020-05-24T11:58:38.000Z</time>
      </trkpt>
      <trkpt lat="47.24874" lon="-1.35121">
        <ele>106</ele>
        <time>2020-05-24T11:58:40.000Z</time>
      </trkpt>
      <trkpt lat="47.24884" lon="-1.35121">
        <ele>106</ele>
        <time>2020-05-24T11:58:42.000Z</time>
      </trkpt>
      <trkpt lat="47.24894" lon="-1.3512">
        <ele>106</ele>
        <time>2020-05-24T11:58:44.000Z</time>
      </trkpt>
      <trkpt lat="47.24903" lon="-1.35119">
        <ele>105</ele>
        <time>2020-05-24T11:58:46.000Z</time>
      </trkpt>
      <trkpt lat="47.24913" lon="-1.35117">
        <ele>105</ele>
        <time>2020-05-24T11:58:48.000Z</time>
      </trkpt>
      <trkpt lat="47.24924" lon="-1.35116">
        <ele>105</ele>
        <time>2020-05-24T11:58:50.000Z</time>
      </trkpt>
      <trkpt lat="47.24934" lon="-1.35116">
        <ele>105</ele>
        <time>2020-05-24T11:58:52.000Z</time>
      </trkpt>
      <trkpt lat="47.24944" lon="-1.35115">
        <ele>104</ele>
        <time>2020-05-24T11:58:54.000Z</time>
      </trkpt>
      <trkpt lat="47.24953" lon="-1.35115">
        <ele>104</ele>
        <time>2020-05-24T11:58:56.000Z</time>
      </trkpt>
      <trkpt lat="47.24964" lon="-1.35114">
        <ele>104</ele>
        <time>2020-05-24T11:58:58.000Z</time>
      </trkpt>
      <trkpt lat="47.24975" lon="-1.35113">
        <ele>104</ele>
        <time>2020-05-24T11:59:00.000Z</time>
      </trkpt>
      <trkpt lat="47.24993" lon="-1.35113">
        <ele>103</ele>
        <time>2020-05-24T11:59:03.000Z</time>
      </trkpt>
      <trkpt lat="47.25005" lon="-1.35114">
        <ele>103</ele>
        <time>2020-05-24T11:59:05.000Z</time>
      </trkpt>
      <trkpt lat="47.25018" lon="-1.35113">
        <ele>103</ele>
        <time>2020-05-24T11:59:07.000Z</time>
      </trkpt>
      <trkpt lat="47.2503" lon="-1.35112">
        <ele>102</ele>
        <time>2020-05-24T11:59:09.000Z</time>
      </trkpt>
      <trkpt lat="47.25043" lon="-1.35112">
        <ele>102</ele>
        <time>2020-05-24T11:59:11.000Z</time>
      </trkpt>
      <trkpt lat="47.25055" lon="-1.35111">
        <ele>101</ele>
        <time>2020-05-24T11:59:13.000Z</time>
      </trkpt>
      <trkpt lat="47.25069" lon="-1.35111">
        <ele>101</ele>
        <time>2020-05-24T11:59:15.000Z</time>
      </trkpt>
      <trkpt lat="47.25083" lon="-1.35112">
        <ele>100</ele>
        <time>2020-05-24T11:59:17.000Z</time>
      </trkpt>
      <trkpt lat="47.25097" lon="-1.35115">
        <ele>99</ele>
        <time>2020-05-24T11:59:19.000Z</time>
      </trkpt>
      <trkpt lat="47.25111" lon="-1.35123">
        <ele>99</ele>
        <time>2020-05-24T11:59:21.000Z</time>
      </trkpt>
      <trkpt lat="47.25125" lon="-1.35133">
        <ele>98</ele>
        <time>2020-05-24T11:59:23.000Z</time>
      </trkpt>
      <trkpt lat="47.25138" lon="-1.35145">
        <ele>97</ele>
        <time>2020-05-24T11:59:25.000Z</time>
      </trkpt>
      <trkpt lat="47.25152" lon="-1.3516">
        <ele>97</ele>
        <time>2020-05-24T11:59:27.000Z</time>
      </trkpt>
      <trkpt lat="47.25166" lon="-1.35176">
        <ele>96</ele>
        <time>2020-05-24T11:59:29.000Z</time>
      </trkpt>
      <trkpt lat="47.2518" lon="-1.35191">
        <ele>94</ele>
        <time>2020-05-24T11:59:31.000Z</time>
      </trkpt>
      <trkpt lat="47.25188" lon="-1.35198">
        <ele>94</ele>
        <time>2020-05-24T11:59:32.000Z</time>
      </trkpt>
      <trkpt lat="47.25195" lon="-1.35206">
        <ele>93</ele>
        <time>2020-05-24T11:59:33.000Z</time>
      </trkpt>
      <trkpt lat="47.25203" lon="-1.35214">
        <ele>93</ele>
        <time>2020-05-24T11:59:34.000Z</time>
      </trkpt>
      <trkpt lat="47.25211" lon="-1.35222">
        <ele>93</ele>
        <time>2020-05-24T11:59:35.000Z</time>
      </trkpt>
      <trkpt lat="47.25219" lon="-1.35231">
        <ele>92</ele>
        <time>2020-05-24T11:59:36.000Z</time>
      </trkpt>
      <trkpt lat="47.25226" lon="-1.35239">
        <ele>92</ele>
        <time>2020-05-24T11:59:37.000Z</time>
      </trkpt>
      <trkpt lat="47.25234" lon="-1.35246">
        <ele>91</ele>
        <time>2020-05-24T11:59:38.000Z</time>
      </trkpt>
      <trkpt lat="47.25241" lon="-1.35255">
        <ele>91</ele>
        <time>2020-05-24T11:59:39.000Z</time>
      </trkpt>
      <trkpt lat="47.25249" lon="-1.35263">
        <ele>90</ele>
        <time>2020-05-24T11:59:40.000Z</time>
      </trkpt>
      <trkpt lat="47.25256" lon="-1.35272">
        <ele>90</ele>
        <time>2020-05-24T11:59:41.000Z</time>
      </trkpt>
      <trkpt lat="47.25263" lon="-1.35282">
        <ele>89</ele>
        <time>2020-05-24T11:59:42.000Z</time>
      </trkpt>
      <trkpt lat="47.2527" lon="-1.35291">
        <ele>89</ele>
        <time>2020-05-24T11:59:43.000Z</time>
      </trkpt>
      <trkpt lat="47.25277" lon="-1.35301">
        <ele>88</ele>
        <time>2020-05-24T11:59:44.000Z</time>
      </trkpt>
      <trkpt lat="47.25283" lon="-1.35311">
        <ele>88</ele>
        <time>2020-05-24T11:59:45.000Z</time>
      </trkpt>
      <trkpt lat="47.25289" lon="-1.35322">
        <ele>88</ele>
        <time>2020-05-24T11:59:46.000Z</time>
      </trkpt>
      <trkpt lat="47.25295" lon="-1.35333">
        <ele>88</ele>
        <time>2020-05-24T11:59:47.000Z</time>
      </trkpt>
      <trkpt lat="47.25306" lon="-1.35354">
        <ele>87</ele>
        <time>2020-05-24T11:59:49.000Z</time>
      </trkpt>
      <trkpt lat="47.25316" lon="-1.35374">
        <ele>86</ele>
        <time>2020-05-24T11:59:51.000Z</time>
      </trkpt>
      <trkpt lat="47.25325" lon="-1.35393">
        <ele>86</ele>
        <time>2020-05-24T11:59:53.000Z</time>
      </trkpt>
      <trkpt lat="47.25334" lon="-1.35413">
        <ele>86</ele>
        <time>2020-05-24T11:59:55.000Z</time>
      </trkpt>
      <trkpt lat="47.25343" lon="-1.35432">
        <ele>86</ele>
        <time>2020-05-24T11:59:57.000Z</time>
      </trkpt>
      <trkpt lat="47.25352" lon="-1.35449">
        <ele>85</ele>
        <time>2020-05-24T11:59:59.000Z</time>
      </trkpt>
      <trkpt lat="47.2536" lon="-1.35467">
        <ele>85</ele>
        <time>2020-05-24T12:00:01.000Z</time>
      </trkpt>
      <trkpt lat="47.2537" lon="-1.35482">
        <ele>85</ele>
        <time>2020-05-24T12:00:03.000Z</time>
      </trkpt>
      <trkpt lat="47.2538" lon="-1.35495">
        <ele>84</ele>
        <time>2020-05-24T12:00:05.000Z</time>
      </trkpt>
      <trkpt lat="47.25391" lon="-1.35507">
        <ele>84</ele>
        <time>2020-05-24T12:00:07.000Z</time>
      </trkpt>
      <trkpt lat="47.25404" lon="-1.35517">
        <ele>83</ele>
        <time>2020-05-24T12:00:09.000Z</time>
      </trkpt>
      <trkpt lat="47.25418" lon="-1.35524">
        <ele>82</ele>
        <time>2020-05-24T12:00:11.000Z</time>
      </trkpt>
      <trkpt lat="47.25432" lon="-1.35528">
        <ele>81</ele>
        <time>2020-05-24T12:00:13.000Z</time>
      </trkpt>
      <trkpt lat="47.25447" lon="-1.35529">
        <ele>81</ele>
        <time>2020-05-24T12:00:15.000Z</time>
      </trkpt>
      <trkpt lat="47.25462" lon="-1.35526">
        <ele>80</ele>
        <time>2020-05-24T12:00:17.000Z</time>
      </trkpt>
      <trkpt lat="47.25476" lon="-1.35523">
        <ele>79</ele>
        <time>2020-05-24T12:00:19.000Z</time>
      </trkpt>
      <trkpt lat="47.25489" lon="-1.35516">
        <ele>79</ele>
        <time>2020-05-24T12:00:21.000Z</time>
      </trkpt>
      <trkpt lat="47.25502" lon="-1.35506">
        <ele>79</ele>
        <time>2020-05-24T12:00:23.000Z</time>
      </trkpt>
      <trkpt lat="47.25515" lon="-1.35498">
        <ele>79</ele>
        <time>2020-05-24T12:00:25.000Z</time>
      </trkpt>
      <trkpt lat="47.25528" lon="-1.35492">
        <ele>79</ele>
        <time>2020-05-24T12:00:27.000Z</time>
      </trkpt>
      <trkpt lat="47.25541" lon="-1.35488">
        <ele>79</ele>
        <time>2020-05-24T12:00:29.000Z</time>
      </trkpt>
      <trkpt lat="47.25555" lon="-1.35487">
        <ele>79</ele>
        <time>2020-05-24T12:00:31.000Z</time>
      </trkpt>
      <trkpt lat="47.25568" lon="-1.3549">
        <ele>79</ele>
        <time>2020-05-24T12:00:33.000Z</time>
      </trkpt>
      <trkpt lat="47.25581" lon="-1.35496">
        <ele>79</ele>
        <time>2020-05-24T12:00:35.000Z</time>
      </trkpt>
      <trkpt lat="47.25594" lon="-1.35504">
        <ele>78</ele>
        <time>2020-05-24T12:00:37.000Z</time>
      </trkpt>
      <trkpt lat="47.25606" lon="-1.35515">
        <ele>78</ele>
        <time>2020-05-24T12:00:39.000Z</time>
      </trkpt>
      <trkpt lat="47.25617" lon="-1.35529">
        <ele>77</ele>
        <time>2020-05-24T12:00:41.000Z</time>
      </trkpt>
      <trkpt lat="47.25628" lon="-1.35545">
        <ele>76</ele>
        <time>2020-05-24T12:00:43.000Z</time>
      </trkpt>
      <trkpt lat="47.25639" lon="-1.35562">
        <ele>75</ele>
        <time>2020-05-24T12:00:45.000Z</time>
      </trkpt>
      <trkpt lat="47.25651" lon="-1.35578">
        <ele>74</ele>
        <time>2020-05-24T12:00:47.000Z</time>
      </trkpt>
      <trkpt lat="47.25664" lon="-1.35595">
        <ele>73</ele>
        <time>2020-05-24T12:00:49.000Z</time>
      </trkpt>
      <trkpt lat="47.25676" lon="-1.35612">
        <ele>72</ele>
        <time>2020-05-24T12:00:51.000Z</time>
      </trkpt>
      <trkpt lat="47.25689" lon="-1.3563">
        <ele>71</ele>
        <time>2020-05-24T12:00:53.000Z</time>
      </trkpt>
      <trkpt lat="47.25695" lon="-1.3564">
        <ele>70</ele>
        <time>2020-05-24T12:00:54.000Z</time>
      </trkpt>
      <trkpt lat="47.25708" lon="-1.35658">
        <ele>69</ele>
        <time>2020-05-24T12:00:56.000Z</time>
      </trkpt>
      <trkpt lat="47.25714" lon="-1.35667">
        <ele>69</ele>
        <time>2020-05-24T12:00:57.000Z</time>
      </trkpt>
      <trkpt lat="47.25721" lon="-1.35677">
        <ele>69</ele>
        <time>2020-05-24T12:00:58.000Z</time>
      </trkpt>
      <trkpt lat="47.25728" lon="-1.35687">
        <ele>68</ele>
        <time>2020-05-24T12:00:59.000Z</time>
      </trkpt>
      <trkpt lat="47.25734" lon="-1.35696">
        <ele>68</ele>
        <time>2020-05-24T12:01:00.000Z</time>
      </trkpt>
      <trkpt lat="47.25741" lon="-1.35705">
        <ele>68</ele>
        <time>2020-05-24T12:01:01.000Z</time>
      </trkpt>
      <trkpt lat="47.25748" lon="-1.35715">
        <ele>67</ele>
        <time>2020-05-24T12:01:02.000Z</time>
      </trkpt>
      <trkpt lat="47.25754" lon="-1.35724">
        <ele>67</ele>
        <time>2020-05-24T12:01:03.000Z</time>
      </trkpt>
      <trkpt lat="47.25761" lon="-1.35733">
        <ele>66</ele>
        <time>2020-05-24T12:01:04.000Z</time>
      </trkpt>
      <trkpt lat="47.25768" lon="-1.35743">
        <ele>66</ele>
        <time>2020-05-24T12:01:05.000Z</time>
      </trkpt>
      <trkpt lat="47.2578" lon="-1.35761">
        <ele>66</ele>
        <time>2020-05-24T12:01:07.000Z</time>
      </trkpt>
      <trkpt lat="47.25787" lon="-1.3577">
        <ele>66</ele>
        <time>2020-05-24T12:01:08.000Z</time>
      </trkpt>
      <trkpt lat="47.25795" lon="-1.35778">
        <ele>66</ele>
        <time>2020-05-24T12:01:09.000Z</time>
      </trkpt>
      <trkpt lat="47.25809" lon="-1.35792">
        <ele>66</ele>
        <time>2020-05-24T12:01:11.000Z</time>
      </trkpt>
      <trkpt lat="47.25823" lon="-1.35805">
        <ele>66</ele>
        <time>2020-05-24T12:01:13.000Z</time>
      </trkpt>
      <trkpt lat="47.25836" lon="-1.35816">
        <ele>65</ele>
        <time>2020-05-24T12:01:15.000Z</time>
      </trkpt>
      <trkpt lat="47.25851" lon="-1.35826">
        <ele>65</ele>
        <time>2020-05-24T12:01:17.000Z</time>
      </trkpt>
      <trkpt lat="47.25864" lon="-1.35837">
        <ele>65</ele>
        <time>2020-05-24T12:01:19.000Z</time>
      </trkpt>
      <trkpt lat="47.25877" lon="-1.35848">
        <ele>65</ele>
        <time>2020-05-24T12:01:21.000Z</time>
      </trkpt>
      <trkpt lat="47.2589" lon="-1.3586">
        <ele>64</ele>
        <time>2020-05-24T12:01:23.000Z</time>
      </trkpt>
      <trkpt lat="47.25902" lon="-1.35873">
        <ele>64</ele>
        <time>2020-05-24T12:01:25.000Z</time>
      </trkpt>
      <trkpt lat="47.25915" lon="-1.35886">
        <ele>64</ele>
        <time>2020-05-24T12:01:27.000Z</time>
      </trkpt>
      <trkpt lat="47.25926" lon="-1.35898">
        <ele>63</ele>
        <time>2020-05-24T12:01:29.000Z</time>
      </trkpt>
      <trkpt lat="47.25938" lon="-1.35911">
        <ele>63</ele>
        <time>2020-05-24T12:01:31.000Z</time>
      </trkpt>
      <trkpt lat="47.2595" lon="-1.35924">
        <ele>63</ele>
        <time>2020-05-24T12:01:33.000Z</time>
      </trkpt>
      <trkpt lat="47.25961" lon="-1.35935">
        <ele>63</ele>
        <time>2020-05-24T12:01:35.000Z</time>
      </trkpt>
      <trkpt lat="47.25972" lon="-1.35946">
        <ele>63</ele>
        <time>2020-05-24T12:01:37.000Z</time>
      </trkpt>
      <trkpt lat="47.25983" lon="-1.35958">
        <ele>63</ele>
        <time>2020-05-24T12:01:39.000Z</time>
      </trkpt>
      <trkpt lat="47.25993" lon="-1.3597">
        <ele>63</ele>
        <time>2020-05-24T12:01:41.000Z</time>
      </trkpt>
      <trkpt lat="47.26004" lon="-1.35981">
        <ele>63</ele>
        <time>2020-05-24T12:01:43.000Z</time>
      </trkpt>
      <trkpt lat="47.26013" lon="-1.35991">
        <ele>63</ele>
        <time>2020-05-24T12:01:45.000Z</time>
      </trkpt>
      <trkpt lat="47.26022" lon="-1.35997">
        <ele>63</ele>
        <time>2020-05-24T12:01:47.000Z</time>
      </trkpt>
      <trkpt lat="47.26031" lon="-1.36002">
        <ele>63</ele>
        <time>2020-05-24T12:01:50.000Z</time>
      </trkpt>
      <trkpt lat="47.26036" lon="-1.35991">
        <ele>63</ele>
        <time>2020-05-24T12:02:01.000Z</time>
      </trkpt>
      <trkpt lat="47.26041" lon="-1.35971">
        <ele>62</ele>
        <time>2020-05-24T12:02:04.000Z</time>
      </trkpt>
      <trkpt lat="47.26046" lon="-1.35957">
        <ele>61</ele>
        <time>2020-05-24T12:02:06.000Z</time>
      </trkpt>
      <trkpt lat="47.26053" lon="-1.35943">
        <ele>61</ele>
        <time>2020-05-24T12:02:08.000Z</time>
      </trkpt>
      <trkpt lat="47.26061" lon="-1.35929">
        <ele>61</ele>
        <time>2020-05-24T12:02:10.000Z</time>
      </trkpt>
      <trkpt lat="47.26071" lon="-1.35916">
        <ele>60</ele>
        <time>2020-05-24T12:02:12.000Z</time>
      </trkpt>
      <trkpt lat="47.26081" lon="-1.35904">
        <ele>61</ele>
        <time>2020-05-24T12:02:14.000Z</time>
      </trkpt>
      <trkpt lat="47.2609" lon="-1.35894">
        <ele>61</ele>
        <time>2020-05-24T12:02:16.000Z</time>
      </trkpt>
      <trkpt lat="47.26098" lon="-1.35883">
        <ele>62</ele>
        <time>2020-05-24T12:02:18.000Z</time>
      </trkpt>
      <trkpt lat="47.26106" lon="-1.35873">
        <ele>62</ele>
        <time>2020-05-24T12:02:20.000Z</time>
      </trkpt>
      <trkpt lat="47.26115" lon="-1.35863">
        <ele>63</ele>
        <time>2020-05-24T12:02:22.000Z</time>
      </trkpt>
      <trkpt lat="47.26123" lon="-1.35852">
        <ele>63</ele>
        <time>2020-05-24T12:02:24.000Z</time>
      </trkpt>
      <trkpt lat="47.26132" lon="-1.35843">
        <ele>63</ele>
        <time>2020-05-24T12:02:26.000Z</time>
      </trkpt>
      <trkpt lat="47.26141" lon="-1.35832">
        <ele>63</ele>
        <time>2020-05-24T12:02:28.000Z</time>
      </trkpt>
      <trkpt lat="47.2615" lon="-1.35822">
        <ele>63</ele>
        <time>2020-05-24T12:02:30.000Z</time>
      </trkpt>
      <trkpt lat="47.26159" lon="-1.35812">
        <ele>64</ele>
        <time>2020-05-24T12:02:32.000Z</time>
      </trkpt>
      <trkpt lat="47.26167" lon="-1.35802">
        <ele>64</ele>
        <time>2020-05-24T12:02:34.000Z</time>
      </trkpt>
      <trkpt lat="47.26176" lon="-1.35793">
        <ele>64</ele>
        <time>2020-05-24T12:02:36.000Z</time>
      </trkpt>
      <trkpt lat="47.26184" lon="-1.35782">
        <ele>64</ele>
        <time>2020-05-24T12:02:38.000Z</time>
      </trkpt>
      <trkpt lat="47.26193" lon="-1.35772">
        <ele>65</ele>
        <time>2020-05-24T12:02:40.000Z</time>
      </trkpt>
      <trkpt lat="47.26201" lon="-1.35762">
        <ele>65</ele>
        <time>2020-05-24T12:02:42.000Z</time>
      </trkpt>
      <trkpt lat="47.2621" lon="-1.35752">
        <ele>65</ele>
        <time>2020-05-24T12:02:44.000Z</time>
      </trkpt>
      <trkpt lat="47.26219" lon="-1.35742">
        <ele>66</ele>
        <time>2020-05-24T12:02:46.000Z</time>
      </trkpt>
      <trkpt lat="47.26227" lon="-1.35733">
        <ele>66</ele>
        <time>2020-05-24T12:02:48.000Z</time>
      </trkpt>
      <trkpt lat="47.26235" lon="-1.35723">
        <ele>66</ele>
        <time>2020-05-24T12:02:50.000Z</time>
      </trkpt>
      <trkpt lat="47.26244" lon="-1.35714">
        <ele>66</ele>
        <time>2020-05-24T12:02:52.000Z</time>
      </trkpt>
      <trkpt lat="47.26254" lon="-1.35704">
        <ele>67</ele>
        <time>2020-05-24T12:02:54.000Z</time>
      </trkpt>
      <trkpt lat="47.26264" lon="-1.35696">
        <ele>67</ele>
        <time>2020-05-24T12:02:56.000Z</time>
      </trkpt>
      <trkpt lat="47.26275" lon="-1.35689">
        <ele>67</ele>
        <time>2020-05-24T12:02:58.000Z</time>
      </trkpt>
      <trkpt lat="47.26286" lon="-1.35682">
        <ele>67</ele>
        <time>2020-05-24T12:03:00.000Z</time>
      </trkpt>
      <trkpt lat="47.26297" lon="-1.35677">
        <ele>67</ele>
        <time>2020-05-24T12:03:02.000Z</time>
      </trkpt>
      <trkpt lat="47.26309" lon="-1.35674">
        <ele>67</ele>
        <time>2020-05-24T12:03:04.000Z</time>
      </trkpt>
      <trkpt lat="47.2632" lon="-1.35671">
        <ele>67</ele>
        <time>2020-05-24T12:03:06.000Z</time>
      </trkpt>
      <trkpt lat="47.26332" lon="-1.35669">
        <ele>67</ele>
        <time>2020-05-24T12:03:08.000Z</time>
      </trkpt>
      <trkpt lat="47.26344" lon="-1.35667">
        <ele>67</ele>
        <time>2020-05-24T12:03:10.000Z</time>
      </trkpt>
      <trkpt lat="47.26356" lon="-1.35665">
        <ele>67</ele>
        <time>2020-05-24T12:03:12.000Z</time>
      </trkpt>
      <trkpt lat="47.26368" lon="-1.35662">
        <ele>67</ele>
        <time>2020-05-24T12:03:14.000Z</time>
      </trkpt>
      <trkpt lat="47.2638" lon="-1.35659">
        <ele>67</ele>
        <time>2020-05-24T12:03:16.000Z</time>
      </trkpt>
      <trkpt lat="47.26392" lon="-1.35658">
        <ele>66</ele>
        <time>2020-05-24T12:03:18.000Z</time>
      </trkpt>
      <trkpt lat="47.26404" lon="-1.35656">
        <ele>67</ele>
        <time>2020-05-24T12:03:20.000Z</time>
      </trkpt>
      <trkpt lat="47.26416" lon="-1.35653">
        <ele>66</ele>
        <time>2020-05-24T12:03:22.000Z</time>
      </trkpt>
      <trkpt lat="47.26427" lon="-1.35651">
        <ele>66</ele>
        <time>2020-05-24T12:03:24.000Z</time>
      </trkpt>
      <trkpt lat="47.26439" lon="-1.3565">
        <ele>66</ele>
        <time>2020-05-24T12:03:26.000Z</time>
      </trkpt>
      <trkpt lat="47.26451" lon="-1.35647">
        <ele>66</ele>
        <time>2020-05-24T12:03:28.000Z</time>
      </trkpt>
      <trkpt lat="47.26463" lon="-1.35644">
        <ele>66</ele>
        <time>2020-05-24T12:03:30.000Z</time>
      </trkpt>
      <trkpt lat="47.26475" lon="-1.35642">
        <ele>66</ele>
        <time>2020-05-24T12:03:32.000Z</time>
      </trkpt>
      <trkpt lat="47.26487" lon="-1.35641">
        <ele>66</ele>
        <time>2020-05-24T12:03:34.000Z</time>
      </trkpt>
      <trkpt lat="47.26499" lon="-1.35638">
        <ele>65</ele>
        <time>2020-05-24T12:03:36.000Z</time>
      </trkpt>
      <trkpt lat="47.26511" lon="-1.35636">
        <ele>65</ele>
        <time>2020-05-24T12:03:38.000Z</time>
      </trkpt>
      <trkpt lat="47.26523" lon="-1.35632">
        <ele>65</ele>
        <time>2020-05-24T12:03:40.000Z</time>
      </trkpt>
      <trkpt lat="47.26534" lon="-1.35628">
        <ele>65</ele>
        <time>2020-05-24T12:03:42.000Z</time>
      </trkpt>
      <trkpt lat="47.26547" lon="-1.35623">
        <ele>65</ele>
        <time>2020-05-24T12:03:44.000Z</time>
      </trkpt>
      <trkpt lat="47.26559" lon="-1.35616">
        <ele>65</ele>
        <time>2020-05-24T12:03:46.000Z</time>
      </trkpt>
      <trkpt lat="47.26571" lon="-1.35609">
        <ele>65</ele>
        <time>2020-05-24T12:03:48.000Z</time>
      </trkpt>
      <trkpt lat="47.26583" lon="-1.35603">
        <ele>65</ele>
        <time>2020-05-24T12:03:50.000Z</time>
      </trkpt>
      <trkpt lat="47.26595" lon="-1.35598">
        <ele>65</ele>
        <time>2020-05-24T12:03:52.000Z</time>
      </trkpt>
      <trkpt lat="47.26608" lon="-1.35593">
        <ele>65</ele>
        <time>2020-05-24T12:03:54.000Z</time>
      </trkpt>
      <trkpt lat="47.26621" lon="-1.35591">
        <ele>66</ele>
        <time>2020-05-24T12:03:56.000Z</time>
      </trkpt>
      <trkpt lat="47.26633" lon="-1.35589">
        <ele>65</ele>
        <time>2020-05-24T12:03:58.000Z</time>
      </trkpt>
      <trkpt lat="47.26646" lon="-1.35587">
        <ele>66</ele>
        <time>2020-05-24T12:04:00.000Z</time>
      </trkpt>
      <trkpt lat="47.26658" lon="-1.35586">
        <ele>66</ele>
        <time>2020-05-24T12:04:02.000Z</time>
      </trkpt>
      <trkpt lat="47.26671" lon="-1.35586">
        <ele>66</ele>
        <time>2020-05-24T12:04:04.000Z</time>
      </trkpt>
      <trkpt lat="47.26682" lon="-1.35584">
        <ele>66</ele>
        <time>2020-05-24T12:04:06.000Z</time>
      </trkpt>
      <trkpt lat="47.26694" lon="-1.3558">
        <ele>67</ele>
        <time>2020-05-24T12:04:08.000Z</time>
      </trkpt>
      <trkpt lat="47.26705" lon="-1.35575">
        <ele>67</ele>
        <time>2020-05-24T12:04:10.000Z</time>
      </trkpt>
      <trkpt lat="47.26717" lon="-1.35572">
        <ele>67</ele>
        <time>2020-05-24T12:04:12.000Z</time>
      </trkpt>
      <trkpt lat="47.26728" lon="-1.35569">
        <ele>68</ele>
        <time>2020-05-24T12:04:14.000Z</time>
      </trkpt>
      <trkpt lat="47.26739" lon="-1.35566">
        <ele>68</ele>
        <time>2020-05-24T12:04:16.000Z</time>
      </trkpt>
      <trkpt lat="47.2675" lon="-1.35561">
        <ele>68</ele>
        <time>2020-05-24T12:04:18.000Z</time>
      </trkpt>
      <trkpt lat="47.26761" lon="-1.35557">
        <ele>68</ele>
        <time>2020-05-24T12:04:20.000Z</time>
      </trkpt>
      <trkpt lat="47.26772" lon="-1.35553">
        <ele>68</ele>
        <time>2020-05-24T12:04:22.000Z</time>
      </trkpt>
      <trkpt lat="47.26784" lon="-1.35549">
        <ele>67</ele>
        <time>2020-05-24T12:04:24.000Z</time>
      </trkpt>
      <trkpt lat="47.26796" lon="-1.35544">
        <ele>67</ele>
        <time>2020-05-24T12:04:26.000Z</time>
      </trkpt>
      <trkpt lat="47.26808" lon="-1.35534">
        <ele>66</ele>
        <time>2020-05-24T12:04:29.000Z</time>
      </trkpt>
      <trkpt lat="47.26808" lon="-1.35551">
        <ele>67</ele>
        <time>2020-05-24T12:04:37.000Z</time>
      </trkpt>
      <trkpt lat="47.26807" lon="-1.35566">
        <ele>67</ele>
        <time>2020-05-24T12:04:39.000Z</time>
      </trkpt>
      <trkpt lat="47.2681" lon="-1.35582">
        <ele>67</ele>
        <time>2020-05-24T12:04:41.000Z</time>
      </trkpt>
      <trkpt lat="47.26814" lon="-1.35598">
        <ele>67</ele>
        <time>2020-05-24T12:04:43.000Z</time>
      </trkpt>
      <trkpt lat="47.26819" lon="-1.35614">
        <ele>68</ele>
        <time>2020-05-24T12:04:45.000Z</time>
      </trkpt>
      <trkpt lat="47.26824" lon="-1.3563">
        <ele>67</ele>
        <time>2020-05-24T12:04:47.000Z</time>
      </trkpt>
      <trkpt lat="47.26831" lon="-1.35646">
        <ele>67</ele>
        <time>2020-05-24T12:04:49.000Z</time>
      </trkpt>
      <trkpt lat="47.26837" lon="-1.35663">
        <ele>66</ele>
        <time>2020-05-24T12:04:51.000Z</time>
      </trkpt>
      <trkpt lat="47.26843" lon="-1.35681">
        <ele>65</ele>
        <time>2020-05-24T12:04:53.000Z</time>
      </trkpt>
      <trkpt lat="47.26848" lon="-1.35701">
        <ele>64</ele>
        <time>2020-05-24T12:04:55.000Z</time>
      </trkpt>
      <trkpt lat="47.26852" lon="-1.35722">
        <ele>63</ele>
        <time>2020-05-24T12:04:57.000Z</time>
      </trkpt>
      <trkpt lat="47.26856" lon="-1.35744">
        <ele>62</ele>
        <time>2020-05-24T12:04:59.000Z</time>
      </trkpt>
      <trkpt lat="47.26859" lon="-1.35765">
        <ele>62</ele>
        <time>2020-05-24T12:05:01.000Z</time>
      </trkpt>
      <trkpt lat="47.26863" lon="-1.35788">
        <ele>61</ele>
        <time>2020-05-24T12:05:03.000Z</time>
      </trkpt>
      <trkpt lat="47.26867" lon="-1.3581">
        <ele>59</ele>
        <time>2020-05-24T12:05:05.000Z</time>
      </trkpt>
      <trkpt lat="47.2687" lon="-1.35833">
        <ele>58</ele>
        <time>2020-05-24T12:05:07.000Z</time>
      </trkpt>
      <trkpt lat="47.26874" lon="-1.35857">
        <ele>57</ele>
        <time>2020-05-24T12:05:09.000Z</time>
      </trkpt>
      <trkpt lat="47.26878" lon="-1.35879">
        <ele>55</ele>
        <time>2020-05-24T12:05:11.000Z</time>
      </trkpt>
      <trkpt lat="47.26882" lon="-1.35902">
        <ele>55</ele>
        <time>2020-05-24T12:05:13.000Z</time>
      </trkpt>
      <trkpt lat="47.26886" lon="-1.35926">
        <ele>54</ele>
        <time>2020-05-24T12:05:15.000Z</time>
      </trkpt>
      <trkpt lat="47.2689" lon="-1.35948">
        <ele>54</ele>
        <time>2020-05-24T12:05:17.000Z</time>
      </trkpt>
      <trkpt lat="47.26893" lon="-1.35969">
        <ele>53</ele>
        <time>2020-05-24T12:05:19.000Z</time>
      </trkpt>
      <trkpt lat="47.26897" lon="-1.3599">
        <ele>53</ele>
        <time>2020-05-24T12:05:21.000Z</time>
      </trkpt>
      <trkpt lat="47.26902" lon="-1.36011">
        <ele>52</ele>
        <time>2020-05-24T12:05:23.000Z</time>
      </trkpt>
      <trkpt lat="47.26908" lon="-1.36031">
        <ele>52</ele>
        <time>2020-05-24T12:05:25.000Z</time>
      </trkpt>
      <trkpt lat="47.26914" lon="-1.36051">
        <ele>52</ele>
        <time>2020-05-24T12:05:27.000Z</time>
      </trkpt>
      <trkpt lat="47.26921" lon="-1.3607">
        <ele>52</ele>
        <time>2020-05-24T12:05:29.000Z</time>
      </trkpt>
      <trkpt lat="47.26928" lon="-1.36087">
        <ele>52</ele>
        <time>2020-05-24T12:05:31.000Z</time>
      </trkpt>
      <trkpt lat="47.26935" lon="-1.36104">
        <ele>52</ele>
        <time>2020-05-24T12:05:33.000Z</time>
      </trkpt>
      <trkpt lat="47.26943" lon="-1.36122">
        <ele>52</ele>
        <time>2020-05-24T12:05:35.000Z</time>
      </trkpt>
      <trkpt lat="47.26951" lon="-1.36138">
        <ele>52</ele>
        <time>2020-05-24T12:05:37.000Z</time>
      </trkpt>
      <trkpt lat="47.26959" lon="-1.36154">
        <ele>52</ele>
        <time>2020-05-24T12:05:39.000Z</time>
      </trkpt>
      <trkpt lat="47.26967" lon="-1.36171">
        <ele>52</ele>
        <time>2020-05-24T12:05:41.000Z</time>
      </trkpt>
      <trkpt lat="47.26976" lon="-1.36188">
        <ele>52</ele>
        <time>2020-05-24T12:05:43.000Z</time>
      </trkpt>
      <trkpt lat="47.26984" lon="-1.36205">
        <ele>51</ele>
        <time>2020-05-24T12:05:45.000Z</time>
      </trkpt>
      <trkpt lat="47.26993" lon="-1.36221">
        <ele>51</ele>
        <time>2020-05-24T12:05:47.000Z</time>
      </trkpt>
      <trkpt lat="47.27001" lon="-1.36238">
        <ele>51</ele>
        <time>2020-05-24T12:05:49.000Z</time>
      </trkpt>
      <trkpt lat="47.27009" lon="-1.36255">
        <ele>51</ele>
        <time>2020-05-24T12:05:51.000Z</time>
      </trkpt>
      <trkpt lat="47.27017" lon="-1.3627">
        <ele>51</ele>
        <time>2020-05-24T12:05:53.000Z</time>
      </trkpt>
      <trkpt lat="47.27025" lon="-1.36286">
        <ele>51</ele>
        <time>2020-05-24T12:05:55.000Z</time>
      </trkpt>
      <trkpt lat="47.27032" lon="-1.36302">
        <ele>51</ele>
        <time>2020-05-24T12:05:57.000Z</time>
      </trkpt>
      <trkpt lat="47.2704" lon="-1.36317">
        <ele>51</ele>
        <time>2020-05-24T12:05:59.000Z</time>
      </trkpt>
      <trkpt lat="47.27048" lon="-1.36334">
        <ele>52</ele>
        <time>2020-05-24T12:06:01.000Z</time>
      </trkpt>
      <trkpt lat="47.27055" lon="-1.3635">
        <ele>52</ele>
        <time>2020-05-24T12:06:03.000Z</time>
      </trkpt>
      <trkpt lat="47.27063" lon="-1.36367">
        <ele>52</ele>
        <time>2020-05-24T12:06:05.000Z</time>
      </trkpt>
      <trkpt lat="47.27072" lon="-1.36384">
        <ele>52</ele>
        <time>2020-05-24T12:06:07.000Z</time>
      </trkpt>
      <trkpt lat="47.2708" lon="-1.36401">
        <ele>52</ele>
        <time>2020-05-24T12:06:09.000Z</time>
      </trkpt>
      <trkpt lat="47.27088" lon="-1.36418">
        <ele>52</ele>
        <time>2020-05-24T12:06:11.000Z</time>
      </trkpt>
      <trkpt lat="47.27096" lon="-1.36435">
        <ele>52</ele>
        <time>2020-05-24T12:06:13.000Z</time>
      </trkpt>
      <trkpt lat="47.27104" lon="-1.36453">
        <ele>52</ele>
        <time>2020-05-24T12:06:15.000Z</time>
      </trkpt>
      <trkpt lat="47.27113" lon="-1.3647">
        <ele>52</ele>
        <time>2020-05-24T12:06:17.000Z</time>
      </trkpt>
      <trkpt lat="47.27121" lon="-1.36488">
        <ele>52</ele>
        <time>2020-05-24T12:06:19.000Z</time>
      </trkpt>
      <trkpt lat="47.27129" lon="-1.36506">
        <ele>52</ele>
        <time>2020-05-24T12:06:21.000Z</time>
      </trkpt>
      <trkpt lat="47.27137" lon="-1.36523">
        <ele>52</ele>
        <time>2020-05-24T12:06:23.000Z</time>
      </trkpt>
      <trkpt lat="47.27145" lon="-1.3654">
        <ele>52</ele>
        <time>2020-05-24T12:06:25.000Z</time>
      </trkpt>
      <trkpt lat="47.27153" lon="-1.36557">
        <ele>52</ele>
        <time>2020-05-24T12:06:27.000Z</time>
      </trkpt>
      <trkpt lat="47.27161" lon="-1.36575">
        <ele>53</ele>
        <time>2020-05-24T12:06:29.000Z</time>
      </trkpt>
      <trkpt lat="47.27169" lon="-1.36592">
        <ele>53</ele>
        <time>2020-05-24T12:06:31.000Z</time>
      </trkpt>
      <trkpt lat="47.27176" lon="-1.36609">
        <ele>52</ele>
        <time>2020-05-24T12:06:33.000Z</time>
      </trkpt>
      <trkpt lat="47.27181" lon="-1.36628">
        <ele>52</ele>
        <time>2020-05-24T12:06:35.000Z</time>
      </trkpt>
      <trkpt lat="47.27187" lon="-1.36646">
        <ele>52</ele>
        <time>2020-05-24T12:06:37.000Z</time>
      </trkpt>
      <trkpt lat="47.27191" lon="-1.36665">
        <ele>52</ele>
        <time>2020-05-24T12:06:39.000Z</time>
      </trkpt>
      <trkpt lat="47.27196" lon="-1.36685">
        <ele>52</ele>
        <time>2020-05-24T12:06:41.000Z</time>
      </trkpt>
      <trkpt lat="47.27201" lon="-1.36704">
        <ele>52</ele>
        <time>2020-05-24T12:06:43.000Z</time>
      </trkpt>
      <trkpt lat="47.27205" lon="-1.36723">
        <ele>52</ele>
        <time>2020-05-24T12:06:45.000Z</time>
      </trkpt>
      <trkpt lat="47.2721" lon="-1.36743">
        <ele>52</ele>
        <time>2020-05-24T12:06:47.000Z</time>
      </trkpt>
      <trkpt lat="47.27214" lon="-1.36762">
        <ele>52</ele>
        <time>2020-05-24T12:06:49.000Z</time>
      </trkpt>
      <trkpt lat="47.27218" lon="-1.36781">
        <ele>52</ele>
        <time>2020-05-24T12:06:51.000Z</time>
      </trkpt>
      <trkpt lat="47.27224" lon="-1.368">
        <ele>51</ele>
        <time>2020-05-24T12:06:53.000Z</time>
      </trkpt>
      <trkpt lat="47.27228" lon="-1.36818">
        <ele>51</ele>
        <time>2020-05-24T12:06:55.000Z</time>
      </trkpt>
      <trkpt lat="47.27232" lon="-1.36837">
        <ele>52</ele>
        <time>2020-05-24T12:06:57.000Z</time>
      </trkpt>
      <trkpt lat="47.27237" lon="-1.36856">
        <ele>51</ele>
        <time>2020-05-24T12:06:59.000Z</time>
      </trkpt>
      <trkpt lat="47.27241" lon="-1.36875">
        <ele>52</ele>
        <time>2020-05-24T12:07:01.000Z</time>
      </trkpt>
      <trkpt lat="47.27245" lon="-1.36894">
        <ele>52</ele>
        <time>2020-05-24T12:07:03.000Z</time>
      </trkpt>
      <trkpt lat="47.27249" lon="-1.36913">
        <ele>51</ele>
        <time>2020-05-24T12:07:05.000Z</time>
      </trkpt>
      <trkpt lat="47.27254" lon="-1.36931">
        <ele>51</ele>
        <time>2020-05-24T12:07:07.000Z</time>
      </trkpt>
      <trkpt lat="47.27258" lon="-1.3695">
        <ele>52</ele>
        <time>2020-05-24T12:07:09.000Z</time>
      </trkpt>
      <trkpt lat="47.27262" lon="-1.36968">
        <ele>51</ele>
        <time>2020-05-24T12:07:11.000Z</time>
      </trkpt>
      <trkpt lat="47.27266" lon="-1.36986">
        <ele>52</ele>
        <time>2020-05-24T12:07:13.000Z</time>
      </trkpt>
      <trkpt lat="47.27271" lon="-1.37005">
        <ele>51</ele>
        <time>2020-05-24T12:07:15.000Z</time>
      </trkpt>
      <trkpt lat="47.27275" lon="-1.37024">
        <ele>52</ele>
        <time>2020-05-24T12:07:17.000Z</time>
      </trkpt>
      <trkpt lat="47.2728" lon="-1.37043">
        <ele>52</ele>
        <time>2020-05-24T12:07:19.000Z</time>
      </trkpt>
      <trkpt lat="47.27284" lon="-1.37062">
        <ele>52</ele>
        <time>2020-05-24T12:07:21.000Z</time>
      </trkpt>
      <trkpt lat="47.27288" lon="-1.37082">
        <ele>51</ele>
        <time>2020-05-24T12:07:23.000Z</time>
      </trkpt>
      <trkpt lat="47.27293" lon="-1.37101">
        <ele>52</ele>
        <time>2020-05-24T12:07:25.000Z</time>
      </trkpt>
      <trkpt lat="47.27297" lon="-1.3712">
        <ele>52</ele>
        <time>2020-05-24T12:07:27.000Z</time>
      </trkpt>
      <trkpt lat="47.27302" lon="-1.37138">
        <ele>52</ele>
        <time>2020-05-24T12:07:29.000Z</time>
      </trkpt>
      <trkpt lat="47.27306" lon="-1.37157">
        <ele>52</ele>
        <time>2020-05-24T12:07:31.000Z</time>
      </trkpt>
      <trkpt lat="47.2731" lon="-1.37176">
        <ele>52</ele>
        <time>2020-05-24T12:07:33.000Z</time>
      </trkpt>
      <trkpt lat="47.27315" lon="-1.37194">
        <ele>52</ele>
        <time>2020-05-24T12:07:35.000Z</time>
      </trkpt>
      <trkpt lat="47.27319" lon="-1.37213">
        <ele>52</ele>
        <time>2020-05-24T12:07:37.000Z</time>
      </trkpt>
      <trkpt lat="47.27323" lon="-1.37231">
        <ele>52</ele>
        <time>2020-05-24T12:07:39.000Z</time>
      </trkpt>
      <trkpt lat="47.27327" lon="-1.37249">
        <ele>52</ele>
        <time>2020-05-24T12:07:41.000Z</time>
      </trkpt>
      <trkpt lat="47.27332" lon="-1.37268">
        <ele>52</ele>
        <time>2020-05-24T12:07:43.000Z</time>
      </trkpt>
      <trkpt lat="47.27336" lon="-1.37285">
        <ele>52</ele>
        <time>2020-05-24T12:07:45.000Z</time>
      </trkpt>
      <trkpt lat="47.2734" lon="-1.37305">
        <ele>51</ele>
        <time>2020-05-24T12:07:47.000Z</time>
      </trkpt>
      <trkpt lat="47.27345" lon="-1.37323">
        <ele>52</ele>
        <time>2020-05-24T12:07:49.000Z</time>
      </trkpt>
      <trkpt lat="47.27349" lon="-1.37342">
        <ele>51</ele>
        <time>2020-05-24T12:07:51.000Z</time>
      </trkpt>
      <trkpt lat="47.27354" lon="-1.3736">
        <ele>52</ele>
        <time>2020-05-24T12:07:53.000Z</time>
      </trkpt>
      <trkpt lat="47.27359" lon="-1.37378">
        <ele>52</ele>
        <time>2020-05-24T12:07:55.000Z</time>
      </trkpt>
      <trkpt lat="47.27364" lon="-1.37396">
        <ele>52</ele>
        <time>2020-05-24T12:07:57.000Z</time>
      </trkpt>
      <trkpt lat="47.27369" lon="-1.37414">
        <ele>52</ele>
        <time>2020-05-24T12:07:59.000Z</time>
      </trkpt>
      <trkpt lat="47.27374" lon="-1.37432">
        <ele>52</ele>
        <time>2020-05-24T12:08:01.000Z</time>
      </trkpt>
      <trkpt lat="47.27378" lon="-1.3745">
        <ele>52</ele>
        <time>2020-05-24T12:08:03.000Z</time>
      </trkpt>
      <trkpt lat="47.27384" lon="-1.37468">
        <ele>52</ele>
        <time>2020-05-24T12:08:05.000Z</time>
      </trkpt>
      <trkpt lat="47.27388" lon="-1.37486">
        <ele>52</ele>
        <time>2020-05-24T12:08:07.000Z</time>
      </trkpt>
      <trkpt lat="47.27394" lon="-1.37504">
        <ele>52</ele>
        <time>2020-05-24T12:08:09.000Z</time>
      </trkpt>
      <trkpt lat="47.27399" lon="-1.37521">
        <ele>51</ele>
        <time>2020-05-24T12:08:11.000Z</time>
      </trkpt>
      <trkpt lat="47.27404" lon="-1.37538">
        <ele>51</ele>
        <time>2020-05-24T12:08:13.000Z</time>
      </trkpt>
      <trkpt lat="47.27409" lon="-1.37555">
        <ele>51</ele>
        <time>2020-05-24T12:08:15.000Z</time>
      </trkpt>
      <trkpt lat="47.27414" lon="-1.37571">
        <ele>51</ele>
        <time>2020-05-24T12:08:17.000Z</time>
      </trkpt>
      <trkpt lat="47.27419" lon="-1.37588">
        <ele>52</ele>
        <time>2020-05-24T12:08:19.000Z</time>
      </trkpt>
      <trkpt lat="47.27425" lon="-1.37604">
        <ele>52</ele>
        <time>2020-05-24T12:08:21.000Z</time>
      </trkpt>
      <trkpt lat="47.27432" lon="-1.3762">
        <ele>51</ele>
        <time>2020-05-24T12:08:23.000Z</time>
      </trkpt>
      <trkpt lat="47.27439" lon="-1.37636">
        <ele>51</ele>
        <time>2020-05-24T12:08:25.000Z</time>
      </trkpt>
      <trkpt lat="47.27447" lon="-1.3765">
        <ele>51</ele>
        <time>2020-05-24T12:08:27.000Z</time>
      </trkpt>
      <trkpt lat="47.27456" lon="-1.37663">
        <ele>51</ele>
        <time>2020-05-24T12:08:29.000Z</time>
      </trkpt>
      <trkpt lat="47.27466" lon="-1.37675">
        <ele>51</ele>
        <time>2020-05-24T12:08:31.000Z</time>
      </trkpt>
      <trkpt lat="47.27476" lon="-1.37685">
        <ele>51</ele>
        <time>2020-05-24T12:08:33.000Z</time>
      </trkpt>
      <trkpt lat="47.27487" lon="-1.37694">
        <ele>52</ele>
        <time>2020-05-24T12:08:35.000Z</time>
      </trkpt>
      <trkpt lat="47.27497" lon="-1.37703">
        <ele>52</ele>
        <time>2020-05-24T12:08:37.000Z</time>
      </trkpt>
      <trkpt lat="47.27507" lon="-1.37711">
        <ele>52</ele>
        <time>2020-05-24T12:08:39.000Z</time>
      </trkpt>
      <trkpt lat="47.27517" lon="-1.37719">
        <ele>52</ele>
        <time>2020-05-24T12:08:41.000Z</time>
      </trkpt>
      <trkpt lat="47.27527" lon="-1.37727">
        <ele>52</ele>
        <time>2020-05-24T12:08:43.000Z</time>
      </trkpt>
      <trkpt lat="47.27537" lon="-1.37735">
        <ele>52</ele>
        <time>2020-05-24T12:08:45.000Z</time>
      </trkpt>
      <trkpt lat="47.27547" lon="-1.37744">
        <ele>52</ele>
        <time>2020-05-24T12:08:47.000Z</time>
      </trkpt>
      <trkpt lat="47.27557" lon="-1.37752">
        <ele>52</ele>
        <time>2020-05-24T12:08:49.000Z</time>
      </trkpt>
      <trkpt lat="47.27567" lon="-1.37761">
        <ele>52</ele>
        <time>2020-05-24T12:08:51.000Z</time>
      </trkpt>
      <trkpt lat="47.27577" lon="-1.37769">
        <ele>52</ele>
        <time>2020-05-24T12:08:53.000Z</time>
      </trkpt>
      <trkpt lat="47.27587" lon="-1.37778">
        <ele>53</ele>
        <time>2020-05-24T12:08:55.000Z</time>
      </trkpt>
      <trkpt lat="47.27597" lon="-1.37787">
        <ele>53</ele>
        <time>2020-05-24T12:08:57.000Z</time>
      </trkpt>
      <trkpt lat="47.27608" lon="-1.37796">
        <ele>53</ele>
        <time>2020-05-24T12:08:59.000Z</time>
      </trkpt>
      <trkpt lat="47.27618" lon="-1.37805">
        <ele>53</ele>
        <time>2020-05-24T12:09:01.000Z</time>
      </trkpt>
      <trkpt lat="47.27629" lon="-1.37814">
        <ele>53</ele>
        <time>2020-05-24T12:09:03.000Z</time>
      </trkpt>
      <trkpt lat="47.2764" lon="-1.37823">
        <ele>52</ele>
        <time>2020-05-24T12:09:05.000Z</time>
      </trkpt>
      <trkpt lat="47.27651" lon="-1.37832">
        <ele>52</ele>
        <time>2020-05-24T12:09:07.000Z</time>
      </trkpt>
      <trkpt lat="47.27661" lon="-1.3784">
        <ele>53</ele>
        <time>2020-05-24T12:09:09.000Z</time>
      </trkpt>
      <trkpt lat="47.27671" lon="-1.37849">
        <ele>52</ele>
        <time>2020-05-24T12:09:11.000Z</time>
      </trkpt>
      <trkpt lat="47.27682" lon="-1.37857">
        <ele>52</ele>
        <time>2020-05-24T12:09:13.000Z</time>
      </trkpt>
      <trkpt lat="47.27692" lon="-1.37867">
        <ele>52</ele>
        <time>2020-05-24T12:09:15.000Z</time>
      </trkpt>
      <trkpt lat="47.27703" lon="-1.37875">
        <ele>52</ele>
        <time>2020-05-24T12:09:17.000Z</time>
      </trkpt>
      <trkpt lat="47.27714" lon="-1.37884">
        <ele>52</ele>
        <time>2020-05-24T12:09:19.000Z</time>
      </trkpt>
      <trkpt lat="47.27725" lon="-1.37893">
        <ele>52</ele>
        <time>2020-05-24T12:09:21.000Z</time>
      </trkpt>
      <trkpt lat="47.27735" lon="-1.37902">
        <ele>52</ele>
        <time>2020-05-24T12:09:23.000Z</time>
      </trkpt>
      <trkpt lat="47.27746" lon="-1.37911">
        <ele>52</ele>
        <time>2020-05-24T12:09:25.000Z</time>
      </trkpt>
      <trkpt lat="47.27757" lon="-1.3792">
        <ele>52</ele>
        <time>2020-05-24T12:09:27.000Z</time>
      </trkpt>
      <trkpt lat="47.27768" lon="-1.37929">
        <ele>52</ele>
        <time>2020-05-24T12:09:29.000Z</time>
      </trkpt>
      <trkpt lat="47.27778" lon="-1.37939">
        <ele>52</ele>
        <time>2020-05-24T12:09:31.000Z</time>
      </trkpt>
      <trkpt lat="47.27789" lon="-1.37947">
        <ele>52</ele>
        <time>2020-05-24T12:09:33.000Z</time>
      </trkpt>
      <trkpt lat="47.27799" lon="-1.37957">
        <ele>52</ele>
        <time>2020-05-24T12:09:35.000Z</time>
      </trkpt>
      <trkpt lat="47.2781" lon="-1.37965">
        <ele>52</ele>
        <time>2020-05-24T12:09:37.000Z</time>
      </trkpt>
      <trkpt lat="47.27821" lon="-1.37974">
        <ele>52</ele>
        <time>2020-05-24T12:09:39.000Z</time>
      </trkpt>
      <trkpt lat="47.27832" lon="-1.37983">
        <ele>53</ele>
        <time>2020-05-24T12:09:41.000Z</time>
      </trkpt>
      <trkpt lat="47.27843" lon="-1.37993">
        <ele>52</ele>
        <time>2020-05-24T12:09:43.000Z</time>
      </trkpt>
      <trkpt lat="47.27853" lon="-1.38004">
        <ele>53</ele>
        <time>2020-05-24T12:09:45.000Z</time>
      </trkpt>
      <trkpt lat="47.27862" lon="-1.38015">
        <ele>53</ele>
        <time>2020-05-24T12:09:47.000Z</time>
      </trkpt>
      <trkpt lat="47.2787" lon="-1.38027">
        <ele>53</ele>
        <time>2020-05-24T12:09:49.000Z</time>
      </trkpt>
      <trkpt lat="47.27879" lon="-1.38041">
        <ele>53</ele>
        <time>2020-05-24T12:09:51.000Z</time>
      </trkpt>
      <trkpt lat="47.27887" lon="-1.38054">
        <ele>53</ele>
        <time>2020-05-24T12:09:53.000Z</time>
      </trkpt>
      <trkpt lat="47.27894" lon="-1.38068">
        <ele>53</ele>
        <time>2020-05-24T12:09:55.000Z</time>
      </trkpt>
      <trkpt lat="47.27902" lon="-1.38083">
        <ele>53</ele>
        <time>2020-05-24T12:09:57.000Z</time>
      </trkpt>
      <trkpt lat="47.2791" lon="-1.38097">
        <ele>52</ele>
        <time>2020-05-24T12:09:59.000Z</time>
      </trkpt>
      <trkpt lat="47.27918" lon="-1.38111">
        <ele>53</ele>
        <time>2020-05-24T12:10:01.000Z</time>
      </trkpt>
      <trkpt lat="47.27926" lon="-1.38126">
        <ele>52</ele>
        <time>2020-05-24T12:10:03.000Z</time>
      </trkpt>
      <trkpt lat="47.27934" lon="-1.38141">
        <ele>52</ele>
        <time>2020-05-24T12:10:05.000Z</time>
      </trkpt>
      <trkpt lat="47.27941" lon="-1.38155">
        <ele>52</ele>
        <time>2020-05-24T12:10:07.000Z</time>
      </trkpt>
      <trkpt lat="47.27949" lon="-1.38169">
        <ele>52</ele>
        <time>2020-05-24T12:10:09.000Z</time>
      </trkpt>
      <trkpt lat="47.27956" lon="-1.38182">
        <ele>52</ele>
        <time>2020-05-24T12:10:11.000Z</time>
      </trkpt>
      <trkpt lat="47.27964" lon="-1.38196">
        <ele>52</ele>
        <time>2020-05-24T12:10:13.000Z</time>
      </trkpt>
      <trkpt lat="47.27972" lon="-1.38211">
        <ele>51</ele>
        <time>2020-05-24T12:10:15.000Z</time>
      </trkpt>
      <trkpt lat="47.2798" lon="-1.38225">
        <ele>52</ele>
        <time>2020-05-24T12:10:17.000Z</time>
      </trkpt>
      <trkpt lat="47.27987" lon="-1.38239">
        <ele>52</ele>
        <time>2020-05-24T12:10:19.000Z</time>
      </trkpt>
      <trkpt lat="47.27995" lon="-1.38253">
        <ele>52</ele>
        <time>2020-05-24T12:10:21.000Z</time>
      </trkpt>
      <trkpt lat="47.28002" lon="-1.38267">
        <ele>52</ele>
        <time>2020-05-24T12:10:23.000Z</time>
      </trkpt>
      <trkpt lat="47.28011" lon="-1.38279">
        <ele>53</ele>
        <time>2020-05-24T12:10:25.000Z</time>
      </trkpt>
      <trkpt lat="47.2802" lon="-1.38293">
        <ele>53</ele>
        <time>2020-05-24T12:10:27.000Z</time>
      </trkpt>
      <trkpt lat="47.28029" lon="-1.38305">
        <ele>53</ele>
        <time>2020-05-24T12:10:29.000Z</time>
      </trkpt>
      <trkpt lat="47.28038" lon="-1.38316">
        <ele>53</ele>
        <time>2020-05-24T12:10:31.000Z</time>
      </trkpt>
      <trkpt lat="47.28048" lon="-1.38327">
        <ele>53</ele>
        <time>2020-05-24T12:10:33.000Z</time>
      </trkpt>
      <trkpt lat="47.28058" lon="-1.38337">
        <ele>53</ele>
        <time>2020-05-24T12:10:35.000Z</time>
      </trkpt>
      <trkpt lat="47.28067" lon="-1.38348">
        <ele>53</ele>
        <time>2020-05-24T12:10:37.000Z</time>
      </trkpt>
      <trkpt lat="47.28077" lon="-1.38358">
        <ele>53</ele>
        <time>2020-05-24T12:10:39.000Z</time>
      </trkpt>
      <trkpt lat="47.28086" lon="-1.38368">
        <ele>53</ele>
        <time>2020-05-24T12:10:41.000Z</time>
      </trkpt>
      <trkpt lat="47.28095" lon="-1.38378">
        <ele>53</ele>
        <time>2020-05-24T12:10:43.000Z</time>
      </trkpt>
      <trkpt lat="47.28105" lon="-1.38388">
        <ele>53</ele>
        <time>2020-05-24T12:10:45.000Z</time>
      </trkpt>
      <trkpt lat="47.28114" lon="-1.38398">
        <ele>53</ele>
        <time>2020-05-24T12:10:47.000Z</time>
      </trkpt>
      <trkpt lat="47.28123" lon="-1.38409">
        <ele>53</ele>
        <time>2020-05-24T12:10:49.000Z</time>
      </trkpt>
      <trkpt lat="47.28131" lon="-1.38421">
        <ele>53</ele>
        <time>2020-05-24T12:10:51.000Z</time>
      </trkpt>
      <trkpt lat="47.28138" lon="-1.38434">
        <ele>53</ele>
        <time>2020-05-24T12:10:53.000Z</time>
      </trkpt>
      <trkpt lat="47.28145" lon="-1.38447">
        <ele>53</ele>
        <time>2020-05-24T12:10:55.000Z</time>
      </trkpt>
      <trkpt lat="47.28152" lon="-1.38461">
        <ele>54</ele>
        <time>2020-05-24T12:10:57.000Z</time>
      </trkpt>
      <trkpt lat="47.28157" lon="-1.38475">
        <ele>54</ele>
        <time>2020-05-24T12:10:59.000Z</time>
      </trkpt>
      <trkpt lat="47.28163" lon="-1.38489">
        <ele>54</ele>
        <time>2020-05-24T12:11:01.000Z</time>
      </trkpt>
      <trkpt lat="47.28168" lon="-1.38503">
        <ele>54</ele>
        <time>2020-05-24T12:11:03.000Z</time>
      </trkpt>
      <trkpt lat="47.28173" lon="-1.38517">
        <ele>55</ele>
        <time>2020-05-24T12:11:05.000Z</time>
      </trkpt>
      <trkpt lat="47.28178" lon="-1.3853">
        <ele>55</ele>
        <time>2020-05-24T12:11:07.000Z</time>
      </trkpt>
      <trkpt lat="47.28186" lon="-1.38543">
        <ele>56</ele>
        <time>2020-05-24T12:11:10.000Z</time>
      </trkpt>
      <trkpt lat="47.28189" lon="-1.3856">
        <ele>56</ele>
        <time>2020-05-24T12:11:13.000Z</time>
      </trkpt>
      <trkpt lat="47.28188" lon="-1.38578">
        <ele>57</ele>
        <time>2020-05-24T12:11:15.000Z</time>
      </trkpt>
      <trkpt lat="47.28186" lon="-1.38594">
        <ele>57</ele>
        <time>2020-05-24T12:11:17.000Z</time>
      </trkpt>
      <trkpt lat="47.28183" lon="-1.38612">
        <ele>57</ele>
        <time>2020-05-24T12:11:19.000Z</time>
      </trkpt>
      <trkpt lat="47.2818" lon="-1.38629">
        <ele>57</ele>
        <time>2020-05-24T12:11:21.000Z</time>
      </trkpt>
      <trkpt lat="47.28177" lon="-1.38645">
        <ele>57</ele>
        <time>2020-05-24T12:11:23.000Z</time>
      </trkpt>
      <trkpt lat="47.28173" lon="-1.38663">
        <ele>57</ele>
        <time>2020-05-24T12:11:25.000Z</time>
      </trkpt>
      <trkpt lat="47.28166" lon="-1.38678">
        <ele>57</ele>
        <time>2020-05-24T12:11:27.000Z</time>
      </trkpt>
      <trkpt lat="47.28157" lon="-1.3869">
        <ele>57</ele>
        <time>2020-05-24T12:11:29.000Z</time>
      </trkpt>
      <trkpt lat="47.28146" lon="-1.387">
        <ele>58</ele>
        <time>2020-05-24T12:11:31.000Z</time>
      </trkpt>
      <trkpt lat="47.28136" lon="-1.38711">
        <ele>58</ele>
        <time>2020-05-24T12:11:33.000Z</time>
      </trkpt>
      <trkpt lat="47.28125" lon="-1.38722">
        <ele>57</ele>
        <time>2020-05-24T12:11:35.000Z</time>
      </trkpt>
      <trkpt lat="47.28114" lon="-1.38732">
        <ele>57</ele>
        <time>2020-05-24T12:11:37.000Z</time>
      </trkpt>
      <trkpt lat="47.28103" lon="-1.38743">
        <ele>58</ele>
        <time>2020-05-24T12:11:39.000Z</time>
      </trkpt>
      <trkpt lat="47.28092" lon="-1.38754">
        <ele>57</ele>
        <time>2020-05-24T12:11:41.000Z</time>
      </trkpt>
      <trkpt lat="47.28081" lon="-1.38765">
        <ele>57</ele>
        <time>2020-05-24T12:11:43.000Z</time>
      </trkpt>
      <trkpt lat="47.2807" lon="-1.38775">
        <ele>57</ele>
        <time>2020-05-24T12:11:45.000Z</time>
      </trkpt>
      <trkpt lat="47.2806" lon="-1.38786">
        <ele>57</ele>
        <time>2020-05-24T12:11:47.000Z</time>
      </trkpt>
      <trkpt lat="47.28049" lon="-1.38795">
        <ele>57</ele>
        <time>2020-05-24T12:11:49.000Z</time>
      </trkpt>
      <trkpt lat="47.28039" lon="-1.38806">
        <ele>57</ele>
        <time>2020-05-24T12:11:51.000Z</time>
      </trkpt>
      <trkpt lat="47.28028" lon="-1.38816">
        <ele>57</ele>
        <time>2020-05-24T12:11:53.000Z</time>
      </trkpt>
      <trkpt lat="47.28018" lon="-1.38827">
        <ele>57</ele>
        <time>2020-05-24T12:11:55.000Z</time>
      </trkpt>
      <trkpt lat="47.28008" lon="-1.38837">
        <ele>57</ele>
        <time>2020-05-24T12:11:57.000Z</time>
      </trkpt>
      <trkpt lat="47.27997" lon="-1.38848">
        <ele>57</ele>
        <time>2020-05-24T12:11:59.000Z</time>
      </trkpt>
      <trkpt lat="47.27987" lon="-1.3886">
        <ele>57</ele>
        <time>2020-05-24T12:12:01.000Z</time>
      </trkpt>
      <trkpt lat="47.27977" lon="-1.38872">
        <ele>57</ele>
        <time>2020-05-24T12:12:03.000Z</time>
      </trkpt>
      <trkpt lat="47.27968" lon="-1.38886">
        <ele>57</ele>
        <time>2020-05-24T12:12:05.000Z</time>
      </trkpt>
      <trkpt lat="47.27959" lon="-1.389">
        <ele>57</ele>
        <time>2020-05-24T12:12:07.000Z</time>
      </trkpt>
      <trkpt lat="47.27949" lon="-1.38914">
        <ele>57</ele>
        <time>2020-05-24T12:12:09.000Z</time>
      </trkpt>
      <trkpt lat="47.2794" lon="-1.38928">
        <ele>57</ele>
        <time>2020-05-24T12:12:11.000Z</time>
      </trkpt>
      <trkpt lat="47.2793" lon="-1.38941">
        <ele>57</ele>
        <time>2020-05-24T12:12:13.000Z</time>
      </trkpt>
      <trkpt lat="47.27921" lon="-1.38956">
        <ele>57</ele>
        <time>2020-05-24T12:12:15.000Z</time>
      </trkpt>
      <trkpt lat="47.27912" lon="-1.3897">
        <ele>57</ele>
        <time>2020-05-24T12:12:17.000Z</time>
      </trkpt>
      <trkpt lat="47.27904" lon="-1.38985">
        <ele>57</ele>
        <time>2020-05-24T12:12:19.000Z</time>
      </trkpt>
      <trkpt lat="47.27894" lon="-1.38999">
        <ele>57</ele>
        <time>2020-05-24T12:12:21.000Z</time>
      </trkpt>
      <trkpt lat="47.27885" lon="-1.39014">
        <ele>57</ele>
        <time>2020-05-24T12:12:23.000Z</time>
      </trkpt>
      <trkpt lat="47.27876" lon="-1.39029">
        <ele>57</ele>
        <time>2020-05-24T12:12:25.000Z</time>
      </trkpt>
      <trkpt lat="47.27868" lon="-1.39043">
        <ele>57</ele>
        <time>2020-05-24T12:12:27.000Z</time>
      </trkpt>
      <trkpt lat="47.27859" lon="-1.39059">
        <ele>57</ele>
        <time>2020-05-24T12:12:29.000Z</time>
      </trkpt>
      <trkpt lat="47.2785" lon="-1.39074">
        <ele>57</ele>
        <time>2020-05-24T12:12:31.000Z</time>
      </trkpt>
      <trkpt lat="47.27841" lon="-1.39089">
        <ele>57</ele>
        <time>2020-05-24T12:12:33.000Z</time>
      </trkpt>
      <trkpt lat="47.27831" lon="-1.39103">
        <ele>57</ele>
        <time>2020-05-24T12:12:35.000Z</time>
      </trkpt>
      <trkpt lat="47.27822" lon="-1.39117">
        <ele>57</ele>
        <time>2020-05-24T12:12:37.000Z</time>
      </trkpt>
      <trkpt lat="47.27813" lon="-1.39133">
        <ele>57</ele>
        <time>2020-05-24T12:12:39.000Z</time>
      </trkpt>
      <trkpt lat="47.27804" lon="-1.39148">
        <ele>57</ele>
        <time>2020-05-24T12:12:41.000Z</time>
      </trkpt>
      <trkpt lat="47.27795" lon="-1.39163">
        <ele>57</ele>
        <time>2020-05-24T12:12:43.000Z</time>
      </trkpt>
      <trkpt lat="47.27786" lon="-1.39178">
        <ele>57</ele>
        <time>2020-05-24T12:12:45.000Z</time>
      </trkpt>
      <trkpt lat="47.27778" lon="-1.39193">
        <ele>57</ele>
        <time>2020-05-24T12:12:47.000Z</time>
      </trkpt>
      <trkpt lat="47.2777" lon="-1.39208">
        <ele>57</ele>
        <time>2020-05-24T12:12:49.000Z</time>
      </trkpt>
      <trkpt lat="47.27762" lon="-1.39225">
        <ele>57</ele>
        <time>2020-05-24T12:12:51.000Z</time>
      </trkpt>
      <trkpt lat="47.27755" lon="-1.3924">
        <ele>57</ele>
        <time>2020-05-24T12:12:53.000Z</time>
      </trkpt>
      <trkpt lat="47.27747" lon="-1.39256">
        <ele>57</ele>
        <time>2020-05-24T12:12:55.000Z</time>
      </trkpt>
      <trkpt lat="47.27739" lon="-1.39272">
        <ele>57</ele>
        <time>2020-05-24T12:12:57.000Z</time>
      </trkpt>
      <trkpt lat="47.27732" lon="-1.39288">
        <ele>57</ele>
        <time>2020-05-24T12:12:59.000Z</time>
      </trkpt>
      <trkpt lat="47.27724" lon="-1.39306">
        <ele>57</ele>
        <time>2020-05-24T12:13:01.000Z</time>
      </trkpt>
      <trkpt lat="47.27716" lon="-1.39323">
        <ele>57</ele>
        <time>2020-05-24T12:13:03.000Z</time>
      </trkpt>
      <trkpt lat="47.27708" lon="-1.3934">
        <ele>57</ele>
        <time>2020-05-24T12:13:05.000Z</time>
      </trkpt>
      <trkpt lat="47.277" lon="-1.39356">
        <ele>57</ele>
        <time>2020-05-24T12:13:07.000Z</time>
      </trkpt>
      <trkpt lat="47.27693" lon="-1.39373">
        <ele>57</ele>
        <time>2020-05-24T12:13:09.000Z</time>
      </trkpt>
      <trkpt lat="47.27685" lon="-1.39389">
        <ele>57</ele>
        <time>2020-05-24T12:13:11.000Z</time>
      </trkpt>
      <trkpt lat="47.27678" lon="-1.39405">
        <ele>57</ele>
        <time>2020-05-24T12:13:13.000Z</time>
      </trkpt>
      <trkpt lat="47.2767" lon="-1.3942">
        <ele>57</ele>
        <time>2020-05-24T12:13:15.000Z</time>
      </trkpt>
      <trkpt lat="47.27661" lon="-1.39435">
        <ele>58</ele>
        <time>2020-05-24T12:13:17.000Z</time>
      </trkpt>
      <trkpt lat="47.27653" lon="-1.3945">
        <ele>58</ele>
        <time>2020-05-24T12:13:19.000Z</time>
      </trkpt>
      <trkpt lat="47.27644" lon="-1.39465">
        <ele>58</ele>
        <time>2020-05-24T12:13:21.000Z</time>
      </trkpt>
      <trkpt lat="47.27635" lon="-1.39479">
        <ele>58</ele>
        <time>2020-05-24T12:13:23.000Z</time>
      </trkpt>
      <trkpt lat="47.27626" lon="-1.39493">
        <ele>58</ele>
        <time>2020-05-24T12:13:25.000Z</time>
      </trkpt>
      <trkpt lat="47.27617" lon="-1.39507">
        <ele>58</ele>
        <time>2020-05-24T12:13:27.000Z</time>
      </trkpt>
      <trkpt lat="47.27607" lon="-1.39522">
        <ele>58</ele>
        <time>2020-05-24T12:13:29.000Z</time>
      </trkpt>
      <trkpt lat="47.27599" lon="-1.39535">
        <ele>58</ele>
        <time>2020-05-24T12:13:31.000Z</time>
      </trkpt>
      <trkpt lat="47.2759" lon="-1.3955">
        <ele>58</ele>
        <time>2020-05-24T12:13:33.000Z</time>
      </trkpt>
      <trkpt lat="47.27581" lon="-1.39563">
        <ele>58</ele>
        <time>2020-05-24T12:13:35.000Z</time>
      </trkpt>
      <trkpt lat="47.27572" lon="-1.39577">
        <ele>58</ele>
        <time>2020-05-24T12:13:37.000Z</time>
      </trkpt>
      <trkpt lat="47.27563" lon="-1.39591">
        <ele>58</ele>
        <time>2020-05-24T12:13:39.000Z</time>
      </trkpt>
      <trkpt lat="47.27553" lon="-1.39606">
        <ele>58</ele>
        <time>2020-05-24T12:13:41.000Z</time>
      </trkpt>
      <trkpt lat="47.27544" lon="-1.3962">
        <ele>58</ele>
        <time>2020-05-24T12:13:43.000Z</time>
      </trkpt>
      <trkpt lat="47.27536" lon="-1.39634">
        <ele>58</ele>
        <time>2020-05-24T12:13:45.000Z</time>
      </trkpt>
      <trkpt lat="47.27527" lon="-1.39648">
        <ele>58</ele>
        <time>2020-05-24T12:13:47.000Z</time>
      </trkpt>
      <trkpt lat="47.27518" lon="-1.39663">
        <ele>58</ele>
        <time>2020-05-24T12:13:49.000Z</time>
      </trkpt>
      <trkpt lat="47.27508" lon="-1.39677">
        <ele>58</ele>
        <time>2020-05-24T12:13:51.000Z</time>
      </trkpt>
      <trkpt lat="47.27499" lon="-1.39692">
        <ele>59</ele>
        <time>2020-05-24T12:13:53.000Z</time>
      </trkpt>
      <trkpt lat="47.2749" lon="-1.39706">
        <ele>58</ele>
        <time>2020-05-24T12:13:55.000Z</time>
      </trkpt>
      <trkpt lat="47.27481" lon="-1.3972">
        <ele>58</ele>
        <time>2020-05-24T12:13:57.000Z</time>
      </trkpt>
      <trkpt lat="47.27472" lon="-1.39735">
        <ele>58</ele>
        <time>2020-05-24T12:13:59.000Z</time>
      </trkpt>
      <trkpt lat="47.27462" lon="-1.39749">
        <ele>58</ele>
        <time>2020-05-24T12:14:01.000Z</time>
      </trkpt>
      <trkpt lat="47.27453" lon="-1.39764">
        <ele>58</ele>
        <time>2020-05-24T12:14:03.000Z</time>
      </trkpt>
      <trkpt lat="47.27444" lon="-1.39777">
        <ele>57</ele>
        <time>2020-05-24T12:14:05.000Z</time>
      </trkpt>
      <trkpt lat="47.27435" lon="-1.39791">
        <ele>57</ele>
        <time>2020-05-24T12:14:07.000Z</time>
      </trkpt>
      <trkpt lat="47.27427" lon="-1.39805">
        <ele>57</ele>
        <time>2020-05-24T12:14:09.000Z</time>
      </trkpt>
      <trkpt lat="47.27418" lon="-1.39818">
        <ele>57</ele>
        <time>2020-05-24T12:14:11.000Z</time>
      </trkpt>
      <trkpt lat="47.27409" lon="-1.39833">
        <ele>57</ele>
        <time>2020-05-24T12:14:13.000Z</time>
      </trkpt>
      <trkpt lat="47.274" lon="-1.39847">
        <ele>57</ele>
        <time>2020-05-24T12:14:15.000Z</time>
      </trkpt>
      <trkpt lat="47.27391" lon="-1.39862">
        <ele>57</ele>
        <time>2020-05-24T12:14:17.000Z</time>
      </trkpt>
      <trkpt lat="47.27382" lon="-1.39876">
        <ele>57</ele>
        <time>2020-05-24T12:14:19.000Z</time>
      </trkpt>
      <trkpt lat="47.27373" lon="-1.39891">
        <ele>57</ele>
        <time>2020-05-24T12:14:21.000Z</time>
      </trkpt>
      <trkpt lat="47.27364" lon="-1.39905">
        <ele>57</ele>
        <time>2020-05-24T12:14:23.000Z</time>
      </trkpt>
      <trkpt lat="47.27355" lon="-1.39918">
        <ele>57</ele>
        <time>2020-05-24T12:14:25.000Z</time>
      </trkpt>
      <trkpt lat="47.27346" lon="-1.39932">
        <ele>57</ele>
        <time>2020-05-24T12:14:27.000Z</time>
      </trkpt>
      <trkpt lat="47.27337" lon="-1.39947">
        <ele>58</ele>
        <time>2020-05-24T12:14:29.000Z</time>
      </trkpt>
      <trkpt lat="47.27328" lon="-1.3996">
        <ele>58</ele>
        <time>2020-05-24T12:14:31.000Z</time>
      </trkpt>
      <trkpt lat="47.2732" lon="-1.39974">
        <ele>58</ele>
        <time>2020-05-24T12:14:33.000Z</time>
      </trkpt>
      <trkpt lat="47.27311" lon="-1.39987">
        <ele>58</ele>
        <time>2020-05-24T12:14:35.000Z</time>
      </trkpt>
      <trkpt lat="47.27302" lon="-1.40001">
        <ele>58</ele>
        <time>2020-05-24T12:14:37.000Z</time>
      </trkpt>
      <trkpt lat="47.27293" lon="-1.40015">
        <ele>58</ele>
        <time>2020-05-24T12:14:39.000Z</time>
      </trkpt>
      <trkpt lat="47.27285" lon="-1.40029">
        <ele>58</ele>
        <time>2020-05-24T12:14:41.000Z</time>
      </trkpt>
      <trkpt lat="47.27276" lon="-1.40042">
        <ele>57</ele>
        <time>2020-05-24T12:14:43.000Z</time>
      </trkpt>
      <trkpt lat="47.27267" lon="-1.40055">
        <ele>57</ele>
        <time>2020-05-24T12:14:45.000Z</time>
      </trkpt>
      <trkpt lat="47.27259" lon="-1.40069">
        <ele>58</ele>
        <time>2020-05-24T12:14:47.000Z</time>
      </trkpt>
      <trkpt lat="47.2725" lon="-1.40082">
        <ele>57</ele>
        <time>2020-05-24T12:14:49.000Z</time>
      </trkpt>
      <trkpt lat="47.27242" lon="-1.40096">
        <ele>57</ele>
        <time>2020-05-24T12:14:51.000Z</time>
      </trkpt>
      <trkpt lat="47.27234" lon="-1.40109">
        <ele>57</ele>
        <time>2020-05-24T12:14:53.000Z</time>
      </trkpt>
      <trkpt lat="47.27226" lon="-1.40122">
        <ele>58</ele>
        <time>2020-05-24T12:14:55.000Z</time>
      </trkpt>
      <trkpt lat="47.27217" lon="-1.40136">
        <ele>58</ele>
        <time>2020-05-24T12:14:57.000Z</time>
      </trkpt>
      <trkpt lat="47.27208" lon="-1.40149">
        <ele>58</ele>
        <time>2020-05-24T12:14:59.000Z</time>
      </trkpt>
      <trkpt lat="47.27199" lon="-1.40163">
        <ele>58</ele>
        <time>2020-05-24T12:15:01.000Z</time>
      </trkpt>
      <trkpt lat="47.27191" lon="-1.40177">
        <ele>58</ele>
        <time>2020-05-24T12:15:03.000Z</time>
      </trkpt>
      <trkpt lat="47.27182" lon="-1.40191">
        <ele>58</ele>
        <time>2020-05-24T12:15:05.000Z</time>
      </trkpt>
      <trkpt lat="47.27173" lon="-1.40205">
        <ele>58</ele>
        <time>2020-05-24T12:15:07.000Z</time>
      </trkpt>
      <trkpt lat="47.27164" lon="-1.40218">
        <ele>58</ele>
        <time>2020-05-24T12:15:09.000Z</time>
      </trkpt>
      <trkpt lat="47.27156" lon="-1.40232">
        <ele>58</ele>
        <time>2020-05-24T12:15:11.000Z</time>
      </trkpt>
      <trkpt lat="47.27147" lon="-1.40246">
        <ele>58</ele>
        <time>2020-05-24T12:15:13.000Z</time>
      </trkpt>
      <trkpt lat="47.27138" lon="-1.4026">
        <ele>58</ele>
        <time>2020-05-24T12:15:15.000Z</time>
      </trkpt>
      <trkpt lat="47.27129" lon="-1.40274">
        <ele>59</ele>
        <time>2020-05-24T12:15:17.000Z</time>
      </trkpt>
      <trkpt lat="47.27121" lon="-1.40288">
        <ele>59</ele>
        <time>2020-05-24T12:15:19.000Z</time>
      </trkpt>
      <trkpt lat="47.27112" lon="-1.40301">
        <ele>59</ele>
        <time>2020-05-24T12:15:21.000Z</time>
      </trkpt>
      <trkpt lat="47.27103" lon="-1.40316">
        <ele>59</ele>
        <time>2020-05-24T12:15:23.000Z</time>
      </trkpt>
      <trkpt lat="47.27093" lon="-1.4033">
        <ele>58</ele>
        <time>2020-05-24T12:15:25.000Z</time>
      </trkpt>
      <trkpt lat="47.27084" lon="-1.40345">
        <ele>58</ele>
        <time>2020-05-24T12:15:27.000Z</time>
      </trkpt>
      <trkpt lat="47.27075" lon="-1.40359">
        <ele>57</ele>
        <time>2020-05-24T12:15:29.000Z</time>
      </trkpt>
      <trkpt lat="47.27066" lon="-1.40373">
        <ele>57</ele>
        <time>2020-05-24T12:15:31.000Z</time>
      </trkpt>
      <trkpt lat="47.27057" lon="-1.40387">
        <ele>57</ele>
        <time>2020-05-24T12:15:33.000Z</time>
      </trkpt>
      <trkpt lat="47.27048" lon="-1.40401">
        <ele>57</ele>
        <time>2020-05-24T12:15:35.000Z</time>
      </trkpt>
      <trkpt lat="47.2704" lon="-1.40415">
        <ele>57</ele>
        <time>2020-05-24T12:15:37.000Z</time>
      </trkpt>
      <trkpt lat="47.27031" lon="-1.40429">
        <ele>57</ele>
        <time>2020-05-24T12:15:39.000Z</time>
      </trkpt>
      <trkpt lat="47.27022" lon="-1.40442">
        <ele>57</ele>
        <time>2020-05-24T12:15:41.000Z</time>
      </trkpt>
      <trkpt lat="47.27013" lon="-1.40456">
        <ele>57</ele>
        <time>2020-05-24T12:15:43.000Z</time>
      </trkpt>
      <trkpt lat="47.27004" lon="-1.40471">
        <ele>57</ele>
        <time>2020-05-24T12:15:45.000Z</time>
      </trkpt>
      <trkpt lat="47.26995" lon="-1.40486">
        <ele>57</ele>
        <time>2020-05-24T12:15:47.000Z</time>
      </trkpt>
      <trkpt lat="47.26985" lon="-1.405">
        <ele>57</ele>
        <time>2020-05-24T12:15:49.000Z</time>
      </trkpt>
      <trkpt lat="47.26976" lon="-1.40514">
        <ele>57</ele>
        <time>2020-05-24T12:15:51.000Z</time>
      </trkpt>
      <trkpt lat="47.26967" lon="-1.40529">
        <ele>57</ele>
        <time>2020-05-24T12:15:53.000Z</time>
      </trkpt>
      <trkpt lat="47.26959" lon="-1.40545">
        <ele>57</ele>
        <time>2020-05-24T12:15:55.000Z</time>
      </trkpt>
      <trkpt lat="47.26952" lon="-1.40562">
        <ele>57</ele>
        <time>2020-05-24T12:15:57.000Z</time>
      </trkpt>
      <trkpt lat="47.26945" lon="-1.40581">
        <ele>58</ele>
        <time>2020-05-24T12:15:59.000Z</time>
      </trkpt>
      <trkpt lat="47.26941" lon="-1.40601">
        <ele>57</ele>
        <time>2020-05-24T12:16:01.000Z</time>
      </trkpt>
      <trkpt lat="47.26937" lon="-1.40621">
        <ele>58</ele>
        <time>2020-05-24T12:16:03.000Z</time>
      </trkpt>
      <trkpt lat="47.26933" lon="-1.40642">
        <ele>58</ele>
        <time>2020-05-24T12:16:05.000Z</time>
      </trkpt>
      <trkpt lat="47.26928" lon="-1.40661">
        <ele>58</ele>
        <time>2020-05-24T12:16:07.000Z</time>
      </trkpt>
      <trkpt lat="47.26925" lon="-1.4068">
        <ele>58</ele>
        <time>2020-05-24T12:16:09.000Z</time>
      </trkpt>
      <trkpt lat="47.26924" lon="-1.407">
        <ele>58</ele>
        <time>2020-05-24T12:16:11.000Z</time>
      </trkpt>
      <trkpt lat="47.26925" lon="-1.40721">
        <ele>57</ele>
        <time>2020-05-24T12:16:13.000Z</time>
      </trkpt>
      <trkpt lat="47.26926" lon="-1.40741">
        <ele>57</ele>
        <time>2020-05-24T12:16:15.000Z</time>
      </trkpt>
      <trkpt lat="47.26926" lon="-1.40761">
        <ele>57</ele>
        <time>2020-05-24T12:16:17.000Z</time>
      </trkpt>
      <trkpt lat="47.26923" lon="-1.40782">
        <ele>57</ele>
        <time>2020-05-24T12:16:19.000Z</time>
      </trkpt>
      <trkpt lat="47.26917" lon="-1.40798">
        <ele>57</ele>
        <time>2020-05-24T12:16:21.000Z</time>
      </trkpt>
      <trkpt lat="47.26908" lon="-1.40814">
        <ele>57</ele>
        <time>2020-05-24T12:16:23.000Z</time>
      </trkpt>
      <trkpt lat="47.26899" lon="-1.40828">
        <ele>57</ele>
        <time>2020-05-24T12:16:25.000Z</time>
      </trkpt>
      <trkpt lat="47.2689" lon="-1.40843">
        <ele>58</ele>
        <time>2020-05-24T12:16:27.000Z</time>
      </trkpt>
      <trkpt lat="47.2688" lon="-1.40858">
        <ele>58</ele>
        <time>2020-05-24T12:16:29.000Z</time>
      </trkpt>
      <trkpt lat="47.26871" lon="-1.40872">
        <ele>58</ele>
        <time>2020-05-24T12:16:31.000Z</time>
      </trkpt>
      <trkpt lat="47.26863" lon="-1.40887">
        <ele>58</ele>
        <time>2020-05-24T12:16:33.000Z</time>
      </trkpt>
      <trkpt lat="47.26853" lon="-1.40902">
        <ele>58</ele>
        <time>2020-05-24T12:16:35.000Z</time>
      </trkpt>
      <trkpt lat="47.26844" lon="-1.40917">
        <ele>58</ele>
        <time>2020-05-24T12:16:37.000Z</time>
      </trkpt>
      <trkpt lat="47.26835" lon="-1.40932">
        <ele>59</ele>
        <time>2020-05-24T12:16:39.000Z</time>
      </trkpt>
      <trkpt lat="47.26826" lon="-1.40947">
        <ele>58</ele>
        <time>2020-05-24T12:16:41.000Z</time>
      </trkpt>
      <trkpt lat="47.26818" lon="-1.40963">
        <ele>58</ele>
        <time>2020-05-24T12:16:43.000Z</time>
      </trkpt>
      <trkpt lat="47.26811" lon="-1.40979">
        <ele>58</ele>
        <time>2020-05-24T12:16:45.000Z</time>
      </trkpt>
      <trkpt lat="47.26803" lon="-1.40997">
        <ele>58</ele>
        <time>2020-05-24T12:16:47.000Z</time>
      </trkpt>
      <trkpt lat="47.26797" lon="-1.41015">
        <ele>57</ele>
        <time>2020-05-24T12:16:49.000Z</time>
      </trkpt>
      <trkpt lat="47.2679" lon="-1.41032">
        <ele>57</ele>
        <time>2020-05-24T12:16:51.000Z</time>
      </trkpt>
      <trkpt lat="47.26784" lon="-1.4105">
        <ele>57</ele>
        <time>2020-05-24T12:16:53.000Z</time>
      </trkpt>
      <trkpt lat="47.26777" lon="-1.41068">
        <ele>58</ele>
        <time>2020-05-24T12:16:55.000Z</time>
      </trkpt>
      <trkpt lat="47.26771" lon="-1.41085">
        <ele>57</ele>
        <time>2020-05-24T12:16:57.000Z</time>
      </trkpt>
      <trkpt lat="47.26764" lon="-1.41103">
        <ele>57</ele>
        <time>2020-05-24T12:16:59.000Z</time>
      </trkpt>
      <trkpt lat="47.26757" lon="-1.41118">
        <ele>57</ele>
        <time>2020-05-24T12:17:01.000Z</time>
      </trkpt>
      <trkpt lat="47.26747" lon="-1.41133">
        <ele>57</ele>
        <time>2020-05-24T12:17:03.000Z</time>
      </trkpt>
      <trkpt lat="47.26737" lon="-1.41146">
        <ele>57</ele>
        <time>2020-05-24T12:17:05.000Z</time>
      </trkpt>
      <trkpt lat="47.26726" lon="-1.41158">
        <ele>57</ele>
        <time>2020-05-24T12:17:07.000Z</time>
      </trkpt>
      <trkpt lat="47.26716" lon="-1.4117">
        <ele>57</ele>
        <time>2020-05-24T12:17:09.000Z</time>
      </trkpt>
      <trkpt lat="47.26705" lon="-1.41182">
        <ele>57</ele>
        <time>2020-05-24T12:17:11.000Z</time>
      </trkpt>
      <trkpt lat="47.26694" lon="-1.41194">
        <ele>56</ele>
        <time>2020-05-24T12:17:13.000Z</time>
      </trkpt>
      <trkpt lat="47.26684" lon="-1.41206">
        <ele>56</ele>
        <time>2020-05-24T12:17:15.000Z</time>
      </trkpt>
      <trkpt lat="47.26674" lon="-1.41219">
        <ele>56</ele>
        <time>2020-05-24T12:17:17.000Z</time>
      </trkpt>
      <trkpt lat="47.26664" lon="-1.41231">
        <ele>57</ele>
        <time>2020-05-24T12:17:19.000Z</time>
      </trkpt>
      <trkpt lat="47.26655" lon="-1.41245">
        <ele>56</ele>
        <time>2020-05-24T12:17:21.000Z</time>
      </trkpt>
      <trkpt lat="47.26646" lon="-1.41259">
        <ele>57</ele>
        <time>2020-05-24T12:17:23.000Z</time>
      </trkpt>
      <trkpt lat="47.26637" lon="-1.41273">
        <ele>57</ele>
        <time>2020-05-24T12:17:25.000Z</time>
      </trkpt>
      <trkpt lat="47.26629" lon="-1.41287">
        <ele>57</ele>
        <time>2020-05-24T12:17:27.000Z</time>
      </trkpt>
      <trkpt lat="47.2662" lon="-1.41301">
        <ele>57</ele>
        <time>2020-05-24T12:17:29.000Z</time>
      </trkpt>
      <trkpt lat="47.26612" lon="-1.41317">
        <ele>57</ele>
        <time>2020-05-24T12:17:31.000Z</time>
      </trkpt>
      <trkpt lat="47.26604" lon="-1.41332">
        <ele>57</ele>
        <time>2020-05-24T12:17:33.000Z</time>
      </trkpt>
      <trkpt lat="47.26597" lon="-1.41349">
        <ele>58</ele>
        <time>2020-05-24T12:17:35.000Z</time>
      </trkpt>
      <trkpt lat="47.2659" lon="-1.41367">
        <ele>57</ele>
        <time>2020-05-24T12:17:37.000Z</time>
      </trkpt>
      <trkpt lat="47.26584" lon="-1.41384">
        <ele>57</ele>
        <time>2020-05-24T12:17:39.000Z</time>
      </trkpt>
      <trkpt lat="47.26577" lon="-1.414">
        <ele>57</ele>
        <time>2020-05-24T12:17:41.000Z</time>
      </trkpt>
      <trkpt lat="47.2657" lon="-1.41416">
        <ele>57</ele>
        <time>2020-05-24T12:17:43.000Z</time>
      </trkpt>
      <trkpt lat="47.26562" lon="-1.41432">
        <ele>57</ele>
        <time>2020-05-24T12:17:45.000Z</time>
      </trkpt>
      <trkpt lat="47.26553" lon="-1.41447">
        <ele>58</ele>
        <time>2020-05-24T12:17:47.000Z</time>
      </trkpt>
      <trkpt lat="47.26545" lon="-1.41461">
        <ele>58</ele>
        <time>2020-05-24T12:17:49.000Z</time>
      </trkpt>
      <trkpt lat="47.26536" lon="-1.41476">
        <ele>57</ele>
        <time>2020-05-24T12:17:51.000Z</time>
      </trkpt>
      <trkpt lat="47.26528" lon="-1.4149">
        <ele>57</ele>
        <time>2020-05-24T12:17:53.000Z</time>
      </trkpt>
      <trkpt lat="47.26519" lon="-1.41505">
        <ele>57</ele>
        <time>2020-05-24T12:17:55.000Z</time>
      </trkpt>
      <trkpt lat="47.2651" lon="-1.41519">
        <ele>57</ele>
        <time>2020-05-24T12:17:57.000Z</time>
      </trkpt>
      <trkpt lat="47.26502" lon="-1.41535">
        <ele>56</ele>
        <time>2020-05-24T12:17:59.000Z</time>
      </trkpt>
      <trkpt lat="47.26493" lon="-1.4155">
        <ele>56</ele>
        <time>2020-05-24T12:18:01.000Z</time>
      </trkpt>
      <trkpt lat="47.26484" lon="-1.41565">
        <ele>56</ele>
        <time>2020-05-24T12:18:03.000Z</time>
      </trkpt>
      <trkpt lat="47.26476" lon="-1.4158">
        <ele>56</ele>
        <time>2020-05-24T12:18:05.000Z</time>
      </trkpt>
      <trkpt lat="47.26467" lon="-1.41594">
        <ele>57</ele>
        <time>2020-05-24T12:18:07.000Z</time>
      </trkpt>
      <trkpt lat="47.26459" lon="-1.41609">
        <ele>57</ele>
        <time>2020-05-24T12:18:09.000Z</time>
      </trkpt>
      <trkpt lat="47.2645" lon="-1.41624">
        <ele>57</ele>
        <time>2020-05-24T12:18:11.000Z</time>
      </trkpt>
      <trkpt lat="47.26442" lon="-1.41639">
        <ele>57</ele>
        <time>2020-05-24T12:18:13.000Z</time>
      </trkpt>
      <trkpt lat="47.26433" lon="-1.41653">
        <ele>57</ele>
        <time>2020-05-24T12:18:15.000Z</time>
      </trkpt>
      <trkpt lat="47.26425" lon="-1.41668">
        <ele>57</ele>
        <time>2020-05-24T12:18:17.000Z</time>
      </trkpt>
      <trkpt lat="47.26416" lon="-1.41682">
        <ele>57</ele>
        <time>2020-05-24T12:18:19.000Z</time>
      </trkpt>
      <trkpt lat="47.26408" lon="-1.41696">
        <ele>57</ele>
        <time>2020-05-24T12:18:21.000Z</time>
      </trkpt>
      <trkpt lat="47.264" lon="-1.41711">
        <ele>57</ele>
        <time>2020-05-24T12:18:23.000Z</time>
      </trkpt>
      <trkpt lat="47.26391" lon="-1.41726">
        <ele>57</ele>
        <time>2020-05-24T12:18:25.000Z</time>
      </trkpt>
      <trkpt lat="47.26382" lon="-1.41741">
        <ele>57</ele>
        <time>2020-05-24T12:18:27.000Z</time>
      </trkpt>
      <trkpt lat="47.26374" lon="-1.41756">
        <ele>58</ele>
        <time>2020-05-24T12:18:29.000Z</time>
      </trkpt>
      <trkpt lat="47.26365" lon="-1.4177">
        <ele>57</ele>
        <time>2020-05-24T12:18:31.000Z</time>
      </trkpt>
      <trkpt lat="47.26357" lon="-1.41784">
        <ele>57</ele>
        <time>2020-05-24T12:18:33.000Z</time>
      </trkpt>
      <trkpt lat="47.26348" lon="-1.41798">
        <ele>57</ele>
        <time>2020-05-24T12:18:35.000Z</time>
      </trkpt>
      <trkpt lat="47.26339" lon="-1.41813">
        <ele>57</ele>
        <time>2020-05-24T12:18:37.000Z</time>
      </trkpt>
      <trkpt lat="47.26331" lon="-1.41829">
        <ele>57</ele>
        <time>2020-05-24T12:18:39.000Z</time>
      </trkpt>
      <trkpt lat="47.26323" lon="-1.41843">
        <ele>57</ele>
        <time>2020-05-24T12:18:41.000Z</time>
      </trkpt>
      <trkpt lat="47.26314" lon="-1.41858">
        <ele>58</ele>
        <time>2020-05-24T12:18:43.000Z</time>
      </trkpt>
      <trkpt lat="47.26306" lon="-1.41872">
        <ele>57</ele>
        <time>2020-05-24T12:18:45.000Z</time>
      </trkpt>
      <trkpt lat="47.26297" lon="-1.41887">
        <ele>57</ele>
        <time>2020-05-24T12:18:47.000Z</time>
      </trkpt>
      <trkpt lat="47.26288" lon="-1.41902">
        <ele>57</ele>
        <time>2020-05-24T12:18:49.000Z</time>
      </trkpt>
      <trkpt lat="47.2628" lon="-1.41917">
        <ele>57</ele>
        <time>2020-05-24T12:18:51.000Z</time>
      </trkpt>
      <trkpt lat="47.26271" lon="-1.41931">
        <ele>57</ele>
        <time>2020-05-24T12:18:53.000Z</time>
      </trkpt>
      <trkpt lat="47.26263" lon="-1.41946">
        <ele>57</ele>
        <time>2020-05-24T12:18:55.000Z</time>
      </trkpt>
      <trkpt lat="47.26255" lon="-1.4196">
        <ele>57</ele>
        <time>2020-05-24T12:18:57.000Z</time>
      </trkpt>
      <trkpt lat="47.26246" lon="-1.41975">
        <ele>57</ele>
        <time>2020-05-24T12:18:59.000Z</time>
      </trkpt>
      <trkpt lat="47.26238" lon="-1.41989">
        <ele>57</ele>
        <time>2020-05-24T12:19:01.000Z</time>
      </trkpt>
      <trkpt lat="47.2623" lon="-1.42004">
        <ele>57</ele>
        <time>2020-05-24T12:19:03.000Z</time>
      </trkpt>
      <trkpt lat="47.26222" lon="-1.42019">
        <ele>57</ele>
        <time>2020-05-24T12:19:05.000Z</time>
      </trkpt>
      <trkpt lat="47.26213" lon="-1.42034">
        <ele>58</ele>
        <time>2020-05-24T12:19:07.000Z</time>
      </trkpt>
      <trkpt lat="47.26204" lon="-1.42048">
        <ele>58</ele>
        <time>2020-05-24T12:19:09.000Z</time>
      </trkpt>
      <trkpt lat="47.26195" lon="-1.42063">
        <ele>58</ele>
        <time>2020-05-24T12:19:11.000Z</time>
      </trkpt>
      <trkpt lat="47.26186" lon="-1.42078">
        <ele>58</ele>
        <time>2020-05-24T12:19:13.000Z</time>
      </trkpt>
      <trkpt lat="47.26178" lon="-1.42093">
        <ele>57</ele>
        <time>2020-05-24T12:19:15.000Z</time>
      </trkpt>
      <trkpt lat="47.26169" lon="-1.42108">
        <ele>57</ele>
        <time>2020-05-24T12:19:17.000Z</time>
      </trkpt>
      <trkpt lat="47.2616" lon="-1.42123">
        <ele>57</ele>
        <time>2020-05-24T12:19:19.000Z</time>
      </trkpt>
      <trkpt lat="47.26151" lon="-1.42138">
        <ele>58</ele>
        <time>2020-05-24T12:19:21.000Z</time>
      </trkpt>
      <trkpt lat="47.26143" lon="-1.42153">
        <ele>58</ele>
        <time>2020-05-24T12:19:23.000Z</time>
      </trkpt>
      <trkpt lat="47.26134" lon="-1.42167">
        <ele>58</ele>
        <time>2020-05-24T12:19:25.000Z</time>
      </trkpt>
      <trkpt lat="47.26124" lon="-1.42182">
        <ele>58</ele>
        <time>2020-05-24T12:19:27.000Z</time>
      </trkpt>
      <trkpt lat="47.26114" lon="-1.42195">
        <ele>58</ele>
        <time>2020-05-24T12:19:29.000Z</time>
      </trkpt>
      <trkpt lat="47.26104" lon="-1.42207">
        <ele>58</ele>
        <time>2020-05-24T12:19:31.000Z</time>
      </trkpt>
      <trkpt lat="47.26093" lon="-1.4222">
        <ele>58</ele>
        <time>2020-05-24T12:19:33.000Z</time>
      </trkpt>
      <trkpt lat="47.26083" lon="-1.42233">
        <ele>58</ele>
        <time>2020-05-24T12:19:35.000Z</time>
      </trkpt>
      <trkpt lat="47.26073" lon="-1.42246">
        <ele>58</ele>
        <time>2020-05-24T12:19:37.000Z</time>
      </trkpt>
      <trkpt lat="47.26063" lon="-1.42259">
        <ele>58</ele>
        <time>2020-05-24T12:19:39.000Z</time>
      </trkpt>
      <trkpt lat="47.26053" lon="-1.42272">
        <ele>57</ele>
        <time>2020-05-24T12:19:41.000Z</time>
      </trkpt>
      <trkpt lat="47.26044" lon="-1.42285">
        <ele>57</ele>
        <time>2020-05-24T12:19:43.000Z</time>
      </trkpt>
      <trkpt lat="47.26033" lon="-1.42298">
        <ele>57</ele>
        <time>2020-05-24T12:19:45.000Z</time>
      </trkpt>
      <trkpt lat="47.26023" lon="-1.42311">
        <ele>57</ele>
        <time>2020-05-24T12:19:47.000Z</time>
      </trkpt>
      <trkpt lat="47.26013" lon="-1.42324">
        <ele>57</ele>
        <time>2020-05-24T12:19:49.000Z</time>
      </trkpt>
      <trkpt lat="47.26003" lon="-1.42336">
        <ele>57</ele>
        <time>2020-05-24T12:19:51.000Z</time>
      </trkpt>
      <trkpt lat="47.25994" lon="-1.4235">
        <ele>57</ele>
        <time>2020-05-24T12:19:53.000Z</time>
      </trkpt>
      <trkpt lat="47.25984" lon="-1.42362">
        <ele>57</ele>
        <time>2020-05-24T12:19:55.000Z</time>
      </trkpt>
      <trkpt lat="47.25974" lon="-1.42375">
        <ele>57</ele>
        <time>2020-05-24T12:19:57.000Z</time>
      </trkpt>
      <trkpt lat="47.25964" lon="-1.42388">
        <ele>57</ele>
        <time>2020-05-24T12:19:59.000Z</time>
      </trkpt>
      <trkpt lat="47.25954" lon="-1.42401">
        <ele>57</ele>
        <time>2020-05-24T12:20:01.000Z</time>
      </trkpt>
      <trkpt lat="47.25945" lon="-1.42413">
        <ele>57</ele>
        <time>2020-05-24T12:20:03.000Z</time>
      </trkpt>
      <trkpt lat="47.25935" lon="-1.42426">
        <ele>57</ele>
        <time>2020-05-24T12:20:05.000Z</time>
      </trkpt>
      <trkpt lat="47.25925" lon="-1.42439">
        <ele>57</ele>
        <time>2020-05-24T12:20:07.000Z</time>
      </trkpt>
      <trkpt lat="47.25914" lon="-1.42452">
        <ele>57</ele>
        <time>2020-05-24T12:20:09.000Z</time>
      </trkpt>
      <trkpt lat="47.25903" lon="-1.42464">
        <ele>57</ele>
        <time>2020-05-24T12:20:11.000Z</time>
      </trkpt>
      <trkpt lat="47.25891" lon="-1.42476">
        <ele>56</ele>
        <time>2020-05-24T12:20:13.000Z</time>
      </trkpt>
      <trkpt lat="47.2588" lon="-1.42487">
        <ele>56</ele>
        <time>2020-05-24T12:20:15.000Z</time>
      </trkpt>
      <trkpt lat="47.25868" lon="-1.42497">
        <ele>57</ele>
        <time>2020-05-24T12:20:17.000Z</time>
      </trkpt>
      <trkpt lat="47.25856" lon="-1.42506">
        <ele>57</ele>
        <time>2020-05-24T12:20:19.000Z</time>
      </trkpt>
      <trkpt lat="47.25845" lon="-1.42516">
        <ele>57</ele>
        <time>2020-05-24T12:20:21.000Z</time>
      </trkpt>
      <trkpt lat="47.25833" lon="-1.42525">
        <ele>56</ele>
        <time>2020-05-24T12:20:23.000Z</time>
      </trkpt>
      <trkpt lat="47.25821" lon="-1.42534">
        <ele>56</ele>
        <time>2020-05-24T12:20:25.000Z</time>
      </trkpt>
      <trkpt lat="47.25809" lon="-1.42543">
        <ele>56</ele>
        <time>2020-05-24T12:20:27.000Z</time>
      </trkpt>
      <trkpt lat="47.25798" lon="-1.42552">
        <ele>56</ele>
        <time>2020-05-24T12:20:29.000Z</time>
      </trkpt>
      <trkpt lat="47.25786" lon="-1.42562">
        <ele>57</ele>
        <time>2020-05-24T12:20:31.000Z</time>
      </trkpt>
      <trkpt lat="47.25774" lon="-1.42572">
        <ele>56</ele>
        <time>2020-05-24T12:20:33.000Z</time>
      </trkpt>
      <trkpt lat="47.25762" lon="-1.42581">
        <ele>56</ele>
        <time>2020-05-24T12:20:35.000Z</time>
      </trkpt>
      <trkpt lat="47.25752" lon="-1.42591">
        <ele>57</ele>
        <time>2020-05-24T12:20:37.000Z</time>
      </trkpt>
      <trkpt lat="47.25742" lon="-1.42602">
        <ele>57</ele>
        <time>2020-05-24T12:20:39.000Z</time>
      </trkpt>
      <trkpt lat="47.25734" lon="-1.42614">
        <ele>57</ele>
        <time>2020-05-24T12:20:41.000Z</time>
      </trkpt>
      <trkpt lat="47.25734" lon="-1.4263">
        <ele>58</ele>
        <time>2020-05-24T12:20:43.000Z</time>
      </trkpt>
      <trkpt lat="47.25741" lon="-1.42646">
        <ele>58</ele>
        <time>2020-05-24T12:20:45.000Z</time>
      </trkpt>
      <trkpt lat="47.25748" lon="-1.42661">
        <ele>59</ele>
        <time>2020-05-24T12:20:47.000Z</time>
      </trkpt>
      <trkpt lat="47.25755" lon="-1.42677">
        <ele>59</ele>
        <time>2020-05-24T12:20:49.000Z</time>
      </trkpt>
      <trkpt lat="47.25762" lon="-1.42694">
        <ele>59</ele>
        <time>2020-05-24T12:20:51.000Z</time>
      </trkpt>
      <trkpt lat="47.25769" lon="-1.4271">
        <ele>60</ele>
        <time>2020-05-24T12:20:53.000Z</time>
      </trkpt>
      <trkpt lat="47.25776" lon="-1.42727">
        <ele>61</ele>
        <time>2020-05-24T12:20:55.000Z</time>
      </trkpt>
      <trkpt lat="47.25783" lon="-1.42744">
        <ele>60</ele>
        <time>2020-05-24T12:20:57.000Z</time>
      </trkpt>
      <trkpt lat="47.25791" lon="-1.42761">
        <ele>61</ele>
        <time>2020-05-24T12:20:59.000Z</time>
      </trkpt>
      <trkpt lat="47.25798" lon="-1.42778">
        <ele>61</ele>
        <time>2020-05-24T12:21:01.000Z</time>
      </trkpt>
      <trkpt lat="47.25804" lon="-1.42794">
        <ele>62</ele>
        <time>2020-05-24T12:21:03.000Z</time>
      </trkpt>
      <trkpt lat="47.2581" lon="-1.4281">
        <ele>62</ele>
        <time>2020-05-24T12:21:05.000Z</time>
      </trkpt>
      <trkpt lat="47.25817" lon="-1.42827">
        <ele>63</ele>
        <time>2020-05-24T12:21:07.000Z</time>
      </trkpt>
      <trkpt lat="47.25823" lon="-1.42843">
        <ele>62</ele>
        <time>2020-05-24T12:21:09.000Z</time>
      </trkpt>
      <trkpt lat="47.25829" lon="-1.42858">
        <ele>62</ele>
        <time>2020-05-24T12:21:11.000Z</time>
      </trkpt>
      <trkpt lat="47.25836" lon="-1.42872">
        <ele>63</ele>
        <time>2020-05-24T12:21:13.000Z</time>
      </trkpt>
      <trkpt lat="47.25842" lon="-1.42886">
        <ele>63</ele>
        <time>2020-05-24T12:21:15.000Z</time>
      </trkpt>
      <trkpt lat="47.25849" lon="-1.42902">
        <ele>63</ele>
        <time>2020-05-24T12:21:17.000Z</time>
      </trkpt>
      <trkpt lat="47.25857" lon="-1.42923">
        <ele>62</ele>
        <time>2020-05-24T12:21:19.000Z</time>
      </trkpt>
      <trkpt lat="47.25864" lon="-1.42942">
        <ele>61</ele>
        <time>2020-05-24T12:21:21.000Z</time>
      </trkpt>
      <trkpt lat="47.25872" lon="-1.42962">
        <ele>60</ele>
        <time>2020-05-24T12:21:23.000Z</time>
      </trkpt>
      <trkpt lat="47.2588" lon="-1.42982">
        <ele>59</ele>
        <time>2020-05-24T12:21:25.000Z</time>
      </trkpt>
      <trkpt lat="47.25888" lon="-1.43004">
        <ele>59</ele>
        <time>2020-05-24T12:21:27.000Z</time>
      </trkpt>
      <trkpt lat="47.25897" lon="-1.43024">
        <ele>58</ele>
        <time>2020-05-24T12:21:29.000Z</time>
      </trkpt>
      <trkpt lat="47.25905" lon="-1.43044">
        <ele>57</ele>
        <time>2020-05-24T12:21:31.000Z</time>
      </trkpt>
      <trkpt lat="47.25913" lon="-1.43063">
        <ele>56</ele>
        <time>2020-05-24T12:21:33.000Z</time>
      </trkpt>
      <trkpt lat="47.2592" lon="-1.43082">
        <ele>56</ele>
        <time>2020-05-24T12:21:35.000Z</time>
      </trkpt>
      <trkpt lat="47.25928" lon="-1.43099">
        <ele>56</ele>
        <time>2020-05-24T12:21:37.000Z</time>
      </trkpt>
      <trkpt lat="47.25936" lon="-1.43116">
        <ele>56</ele>
        <time>2020-05-24T12:21:39.000Z</time>
      </trkpt>
      <trkpt lat="47.25946" lon="-1.43131">
        <ele>56</ele>
        <time>2020-05-24T12:21:41.000Z</time>
      </trkpt>
      <trkpt lat="47.25955" lon="-1.43145">
        <ele>56</ele>
        <time>2020-05-24T12:21:43.000Z</time>
      </trkpt>
      <trkpt lat="47.25964" lon="-1.43158">
        <ele>56</ele>
        <time>2020-05-24T12:21:45.000Z</time>
      </trkpt>
      <trkpt lat="47.25973" lon="-1.43172">
        <ele>56</ele>
        <time>2020-05-24T12:21:47.000Z</time>
      </trkpt>
      <trkpt lat="47.25981" lon="-1.43185">
        <ele>56</ele>
        <time>2020-05-24T12:21:49.000Z</time>
      </trkpt>
      <trkpt lat="47.2599" lon="-1.43198">
        <ele>57</ele>
        <time>2020-05-24T12:21:51.000Z</time>
      </trkpt>
      <trkpt lat="47.25999" lon="-1.4321">
        <ele>58</ele>
        <time>2020-05-24T12:21:53.000Z</time>
      </trkpt>
      <trkpt lat="47.26007" lon="-1.43222">
        <ele>59</ele>
        <time>2020-05-24T12:21:55.000Z</time>
      </trkpt>
      <trkpt lat="47.26015" lon="-1.43234">
        <ele>59</ele>
        <time>2020-05-24T12:21:57.000Z</time>
      </trkpt>
      <trkpt lat="47.26025" lon="-1.43247">
        <ele>59</ele>
        <time>2020-05-24T12:21:59.000Z</time>
      </trkpt>
      <trkpt lat="47.26033" lon="-1.43259">
        <ele>60</ele>
        <time>2020-05-24T12:22:01.000Z</time>
      </trkpt>
      <trkpt lat="47.26042" lon="-1.43271">
        <ele>60</ele>
        <time>2020-05-24T12:22:03.000Z</time>
      </trkpt>
      <trkpt lat="47.26051" lon="-1.43284">
        <ele>59</ele>
        <time>2020-05-24T12:22:05.000Z</time>
      </trkpt>
      <trkpt lat="47.26059" lon="-1.43297">
        <ele>61</ele>
        <time>2020-05-24T12:22:07.000Z</time>
      </trkpt>
      <trkpt lat="47.26068" lon="-1.43309">
        <ele>62</ele>
        <time>2020-05-24T12:22:09.000Z</time>
      </trkpt>
      <trkpt lat="47.26077" lon="-1.43321">
        <ele>62</ele>
        <time>2020-05-24T12:22:11.000Z</time>
      </trkpt>
      <trkpt lat="47.26086" lon="-1.43332">
        <ele>62</ele>
        <time>2020-05-24T12:22:13.000Z</time>
      </trkpt>
      <trkpt lat="47.26095" lon="-1.43346">
        <ele>62</ele>
        <time>2020-05-24T12:22:15.000Z</time>
      </trkpt>
      <trkpt lat="47.26104" lon="-1.43358">
        <ele>63</ele>
        <time>2020-05-24T12:22:17.000Z</time>
      </trkpt>
      <trkpt lat="47.26113" lon="-1.43371">
        <ele>64</ele>
        <time>2020-05-24T12:22:19.000Z</time>
      </trkpt>
      <trkpt lat="47.26124" lon="-1.43385">
        <ele>64</ele>
        <time>2020-05-24T12:22:21.000Z</time>
      </trkpt>
      <trkpt lat="47.26134" lon="-1.43399">
        <ele>64</ele>
        <time>2020-05-24T12:22:23.000Z</time>
      </trkpt>
      <trkpt lat="47.26143" lon="-1.43414">
        <ele>63</ele>
        <time>2020-05-24T12:22:25.000Z</time>
      </trkpt>
      <trkpt lat="47.26154" lon="-1.43428">
        <ele>63</ele>
        <time>2020-05-24T12:22:27.000Z</time>
      </trkpt>
      <trkpt lat="47.26164" lon="-1.43443">
        <ele>64</ele>
        <time>2020-05-24T12:22:29.000Z</time>
      </trkpt>
      <trkpt lat="47.26173" lon="-1.43457">
        <ele>64</ele>
        <time>2020-05-24T12:22:31.000Z</time>
      </trkpt>
      <trkpt lat="47.26183" lon="-1.43472">
        <ele>65</ele>
        <time>2020-05-24T12:22:33.000Z</time>
      </trkpt>
      <trkpt lat="47.26195" lon="-1.43489">
        <ele>65</ele>
        <time>2020-05-24T12:22:35.000Z</time>
      </trkpt>
      <trkpt lat="47.26205" lon="-1.43503">
        <ele>64</ele>
        <time>2020-05-24T12:22:37.000Z</time>
      </trkpt>
      <trkpt lat="47.26216" lon="-1.43517">
        <ele>63</ele>
        <time>2020-05-24T12:22:39.000Z</time>
      </trkpt>
      <trkpt lat="47.26225" lon="-1.4353">
        <ele>63</ele>
        <time>2020-05-24T12:22:41.000Z</time>
      </trkpt>
      <trkpt lat="47.26233" lon="-1.43543">
        <ele>63</ele>
        <time>2020-05-24T12:22:43.000Z</time>
      </trkpt>
      <trkpt lat="47.26233" lon="-1.43561">
        <ele>61</ele>
        <time>2020-05-24T12:22:45.000Z</time>
      </trkpt>
      <trkpt lat="47.26224" lon="-1.43577">
        <ele>59</ele>
        <time>2020-05-24T12:22:47.000Z</time>
      </trkpt>
      <trkpt lat="47.26214" lon="-1.43592">
        <ele>58</ele>
        <time>2020-05-24T12:22:49.000Z</time>
      </trkpt>
      <trkpt lat="47.26203" lon="-1.43606">
        <ele>56</ele>
        <time>2020-05-24T12:22:51.000Z</time>
      </trkpt>
      <trkpt lat="47.26192" lon="-1.43621">
        <ele>56</ele>
        <time>2020-05-24T12:22:53.000Z</time>
      </trkpt>
      <trkpt lat="47.26181" lon="-1.43635">
        <ele>56</ele>
        <time>2020-05-24T12:22:55.000Z</time>
      </trkpt>
      <trkpt lat="47.2617" lon="-1.43651">
        <ele>56</ele>
        <time>2020-05-24T12:22:57.000Z</time>
      </trkpt>
      <trkpt lat="47.26161" lon="-1.43666">
        <ele>56</ele>
        <time>2020-05-24T12:22:59.000Z</time>
      </trkpt>
      <trkpt lat="47.26151" lon="-1.43682">
        <ele>57</ele>
        <time>2020-05-24T12:23:01.000Z</time>
      </trkpt>
      <trkpt lat="47.26142" lon="-1.43697">
        <ele>57</ele>
        <time>2020-05-24T12:23:03.000Z</time>
      </trkpt>
      <trkpt lat="47.26132" lon="-1.43711">
        <ele>57</ele>
        <time>2020-05-24T12:23:05.000Z</time>
      </trkpt>
      <trkpt lat="47.26123" lon="-1.43725">
        <ele>58</ele>
        <time>2020-05-24T12:23:07.000Z</time>
      </trkpt>
      <trkpt lat="47.26114" lon="-1.43739">
        <ele>59</ele>
        <time>2020-05-24T12:23:09.000Z</time>
      </trkpt>
      <trkpt lat="47.26104" lon="-1.43751">
        <ele>58</ele>
        <time>2020-05-24T12:23:11.000Z</time>
      </trkpt>
      <trkpt lat="47.26094" lon="-1.43764">
        <ele>59</ele>
        <time>2020-05-24T12:23:13.000Z</time>
      </trkpt>
      <trkpt lat="47.26084" lon="-1.43777">
        <ele>59</ele>
        <time>2020-05-24T12:23:15.000Z</time>
      </trkpt>
      <trkpt lat="47.26073" lon="-1.43791">
        <ele>58</ele>
        <time>2020-05-24T12:23:17.000Z</time>
      </trkpt>
      <trkpt lat="47.26062" lon="-1.43805">
        <ele>58</ele>
        <time>2020-05-24T12:23:19.000Z</time>
      </trkpt>
      <trkpt lat="47.26052" lon="-1.4382">
        <ele>59</ele>
        <time>2020-05-24T12:23:21.000Z</time>
      </trkpt>
      <trkpt lat="47.26045" lon="-1.43836">
        <ele>59</ele>
        <time>2020-05-24T12:23:23.000Z</time>
      </trkpt>
      <trkpt lat="47.26037" lon="-1.43854">
        <ele>59</ele>
        <time>2020-05-24T12:23:25.000Z</time>
      </trkpt>
      <trkpt lat="47.26026" lon="-1.43866">
        <ele>58</ele>
        <time>2020-05-24T12:23:27.000Z</time>
      </trkpt>
      <trkpt lat="47.26014" lon="-1.43877">
        <ele>58</ele>
        <time>2020-05-24T12:23:29.000Z</time>
      </trkpt>
      <trkpt lat="47.26002" lon="-1.43889">
        <ele>58</ele>
        <time>2020-05-24T12:23:31.000Z</time>
      </trkpt>
      <trkpt lat="47.2599" lon="-1.439">
        <ele>58</ele>
        <time>2020-05-24T12:23:33.000Z</time>
      </trkpt>
      <trkpt lat="47.25979" lon="-1.43913">
        <ele>58</ele>
        <time>2020-05-24T12:23:35.000Z</time>
      </trkpt>
      <trkpt lat="47.25969" lon="-1.43927">
        <ele>58</ele>
        <time>2020-05-24T12:23:37.000Z</time>
      </trkpt>
      <trkpt lat="47.25958" lon="-1.4394">
        <ele>58</ele>
        <time>2020-05-24T12:23:39.000Z</time>
      </trkpt>
      <trkpt lat="47.25949" lon="-1.43952">
        <ele>58</ele>
        <time>2020-05-24T12:23:41.000Z</time>
      </trkpt>
      <trkpt lat="47.25939" lon="-1.43964">
        <ele>58</ele>
        <time>2020-05-24T12:23:43.000Z</time>
      </trkpt>
      <trkpt lat="47.25928" lon="-1.43976">
        <ele>58</ele>
        <time>2020-05-24T12:23:45.000Z</time>
      </trkpt>
      <trkpt lat="47.25917" lon="-1.43988">
        <ele>58</ele>
        <time>2020-05-24T12:23:47.000Z</time>
      </trkpt>
      <trkpt lat="47.25906" lon="-1.44001">
        <ele>58</ele>
        <time>2020-05-24T12:23:49.000Z</time>
      </trkpt>
      <trkpt lat="47.25893" lon="-1.44014">
        <ele>58</ele>
        <time>2020-05-24T12:23:51.000Z</time>
      </trkpt>
      <trkpt lat="47.25881" lon="-1.44029">
        <ele>59</ele>
        <time>2020-05-24T12:23:53.000Z</time>
      </trkpt>
      <trkpt lat="47.25874" lon="-1.44045">
        <ele>59</ele>
        <time>2020-05-24T12:23:55.000Z</time>
      </trkpt>
      <trkpt lat="47.25867" lon="-1.44067">
        <ele>59</ele>
        <time>2020-05-24T12:23:57.000Z</time>
      </trkpt>
      <trkpt lat="47.25858" lon="-1.44084">
        <ele>58</ele>
        <time>2020-05-24T12:23:59.000Z</time>
      </trkpt>
      <trkpt lat="47.25848" lon="-1.44098">
        <ele>58</ele>
        <time>2020-05-24T12:24:01.000Z</time>
      </trkpt>
      <trkpt lat="47.25836" lon="-1.44111">
        <ele>57</ele>
        <time>2020-05-24T12:24:03.000Z</time>
      </trkpt>
      <trkpt lat="47.25824" lon="-1.44124">
        <ele>58</ele>
        <time>2020-05-24T12:24:05.000Z</time>
      </trkpt>
      <trkpt lat="47.25813" lon="-1.44137">
        <ele>57</ele>
        <time>2020-05-24T12:24:07.000Z</time>
      </trkpt>
      <trkpt lat="47.25802" lon="-1.44149">
        <ele>57</ele>
        <time>2020-05-24T12:24:09.000Z</time>
      </trkpt>
      <trkpt lat="47.25791" lon="-1.44164">
        <ele>57</ele>
        <time>2020-05-24T12:24:11.000Z</time>
      </trkpt>
      <trkpt lat="47.2578" lon="-1.44178">
        <ele>57</ele>
        <time>2020-05-24T12:24:13.000Z</time>
      </trkpt>
      <trkpt lat="47.25768" lon="-1.44191">
        <ele>58</ele>
        <time>2020-05-24T12:24:15.000Z</time>
      </trkpt>
      <trkpt lat="47.25757" lon="-1.44205">
        <ele>58</ele>
        <time>2020-05-24T12:24:17.000Z</time>
      </trkpt>
      <trkpt lat="47.25747" lon="-1.44219">
        <ele>58</ele>
        <time>2020-05-24T12:24:19.000Z</time>
      </trkpt>
      <trkpt lat="47.25738" lon="-1.44233">
        <ele>59</ele>
        <time>2020-05-24T12:24:21.000Z</time>
      </trkpt>
      <trkpt lat="47.25728" lon="-1.44246">
        <ele>59</ele>
        <time>2020-05-24T12:24:23.000Z</time>
      </trkpt>
      <trkpt lat="47.25718" lon="-1.44259">
        <ele>58</ele>
        <time>2020-05-24T12:24:25.000Z</time>
      </trkpt>
      <trkpt lat="47.25707" lon="-1.44272">
        <ele>58</ele>
        <time>2020-05-24T12:24:27.000Z</time>
      </trkpt>
      <trkpt lat="47.25697" lon="-1.44284">
        <ele>58</ele>
        <time>2020-05-24T12:24:29.000Z</time>
      </trkpt>
      <trkpt lat="47.25686" lon="-1.44297">
        <ele>58</ele>
        <time>2020-05-24T12:24:31.000Z</time>
      </trkpt>
      <trkpt lat="47.25676" lon="-1.4431">
        <ele>58</ele>
        <time>2020-05-24T12:24:33.000Z</time>
      </trkpt>
      <trkpt lat="47.25666" lon="-1.44324">
        <ele>58</ele>
        <time>2020-05-24T12:24:35.000Z</time>
      </trkpt>
      <trkpt lat="47.25656" lon="-1.44336">
        <ele>58</ele>
        <time>2020-05-24T12:24:37.000Z</time>
      </trkpt>
      <trkpt lat="47.25645" lon="-1.44349">
        <ele>58</ele>
        <time>2020-05-24T12:24:39.000Z</time>
      </trkpt>
      <trkpt lat="47.25633" lon="-1.44361">
        <ele>57</ele>
        <time>2020-05-24T12:24:41.000Z</time>
      </trkpt>
      <trkpt lat="47.25622" lon="-1.44373">
        <ele>57</ele>
        <time>2020-05-24T12:24:43.000Z</time>
      </trkpt>
      <trkpt lat="47.2561" lon="-1.44386">
        <ele>57</ele>
        <time>2020-05-24T12:24:45.000Z</time>
      </trkpt>
      <trkpt lat="47.256" lon="-1.44398">
        <ele>58</ele>
        <time>2020-05-24T12:24:47.000Z</time>
      </trkpt>
      <trkpt lat="47.25589" lon="-1.4441">
        <ele>57</ele>
        <time>2020-05-24T12:24:49.000Z</time>
      </trkpt>
      <trkpt lat="47.25579" lon="-1.44422">
        <ele>58</ele>
        <time>2020-05-24T12:24:51.000Z</time>
      </trkpt>
      <trkpt lat="47.25568" lon="-1.44436">
        <ele>57</ele>
        <time>2020-05-24T12:24:53.000Z</time>
      </trkpt>
      <trkpt lat="47.25558" lon="-1.4445">
        <ele>58</ele>
        <time>2020-05-24T12:24:55.000Z</time>
      </trkpt>
      <trkpt lat="47.25547" lon="-1.44465">
        <ele>57</ele>
        <time>2020-05-24T12:24:57.000Z</time>
      </trkpt>
      <trkpt lat="47.25537" lon="-1.44479">
        <ele>58</ele>
        <time>2020-05-24T12:24:59.000Z</time>
      </trkpt>
      <trkpt lat="47.25527" lon="-1.44495">
        <ele>57</ele>
        <time>2020-05-24T12:25:01.000Z</time>
      </trkpt>
      <trkpt lat="47.25516" lon="-1.44511">
        <ele>56</ele>
        <time>2020-05-24T12:25:03.000Z</time>
      </trkpt>
      <trkpt lat="47.25506" lon="-1.44525">
        <ele>55</ele>
        <time>2020-05-24T12:25:05.000Z</time>
      </trkpt>
      <trkpt lat="47.25496" lon="-1.44539">
        <ele>55</ele>
        <time>2020-05-24T12:25:07.000Z</time>
      </trkpt>
      <trkpt lat="47.25487" lon="-1.44554">
        <ele>55</ele>
        <time>2020-05-24T12:25:09.000Z</time>
      </trkpt>
      <trkpt lat="47.25478" lon="-1.44568">
        <ele>55</ele>
        <time>2020-05-24T12:25:11.000Z</time>
      </trkpt>
      <trkpt lat="47.25468" lon="-1.44583">
        <ele>55</ele>
        <time>2020-05-24T12:25:13.000Z</time>
      </trkpt>
      <trkpt lat="47.25458" lon="-1.44597">
        <ele>55</ele>
        <time>2020-05-24T12:25:15.000Z</time>
      </trkpt>
      <trkpt lat="47.25449" lon="-1.4461">
        <ele>56</ele>
        <time>2020-05-24T12:25:17.000Z</time>
      </trkpt>
      <trkpt lat="47.25439" lon="-1.44624">
        <ele>56</ele>
        <time>2020-05-24T12:25:19.000Z</time>
      </trkpt>
      <trkpt lat="47.25428" lon="-1.44637">
        <ele>56</ele>
        <time>2020-05-24T12:25:21.000Z</time>
      </trkpt>
      <trkpt lat="47.25419" lon="-1.4465">
        <ele>55</ele>
        <time>2020-05-24T12:25:23.000Z</time>
      </trkpt>
      <trkpt lat="47.25409" lon="-1.44664">
        <ele>55</ele>
        <time>2020-05-24T12:25:25.000Z</time>
      </trkpt>
      <trkpt lat="47.25399" lon="-1.44677">
        <ele>56</ele>
        <time>2020-05-24T12:25:27.000Z</time>
      </trkpt>
      <trkpt lat="47.25389" lon="-1.44692">
        <ele>55</ele>
        <time>2020-05-24T12:25:29.000Z</time>
      </trkpt>
      <trkpt lat="47.25379" lon="-1.44706">
        <ele>56</ele>
        <time>2020-05-24T12:25:31.000Z</time>
      </trkpt>
      <trkpt lat="47.25367" lon="-1.44717">
        <ele>57</ele>
        <time>2020-05-24T12:25:33.000Z</time>
      </trkpt>
      <trkpt lat="47.25356" lon="-1.4473">
        <ele>57</ele>
        <time>2020-05-24T12:25:35.000Z</time>
      </trkpt>
      <trkpt lat="47.25344" lon="-1.44742">
        <ele>56</ele>
        <time>2020-05-24T12:25:37.000Z</time>
      </trkpt>
      <trkpt lat="47.25332" lon="-1.44754">
        <ele>56</ele>
        <time>2020-05-24T12:25:39.000Z</time>
      </trkpt>
      <trkpt lat="47.25321" lon="-1.44766">
        <ele>56</ele>
        <time>2020-05-24T12:25:41.000Z</time>
      </trkpt>
      <trkpt lat="47.25309" lon="-1.44778">
        <ele>56</ele>
        <time>2020-05-24T12:25:43.000Z</time>
      </trkpt>
      <trkpt lat="47.25297" lon="-1.44791">
        <ele>56</ele>
        <time>2020-05-24T12:25:45.000Z</time>
      </trkpt>
      <trkpt lat="47.25287" lon="-1.44803">
        <ele>57</ele>
        <time>2020-05-24T12:25:47.000Z</time>
      </trkpt>
      <trkpt lat="47.25275" lon="-1.44815">
        <ele>57</ele>
        <time>2020-05-24T12:25:49.000Z</time>
      </trkpt>
      <trkpt lat="47.25265" lon="-1.4483">
        <ele>57</ele>
        <time>2020-05-24T12:25:51.000Z</time>
      </trkpt>
      <trkpt lat="47.25254" lon="-1.44842">
        <ele>57</ele>
        <time>2020-05-24T12:25:53.000Z</time>
      </trkpt>
      <trkpt lat="47.25242" lon="-1.44854">
        <ele>58</ele>
        <time>2020-05-24T12:25:55.000Z</time>
      </trkpt>
      <trkpt lat="47.25231" lon="-1.44866">
        <ele>58</ele>
        <time>2020-05-24T12:25:57.000Z</time>
      </trkpt>
      <trkpt lat="47.25219" lon="-1.44876">
        <ele>58</ele>
        <time>2020-05-24T12:25:59.000Z</time>
      </trkpt>
      <trkpt lat="47.25207" lon="-1.44886">
        <ele>58</ele>
        <time>2020-05-24T12:26:01.000Z</time>
      </trkpt>
      <trkpt lat="47.25195" lon="-1.44895">
        <ele>58</ele>
        <time>2020-05-24T12:26:03.000Z</time>
      </trkpt>
      <trkpt lat="47.25182" lon="-1.44905">
        <ele>58</ele>
        <time>2020-05-24T12:26:05.000Z</time>
      </trkpt>
      <trkpt lat="47.2517" lon="-1.44916">
        <ele>58</ele>
        <time>2020-05-24T12:26:07.000Z</time>
      </trkpt>
      <trkpt lat="47.25158" lon="-1.44926">
        <ele>57</ele>
        <time>2020-05-24T12:26:09.000Z</time>
      </trkpt>
      <trkpt lat="47.25145" lon="-1.44938">
        <ele>56</ele>
        <time>2020-05-24T12:26:11.000Z</time>
      </trkpt>
      <trkpt lat="47.25133" lon="-1.44949">
        <ele>56</ele>
        <time>2020-05-24T12:26:13.000Z</time>
      </trkpt>
      <trkpt lat="47.25122" lon="-1.4496">
        <ele>56</ele>
        <time>2020-05-24T12:26:15.000Z</time>
      </trkpt>
      <trkpt lat="47.2511" lon="-1.44971">
        <ele>56</ele>
        <time>2020-05-24T12:26:17.000Z</time>
      </trkpt>
      <trkpt lat="47.25098" lon="-1.44982">
        <ele>57</ele>
        <time>2020-05-24T12:26:19.000Z</time>
      </trkpt>
      <trkpt lat="47.25086" lon="-1.44991">
        <ele>58</ele>
        <time>2020-05-24T12:26:21.000Z</time>
      </trkpt>
      <trkpt lat="47.25074" lon="-1.45">
        <ele>58</ele>
        <time>2020-05-24T12:26:23.000Z</time>
      </trkpt>
      <trkpt lat="47.25062" lon="-1.4501">
        <ele>58</ele>
        <time>2020-05-24T12:26:25.000Z</time>
      </trkpt>
      <trkpt lat="47.25049" lon="-1.4502">
        <ele>58</ele>
        <time>2020-05-24T12:26:27.000Z</time>
      </trkpt>
      <trkpt lat="47.25037" lon="-1.4503">
        <ele>57</ele>
        <time>2020-05-24T12:26:29.000Z</time>
      </trkpt>
      <trkpt lat="47.25025" lon="-1.45041">
        <ele>57</ele>
        <time>2020-05-24T12:26:31.000Z</time>
      </trkpt>
      <trkpt lat="47.25012" lon="-1.45052">
        <ele>57</ele>
        <time>2020-05-24T12:26:33.000Z</time>
      </trkpt>
      <trkpt lat="47.25" lon="-1.45062">
        <ele>56</ele>
        <time>2020-05-24T12:26:35.000Z</time>
      </trkpt>
      <trkpt lat="47.24989" lon="-1.45075">
        <ele>56</ele>
        <time>2020-05-24T12:26:37.000Z</time>
      </trkpt>
      <trkpt lat="47.24979" lon="-1.45087">
        <ele>56</ele>
        <time>2020-05-24T12:26:39.000Z</time>
      </trkpt>
      <trkpt lat="47.24968" lon="-1.45099">
        <ele>56</ele>
        <time>2020-05-24T12:26:41.000Z</time>
      </trkpt>
      <trkpt lat="47.24958" lon="-1.45111">
        <ele>56</ele>
        <time>2020-05-24T12:26:43.000Z</time>
      </trkpt>
      <trkpt lat="47.24947" lon="-1.45122">
        <ele>56</ele>
        <time>2020-05-24T12:26:45.000Z</time>
      </trkpt>
      <trkpt lat="47.24936" lon="-1.45134">
        <ele>56</ele>
        <time>2020-05-24T12:26:47.000Z</time>
      </trkpt>
      <trkpt lat="47.24926" lon="-1.45145">
        <ele>57</ele>
        <time>2020-05-24T12:26:49.000Z</time>
      </trkpt>
      <trkpt lat="47.24916" lon="-1.45156">
        <ele>57</ele>
        <time>2020-05-24T12:26:51.000Z</time>
      </trkpt>
      <trkpt lat="47.24905" lon="-1.45168">
        <ele>58</ele>
        <time>2020-05-24T12:26:53.000Z</time>
      </trkpt>
      <trkpt lat="47.24895" lon="-1.45181">
        <ele>57</ele>
        <time>2020-05-24T12:26:55.000Z</time>
      </trkpt>
      <trkpt lat="47.24886" lon="-1.45192">
        <ele>58</ele>
        <time>2020-05-24T12:26:57.000Z</time>
      </trkpt>
      <trkpt lat="47.24877" lon="-1.45204">
        <ele>58</ele>
        <time>2020-05-24T12:26:59.000Z</time>
      </trkpt>
      <trkpt lat="47.24867" lon="-1.45217">
        <ele>57</ele>
        <time>2020-05-24T12:27:01.000Z</time>
      </trkpt>
      <trkpt lat="47.24858" lon="-1.45231">
        <ele>57</ele>
        <time>2020-05-24T12:27:03.000Z</time>
      </trkpt>
      <trkpt lat="47.24849" lon="-1.45244">
        <ele>58</ele>
        <time>2020-05-24T12:27:05.000Z</time>
      </trkpt>
      <trkpt lat="47.2484" lon="-1.45256">
        <ele>58</ele>
        <time>2020-05-24T12:27:07.000Z</time>
      </trkpt>
      <trkpt lat="47.24833" lon="-1.4527">
        <ele>57</ele>
        <time>2020-05-24T12:27:09.000Z</time>
      </trkpt>
      <trkpt lat="47.24826" lon="-1.45283">
        <ele>58</ele>
        <time>2020-05-24T12:27:12.000Z</time>
      </trkpt>
      <trkpt lat="47.2482" lon="-1.45299">
        <ele>58</ele>
        <time>2020-05-24T12:27:15.000Z</time>
      </trkpt>
      <trkpt lat="47.24812" lon="-1.45315">
        <ele>57</ele>
        <time>2020-05-24T12:27:17.000Z</time>
      </trkpt>
      <trkpt lat="47.24804" lon="-1.45331">
        <ele>58</ele>
        <time>2020-05-24T12:27:19.000Z</time>
      </trkpt>
      <trkpt lat="47.24797" lon="-1.45348">
        <ele>58</ele>
        <time>2020-05-24T12:27:21.000Z</time>
      </trkpt>
      <trkpt lat="47.24788" lon="-1.45365">
        <ele>57</ele>
        <time>2020-05-24T12:27:23.000Z</time>
      </trkpt>
      <trkpt lat="47.24782" lon="-1.45385">
        <ele>57</ele>
        <time>2020-05-24T12:27:25.000Z</time>
      </trkpt>
      <trkpt lat="47.24774" lon="-1.45403">
        <ele>57</ele>
        <time>2020-05-24T12:27:27.000Z</time>
      </trkpt>
      <trkpt lat="47.24767" lon="-1.4542">
        <ele>58</ele>
        <time>2020-05-24T12:27:29.000Z</time>
      </trkpt>
      <trkpt lat="47.24761" lon="-1.45437">
        <ele>58</ele>
        <time>2020-05-24T12:27:31.000Z</time>
      </trkpt>
      <trkpt lat="47.24755" lon="-1.45453">
        <ele>58</ele>
        <time>2020-05-24T12:27:33.000Z</time>
      </trkpt>
      <trkpt lat="47.24749" lon="-1.4547">
        <ele>59</ele>
        <time>2020-05-24T12:27:35.000Z</time>
      </trkpt>
      <trkpt lat="47.24743" lon="-1.45487">
        <ele>58</ele>
        <time>2020-05-24T12:27:37.000Z</time>
      </trkpt>
      <trkpt lat="47.24736" lon="-1.45503">
        <ele>57</ele>
        <time>2020-05-24T12:27:39.000Z</time>
      </trkpt>
      <trkpt lat="47.24729" lon="-1.4552">
        <ele>57</ele>
        <time>2020-05-24T12:27:41.000Z</time>
      </trkpt>
      <trkpt lat="47.24722" lon="-1.45537">
        <ele>57</ele>
        <time>2020-05-24T12:27:43.000Z</time>
      </trkpt>
      <trkpt lat="47.24715" lon="-1.45555">
        <ele>56</ele>
        <time>2020-05-24T12:27:45.000Z</time>
      </trkpt>
      <trkpt lat="47.2471" lon="-1.45573">
        <ele>56</ele>
        <time>2020-05-24T12:27:47.000Z</time>
      </trkpt>
      <trkpt lat="47.24704" lon="-1.45591">
        <ele>56</ele>
        <time>2020-05-24T12:27:49.000Z</time>
      </trkpt>
      <trkpt lat="47.24698" lon="-1.45609">
        <ele>55</ele>
        <time>2020-05-24T12:27:51.000Z</time>
      </trkpt>
      <trkpt lat="47.24693" lon="-1.45627">
        <ele>55</ele>
        <time>2020-05-24T12:27:53.000Z</time>
      </trkpt>
      <trkpt lat="47.24687" lon="-1.45644">
        <ele>55</ele>
        <time>2020-05-24T12:27:55.000Z</time>
      </trkpt>
      <trkpt lat="47.24681" lon="-1.45659">
        <ele>55</ele>
        <time>2020-05-24T12:27:57.000Z</time>
      </trkpt>
      <trkpt lat="47.24676" lon="-1.45676">
        <ele>55</ele>
        <time>2020-05-24T12:27:59.000Z</time>
      </trkpt>
      <trkpt lat="47.2467" lon="-1.45693">
        <ele>56</ele>
        <time>2020-05-24T12:28:01.000Z</time>
      </trkpt>
      <trkpt lat="47.24667" lon="-1.45713">
        <ele>57</ele>
        <time>2020-05-24T12:28:03.000Z</time>
      </trkpt>
      <trkpt lat="47.24664" lon="-1.45732">
        <ele>57</ele>
        <time>2020-05-24T12:28:05.000Z</time>
      </trkpt>
      <trkpt lat="47.24659" lon="-1.45751">
        <ele>57</ele>
        <time>2020-05-24T12:28:07.000Z</time>
      </trkpt>
      <trkpt lat="47.24654" lon="-1.4577">
        <ele>57</ele>
        <time>2020-05-24T12:28:09.000Z</time>
      </trkpt>
      <trkpt lat="47.2465" lon="-1.45788">
        <ele>56</ele>
        <time>2020-05-24T12:28:11.000Z</time>
      </trkpt>
      <trkpt lat="47.24646" lon="-1.45805">
        <ele>56</ele>
        <time>2020-05-24T12:28:13.000Z</time>
      </trkpt>
      <trkpt lat="47.24641" lon="-1.4582">
        <ele>57</ele>
        <time>2020-05-24T12:28:15.000Z</time>
      </trkpt>
      <trkpt lat="47.24635" lon="-1.45837">
        <ele>58</ele>
        <time>2020-05-24T12:28:17.000Z</time>
      </trkpt>
      <trkpt lat="47.24631" lon="-1.45855">
        <ele>58</ele>
        <time>2020-05-24T12:28:19.000Z</time>
      </trkpt>
      <trkpt lat="47.24627" lon="-1.45873">
        <ele>58</ele>
        <time>2020-05-24T12:28:21.000Z</time>
      </trkpt>
      <trkpt lat="47.24621" lon="-1.45891">
        <ele>59</ele>
        <time>2020-05-24T12:28:23.000Z</time>
      </trkpt>
      <trkpt lat="47.24615" lon="-1.45908">
        <ele>59</ele>
        <time>2020-05-24T12:28:25.000Z</time>
      </trkpt>
      <trkpt lat="47.2461" lon="-1.45927">
        <ele>59</ele>
        <time>2020-05-24T12:28:27.000Z</time>
      </trkpt>
      <trkpt lat="47.24603" lon="-1.45946">
        <ele>60</ele>
        <time>2020-05-24T12:28:29.000Z</time>
      </trkpt>
      <trkpt lat="47.24595" lon="-1.45963">
        <ele>59</ele>
        <time>2020-05-24T12:28:31.000Z</time>
      </trkpt>
      <trkpt lat="47.24587" lon="-1.45979">
        <ele>59</ele>
        <time>2020-05-24T12:28:33.000Z</time>
      </trkpt>
      <trkpt lat="47.24577" lon="-1.45997">
        <ele>59</ele>
        <time>2020-05-24T12:28:35.000Z</time>
      </trkpt>
      <trkpt lat="47.24568" lon="-1.46016">
        <ele>59</ele>
        <time>2020-05-24T12:28:37.000Z</time>
      </trkpt>
      <trkpt lat="47.24561" lon="-1.46035">
        <ele>59</ele>
        <time>2020-05-24T12:28:39.000Z</time>
      </trkpt>
      <trkpt lat="47.24551" lon="-1.46052">
        <ele>59</ele>
        <time>2020-05-24T12:28:41.000Z</time>
      </trkpt>
      <trkpt lat="47.24543" lon="-1.46068">
        <ele>59</ele>
        <time>2020-05-24T12:28:43.000Z</time>
      </trkpt>
      <trkpt lat="47.24534" lon="-1.46085">
        <ele>58</ele>
        <time>2020-05-24T12:28:45.000Z</time>
      </trkpt>
      <trkpt lat="47.24527" lon="-1.46101">
        <ele>58</ele>
        <time>2020-05-24T12:28:47.000Z</time>
      </trkpt>
      <trkpt lat="47.24517" lon="-1.46115">
        <ele>59</ele>
        <time>2020-05-24T12:28:49.000Z</time>
      </trkpt>
      <trkpt lat="47.24506" lon="-1.46127">
        <ele>59</ele>
        <time>2020-05-24T12:28:51.000Z</time>
      </trkpt>
      <trkpt lat="47.24496" lon="-1.4614">
        <ele>59</ele>
        <time>2020-05-24T12:28:53.000Z</time>
      </trkpt>
      <trkpt lat="47.24485" lon="-1.46153">
        <ele>58</ele>
        <time>2020-05-24T12:28:55.000Z</time>
      </trkpt>
      <trkpt lat="47.24474" lon="-1.46166">
        <ele>59</ele>
        <time>2020-05-24T12:28:57.000Z</time>
      </trkpt>
      <trkpt lat="47.24463" lon="-1.46179">
        <ele>59</ele>
        <time>2020-05-24T12:28:59.000Z</time>
      </trkpt>
      <trkpt lat="47.24453" lon="-1.46192">
        <ele>59</ele>
        <time>2020-05-24T12:29:01.000Z</time>
      </trkpt>
      <trkpt lat="47.24443" lon="-1.46206">
        <ele>60</ele>
        <time>2020-05-24T12:29:03.000Z</time>
      </trkpt>
      <trkpt lat="47.24432" lon="-1.46219">
        <ele>59</ele>
        <time>2020-05-24T12:29:05.000Z</time>
      </trkpt>
      <trkpt lat="47.24421" lon="-1.46233">
        <ele>58</ele>
        <time>2020-05-24T12:29:07.000Z</time>
      </trkpt>
      <trkpt lat="47.2441" lon="-1.46246">
        <ele>57</ele>
        <time>2020-05-24T12:29:09.000Z</time>
      </trkpt>
      <trkpt lat="47.24401" lon="-1.4626">
        <ele>58</ele>
        <time>2020-05-24T12:29:11.000Z</time>
      </trkpt>
      <trkpt lat="47.24391" lon="-1.46273">
        <ele>58</ele>
        <time>2020-05-24T12:29:13.000Z</time>
      </trkpt>
      <trkpt lat="47.24383" lon="-1.46287">
        <ele>58</ele>
        <time>2020-05-24T12:29:15.000Z</time>
      </trkpt>
      <trkpt lat="47.24372" lon="-1.46301">
        <ele>57</ele>
        <time>2020-05-24T12:29:17.000Z</time>
      </trkpt>
      <trkpt lat="47.24363" lon="-1.46315">
        <ele>58</ele>
        <time>2020-05-24T12:29:19.000Z</time>
      </trkpt>
      <trkpt lat="47.24354" lon="-1.46329">
        <ele>58</ele>
        <time>2020-05-24T12:29:21.000Z</time>
      </trkpt>
      <trkpt lat="47.24346" lon="-1.46343">
        <ele>58</ele>
        <time>2020-05-24T12:29:23.000Z</time>
      </trkpt>
      <trkpt lat="47.24339" lon="-1.4636">
        <ele>59</ele>
        <time>2020-05-24T12:29:25.000Z</time>
      </trkpt>
      <trkpt lat="47.24328" lon="-1.46374">
        <ele>58</ele>
        <time>2020-05-24T12:29:27.000Z</time>
      </trkpt>
      <trkpt lat="47.2432" lon="-1.46389">
        <ele>59</ele>
        <time>2020-05-24T12:29:29.000Z</time>
      </trkpt>
      <trkpt lat="47.24311" lon="-1.46404">
        <ele>59</ele>
        <time>2020-05-24T12:29:31.000Z</time>
      </trkpt>
      <trkpt lat="47.24302" lon="-1.46419">
        <ele>60</ele>
        <time>2020-05-24T12:29:33.000Z</time>
      </trkpt>
      <trkpt lat="47.24293" lon="-1.46435">
        <ele>60</ele>
        <time>2020-05-24T12:29:35.000Z</time>
      </trkpt>
      <trkpt lat="47.24285" lon="-1.46449">
        <ele>60</ele>
        <time>2020-05-24T12:29:37.000Z</time>
      </trkpt>
      <trkpt lat="47.24275" lon="-1.46461">
        <ele>60</ele>
        <time>2020-05-24T12:29:39.000Z</time>
      </trkpt>
      <trkpt lat="47.24265" lon="-1.46474">
        <ele>60</ele>
        <time>2020-05-24T12:29:41.000Z</time>
      </trkpt>
      <trkpt lat="47.24256" lon="-1.46486">
        <ele>59</ele>
        <time>2020-05-24T12:29:43.000Z</time>
      </trkpt>
      <trkpt lat="47.24246" lon="-1.46498">
        <ele>59</ele>
        <time>2020-05-24T12:29:45.000Z</time>
      </trkpt>
      <trkpt lat="47.24236" lon="-1.4651">
        <ele>58</ele>
        <time>2020-05-24T12:29:47.000Z</time>
      </trkpt>
      <trkpt lat="47.24226" lon="-1.46524">
        <ele>58</ele>
        <time>2020-05-24T12:29:49.000Z</time>
      </trkpt>
      <trkpt lat="47.24216" lon="-1.46536">
        <ele>59</ele>
        <time>2020-05-24T12:29:51.000Z</time>
      </trkpt>
      <trkpt lat="47.24206" lon="-1.46549">
        <ele>60</ele>
        <time>2020-05-24T12:29:53.000Z</time>
      </trkpt>
      <trkpt lat="47.24196" lon="-1.46563">
        <ele>60</ele>
        <time>2020-05-24T12:29:55.000Z</time>
      </trkpt>
      <trkpt lat="47.24186" lon="-1.46576">
        <ele>59</ele>
        <time>2020-05-24T12:29:57.000Z</time>
      </trkpt>
      <trkpt lat="47.24176" lon="-1.46589">
        <ele>59</ele>
        <time>2020-05-24T12:29:59.000Z</time>
      </trkpt>
      <trkpt lat="47.24165" lon="-1.46602">
        <ele>58</ele>
        <time>2020-05-24T12:30:01.000Z</time>
      </trkpt>
      <trkpt lat="47.24155" lon="-1.46614">
        <ele>59</ele>
        <time>2020-05-24T12:30:03.000Z</time>
      </trkpt>
      <trkpt lat="47.24146" lon="-1.46626">
        <ele>59</ele>
        <time>2020-05-24T12:30:05.000Z</time>
      </trkpt>
      <trkpt lat="47.24138" lon="-1.46639">
        <ele>59</ele>
        <time>2020-05-24T12:30:07.000Z</time>
      </trkpt>
      <trkpt lat="47.24128" lon="-1.46651">
        <ele>60</ele>
        <time>2020-05-24T12:30:09.000Z</time>
      </trkpt>
      <trkpt lat="47.24118" lon="-1.46664">
        <ele>60</ele>
        <time>2020-05-24T12:30:11.000Z</time>
      </trkpt>
      <trkpt lat="47.24109" lon="-1.46677">
        <ele>59</ele>
        <time>2020-05-24T12:30:13.000Z</time>
      </trkpt>
      <trkpt lat="47.24098" lon="-1.46691">
        <ele>59</ele>
        <time>2020-05-24T12:30:15.000Z</time>
      </trkpt>
      <trkpt lat="47.2409" lon="-1.46706">
        <ele>59</ele>
        <time>2020-05-24T12:30:17.000Z</time>
      </trkpt>
      <trkpt lat="47.24083" lon="-1.46724">
        <ele>58</ele>
        <time>2020-05-24T12:30:19.000Z</time>
      </trkpt>
      <trkpt lat="47.24074" lon="-1.46739">
        <ele>57</ele>
        <time>2020-05-24T12:30:21.000Z</time>
      </trkpt>
      <trkpt lat="47.24061" lon="-1.46748">
        <ele>56</ele>
        <time>2020-05-24T12:30:23.000Z</time>
      </trkpt>
      <trkpt lat="47.24049" lon="-1.46757">
        <ele>56</ele>
        <time>2020-05-24T12:30:25.000Z</time>
      </trkpt>
      <trkpt lat="47.24038" lon="-1.4677">
        <ele>55</ele>
        <time>2020-05-24T12:30:27.000Z</time>
      </trkpt>
      <trkpt lat="47.24027" lon="-1.46782">
        <ele>56</ele>
        <time>2020-05-24T12:30:29.000Z</time>
      </trkpt>
      <trkpt lat="47.24016" lon="-1.46795">
        <ele>56</ele>
        <time>2020-05-24T12:30:31.000Z</time>
      </trkpt>
      <trkpt lat="47.24006" lon="-1.46808">
        <ele>57</ele>
        <time>2020-05-24T12:30:33.000Z</time>
      </trkpt>
      <trkpt lat="47.23994" lon="-1.4682">
        <ele>57</ele>
        <time>2020-05-24T12:30:35.000Z</time>
      </trkpt>
      <trkpt lat="47.23982" lon="-1.46831">
        <ele>57</ele>
        <time>2020-05-24T12:30:37.000Z</time>
      </trkpt>
      <trkpt lat="47.2397" lon="-1.46843">
        <ele>56</ele>
        <time>2020-05-24T12:30:39.000Z</time>
      </trkpt>
      <trkpt lat="47.23959" lon="-1.46854">
        <ele>57</ele>
        <time>2020-05-24T12:30:41.000Z</time>
      </trkpt>
      <trkpt lat="47.23947" lon="-1.46864">
        <ele>57</ele>
        <time>2020-05-24T12:30:43.000Z</time>
      </trkpt>
      <trkpt lat="47.23935" lon="-1.46873">
        <ele>57</ele>
        <time>2020-05-24T12:30:45.000Z</time>
      </trkpt>
      <trkpt lat="47.23923" lon="-1.46883">
        <ele>57</ele>
        <time>2020-05-24T12:30:47.000Z</time>
      </trkpt>
      <trkpt lat="47.23913" lon="-1.46897">
        <ele>57</ele>
        <time>2020-05-24T12:30:49.000Z</time>
      </trkpt>
      <trkpt lat="47.23903" lon="-1.46912">
        <ele>57</ele>
        <time>2020-05-24T12:30:51.000Z</time>
      </trkpt>
      <trkpt lat="47.23893" lon="-1.46926">
        <ele>57</ele>
        <time>2020-05-24T12:30:53.000Z</time>
      </trkpt>
      <trkpt lat="47.23883" lon="-1.4694">
        <ele>58</ele>
        <time>2020-05-24T12:30:55.000Z</time>
      </trkpt>
      <trkpt lat="47.23873" lon="-1.46953">
        <ele>58</ele>
        <time>2020-05-24T12:30:57.000Z</time>
      </trkpt>
      <trkpt lat="47.23863" lon="-1.46967">
        <ele>58</ele>
        <time>2020-05-24T12:30:59.000Z</time>
      </trkpt>
      <trkpt lat="47.23852" lon="-1.4698">
        <ele>58</ele>
        <time>2020-05-24T12:31:01.000Z</time>
      </trkpt>
      <trkpt lat="47.23843" lon="-1.46995">
        <ele>58</ele>
        <time>2020-05-24T12:31:03.000Z</time>
      </trkpt>
      <trkpt lat="47.23833" lon="-1.47009">
        <ele>58</ele>
        <time>2020-05-24T12:31:05.000Z</time>
      </trkpt>
      <trkpt lat="47.23823" lon="-1.47023">
        <ele>58</ele>
        <time>2020-05-24T12:31:07.000Z</time>
      </trkpt>
      <trkpt lat="47.23812" lon="-1.47037">
        <ele>58</ele>
        <time>2020-05-24T12:31:09.000Z</time>
      </trkpt>
      <trkpt lat="47.23802" lon="-1.47051">
        <ele>58</ele>
        <time>2020-05-24T12:31:11.000Z</time>
      </trkpt>
      <trkpt lat="47.23792" lon="-1.47066">
        <ele>57</ele>
        <time>2020-05-24T12:31:13.000Z</time>
      </trkpt>
      <trkpt lat="47.23781" lon="-1.47081">
        <ele>57</ele>
        <time>2020-05-24T12:31:15.000Z</time>
      </trkpt>
      <trkpt lat="47.23771" lon="-1.47096">
        <ele>57</ele>
        <time>2020-05-24T12:31:17.000Z</time>
      </trkpt>
      <trkpt lat="47.2376" lon="-1.47111">
        <ele>58</ele>
        <time>2020-05-24T12:31:19.000Z</time>
      </trkpt>
      <trkpt lat="47.23749" lon="-1.47126">
        <ele>58</ele>
        <time>2020-05-24T12:31:21.000Z</time>
      </trkpt>
      <trkpt lat="47.23737" lon="-1.47139">
        <ele>57</ele>
        <time>2020-05-24T12:31:23.000Z</time>
      </trkpt>
      <trkpt lat="47.23725" lon="-1.47153">
        <ele>56</ele>
        <time>2020-05-24T12:31:25.000Z</time>
      </trkpt>
      <trkpt lat="47.23714" lon="-1.47168">
        <ele>56</ele>
        <time>2020-05-24T12:31:27.000Z</time>
      </trkpt>
      <trkpt lat="47.23704" lon="-1.47183">
        <ele>56</ele>
        <time>2020-05-24T12:31:29.000Z</time>
      </trkpt>
      <trkpt lat="47.23694" lon="-1.47197">
        <ele>57</ele>
        <time>2020-05-24T12:31:31.000Z</time>
      </trkpt>
      <trkpt lat="47.23685" lon="-1.47213">
        <ele>57</ele>
        <time>2020-05-24T12:31:33.000Z</time>
      </trkpt>
      <trkpt lat="47.23673" lon="-1.47227">
        <ele>55</ele>
        <time>2020-05-24T12:31:35.000Z</time>
      </trkpt>
      <trkpt lat="47.23661" lon="-1.47241">
        <ele>55</ele>
        <time>2020-05-24T12:31:37.000Z</time>
      </trkpt>
      <trkpt lat="47.23649" lon="-1.47253">
        <ele>55</ele>
        <time>2020-05-24T12:31:39.000Z</time>
      </trkpt>
      <trkpt lat="47.23638" lon="-1.47266">
        <ele>55</ele>
        <time>2020-05-24T12:31:41.000Z</time>
      </trkpt>
      <trkpt lat="47.23626" lon="-1.47279">
        <ele>55</ele>
        <time>2020-05-24T12:31:43.000Z</time>
      </trkpt>
      <trkpt lat="47.23615" lon="-1.47292">
        <ele>55</ele>
        <time>2020-05-24T12:31:45.000Z</time>
      </trkpt>
      <trkpt lat="47.23603" lon="-1.47305">
        <ele>55</ele>
        <time>2020-05-24T12:31:47.000Z</time>
      </trkpt>
      <trkpt lat="47.23592" lon="-1.47316">
        <ele>55</ele>
        <time>2020-05-24T12:31:49.000Z</time>
      </trkpt>
      <trkpt lat="47.23579" lon="-1.47328">
        <ele>55</ele>
        <time>2020-05-24T12:31:51.000Z</time>
      </trkpt>
      <trkpt lat="47.23567" lon="-1.47339">
        <ele>55</ele>
        <time>2020-05-24T12:31:53.000Z</time>
      </trkpt>
      <trkpt lat="47.23554" lon="-1.47349">
        <ele>55</ele>
        <time>2020-05-24T12:31:55.000Z</time>
      </trkpt>
      <trkpt lat="47.23542" lon="-1.4736">
        <ele>55</ele>
        <time>2020-05-24T12:31:57.000Z</time>
      </trkpt>
      <trkpt lat="47.2353" lon="-1.47369">
        <ele>55</ele>
        <time>2020-05-24T12:31:59.000Z</time>
      </trkpt>
      <trkpt lat="47.23518" lon="-1.4738">
        <ele>55</ele>
        <time>2020-05-24T12:32:01.000Z</time>
      </trkpt>
      <trkpt lat="47.23506" lon="-1.47391">
        <ele>55</ele>
        <time>2020-05-24T12:32:03.000Z</time>
      </trkpt>
      <trkpt lat="47.23494" lon="-1.47401">
        <ele>55</ele>
        <time>2020-05-24T12:32:05.000Z</time>
      </trkpt>
      <trkpt lat="47.23481" lon="-1.47406">
        <ele>56</ele>
        <time>2020-05-24T12:32:07.000Z</time>
      </trkpt>
      <trkpt lat="47.23469" lon="-1.4741">
        <ele>56</ele>
        <time>2020-05-24T12:32:09.000Z</time>
      </trkpt>
      <trkpt lat="47.23456" lon="-1.47414">
        <ele>56</ele>
        <time>2020-05-24T12:32:11.000Z</time>
      </trkpt>
      <trkpt lat="47.23444" lon="-1.47418">
        <ele>56</ele>
        <time>2020-05-24T12:32:13.000Z</time>
      </trkpt>
      <trkpt lat="47.23432" lon="-1.47424">
        <ele>56</ele>
        <time>2020-05-24T12:32:15.000Z</time>
      </trkpt>
      <trkpt lat="47.2342" lon="-1.47432">
        <ele>56</ele>
        <time>2020-05-24T12:32:17.000Z</time>
      </trkpt>
      <trkpt lat="47.23408" lon="-1.47441">
        <ele>57</ele>
        <time>2020-05-24T12:32:19.000Z</time>
      </trkpt>
      <trkpt lat="47.23396" lon="-1.4745">
        <ele>57</ele>
        <time>2020-05-24T12:32:21.000Z</time>
      </trkpt>
      <trkpt lat="47.23383" lon="-1.47458">
        <ele>58</ele>
        <time>2020-05-24T12:32:23.000Z</time>
      </trkpt>
      <trkpt lat="47.23369" lon="-1.47465">
        <ele>58</ele>
        <time>2020-05-24T12:32:25.000Z</time>
      </trkpt>
      <trkpt lat="47.23356" lon="-1.47471">
        <ele>57</ele>
        <time>2020-05-24T12:32:27.000Z</time>
      </trkpt>
      <trkpt lat="47.23342" lon="-1.47478">
        <ele>56</ele>
        <time>2020-05-24T12:32:29.000Z</time>
      </trkpt>
      <trkpt lat="47.2333" lon="-1.47486">
        <ele>56</ele>
        <time>2020-05-24T12:32:31.000Z</time>
      </trkpt>
      <trkpt lat="47.23319" lon="-1.47496">
        <ele>56</ele>
        <time>2020-05-24T12:32:33.000Z</time>
      </trkpt>
      <trkpt lat="47.23307" lon="-1.47505">
        <ele>56</ele>
        <time>2020-05-24T12:32:35.000Z</time>
      </trkpt>
      <trkpt lat="47.23295" lon="-1.47512">
        <ele>55</ele>
        <time>2020-05-24T12:32:37.000Z</time>
      </trkpt>
      <trkpt lat="47.23283" lon="-1.47519">
        <ele>56</ele>
        <time>2020-05-24T12:32:39.000Z</time>
      </trkpt>
      <trkpt lat="47.23271" lon="-1.47528">
        <ele>56</ele>
        <time>2020-05-24T12:32:41.000Z</time>
      </trkpt>
      <trkpt lat="47.23261" lon="-1.47542">
        <ele>57</ele>
        <time>2020-05-24T12:32:43.000Z</time>
      </trkpt>
      <trkpt lat="47.23251" lon="-1.47557">
        <ele>56</ele>
        <time>2020-05-24T12:32:45.000Z</time>
      </trkpt>
      <trkpt lat="47.23242" lon="-1.47573">
        <ele>56</ele>
        <time>2020-05-24T12:32:47.000Z</time>
      </trkpt>
      <trkpt lat="47.23234" lon="-1.47588">
        <ele>56</ele>
        <time>2020-05-24T12:32:49.000Z</time>
      </trkpt>
      <trkpt lat="47.23226" lon="-1.47604">
        <ele>56</ele>
        <time>2020-05-24T12:32:51.000Z</time>
      </trkpt>
      <trkpt lat="47.23218" lon="-1.47619">
        <ele>55</ele>
        <time>2020-05-24T12:32:53.000Z</time>
      </trkpt>
      <trkpt lat="47.23211" lon="-1.47636">
        <ele>55</ele>
        <time>2020-05-24T12:32:55.000Z</time>
      </trkpt>
      <trkpt lat="47.23204" lon="-1.47654">
        <ele>55</ele>
        <time>2020-05-24T12:32:57.000Z</time>
      </trkpt>
      <trkpt lat="47.23197" lon="-1.47671">
        <ele>55</ele>
        <time>2020-05-24T12:32:59.000Z</time>
      </trkpt>
      <trkpt lat="47.23189" lon="-1.47686">
        <ele>55</ele>
        <time>2020-05-24T12:33:01.000Z</time>
      </trkpt>
      <trkpt lat="47.23182" lon="-1.47703">
        <ele>55</ele>
        <time>2020-05-24T12:33:03.000Z</time>
      </trkpt>
      <trkpt lat="47.23175" lon="-1.47721">
        <ele>56</ele>
        <time>2020-05-24T12:33:05.000Z</time>
      </trkpt>
      <trkpt lat="47.23167" lon="-1.47739">
        <ele>55</ele>
        <time>2020-05-24T12:33:07.000Z</time>
      </trkpt>
      <trkpt lat="47.2316" lon="-1.47757">
        <ele>55</ele>
        <time>2020-05-24T12:33:09.000Z</time>
      </trkpt>
      <trkpt lat="47.23154" lon="-1.47772">
        <ele>55</ele>
        <time>2020-05-24T12:33:11.000Z</time>
      </trkpt>
      <trkpt lat="47.23147" lon="-1.47787">
        <ele>55</ele>
        <time>2020-05-24T12:33:13.000Z</time>
      </trkpt>
      <trkpt lat="47.23142" lon="-1.47802">
        <ele>54</ele>
        <time>2020-05-24T12:33:15.000Z</time>
      </trkpt>
      <trkpt lat="47.23137" lon="-1.47819">
        <ele>54</ele>
        <time>2020-05-24T12:33:17.000Z</time>
      </trkpt>
      <trkpt lat="47.23131" lon="-1.47835">
        <ele>54</ele>
        <time>2020-05-24T12:33:19.000Z</time>
      </trkpt>
      <trkpt lat="47.23123" lon="-1.47852">
        <ele>54</ele>
        <time>2020-05-24T12:33:21.000Z</time>
      </trkpt>
      <trkpt lat="47.23114" lon="-1.47867">
        <ele>55</ele>
        <time>2020-05-24T12:33:23.000Z</time>
      </trkpt>
      <trkpt lat="47.23104" lon="-1.47881">
        <ele>54</ele>
        <time>2020-05-24T12:33:25.000Z</time>
      </trkpt>
      <trkpt lat="47.23093" lon="-1.47894">
        <ele>53</ele>
        <time>2020-05-24T12:33:27.000Z</time>
      </trkpt>
      <trkpt lat="47.23083" lon="-1.47908">
        <ele>52</ele>
        <time>2020-05-24T12:33:29.000Z</time>
      </trkpt>
      <trkpt lat="47.23073" lon="-1.4792">
        <ele>52</ele>
        <time>2020-05-24T12:33:31.000Z</time>
      </trkpt>
      <trkpt lat="47.23063" lon="-1.47933">
        <ele>53</ele>
        <time>2020-05-24T12:33:33.000Z</time>
      </trkpt>
      <trkpt lat="47.23054" lon="-1.47947">
        <ele>53</ele>
        <time>2020-05-24T12:33:35.000Z</time>
      </trkpt>
      <trkpt lat="47.23044" lon="-1.4796">
        <ele>53</ele>
        <time>2020-05-24T12:33:37.000Z</time>
      </trkpt>
      <trkpt lat="47.23034" lon="-1.47974">
        <ele>53</ele>
        <time>2020-05-24T12:33:39.000Z</time>
      </trkpt>
      <trkpt lat="47.23025" lon="-1.47987">
        <ele>53</ele>
        <time>2020-05-24T12:33:41.000Z</time>
      </trkpt>
      <trkpt lat="47.23016" lon="-1.48001">
        <ele>52</ele>
        <time>2020-05-24T12:33:43.000Z</time>
      </trkpt>
      <trkpt lat="47.23007" lon="-1.48015">
        <ele>52</ele>
        <time>2020-05-24T12:33:45.000Z</time>
      </trkpt>
      <trkpt lat="47.22999" lon="-1.48029">
        <ele>52</ele>
        <time>2020-05-24T12:33:47.000Z</time>
      </trkpt>
      <trkpt lat="47.22991" lon="-1.48044">
        <ele>53</ele>
        <time>2020-05-24T12:33:49.000Z</time>
      </trkpt>
      <trkpt lat="47.22982" lon="-1.48058">
        <ele>53</ele>
        <time>2020-05-24T12:33:51.000Z</time>
      </trkpt>
      <trkpt lat="47.22974" lon="-1.48072">
        <ele>53</ele>
        <time>2020-05-24T12:33:53.000Z</time>
      </trkpt>
      <trkpt lat="47.22967" lon="-1.48084">
        <ele>53</ele>
        <time>2020-05-24T12:33:55.000Z</time>
      </trkpt>
      <trkpt lat="47.22958" lon="-1.48095">
        <ele>54</ele>
        <time>2020-05-24T12:33:58.000Z</time>
      </trkpt>
      <trkpt lat="47.22952" lon="-1.48107">
        <ele>54</ele>
        <time>2020-05-24T12:34:00.000Z</time>
      </trkpt>
      <trkpt lat="47.22939" lon="-1.48114">
        <ele>55</ele>
        <time>2020-05-24T12:34:03.000Z</time>
      </trkpt>
      <trkpt lat="47.22926" lon="-1.48116">
        <ele>55</ele>
        <time>2020-05-24T12:34:05.000Z</time>
      </trkpt>
      <trkpt lat="47.22913" lon="-1.48121">
        <ele>55</ele>
        <time>2020-05-24T12:34:07.000Z</time>
      </trkpt>
      <trkpt lat="47.22902" lon="-1.48132">
        <ele>54</ele>
        <time>2020-05-24T12:34:09.000Z</time>
      </trkpt>
      <trkpt lat="47.22892" lon="-1.48144">
        <ele>54</ele>
        <time>2020-05-24T12:34:11.000Z</time>
      </trkpt>
      <trkpt lat="47.22884" lon="-1.48158">
        <ele>54</ele>
        <time>2020-05-24T12:34:13.000Z</time>
      </trkpt>
      <trkpt lat="47.22875" lon="-1.48173">
        <ele>54</ele>
        <time>2020-05-24T12:34:15.000Z</time>
      </trkpt>
      <trkpt lat="47.22866" lon="-1.48187">
        <ele>55</ele>
        <time>2020-05-24T12:34:17.000Z</time>
      </trkpt>
      <trkpt lat="47.22858" lon="-1.48201">
        <ele>55</ele>
        <time>2020-05-24T12:34:19.000Z</time>
      </trkpt>
      <trkpt lat="47.22848" lon="-1.48215">
        <ele>55</ele>
        <time>2020-05-24T12:34:21.000Z</time>
      </trkpt>
      <trkpt lat="47.22839" lon="-1.48228">
        <ele>56</ele>
        <time>2020-05-24T12:34:23.000Z</time>
      </trkpt>
      <trkpt lat="47.22829" lon="-1.48242">
        <ele>55</ele>
        <time>2020-05-24T12:34:25.000Z</time>
      </trkpt>
      <trkpt lat="47.22815" lon="-1.4826">
        <ele>55</ele>
        <time>2020-05-24T12:34:28.000Z</time>
      </trkpt>
      <trkpt lat="47.22806" lon="-1.48275">
        <ele>55</ele>
        <time>2020-05-24T12:34:30.000Z</time>
      </trkpt>
      <trkpt lat="47.22798" lon="-1.48289">
        <ele>55</ele>
        <time>2020-05-24T12:34:32.000Z</time>
      </trkpt>
      <trkpt lat="47.22789" lon="-1.48304">
        <ele>55</ele>
        <time>2020-05-24T12:34:34.000Z</time>
      </trkpt>
      <trkpt lat="47.2278" lon="-1.48318">
        <ele>54</ele>
        <time>2020-05-24T12:34:36.000Z</time>
      </trkpt>
      <trkpt lat="47.2277" lon="-1.48331">
        <ele>54</ele>
        <time>2020-05-24T12:34:38.000Z</time>
      </trkpt>
      <trkpt lat="47.22761" lon="-1.48345">
        <ele>54</ele>
        <time>2020-05-24T12:34:40.000Z</time>
      </trkpt>
      <trkpt lat="47.22751" lon="-1.48359">
        <ele>54</ele>
        <time>2020-05-24T12:34:42.000Z</time>
      </trkpt>
      <trkpt lat="47.22742" lon="-1.48372">
        <ele>55</ele>
        <time>2020-05-24T12:34:44.000Z</time>
      </trkpt>
      <trkpt lat="47.22733" lon="-1.48384">
        <ele>55</ele>
        <time>2020-05-24T12:34:46.000Z</time>
      </trkpt>
      <trkpt lat="47.22723" lon="-1.48397">
        <ele>55</ele>
        <time>2020-05-24T12:34:48.000Z</time>
      </trkpt>
      <trkpt lat="47.22714" lon="-1.4841">
        <ele>55</ele>
        <time>2020-05-24T12:34:50.000Z</time>
      </trkpt>
      <trkpt lat="47.22707" lon="-1.48424">
        <ele>56</ele>
        <time>2020-05-24T12:34:52.000Z</time>
      </trkpt>
      <trkpt lat="47.22701" lon="-1.48442">
        <ele>56</ele>
        <time>2020-05-24T12:34:54.000Z</time>
      </trkpt>
      <trkpt lat="47.22695" lon="-1.4846">
        <ele>56</ele>
        <time>2020-05-24T12:34:56.000Z</time>
      </trkpt>
      <trkpt lat="47.22689" lon="-1.48477">
        <ele>56</ele>
        <time>2020-05-24T12:34:58.000Z</time>
      </trkpt>
      <trkpt lat="47.2268" lon="-1.48492">
        <ele>57</ele>
        <time>2020-05-24T12:35:00.000Z</time>
      </trkpt>
      <trkpt lat="47.22671" lon="-1.48516">
        <ele>57</ele>
        <time>2020-05-24T12:35:03.000Z</time>
      </trkpt>
      <trkpt lat="47.22663" lon="-1.48546">
        <ele>56</ele>
        <time>2020-05-24T12:35:06.000Z</time>
      </trkpt>
      <trkpt lat="47.22653" lon="-1.48573">
        <ele>55</ele>
        <time>2020-05-24T12:35:09.000Z</time>
      </trkpt>
      <trkpt lat="47.22646" lon="-1.4859">
        <ele>56</ele>
        <time>2020-05-24T12:35:11.000Z</time>
      </trkpt>
      <trkpt lat="47.22639" lon="-1.48604">
        <ele>56</ele>
        <time>2020-05-24T12:35:13.000Z</time>
      </trkpt>
      <trkpt lat="47.22634" lon="-1.48618">
        <ele>56</ele>
        <time>2020-05-24T12:35:15.000Z</time>
      </trkpt>
      <trkpt lat="47.22628" lon="-1.48633">
        <ele>56</ele>
        <time>2020-05-24T12:35:17.000Z</time>
      </trkpt>
      <trkpt lat="47.2262" lon="-1.48655">
        <ele>55</ele>
        <time>2020-05-24T12:35:20.000Z</time>
      </trkpt>
      <trkpt lat="47.22614" lon="-1.48671">
        <ele>54</ele>
        <time>2020-05-24T12:35:22.000Z</time>
      </trkpt>
      <trkpt lat="47.22609" lon="-1.4869">
        <ele>54</ele>
        <time>2020-05-24T12:35:24.000Z</time>
      </trkpt>
      <trkpt lat="47.22602" lon="-1.4871">
        <ele>54</ele>
        <time>2020-05-24T12:35:26.000Z</time>
      </trkpt>
      <trkpt lat="47.22597" lon="-1.48729">
        <ele>54</ele>
        <time>2020-05-24T12:35:28.000Z</time>
      </trkpt>
      <trkpt lat="47.22593" lon="-1.48747">
        <ele>54</ele>
        <time>2020-05-24T12:35:30.000Z</time>
      </trkpt>
      <trkpt lat="47.22588" lon="-1.48766">
        <ele>54</ele>
        <time>2020-05-24T12:35:32.000Z</time>
      </trkpt>
      <trkpt lat="47.22582" lon="-1.48784">
        <ele>54</ele>
        <time>2020-05-24T12:35:34.000Z</time>
      </trkpt>
      <trkpt lat="47.22572" lon="-1.48813">
        <ele>54</ele>
        <time>2020-05-24T12:35:37.000Z</time>
      </trkpt>
      <trkpt lat="47.22567" lon="-1.48829">
        <ele>54</ele>
        <time>2020-05-24T12:35:39.000Z</time>
      </trkpt>
      <trkpt lat="47.22562" lon="-1.48842">
        <ele>55</ele>
        <time>2020-05-24T12:35:41.000Z</time>
      </trkpt>
      <trkpt lat="47.22558" lon="-1.48855">
        <ele>55</ele>
        <time>2020-05-24T12:35:43.000Z</time>
      </trkpt>
      <trkpt lat="47.22552" lon="-1.48868">
        <ele>56</ele>
        <time>2020-05-24T12:35:45.000Z</time>
      </trkpt>
      <trkpt lat="47.22547" lon="-1.48885">
        <ele>56</ele>
        <time>2020-05-24T12:35:47.000Z</time>
      </trkpt>
      <trkpt lat="47.22543" lon="-1.48903">
        <ele>56</ele>
        <time>2020-05-24T12:35:49.000Z</time>
      </trkpt>
      <trkpt lat="47.22536" lon="-1.48923">
        <ele>56</ele>
        <time>2020-05-24T12:35:51.000Z</time>
      </trkpt>
      <trkpt lat="47.22529" lon="-1.48945">
        <ele>57</ele>
        <time>2020-05-24T12:35:53.000Z</time>
      </trkpt>
      <trkpt lat="47.22522" lon="-1.48964">
        <ele>57</ele>
        <time>2020-05-24T12:35:55.000Z</time>
      </trkpt>
      <trkpt lat="47.22515" lon="-1.48981">
        <ele>58</ele>
        <time>2020-05-24T12:35:57.000Z</time>
      </trkpt>
      <trkpt lat="47.22511" lon="-1.49">
        <ele>59</ele>
        <time>2020-05-24T12:35:59.000Z</time>
      </trkpt>
      <trkpt lat="47.22506" lon="-1.49017">
        <ele>58</ele>
        <time>2020-05-24T12:36:01.000Z</time>
      </trkpt>
      <trkpt lat="47.22499" lon="-1.49033">
        <ele>58</ele>
        <time>2020-05-24T12:36:03.000Z</time>
      </trkpt>
      <trkpt lat="47.22493" lon="-1.49049">
        <ele>59</ele>
        <time>2020-05-24T12:36:05.000Z</time>
      </trkpt>
      <trkpt lat="47.2249" lon="-1.49064">
        <ele>59</ele>
        <time>2020-05-24T12:36:07.000Z</time>
      </trkpt>
      <trkpt lat="47.22484" lon="-1.49079">
        <ele>59</ele>
        <time>2020-05-24T12:36:09.000Z</time>
      </trkpt>
      <trkpt lat="47.22476" lon="-1.49109">
        <ele>62</ele>
        <time>2020-05-24T12:36:12.000Z</time>
      </trkpt>
      <trkpt lat="47.22471" lon="-1.49128">
        <ele>63</ele>
        <time>2020-05-24T12:36:14.000Z</time>
      </trkpt>
      <trkpt lat="47.22466" lon="-1.49147">
        <ele>63</ele>
        <time>2020-05-24T12:36:16.000Z</time>
      </trkpt>
      <trkpt lat="47.2246" lon="-1.49166">
        <ele>62</ele>
        <time>2020-05-24T12:36:18.000Z</time>
      </trkpt>
      <trkpt lat="47.22455" lon="-1.49185">
        <ele>62</ele>
        <time>2020-05-24T12:36:20.000Z</time>
      </trkpt>
      <trkpt lat="47.22448" lon="-1.49202">
        <ele>62</ele>
        <time>2020-05-24T12:36:22.000Z</time>
      </trkpt>
      <trkpt lat="47.22442" lon="-1.49222">
        <ele>62</ele>
        <time>2020-05-24T12:36:24.000Z</time>
      </trkpt>
      <trkpt lat="47.22436" lon="-1.4924">
        <ele>62</ele>
        <time>2020-05-24T12:36:26.000Z</time>
      </trkpt>
      <trkpt lat="47.22425" lon="-1.49265">
        <ele>61</ele>
        <time>2020-05-24T12:36:29.000Z</time>
      </trkpt>
      <trkpt lat="47.22418" lon="-1.49282">
        <ele>62</ele>
        <time>2020-05-24T12:36:31.000Z</time>
      </trkpt>
      <trkpt lat="47.22412" lon="-1.49299">
        <ele>61</ele>
        <time>2020-05-24T12:36:33.000Z</time>
      </trkpt>
      <trkpt lat="47.22406" lon="-1.49315">
        <ele>60</ele>
        <time>2020-05-24T12:36:35.000Z</time>
      </trkpt>
      <trkpt lat="47.224" lon="-1.49332">
        <ele>60</ele>
        <time>2020-05-24T12:36:37.000Z</time>
      </trkpt>
      <trkpt lat="47.22394" lon="-1.49349">
        <ele>60</ele>
        <time>2020-05-24T12:36:39.000Z</time>
      </trkpt>
      <trkpt lat="47.22388" lon="-1.49366">
        <ele>59</ele>
        <time>2020-05-24T12:36:41.000Z</time>
      </trkpt>
      <trkpt lat="47.22382" lon="-1.49382">
        <ele>60</ele>
        <time>2020-05-24T12:36:43.000Z</time>
      </trkpt>
      <trkpt lat="47.22372" lon="-1.49405">
        <ele>60</ele>
        <time>2020-05-24T12:36:46.000Z</time>
      </trkpt>
      <trkpt lat="47.22365" lon="-1.49419">
        <ele>61</ele>
        <time>2020-05-24T12:36:48.000Z</time>
      </trkpt>
      <trkpt lat="47.22359" lon="-1.49435">
        <ele>61</ele>
        <time>2020-05-24T12:36:50.000Z</time>
      </trkpt>
      <trkpt lat="47.22353" lon="-1.4945">
        <ele>61</ele>
        <time>2020-05-24T12:36:52.000Z</time>
      </trkpt>
      <trkpt lat="47.22347" lon="-1.49464">
        <ele>61</ele>
        <time>2020-05-24T12:36:54.000Z</time>
      </trkpt>
      <trkpt lat="47.22341" lon="-1.4948">
        <ele>62</ele>
        <time>2020-05-24T12:36:56.000Z</time>
      </trkpt>
      <trkpt lat="47.22336" lon="-1.49499">
        <ele>62</ele>
        <time>2020-05-24T12:36:58.000Z</time>
      </trkpt>
      <trkpt lat="47.2233" lon="-1.49519">
        <ele>62</ele>
        <time>2020-05-24T12:37:00.000Z</time>
      </trkpt>
      <trkpt lat="47.22324" lon="-1.49535">
        <ele>62</ele>
        <time>2020-05-24T12:37:02.000Z</time>
      </trkpt>
      <trkpt lat="47.22318" lon="-1.49552">
        <ele>62</ele>
        <time>2020-05-24T12:37:04.000Z</time>
      </trkpt>
      <trkpt lat="47.22313" lon="-1.49569">
        <ele>62</ele>
        <time>2020-05-24T12:37:06.000Z</time>
      </trkpt>
      <trkpt lat="47.22308" lon="-1.49586">
        <ele>62</ele>
        <time>2020-05-24T12:37:08.000Z</time>
      </trkpt>
      <trkpt lat="47.22303" lon="-1.49602">
        <ele>62</ele>
        <time>2020-05-24T12:37:10.000Z</time>
      </trkpt>
      <trkpt lat="47.22297" lon="-1.4962">
        <ele>62</ele>
        <time>2020-05-24T12:37:12.000Z</time>
      </trkpt>
      <trkpt lat="47.22291" lon="-1.49647">
        <ele>61</ele>
        <time>2020-05-24T12:37:15.000Z</time>
      </trkpt>
      <trkpt lat="47.22286" lon="-1.49666">
        <ele>61</ele>
        <time>2020-05-24T12:37:17.000Z</time>
      </trkpt>
      <trkpt lat="47.2228" lon="-1.49682">
        <ele>61</ele>
        <time>2020-05-24T12:37:19.000Z</time>
      </trkpt>
      <trkpt lat="47.22274" lon="-1.497">
        <ele>60</ele>
        <time>2020-05-24T12:37:21.000Z</time>
      </trkpt>
      <trkpt lat="47.22268" lon="-1.49718">
        <ele>60</ele>
        <time>2020-05-24T12:37:23.000Z</time>
      </trkpt>
      <trkpt lat="47.22263" lon="-1.49735">
        <ele>60</ele>
        <time>2020-05-24T12:37:25.000Z</time>
      </trkpt>
      <trkpt lat="47.22258" lon="-1.49752">
        <ele>59</ele>
        <time>2020-05-24T12:37:27.000Z</time>
      </trkpt>
      <trkpt lat="47.22255" lon="-1.49771">
        <ele>59</ele>
        <time>2020-05-24T12:37:29.000Z</time>
      </trkpt>
      <trkpt lat="47.22251" lon="-1.49797">
        <ele>59</ele>
        <time>2020-05-24T12:37:32.000Z</time>
      </trkpt>
      <trkpt lat="47.22248" lon="-1.49815">
        <ele>59</ele>
        <time>2020-05-24T12:37:34.000Z</time>
      </trkpt>
      <trkpt lat="47.22243" lon="-1.49833">
        <ele>59</ele>
        <time>2020-05-24T12:37:36.000Z</time>
      </trkpt>
      <trkpt lat="47.22239" lon="-1.49851">
        <ele>59</ele>
        <time>2020-05-24T12:37:38.000Z</time>
      </trkpt>
      <trkpt lat="47.22235" lon="-1.49869">
        <ele>59</ele>
        <time>2020-05-24T12:37:40.000Z</time>
      </trkpt>
      <trkpt lat="47.22231" lon="-1.49887">
        <ele>59</ele>
        <time>2020-05-24T12:37:42.000Z</time>
      </trkpt>
      <trkpt lat="47.22227" lon="-1.49906">
        <ele>59</ele>
        <time>2020-05-24T12:37:44.000Z</time>
      </trkpt>
      <trkpt lat="47.22223" lon="-1.49925">
        <ele>58</ele>
        <time>2020-05-24T12:37:46.000Z</time>
      </trkpt>
      <trkpt lat="47.22218" lon="-1.49941">
        <ele>58</ele>
        <time>2020-05-24T12:37:48.000Z</time>
      </trkpt>
      <trkpt lat="47.22214" lon="-1.49957">
        <ele>57</ele>
        <time>2020-05-24T12:37:50.000Z</time>
      </trkpt>
      <trkpt lat="47.2221" lon="-1.49973">
        <ele>56</ele>
        <time>2020-05-24T12:37:52.000Z</time>
      </trkpt>
      <trkpt lat="47.22204" lon="-1.49989">
        <ele>56</ele>
        <time>2020-05-24T12:37:54.000Z</time>
      </trkpt>
      <trkpt lat="47.22199" lon="-1.50007">
        <ele>56</ele>
        <time>2020-05-24T12:37:56.000Z</time>
      </trkpt>
      <trkpt lat="47.22194" lon="-1.50025">
        <ele>56</ele>
        <time>2020-05-24T12:37:58.000Z</time>
      </trkpt>
      <trkpt lat="47.22188" lon="-1.50052">
        <ele>55</ele>
        <time>2020-05-24T12:38:01.000Z</time>
      </trkpt>
      <trkpt lat="47.22185" lon="-1.5007">
        <ele>55</ele>
        <time>2020-05-24T12:38:03.000Z</time>
      </trkpt>
      <trkpt lat="47.2218" lon="-1.50088">
        <ele>55</ele>
        <time>2020-05-24T12:38:05.000Z</time>
      </trkpt>
      <trkpt lat="47.22175" lon="-1.50106">
        <ele>55</ele>
        <time>2020-05-24T12:38:07.000Z</time>
      </trkpt>
      <trkpt lat="47.22169" lon="-1.50123">
        <ele>56</ele>
        <time>2020-05-24T12:38:09.000Z</time>
      </trkpt>
      <trkpt lat="47.22161" lon="-1.50142">
        <ele>56</ele>
        <time>2020-05-24T12:38:11.000Z</time>
      </trkpt>
      <trkpt lat="47.22155" lon="-1.50163">
        <ele>58</ele>
        <time>2020-05-24T12:38:13.000Z</time>
      </trkpt>
      <trkpt lat="47.22151" lon="-1.50184">
        <ele>59</ele>
        <time>2020-05-24T12:38:15.000Z</time>
      </trkpt>
      <trkpt lat="47.22147" lon="-1.50203">
        <ele>59</ele>
        <time>2020-05-24T12:38:17.000Z</time>
      </trkpt>
      <trkpt lat="47.22141" lon="-1.50221">
        <ele>59</ele>
        <time>2020-05-24T12:38:19.000Z</time>
      </trkpt>
      <trkpt lat="47.22135" lon="-1.50239">
        <ele>58</ele>
        <time>2020-05-24T12:38:21.000Z</time>
      </trkpt>
      <trkpt lat="47.22131" lon="-1.50258">
        <ele>58</ele>
        <time>2020-05-24T12:38:23.000Z</time>
      </trkpt>
      <trkpt lat="47.22126" lon="-1.50278">
        <ele>56</ele>
        <time>2020-05-24T12:38:25.000Z</time>
      </trkpt>
      <trkpt lat="47.22119" lon="-1.50294">
        <ele>57</ele>
        <time>2020-05-24T12:38:27.000Z</time>
      </trkpt>
      <trkpt lat="47.22109" lon="-1.5031">
        <ele>57</ele>
        <time>2020-05-24T12:38:29.000Z</time>
      </trkpt>
      <trkpt lat="47.22101" lon="-1.50325">
        <ele>57</ele>
        <time>2020-05-24T12:38:31.000Z</time>
      </trkpt>
      <trkpt lat="47.22094" lon="-1.5034">
        <ele>57</ele>
        <time>2020-05-24T12:38:33.000Z</time>
      </trkpt>
      <trkpt lat="47.22089" lon="-1.50357">
        <ele>57</ele>
        <time>2020-05-24T12:38:35.000Z</time>
      </trkpt>
      <trkpt lat="47.22085" lon="-1.50375">
        <ele>57</ele>
        <time>2020-05-24T12:38:37.000Z</time>
      </trkpt>
      <trkpt lat="47.2208" lon="-1.50391">
        <ele>57</ele>
        <time>2020-05-24T12:38:39.000Z</time>
      </trkpt>
      <trkpt lat="47.22076" lon="-1.50407">
        <ele>57</ele>
        <time>2020-05-24T12:38:41.000Z</time>
      </trkpt>
      <trkpt lat="47.22072" lon="-1.50425">
        <ele>56</ele>
        <time>2020-05-24T12:38:43.000Z</time>
      </trkpt>
      <trkpt lat="47.2207" lon="-1.50446">
        <ele>54</ele>
        <time>2020-05-24T12:38:45.000Z</time>
      </trkpt>
      <trkpt lat="47.22067" lon="-1.50466">
        <ele>54</ele>
        <time>2020-05-24T12:38:47.000Z</time>
      </trkpt>
      <trkpt lat="47.22064" lon="-1.50484">
        <ele>54</ele>
        <time>2020-05-24T12:38:49.000Z</time>
      </trkpt>
      <trkpt lat="47.22063" lon="-1.50502">
        <ele>53</ele>
        <time>2020-05-24T12:38:51.000Z</time>
      </trkpt>
      <trkpt lat="47.22062" lon="-1.50521">
        <ele>52</ele>
        <time>2020-05-24T12:38:53.000Z</time>
      </trkpt>
      <trkpt lat="47.22061" lon="-1.50539">
        <ele>52</ele>
        <time>2020-05-24T12:38:55.000Z</time>
      </trkpt>
      <trkpt lat="47.2206" lon="-1.50555">
        <ele>52</ele>
        <time>2020-05-24T12:38:57.000Z</time>
      </trkpt>
      <trkpt lat="47.22058" lon="-1.5057">
        <ele>52</ele>
        <time>2020-05-24T12:38:59.000Z</time>
      </trkpt>
      <trkpt lat="47.22057" lon="-1.50588">
        <ele>53</ele>
        <time>2020-05-24T12:39:01.000Z</time>
      </trkpt>
      <trkpt lat="47.22057" lon="-1.50606">
        <ele>53</ele>
        <time>2020-05-24T12:39:03.000Z</time>
      </trkpt>
      <trkpt lat="47.22056" lon="-1.50624">
        <ele>53</ele>
        <time>2020-05-24T12:39:05.000Z</time>
      </trkpt>
      <trkpt lat="47.22054" lon="-1.50642">
        <ele>53</ele>
        <time>2020-05-24T12:39:07.000Z</time>
      </trkpt>
      <trkpt lat="47.22051" lon="-1.50659">
        <ele>54</ele>
        <time>2020-05-24T12:39:09.000Z</time>
      </trkpt>
      <trkpt lat="47.22047" lon="-1.50676">
        <ele>54</ele>
        <time>2020-05-24T12:39:11.000Z</time>
      </trkpt>
      <trkpt lat="47.22044" lon="-1.50692">
        <ele>55</ele>
        <time>2020-05-24T12:39:13.000Z</time>
      </trkpt>
      <trkpt lat="47.22041" lon="-1.50708">
        <ele>55</ele>
        <time>2020-05-24T12:39:15.000Z</time>
      </trkpt>
      <trkpt lat="47.2204" lon="-1.50725">
        <ele>55</ele>
        <time>2020-05-24T12:39:17.000Z</time>
      </trkpt>
      <trkpt lat="47.22039" lon="-1.50742">
        <ele>55</ele>
        <time>2020-05-24T12:39:19.000Z</time>
      </trkpt>
      <trkpt lat="47.22036" lon="-1.5076">
        <ele>55</ele>
        <time>2020-05-24T12:39:21.000Z</time>
      </trkpt>
      <trkpt lat="47.22032" lon="-1.50777">
        <ele>56</ele>
        <time>2020-05-24T12:39:23.000Z</time>
      </trkpt>
      <trkpt lat="47.22026" lon="-1.50792">
        <ele>56</ele>
        <time>2020-05-24T12:39:25.000Z</time>
      </trkpt>
      <trkpt lat="47.22021" lon="-1.5081">
        <ele>57</ele>
        <time>2020-05-24T12:39:27.000Z</time>
      </trkpt>
      <trkpt lat="47.22015" lon="-1.50828">
        <ele>57</ele>
        <time>2020-05-24T12:39:29.000Z</time>
      </trkpt>
      <trkpt lat="47.22008" lon="-1.50852">
        <ele>59</ele>
        <time>2020-05-24T12:39:31.000Z</time>
      </trkpt>
      <trkpt lat="47.21999" lon="-1.50874">
        <ele>60</ele>
        <time>2020-05-24T12:39:33.000Z</time>
      </trkpt>
      <trkpt lat="47.21994" lon="-1.50895">
        <ele>61</ele>
        <time>2020-05-24T12:39:35.000Z</time>
      </trkpt>
      <trkpt lat="47.21988" lon="-1.50914">
        <ele>61</ele>
        <time>2020-05-24T12:39:37.000Z</time>
      </trkpt>
      <trkpt lat="47.21982" lon="-1.50933">
        <ele>60</ele>
        <time>2020-05-24T12:39:39.000Z</time>
      </trkpt>
      <trkpt lat="47.21977" lon="-1.50951">
        <ele>59</ele>
        <time>2020-05-24T12:39:41.000Z</time>
      </trkpt>
      <trkpt lat="47.21972" lon="-1.50972">
        <ele>58</ele>
        <time>2020-05-24T12:39:43.000Z</time>
      </trkpt>
      <trkpt lat="47.21966" lon="-1.5099">
        <ele>58</ele>
        <time>2020-05-24T12:39:45.000Z</time>
      </trkpt>
      <trkpt lat="47.21961" lon="-1.51008">
        <ele>57</ele>
        <time>2020-05-24T12:39:47.000Z</time>
      </trkpt>
      <trkpt lat="47.21956" lon="-1.51027">
        <ele>56</ele>
        <time>2020-05-24T12:39:49.000Z</time>
      </trkpt>
      <trkpt lat="47.21951" lon="-1.51045">
        <ele>56</ele>
        <time>2020-05-24T12:39:51.000Z</time>
      </trkpt>
      <trkpt lat="47.21945" lon="-1.5106">
        <ele>55</ele>
        <time>2020-05-24T12:39:53.000Z</time>
      </trkpt>
      <trkpt lat="47.21938" lon="-1.51074">
        <ele>55</ele>
        <time>2020-05-24T12:39:55.000Z</time>
      </trkpt>
      <trkpt lat="47.21931" lon="-1.51091">
        <ele>56</ele>
        <time>2020-05-24T12:39:57.000Z</time>
      </trkpt>
      <trkpt lat="47.21925" lon="-1.5111">
        <ele>56</ele>
        <time>2020-05-24T12:39:59.000Z</time>
      </trkpt>
      <trkpt lat="47.21919" lon="-1.51128">
        <ele>56</ele>
        <time>2020-05-24T12:40:01.000Z</time>
      </trkpt>
      <trkpt lat="47.21913" lon="-1.51147">
        <ele>56</ele>
        <time>2020-05-24T12:40:03.000Z</time>
      </trkpt>
      <trkpt lat="47.21908" lon="-1.51164">
        <ele>56</ele>
        <time>2020-05-24T12:40:05.000Z</time>
      </trkpt>
      <trkpt lat="47.21902" lon="-1.51182">
        <ele>56</ele>
        <time>2020-05-24T12:40:07.000Z</time>
      </trkpt>
      <trkpt lat="47.21896" lon="-1.51199">
        <ele>56</ele>
        <time>2020-05-24T12:40:09.000Z</time>
      </trkpt>
      <trkpt lat="47.2189" lon="-1.51217">
        <ele>56</ele>
        <time>2020-05-24T12:40:11.000Z</time>
      </trkpt>
      <trkpt lat="47.21884" lon="-1.51235">
        <ele>56</ele>
        <time>2020-05-24T12:40:13.000Z</time>
      </trkpt>
      <trkpt lat="47.21878" lon="-1.51252">
        <ele>56</ele>
        <time>2020-05-24T12:40:15.000Z</time>
      </trkpt>
      <trkpt lat="47.21873" lon="-1.5127">
        <ele>55</ele>
        <time>2020-05-24T12:40:17.000Z</time>
      </trkpt>
      <trkpt lat="47.21867" lon="-1.51287">
        <ele>56</ele>
        <time>2020-05-24T12:40:19.000Z</time>
      </trkpt>
      <trkpt lat="47.21862" lon="-1.51304">
        <ele>56</ele>
        <time>2020-05-24T12:40:21.000Z</time>
      </trkpt>
      <trkpt lat="47.21857" lon="-1.51322">
        <ele>56</ele>
        <time>2020-05-24T12:40:23.000Z</time>
      </trkpt>
      <trkpt lat="47.21852" lon="-1.51339">
        <ele>56</ele>
        <time>2020-05-24T12:40:25.000Z</time>
      </trkpt>
      <trkpt lat="47.21846" lon="-1.51356">
        <ele>56</ele>
        <time>2020-05-24T12:40:27.000Z</time>
      </trkpt>
      <trkpt lat="47.21842" lon="-1.51374">
        <ele>56</ele>
        <time>2020-05-24T12:40:29.000Z</time>
      </trkpt>
      <trkpt lat="47.21838" lon="-1.51392">
        <ele>56</ele>
        <time>2020-05-24T12:40:31.000Z</time>
      </trkpt>
      <trkpt lat="47.21834" lon="-1.5141">
        <ele>55</ele>
        <time>2020-05-24T12:40:33.000Z</time>
      </trkpt>
      <trkpt lat="47.21828" lon="-1.51429">
        <ele>55</ele>
        <time>2020-05-24T12:40:35.000Z</time>
      </trkpt>
      <trkpt lat="47.21824" lon="-1.51447">
        <ele>54</ele>
        <time>2020-05-24T12:40:37.000Z</time>
      </trkpt>
      <trkpt lat="47.2182" lon="-1.51464">
        <ele>54</ele>
        <time>2020-05-24T12:40:39.000Z</time>
      </trkpt>
      <trkpt lat="47.21817" lon="-1.51482">
        <ele>54</ele>
        <time>2020-05-24T12:40:41.000Z</time>
      </trkpt>
      <trkpt lat="47.21811" lon="-1.51499">
        <ele>54</ele>
        <time>2020-05-24T12:40:43.000Z</time>
      </trkpt>
      <trkpt lat="47.21804" lon="-1.51513">
        <ele>54</ele>
        <time>2020-05-24T12:40:45.000Z</time>
      </trkpt>
      <trkpt lat="47.21798" lon="-1.51529">
        <ele>54</ele>
        <time>2020-05-24T12:40:47.000Z</time>
      </trkpt>
      <trkpt lat="47.21791" lon="-1.51545">
        <ele>54</ele>
        <time>2020-05-24T12:40:49.000Z</time>
      </trkpt>
      <trkpt lat="47.21785" lon="-1.51561">
        <ele>54</ele>
        <time>2020-05-24T12:40:51.000Z</time>
      </trkpt>
      <trkpt lat="47.21777" lon="-1.51577">
        <ele>54</ele>
        <time>2020-05-24T12:40:53.000Z</time>
      </trkpt>
      <trkpt lat="47.21769" lon="-1.51591">
        <ele>55</ele>
        <time>2020-05-24T12:40:55.000Z</time>
      </trkpt>
      <trkpt lat="47.2176" lon="-1.51602">
        <ele>55</ele>
        <time>2020-05-24T12:40:57.000Z</time>
      </trkpt>
      <trkpt lat="47.21751" lon="-1.51617">
        <ele>55</ele>
        <time>2020-05-24T12:40:59.000Z</time>
      </trkpt>
      <trkpt lat="47.21744" lon="-1.51631">
        <ele>55</ele>
        <time>2020-05-24T12:41:01.000Z</time>
      </trkpt>
      <trkpt lat="47.21737" lon="-1.51647">
        <ele>55</ele>
        <time>2020-05-24T12:41:03.000Z</time>
      </trkpt>
      <trkpt lat="47.2173" lon="-1.51662">
        <ele>55</ele>
        <time>2020-05-24T12:41:05.000Z</time>
      </trkpt>
      <trkpt lat="47.21723" lon="-1.51678">
        <ele>55</ele>
        <time>2020-05-24T12:41:07.000Z</time>
      </trkpt>
      <trkpt lat="47.21716" lon="-1.51693">
        <ele>55</ele>
        <time>2020-05-24T12:41:09.000Z</time>
      </trkpt>
      <trkpt lat="47.2171" lon="-1.51705">
        <ele>55</ele>
        <time>2020-05-24T12:41:11.000Z</time>
      </trkpt>
      <trkpt lat="47.21704" lon="-1.51719">
        <ele>55</ele>
        <time>2020-05-24T12:41:13.000Z</time>
      </trkpt>
      <trkpt lat="47.21697" lon="-1.51736">
        <ele>55</ele>
        <time>2020-05-24T12:41:15.000Z</time>
      </trkpt>
      <trkpt lat="47.21689" lon="-1.51754">
        <ele>55</ele>
        <time>2020-05-24T12:41:17.000Z</time>
      </trkpt>
      <trkpt lat="47.21682" lon="-1.51772">
        <ele>55</ele>
        <time>2020-05-24T12:41:19.000Z</time>
      </trkpt>
      <trkpt lat="47.21674" lon="-1.51789">
        <ele>54</ele>
        <time>2020-05-24T12:41:21.000Z</time>
      </trkpt>
      <trkpt lat="47.21668" lon="-1.51804">
        <ele>54</ele>
        <time>2020-05-24T12:41:23.000Z</time>
      </trkpt>
      <trkpt lat="47.21661" lon="-1.5182">
        <ele>53</ele>
        <time>2020-05-24T12:41:25.000Z</time>
      </trkpt>
      <trkpt lat="47.21655" lon="-1.51837">
        <ele>53</ele>
        <time>2020-05-24T12:41:27.000Z</time>
      </trkpt>
      <trkpt lat="47.21649" lon="-1.51854">
        <ele>54</ele>
        <time>2020-05-24T12:41:29.000Z</time>
      </trkpt>
      <trkpt lat="47.21645" lon="-1.51871">
        <ele>54</ele>
        <time>2020-05-24T12:41:31.000Z</time>
      </trkpt>
      <trkpt lat="47.21641" lon="-1.5189">
        <ele>54</ele>
        <time>2020-05-24T12:41:33.000Z</time>
      </trkpt>
      <trkpt lat="47.21634" lon="-1.51905">
        <ele>54</ele>
        <time>2020-05-24T12:41:35.000Z</time>
      </trkpt>
      <trkpt lat="47.21627" lon="-1.51921">
        <ele>54</ele>
        <time>2020-05-24T12:41:37.000Z</time>
      </trkpt>
      <trkpt lat="47.21622" lon="-1.51939">
        <ele>54</ele>
        <time>2020-05-24T12:41:39.000Z</time>
      </trkpt>
      <trkpt lat="47.21619" lon="-1.51956">
        <ele>54</ele>
        <time>2020-05-24T12:41:41.000Z</time>
      </trkpt>
      <trkpt lat="47.21617" lon="-1.51974">
        <ele>54</ele>
        <time>2020-05-24T12:41:43.000Z</time>
      </trkpt>
      <trkpt lat="47.21611" lon="-1.51987">
        <ele>54</ele>
        <time>2020-05-24T12:41:45.000Z</time>
      </trkpt>
      <trkpt lat="47.21606" lon="-1.51999">
        <ele>54</ele>
        <time>2020-05-24T12:41:47.000Z</time>
      </trkpt>
      <trkpt lat="47.21598" lon="-1.52016">
        <ele>53</ele>
        <time>2020-05-24T12:41:49.000Z</time>
      </trkpt>
      <trkpt lat="47.21591" lon="-1.52037">
        <ele>52</ele>
        <time>2020-05-24T12:41:51.000Z</time>
      </trkpt>
      <trkpt lat="47.21584" lon="-1.52058">
        <ele>53</ele>
        <time>2020-05-24T12:41:53.000Z</time>
      </trkpt>
      <trkpt lat="47.21579" lon="-1.52078">
        <ele>53</ele>
        <time>2020-05-24T12:41:55.000Z</time>
      </trkpt>
      <trkpt lat="47.21572" lon="-1.52098">
        <ele>53</ele>
        <time>2020-05-24T12:41:57.000Z</time>
      </trkpt>
      <trkpt lat="47.21565" lon="-1.52118">
        <ele>53</ele>
        <time>2020-05-24T12:41:59.000Z</time>
      </trkpt>
      <trkpt lat="47.21559" lon="-1.52137">
        <ele>53</ele>
        <time>2020-05-24T12:42:01.000Z</time>
      </trkpt>
      <trkpt lat="47.21553" lon="-1.52156">
        <ele>53</ele>
        <time>2020-05-24T12:42:03.000Z</time>
      </trkpt>
      <trkpt lat="47.21546" lon="-1.52175">
        <ele>52</ele>
        <time>2020-05-24T12:42:05.000Z</time>
      </trkpt>
      <trkpt lat="47.21539" lon="-1.52194">
        <ele>53</ele>
        <time>2020-05-24T12:42:07.000Z</time>
      </trkpt>
      <trkpt lat="47.21533" lon="-1.52214">
        <ele>53</ele>
        <time>2020-05-24T12:42:09.000Z</time>
      </trkpt>
      <trkpt lat="47.21527" lon="-1.52233">
        <ele>53</ele>
        <time>2020-05-24T12:42:11.000Z</time>
      </trkpt>
      <trkpt lat="47.21521" lon="-1.52253">
        <ele>53</ele>
        <time>2020-05-24T12:42:13.000Z</time>
      </trkpt>
      <trkpt lat="47.21515" lon="-1.52272">
        <ele>54</ele>
        <time>2020-05-24T12:42:15.000Z</time>
      </trkpt>
      <trkpt lat="47.21508" lon="-1.52292">
        <ele>54</ele>
        <time>2020-05-24T12:42:17.000Z</time>
      </trkpt>
      <trkpt lat="47.21502" lon="-1.52313">
        <ele>54</ele>
        <time>2020-05-24T12:42:19.000Z</time>
      </trkpt>
      <trkpt lat="47.21495" lon="-1.52333">
        <ele>54</ele>
        <time>2020-05-24T12:42:21.000Z</time>
      </trkpt>
      <trkpt lat="47.21489" lon="-1.52352">
        <ele>54</ele>
        <time>2020-05-24T12:42:23.000Z</time>
      </trkpt>
      <trkpt lat="47.21483" lon="-1.52373">
        <ele>54</ele>
        <time>2020-05-24T12:42:25.000Z</time>
      </trkpt>
      <trkpt lat="47.21477" lon="-1.52392">
        <ele>54</ele>
        <time>2020-05-24T12:42:27.000Z</time>
      </trkpt>
      <trkpt lat="47.21471" lon="-1.52413">
        <ele>54</ele>
        <time>2020-05-24T12:42:29.000Z</time>
      </trkpt>
      <trkpt lat="47.21464" lon="-1.52432">
        <ele>54</ele>
        <time>2020-05-24T12:42:31.000Z</time>
      </trkpt>
      <trkpt lat="47.21458" lon="-1.52452">
        <ele>54</ele>
        <time>2020-05-24T12:42:33.000Z</time>
      </trkpt>
      <trkpt lat="47.21452" lon="-1.52471">
        <ele>54</ele>
        <time>2020-05-24T12:42:35.000Z</time>
      </trkpt>
      <trkpt lat="47.21446" lon="-1.5249">
        <ele>55</ele>
        <time>2020-05-24T12:42:37.000Z</time>
      </trkpt>
      <trkpt lat="47.2144" lon="-1.5251">
        <ele>55</ele>
        <time>2020-05-24T12:42:39.000Z</time>
      </trkpt>
      <trkpt lat="47.21433" lon="-1.5253">
        <ele>55</ele>
        <time>2020-05-24T12:42:41.000Z</time>
      </trkpt>
      <trkpt lat="47.21427" lon="-1.5255">
        <ele>54</ele>
        <time>2020-05-24T12:42:43.000Z</time>
      </trkpt>
      <trkpt lat="47.21421" lon="-1.52569">
        <ele>55</ele>
        <time>2020-05-24T12:42:45.000Z</time>
      </trkpt>
      <trkpt lat="47.21414" lon="-1.52589">
        <ele>55</ele>
        <time>2020-05-24T12:42:47.000Z</time>
      </trkpt>
      <trkpt lat="47.21408" lon="-1.52608">
        <ele>55</ele>
        <time>2020-05-24T12:42:49.000Z</time>
      </trkpt>
      <trkpt lat="47.21402" lon="-1.52627">
        <ele>55</ele>
        <time>2020-05-24T12:42:51.000Z</time>
      </trkpt>
      <trkpt lat="47.21396" lon="-1.52646">
        <ele>55</ele>
        <time>2020-05-24T12:42:53.000Z</time>
      </trkpt>
      <trkpt lat="47.21391" lon="-1.52664">
        <ele>55</ele>
        <time>2020-05-24T12:42:55.000Z</time>
      </trkpt>
      <trkpt lat="47.21386" lon="-1.52684">
        <ele>55</ele>
        <time>2020-05-24T12:42:57.000Z</time>
      </trkpt>
      <trkpt lat="47.21382" lon="-1.52705">
        <ele>56</ele>
        <time>2020-05-24T12:42:59.000Z</time>
      </trkpt>
      <trkpt lat="47.21378" lon="-1.52725">
        <ele>56</ele>
        <time>2020-05-24T12:43:01.000Z</time>
      </trkpt>
      <trkpt lat="47.21373" lon="-1.52746">
        <ele>55</ele>
        <time>2020-05-24T12:43:03.000Z</time>
      </trkpt>
      <trkpt lat="47.2137" lon="-1.52768">
        <ele>55</ele>
        <time>2020-05-24T12:43:05.000Z</time>
      </trkpt>
      <trkpt lat="47.21367" lon="-1.52788">
        <ele>55</ele>
        <time>2020-05-24T12:43:07.000Z</time>
      </trkpt>
      <trkpt lat="47.21364" lon="-1.5281">
        <ele>55</ele>
        <time>2020-05-24T12:43:09.000Z</time>
      </trkpt>
      <trkpt lat="47.2136" lon="-1.52829">
        <ele>55</ele>
        <time>2020-05-24T12:43:11.000Z</time>
      </trkpt>
      <trkpt lat="47.21356" lon="-1.52849">
        <ele>56</ele>
        <time>2020-05-24T12:43:13.000Z</time>
      </trkpt>
      <trkpt lat="47.21351" lon="-1.5287">
        <ele>55</ele>
        <time>2020-05-24T12:43:15.000Z</time>
      </trkpt>
      <trkpt lat="47.21348" lon="-1.52891">
        <ele>55</ele>
        <time>2020-05-24T12:43:17.000Z</time>
      </trkpt>
      <trkpt lat="47.21343" lon="-1.52912">
        <ele>54</ele>
        <time>2020-05-24T12:43:19.000Z</time>
      </trkpt>
      <trkpt lat="47.2134" lon="-1.52932">
        <ele>54</ele>
        <time>2020-05-24T12:43:21.000Z</time>
      </trkpt>
      <trkpt lat="47.21339" lon="-1.5295">
        <ele>54</ele>
        <time>2020-05-24T12:43:23.000Z</time>
      </trkpt>
      <trkpt lat="47.21335" lon="-1.52971">
        <ele>54</ele>
        <time>2020-05-24T12:43:25.000Z</time>
      </trkpt>
      <trkpt lat="47.21333" lon="-1.52995">
        <ele>54</ele>
        <time>2020-05-24T12:43:27.000Z</time>
      </trkpt>
      <trkpt lat="47.2133" lon="-1.53018">
        <ele>54</ele>
        <time>2020-05-24T12:43:29.000Z</time>
      </trkpt>
      <trkpt lat="47.21329" lon="-1.5304">
        <ele>54</ele>
        <time>2020-05-24T12:43:31.000Z</time>
      </trkpt>
      <trkpt lat="47.21327" lon="-1.53061">
        <ele>55</ele>
        <time>2020-05-24T12:43:33.000Z</time>
      </trkpt>
      <trkpt lat="47.21327" lon="-1.53082">
        <ele>56</ele>
        <time>2020-05-24T12:43:35.000Z</time>
      </trkpt>
      <trkpt lat="47.21325" lon="-1.53101">
        <ele>56</ele>
        <time>2020-05-24T12:43:37.000Z</time>
      </trkpt>
      <trkpt lat="47.21322" lon="-1.53121">
        <ele>56</ele>
        <time>2020-05-24T12:43:39.000Z</time>
      </trkpt>
      <trkpt lat="47.21319" lon="-1.53142">
        <ele>56</ele>
        <time>2020-05-24T12:43:41.000Z</time>
      </trkpt>
      <trkpt lat="47.21316" lon="-1.53162">
        <ele>56</ele>
        <time>2020-05-24T12:43:43.000Z</time>
      </trkpt>
      <trkpt lat="47.21313" lon="-1.53182">
        <ele>56</ele>
        <time>2020-05-24T12:43:45.000Z</time>
      </trkpt>
      <trkpt lat="47.21311" lon="-1.53203">
        <ele>56</ele>
        <time>2020-05-24T12:43:47.000Z</time>
      </trkpt>
      <trkpt lat="47.2131" lon="-1.53224">
        <ele>56</ele>
        <time>2020-05-24T12:43:49.000Z</time>
      </trkpt>
      <trkpt lat="47.21309" lon="-1.53246">
        <ele>56</ele>
        <time>2020-05-24T12:43:51.000Z</time>
      </trkpt>
      <trkpt lat="47.2131" lon="-1.53266">
        <ele>55</ele>
        <time>2020-05-24T12:43:53.000Z</time>
      </trkpt>
      <trkpt lat="47.2131" lon="-1.53286">
        <ele>54</ele>
        <time>2020-05-24T12:43:55.000Z</time>
      </trkpt>
      <trkpt lat="47.21309" lon="-1.53306">
        <ele>53</ele>
        <time>2020-05-24T12:43:57.000Z</time>
      </trkpt>
      <trkpt lat="47.21307" lon="-1.53326">
        <ele>53</ele>
        <time>2020-05-24T12:43:59.000Z</time>
      </trkpt>
      <trkpt lat="47.21304" lon="-1.53345">
        <ele>53</ele>
        <time>2020-05-24T12:44:01.000Z</time>
      </trkpt>
      <trkpt lat="47.213" lon="-1.53365">
        <ele>52</ele>
        <time>2020-05-24T12:44:03.000Z</time>
      </trkpt>
      <trkpt lat="47.21296" lon="-1.53385">
        <ele>52</ele>
        <time>2020-05-24T12:44:05.000Z</time>
      </trkpt>
      <trkpt lat="47.21293" lon="-1.53405">
        <ele>53</ele>
        <time>2020-05-24T12:44:07.000Z</time>
      </trkpt>
      <trkpt lat="47.21292" lon="-1.53425">
        <ele>53</ele>
        <time>2020-05-24T12:44:09.000Z</time>
      </trkpt>
      <trkpt lat="47.2129" lon="-1.53444">
        <ele>54</ele>
        <time>2020-05-24T12:44:11.000Z</time>
      </trkpt>
      <trkpt lat="47.21293" lon="-1.53462">
        <ele>54</ele>
        <time>2020-05-24T12:44:13.000Z</time>
      </trkpt>
      <trkpt lat="47.21298" lon="-1.53479">
        <ele>54</ele>
        <time>2020-05-24T12:44:15.000Z</time>
      </trkpt>
      <trkpt lat="47.21299" lon="-1.53498">
        <ele>54</ele>
        <time>2020-05-24T12:44:17.000Z</time>
      </trkpt>
      <trkpt lat="47.213" lon="-1.53516">
        <ele>54</ele>
        <time>2020-05-24T12:44:19.000Z</time>
      </trkpt>
      <trkpt lat="47.21301" lon="-1.53535">
        <ele>55</ele>
        <time>2020-05-24T12:44:21.000Z</time>
      </trkpt>
      <trkpt lat="47.21302" lon="-1.53553">
        <ele>55</ele>
        <time>2020-05-24T12:44:23.000Z</time>
      </trkpt>
      <trkpt lat="47.21302" lon="-1.53572">
        <ele>55</ele>
        <time>2020-05-24T12:44:25.000Z</time>
      </trkpt>
      <trkpt lat="47.21303" lon="-1.53591">
        <ele>55</ele>
        <time>2020-05-24T12:44:27.000Z</time>
      </trkpt>
      <trkpt lat="47.21303" lon="-1.53609">
        <ele>54</ele>
        <time>2020-05-24T12:44:29.000Z</time>
      </trkpt>
      <trkpt lat="47.21301" lon="-1.53624">
        <ele>54</ele>
        <time>2020-05-24T12:44:31.000Z</time>
      </trkpt>
      <trkpt lat="47.21298" lon="-1.53636">
        <ele>54</ele>
        <time>2020-05-24T12:44:35.000Z</time>
      </trkpt>
      <trkpt lat="47.21295" lon="-1.53655">
        <ele>54</ele>
        <time>2020-05-24T12:44:40.000Z</time>
      </trkpt>
      <trkpt lat="47.21292" lon="-1.53668">
        <ele>54</ele>
        <time>2020-05-24T12:44:42.000Z</time>
      </trkpt>
      <trkpt lat="47.21299" lon="-1.53685">
        <ele>56</ele>
        <time>2020-05-24T12:44:45.000Z</time>
      </trkpt>
      <trkpt lat="47.21304" lon="-1.53703">
        <ele>56</ele>
        <time>2020-05-24T12:44:47.000Z</time>
      </trkpt>
      <trkpt lat="47.21308" lon="-1.53722">
        <ele>57</ele>
        <time>2020-05-24T12:44:49.000Z</time>
      </trkpt>
      <trkpt lat="47.21311" lon="-1.53741">
        <ele>57</ele>
        <time>2020-05-24T12:44:51.000Z</time>
      </trkpt>
      <trkpt lat="47.21314" lon="-1.53761">
        <ele>57</ele>
        <time>2020-05-24T12:44:53.000Z</time>
      </trkpt>
      <trkpt lat="47.21318" lon="-1.53779">
        <ele>57</ele>
        <time>2020-05-24T12:44:55.000Z</time>
      </trkpt>
      <trkpt lat="47.21321" lon="-1.53797">
        <ele>56</ele>
        <time>2020-05-24T12:44:57.000Z</time>
      </trkpt>
      <trkpt lat="47.21324" lon="-1.53814">
        <ele>56</ele>
        <time>2020-05-24T12:44:59.000Z</time>
      </trkpt>
      <trkpt lat="47.21327" lon="-1.53831">
        <ele>57</ele>
        <time>2020-05-24T12:45:01.000Z</time>
      </trkpt>
      <trkpt lat="47.2133" lon="-1.53848">
        <ele>57</ele>
        <time>2020-05-24T12:45:03.000Z</time>
      </trkpt>
      <trkpt lat="47.21333" lon="-1.53863">
        <ele>57</ele>
        <time>2020-05-24T12:45:05.000Z</time>
      </trkpt>
      <trkpt lat="47.21335" lon="-1.5388">
        <ele>59</ele>
        <time>2020-05-24T12:45:07.000Z</time>
      </trkpt>
      <trkpt lat="47.21339" lon="-1.53899">
        <ele>60</ele>
        <time>2020-05-24T12:45:09.000Z</time>
      </trkpt>
      <trkpt lat="47.21345" lon="-1.53916">
        <ele>60</ele>
        <time>2020-05-24T12:45:11.000Z</time>
      </trkpt>
      <trkpt lat="47.21353" lon="-1.5393">
        <ele>60</ele>
        <time>2020-05-24T12:45:13.000Z</time>
      </trkpt>
      <trkpt lat="47.21362" lon="-1.53936">
        <ele>60</ele>
        <time>2020-05-24T12:45:15.000Z</time>
      </trkpt>
      <trkpt lat="47.21375" lon="-1.53936">
        <ele>60</ele>
        <time>2020-05-24T12:45:17.000Z</time>
      </trkpt>
      <trkpt lat="47.21385" lon="-1.53945">
        <ele>59</ele>
        <time>2020-05-24T12:45:19.000Z</time>
      </trkpt>
      <trkpt lat="47.21391" lon="-1.53964">
        <ele>58</ele>
        <time>2020-05-24T12:45:21.000Z</time>
      </trkpt>
      <trkpt lat="47.21387" lon="-1.53983">
        <ele>57</ele>
        <time>2020-05-24T12:45:23.000Z</time>
      </trkpt>
      <trkpt lat="47.21387" lon="-1.54002">
        <ele>56</ele>
        <time>2020-05-24T12:45:25.000Z</time>
      </trkpt>
      <trkpt lat="47.21396" lon="-1.54018">
        <ele>56</ele>
        <time>2020-05-24T12:45:27.000Z</time>
      </trkpt>
      <trkpt lat="47.21405" lon="-1.54032">
        <ele>55</ele>
        <time>2020-05-24T12:45:29.000Z</time>
      </trkpt>
      <trkpt lat="47.21414" lon="-1.54046">
        <ele>55</ele>
        <time>2020-05-24T12:45:31.000Z</time>
      </trkpt>
      <trkpt lat="47.21424" lon="-1.54059">
        <ele>55</ele>
        <time>2020-05-24T12:45:33.000Z</time>
      </trkpt>
      <trkpt lat="47.21433" lon="-1.54073">
        <ele>54</ele>
        <time>2020-05-24T12:45:35.000Z</time>
      </trkpt>
      <trkpt lat="47.21441" lon="-1.54088">
        <ele>55</ele>
        <time>2020-05-24T12:45:37.000Z</time>
      </trkpt>
      <trkpt lat="47.21449" lon="-1.54101">
        <ele>55</ele>
        <time>2020-05-24T12:45:39.000Z</time>
      </trkpt>
      <trkpt lat="47.21458" lon="-1.54115">
        <ele>55</ele>
        <time>2020-05-24T12:45:41.000Z</time>
      </trkpt>
      <trkpt lat="47.21467" lon="-1.54128">
        <ele>56</ele>
        <time>2020-05-24T12:45:43.000Z</time>
      </trkpt>
      <trkpt lat="47.21477" lon="-1.54142">
        <ele>56</ele>
        <time>2020-05-24T12:45:45.000Z</time>
      </trkpt>
      <trkpt lat="47.21486" lon="-1.54156">
        <ele>56</ele>
        <time>2020-05-24T12:45:47.000Z</time>
      </trkpt>
      <trkpt lat="47.21496" lon="-1.54169">
        <ele>56</ele>
        <time>2020-05-24T12:45:49.000Z</time>
      </trkpt>
      <trkpt lat="47.21505" lon="-1.54182">
        <ele>56</ele>
        <time>2020-05-24T12:45:51.000Z</time>
      </trkpt>
      <trkpt lat="47.21514" lon="-1.54196">
        <ele>55</ele>
        <time>2020-05-24T12:45:53.000Z</time>
      </trkpt>
      <trkpt lat="47.21523" lon="-1.5421">
        <ele>55</ele>
        <time>2020-05-24T12:45:55.000Z</time>
      </trkpt>
      <trkpt lat="47.21531" lon="-1.54225">
        <ele>55</ele>
        <time>2020-05-24T12:45:57.000Z</time>
      </trkpt>
      <trkpt lat="47.2154" lon="-1.54238">
        <ele>54</ele>
        <time>2020-05-24T12:45:59.000Z</time>
      </trkpt>
      <trkpt lat="47.2155" lon="-1.54245">
        <ele>54</ele>
        <time>2020-05-24T12:46:01.000Z</time>
      </trkpt>
      <trkpt lat="47.21561" lon="-1.54248">
        <ele>54</ele>
        <time>2020-05-24T12:46:03.000Z</time>
      </trkpt>
      <trkpt lat="47.21571" lon="-1.54255">
        <ele>53</ele>
        <time>2020-05-24T12:46:05.000Z</time>
      </trkpt>
      <trkpt lat="47.21574" lon="-1.54273">
        <ele>53</ele>
        <time>2020-05-24T12:46:07.000Z</time>
      </trkpt>
      <trkpt lat="47.21578" lon="-1.5429">
        <ele>53</ele>
        <time>2020-05-24T12:46:09.000Z</time>
      </trkpt>
      <trkpt lat="47.21585" lon="-1.54306">
        <ele>54</ele>
        <time>2020-05-24T12:46:11.000Z</time>
      </trkpt>
      <trkpt lat="47.21591" lon="-1.54322">
        <ele>54</ele>
        <time>2020-05-24T12:46:13.000Z</time>
      </trkpt>
      <trkpt lat="47.21599" lon="-1.54338">
        <ele>54</ele>
        <time>2020-05-24T12:46:15.000Z</time>
      </trkpt>
      <trkpt lat="47.21605" lon="-1.54354">
        <ele>54</ele>
        <time>2020-05-24T12:46:17.000Z</time>
      </trkpt>
      <trkpt lat="47.2161" lon="-1.54372">
        <ele>54</ele>
        <time>2020-05-24T12:46:19.000Z</time>
      </trkpt>
      <trkpt lat="47.21613" lon="-1.5439">
        <ele>55</ele>
        <time>2020-05-24T12:46:21.000Z</time>
      </trkpt>
      <trkpt lat="47.21615" lon="-1.54409">
        <ele>54</ele>
        <time>2020-05-24T12:46:23.000Z</time>
      </trkpt>
      <trkpt lat="47.21615" lon="-1.54428">
        <ele>54</ele>
        <time>2020-05-24T12:46:25.000Z</time>
      </trkpt>
      <trkpt lat="47.21615" lon="-1.54446">
        <ele>54</ele>
        <time>2020-05-24T12:46:27.000Z</time>
      </trkpt>
      <trkpt lat="47.21613" lon="-1.54465">
        <ele>54</ele>
        <time>2020-05-24T12:46:29.000Z</time>
      </trkpt>
      <trkpt lat="47.2161" lon="-1.54483">
        <ele>54</ele>
        <time>2020-05-24T12:46:31.000Z</time>
      </trkpt>
      <trkpt lat="47.21606" lon="-1.54501">
        <ele>54</ele>
        <time>2020-05-24T12:46:33.000Z</time>
      </trkpt>
      <trkpt lat="47.21601" lon="-1.54518">
        <ele>55</ele>
        <time>2020-05-24T12:46:35.000Z</time>
      </trkpt>
      <trkpt lat="47.21595" lon="-1.54535">
        <ele>55</ele>
        <time>2020-05-24T12:46:37.000Z</time>
      </trkpt>
      <trkpt lat="47.21589" lon="-1.54551">
        <ele>55</ele>
        <time>2020-05-24T12:46:39.000Z</time>
      </trkpt>
      <trkpt lat="47.21582" lon="-1.54567">
        <ele>55</ele>
        <time>2020-05-24T12:46:41.000Z</time>
      </trkpt>
      <trkpt lat="47.21576" lon="-1.54583">
        <ele>55</ele>
        <time>2020-05-24T12:46:43.000Z</time>
      </trkpt>
      <trkpt lat="47.2157" lon="-1.546">
        <ele>55</ele>
        <time>2020-05-24T12:46:45.000Z</time>
      </trkpt>
      <trkpt lat="47.21563" lon="-1.54618">
        <ele>55</ele>
        <time>2020-05-24T12:46:47.000Z</time>
      </trkpt>
      <trkpt lat="47.21557" lon="-1.54636">
        <ele>54</ele>
        <time>2020-05-24T12:46:49.000Z</time>
      </trkpt>
      <trkpt lat="47.2155" lon="-1.54654">
        <ele>54</ele>
        <time>2020-05-24T12:46:51.000Z</time>
      </trkpt>
      <trkpt lat="47.21544" lon="-1.54669">
        <ele>53</ele>
        <time>2020-05-24T12:46:53.000Z</time>
      </trkpt>
      <trkpt lat="47.21539" lon="-1.54688">
        <ele>54</ele>
        <time>2020-05-24T12:46:55.000Z</time>
      </trkpt>
      <trkpt lat="47.21534" lon="-1.54708">
        <ele>54</ele>
        <time>2020-05-24T12:46:57.000Z</time>
      </trkpt>
      <trkpt lat="47.21526" lon="-1.54727">
        <ele>54</ele>
        <time>2020-05-24T12:46:59.000Z</time>
      </trkpt>
      <trkpt lat="47.21519" lon="-1.54745">
        <ele>54</ele>
        <time>2020-05-24T12:47:01.000Z</time>
      </trkpt>
      <trkpt lat="47.21513" lon="-1.54762">
        <ele>54</ele>
        <time>2020-05-24T12:47:03.000Z</time>
      </trkpt>
      <trkpt lat="47.21506" lon="-1.54779">
        <ele>55</ele>
        <time>2020-05-24T12:47:05.000Z</time>
      </trkpt>
      <trkpt lat="47.21498" lon="-1.54797">
        <ele>55</ele>
        <time>2020-05-24T12:47:07.000Z</time>
      </trkpt>
      <trkpt lat="47.21491" lon="-1.54813">
        <ele>55</ele>
        <time>2020-05-24T12:47:09.000Z</time>
      </trkpt>
      <trkpt lat="47.21483" lon="-1.5483">
        <ele>55</ele>
        <time>2020-05-24T12:47:11.000Z</time>
      </trkpt>
      <trkpt lat="47.21475" lon="-1.54846">
        <ele>54</ele>
        <time>2020-05-24T12:47:13.000Z</time>
      </trkpt>
      <trkpt lat="47.21467" lon="-1.54863">
        <ele>54</ele>
        <time>2020-05-24T12:47:15.000Z</time>
      </trkpt>
      <trkpt lat="47.21459" lon="-1.5488">
        <ele>55</ele>
        <time>2020-05-24T12:47:17.000Z</time>
      </trkpt>
      <trkpt lat="47.21451" lon="-1.54897">
        <ele>55</ele>
        <time>2020-05-24T12:47:19.000Z</time>
      </trkpt>
      <trkpt lat="47.21443" lon="-1.54913">
        <ele>56</ele>
        <time>2020-05-24T12:47:21.000Z</time>
      </trkpt>
      <trkpt lat="47.21434" lon="-1.54929">
        <ele>56</ele>
        <time>2020-05-24T12:47:23.000Z</time>
      </trkpt>
      <trkpt lat="47.21426" lon="-1.54945">
        <ele>56</ele>
        <time>2020-05-24T12:47:25.000Z</time>
      </trkpt>
      <trkpt lat="47.21419" lon="-1.54962">
        <ele>56</ele>
        <time>2020-05-24T12:47:27.000Z</time>
      </trkpt>
      <trkpt lat="47.21412" lon="-1.5498">
        <ele>56</ele>
        <time>2020-05-24T12:47:29.000Z</time>
      </trkpt>
      <trkpt lat="47.21405" lon="-1.54997">
        <ele>56</ele>
        <time>2020-05-24T12:47:31.000Z</time>
      </trkpt>
      <trkpt lat="47.21398" lon="-1.55014">
        <ele>56</ele>
        <time>2020-05-24T12:47:33.000Z</time>
      </trkpt>
      <trkpt lat="47.2139" lon="-1.55032">
        <ele>55</ele>
        <time>2020-05-24T12:47:35.000Z</time>
      </trkpt>
      <trkpt lat="47.21383" lon="-1.55049">
        <ele>55</ele>
        <time>2020-05-24T12:47:37.000Z</time>
      </trkpt>
      <trkpt lat="47.21376" lon="-1.55066">
        <ele>55</ele>
        <time>2020-05-24T12:47:39.000Z</time>
      </trkpt>
      <trkpt lat="47.21369" lon="-1.55083">
        <ele>55</ele>
        <time>2020-05-24T12:47:41.000Z</time>
      </trkpt>
      <trkpt lat="47.21363" lon="-1.55101">
        <ele>55</ele>
        <time>2020-05-24T12:47:43.000Z</time>
      </trkpt>
      <trkpt lat="47.21356" lon="-1.55118">
        <ele>55</ele>
        <time>2020-05-24T12:47:45.000Z</time>
      </trkpt>
      <trkpt lat="47.21349" lon="-1.55134">
        <ele>55</ele>
        <time>2020-05-24T12:47:47.000Z</time>
      </trkpt>
      <trkpt lat="47.21341" lon="-1.5515">
        <ele>55</ele>
        <time>2020-05-24T12:47:49.000Z</time>
      </trkpt>
      <trkpt lat="47.21334" lon="-1.55167">
        <ele>55</ele>
        <time>2020-05-24T12:47:51.000Z</time>
      </trkpt>
      <trkpt lat="47.21327" lon="-1.55184">
        <ele>54</ele>
        <time>2020-05-24T12:47:53.000Z</time>
      </trkpt>
      <trkpt lat="47.2132" lon="-1.55201">
        <ele>54</ele>
        <time>2020-05-24T12:47:55.000Z</time>
      </trkpt>
      <trkpt lat="47.21314" lon="-1.55218">
        <ele>53</ele>
        <time>2020-05-24T12:47:57.000Z</time>
      </trkpt>
      <trkpt lat="47.21307" lon="-1.55234">
        <ele>53</ele>
        <time>2020-05-24T12:47:59.000Z</time>
      </trkpt>
      <trkpt lat="47.21301" lon="-1.5525">
        <ele>53</ele>
        <time>2020-05-24T12:48:01.000Z</time>
      </trkpt>
      <trkpt lat="47.21294" lon="-1.55267">
        <ele>53</ele>
        <time>2020-05-24T12:48:03.000Z</time>
      </trkpt>
      <trkpt lat="47.21288" lon="-1.55283">
        <ele>53</ele>
        <time>2020-05-24T12:48:05.000Z</time>
      </trkpt>
      <trkpt lat="47.2128" lon="-1.55295">
        <ele>53</ele>
        <time>2020-05-24T12:48:07.000Z</time>
      </trkpt>
      <trkpt lat="47.21269" lon="-1.55299">
        <ele>54</ele>
        <time>2020-05-24T12:48:09.000Z</time>
      </trkpt>
      <trkpt lat="47.2126" lon="-1.55306">
        <ele>54</ele>
        <time>2020-05-24T12:48:11.000Z</time>
      </trkpt>
      <trkpt lat="47.21258" lon="-1.55322">
        <ele>54</ele>
        <time>2020-05-24T12:48:13.000Z</time>
      </trkpt>
      <trkpt lat="47.21262" lon="-1.55337">
        <ele>53</ele>
        <time>2020-05-24T12:48:15.000Z</time>
      </trkpt>
      <trkpt lat="47.2127" lon="-1.55348">
        <ele>54</ele>
        <time>2020-05-24T12:48:18.000Z</time>
      </trkpt>
      <trkpt lat="47.21279" lon="-1.55352">
        <ele>55</ele>
        <time>2020-05-24T12:48:26.000Z</time>
      </trkpt>
      <trkpt lat="47.21284" lon="-1.55367">
        <ele>55</ele>
        <time>2020-05-24T12:48:28.000Z</time>
      </trkpt>
      <trkpt lat="47.2128" lon="-1.55386">
        <ele>55</ele>
        <time>2020-05-24T12:48:30.000Z</time>
      </trkpt>
      <trkpt lat="47.21274" lon="-1.55397">
        <ele>55</ele>
        <time>2020-05-24T12:48:32.000Z</time>
      </trkpt>
      <trkpt lat="47.21268" lon="-1.5541">
        <ele>56</ele>
        <time>2020-05-24T12:48:36.000Z</time>
      </trkpt>
      <trkpt lat="47.2126" lon="-1.55424">
        <ele>56</ele>
        <time>2020-05-24T12:48:39.000Z</time>
      </trkpt>
      <trkpt lat="47.21251" lon="-1.55436">
        <ele>55</ele>
        <time>2020-05-24T12:48:41.000Z</time>
      </trkpt>
      <trkpt lat="47.21241" lon="-1.55449">
        <ele>55</ele>
        <time>2020-05-24T12:48:43.000Z</time>
      </trkpt>
      <trkpt lat="47.21232" lon="-1.55466">
        <ele>56</ele>
        <time>2020-05-24T12:48:45.000Z</time>
      </trkpt>
      <trkpt lat="47.21223" lon="-1.55485">
        <ele>55</ele>
        <time>2020-05-24T12:48:47.000Z</time>
      </trkpt>
      <trkpt lat="47.21217" lon="-1.55505">
        <ele>55</ele>
        <time>2020-05-24T12:48:49.000Z</time>
      </trkpt>
      <trkpt lat="47.21212" lon="-1.55525">
        <ele>54</ele>
        <time>2020-05-24T12:48:51.000Z</time>
      </trkpt>
      <trkpt lat="47.21206" lon="-1.55545">
        <ele>55</ele>
        <time>2020-05-24T12:48:53.000Z</time>
      </trkpt>
      <trkpt lat="47.212" lon="-1.55564">
        <ele>54</ele>
        <time>2020-05-24T12:48:55.000Z</time>
      </trkpt>
      <trkpt lat="47.21194" lon="-1.55583">
        <ele>54</ele>
        <time>2020-05-24T12:48:57.000Z</time>
      </trkpt>
      <trkpt lat="47.21177" lon="-1.55638">
        <ele>54</ele>
        <time>2020-05-24T12:49:03.000Z</time>
      </trkpt>
      <trkpt lat="47.21172" lon="-1.55655">
        <ele>55</ele>
        <time>2020-05-24T12:49:05.000Z</time>
      </trkpt>
      <trkpt lat="47.21172" lon="-1.55674">
        <ele>54</ele>
        <time>2020-05-24T12:49:07.000Z</time>
      </trkpt>
      <trkpt lat="47.21176" lon="-1.55693">
        <ele>54</ele>
        <time>2020-05-24T12:49:09.000Z</time>
      </trkpt>
      <trkpt lat="47.21174" lon="-1.55712">
        <ele>53</ele>
        <time>2020-05-24T12:49:11.000Z</time>
      </trkpt>
      <trkpt lat="47.21168" lon="-1.55731">
        <ele>54</ele>
        <time>2020-05-24T12:49:13.000Z</time>
      </trkpt>
      <trkpt lat="47.21161" lon="-1.55749">
        <ele>53</ele>
        <time>2020-05-24T12:49:15.000Z</time>
      </trkpt>
      <trkpt lat="47.21154" lon="-1.55768">
        <ele>53</ele>
        <time>2020-05-24T12:49:17.000Z</time>
      </trkpt>
      <trkpt lat="47.21149" lon="-1.55787">
        <ele>53</ele>
        <time>2020-05-24T12:49:19.000Z</time>
      </trkpt>
      <trkpt lat="47.21146" lon="-1.55806">
        <ele>53</ele>
        <time>2020-05-24T12:49:21.000Z</time>
      </trkpt>
      <trkpt lat="47.21143" lon="-1.55826">
        <ele>53</ele>
        <time>2020-05-24T12:49:23.000Z</time>
      </trkpt>
      <trkpt lat="47.21141" lon="-1.55847">
        <ele>53</ele>
        <time>2020-05-24T12:49:25.000Z</time>
      </trkpt>
      <trkpt lat="47.21143" lon="-1.55866">
        <ele>53</ele>
        <time>2020-05-24T12:49:27.000Z</time>
      </trkpt>
      <trkpt lat="47.21149" lon="-1.55885">
        <ele>53</ele>
        <time>2020-05-24T12:49:29.000Z</time>
      </trkpt>
      <trkpt lat="47.21148" lon="-1.55904">
        <ele>53</ele>
        <time>2020-05-24T12:49:31.000Z</time>
      </trkpt>
      <trkpt lat="47.21138" lon="-1.55917">
        <ele>54</ele>
        <time>2020-05-24T12:49:33.000Z</time>
      </trkpt>
      <trkpt lat="47.21125" lon="-1.55924">
        <ele>54</ele>
        <time>2020-05-24T12:49:35.000Z</time>
      </trkpt>
      <trkpt lat="47.21112" lon="-1.55932">
        <ele>54</ele>
        <time>2020-05-24T12:49:37.000Z</time>
      </trkpt>
      <trkpt lat="47.211" lon="-1.55942">
        <ele>54</ele>
        <time>2020-05-24T12:49:39.000Z</time>
      </trkpt>
      <trkpt lat="47.21089" lon="-1.55955">
        <ele>54</ele>
        <time>2020-05-24T12:49:41.000Z</time>
      </trkpt>
      <trkpt lat="47.21079" lon="-1.5597">
        <ele>54</ele>
        <time>2020-05-24T12:49:43.000Z</time>
      </trkpt>
      <trkpt lat="47.2107" lon="-1.55986">
        <ele>54</ele>
        <time>2020-05-24T12:49:45.000Z</time>
      </trkpt>
      <trkpt lat="47.21063" lon="-1.56004">
        <ele>55</ele>
        <time>2020-05-24T12:49:47.000Z</time>
      </trkpt>
      <trkpt lat="47.21055" lon="-1.56021">
        <ele>55</ele>
        <time>2020-05-24T12:49:49.000Z</time>
      </trkpt>
      <trkpt lat="47.21047" lon="-1.56038">
        <ele>55</ele>
        <time>2020-05-24T12:49:51.000Z</time>
      </trkpt>
      <trkpt lat="47.21041" lon="-1.56057">
        <ele>55</ele>
        <time>2020-05-24T12:49:53.000Z</time>
      </trkpt>
      <trkpt lat="47.21033" lon="-1.56076">
        <ele>54</ele>
        <time>2020-05-24T12:49:55.000Z</time>
      </trkpt>
      <trkpt lat="47.21026" lon="-1.56093">
        <ele>54</ele>
        <time>2020-05-24T12:49:57.000Z</time>
      </trkpt>
      <trkpt lat="47.2102" lon="-1.5611">
        <ele>54</ele>
        <time>2020-05-24T12:49:59.000Z</time>
      </trkpt>
      <trkpt lat="47.21013" lon="-1.56126">
        <ele>53</ele>
        <time>2020-05-24T12:50:01.000Z</time>
      </trkpt>
      <trkpt lat="47.21006" lon="-1.56143">
        <ele>53</ele>
        <time>2020-05-24T12:50:03.000Z</time>
      </trkpt>
      <trkpt lat="47.21003" lon="-1.56158">
        <ele>53</ele>
        <time>2020-05-24T12:50:05.000Z</time>
      </trkpt>
      <trkpt lat="47.20999" lon="-1.5617">
        <ele>54</ele>
        <time>2020-05-24T12:50:10.000Z</time>
      </trkpt>
      <trkpt lat="47.2099" lon="-1.56175">
        <ele>55</ele>
        <time>2020-05-24T12:50:13.000Z</time>
      </trkpt>
      <trkpt lat="47.20978" lon="-1.5617">
        <ele>56</ele>
        <time>2020-05-24T12:50:16.000Z</time>
      </trkpt>
      <trkpt lat="47.20969" lon="-1.56168">
        <ele>57</ele>
        <time>2020-05-24T12:50:18.000Z</time>
      </trkpt>
      <trkpt lat="47.20957" lon="-1.56166">
        <ele>57</ele>
        <time>2020-05-24T12:50:20.000Z</time>
      </trkpt>
      <trkpt lat="47.20944" lon="-1.56162">
        <ele>56</ele>
        <time>2020-05-24T12:50:22.000Z</time>
      </trkpt>
      <trkpt lat="47.20931" lon="-1.56161">
        <ele>55</ele>
        <time>2020-05-24T12:50:24.000Z</time>
      </trkpt>
      <trkpt lat="47.20918" lon="-1.56159">
        <ele>56</ele>
        <time>2020-05-24T12:50:26.000Z</time>
      </trkpt>
      <trkpt lat="47.20906" lon="-1.56157">
        <ele>57</ele>
        <time>2020-05-24T12:50:28.000Z</time>
      </trkpt>
      <trkpt lat="47.20894" lon="-1.56154">
        <ele>57</ele>
        <time>2020-05-24T12:50:30.000Z</time>
      </trkpt>
      <trkpt lat="47.20883" lon="-1.56151">
        <ele>57</ele>
        <time>2020-05-24T12:50:32.000Z</time>
      </trkpt>
      <trkpt lat="47.20872" lon="-1.56149">
        <ele>56</ele>
        <time>2020-05-24T12:50:34.000Z</time>
      </trkpt>
      <trkpt lat="47.20861" lon="-1.56146">
        <ele>56</ele>
        <time>2020-05-24T12:50:36.000Z</time>
      </trkpt>
      <trkpt lat="47.20849" lon="-1.5614">
        <ele>55</ele>
        <time>2020-05-24T12:50:38.000Z</time>
      </trkpt>
      <trkpt lat="47.2084" lon="-1.56147">
        <ele>55</ele>
        <time>2020-05-24T12:50:40.000Z</time>
      </trkpt>
      <trkpt lat="47.20836" lon="-1.56166">
        <ele>54</ele>
        <time>2020-05-24T12:50:42.000Z</time>
      </trkpt>
      <trkpt lat="47.20836" lon="-1.56186">
        <ele>54</ele>
        <time>2020-05-24T12:50:44.000Z</time>
      </trkpt>
      <trkpt lat="47.20834" lon="-1.56207">
        <ele>53</ele>
        <time>2020-05-24T12:50:46.000Z</time>
      </trkpt>
      <trkpt lat="47.20833" lon="-1.56228">
        <ele>53</ele>
        <time>2020-05-24T12:50:48.000Z</time>
      </trkpt>
      <trkpt lat="47.20833" lon="-1.56249">
        <ele>53</ele>
        <time>2020-05-24T12:50:50.000Z</time>
      </trkpt>
      <trkpt lat="47.20834" lon="-1.5627">
        <ele>53</ele>
        <time>2020-05-24T12:50:52.000Z</time>
      </trkpt>
      <trkpt lat="47.20833" lon="-1.56291">
        <ele>53</ele>
        <time>2020-05-24T12:50:54.000Z</time>
      </trkpt>
      <trkpt lat="47.20831" lon="-1.56311">
        <ele>53</ele>
        <time>2020-05-24T12:50:56.000Z</time>
      </trkpt>
      <trkpt lat="47.20826" lon="-1.56331">
        <ele>53</ele>
        <time>2020-05-24T12:50:58.000Z</time>
      </trkpt>
      <trkpt lat="47.20822" lon="-1.5635">
        <ele>52</ele>
        <time>2020-05-24T12:51:00.000Z</time>
      </trkpt>
      <trkpt lat="47.20816" lon="-1.5637">
        <ele>52</ele>
        <time>2020-05-24T12:51:02.000Z</time>
      </trkpt>
      <trkpt lat="47.20812" lon="-1.56389">
        <ele>53</ele>
        <time>2020-05-24T12:51:04.000Z</time>
      </trkpt>
      <trkpt lat="47.20807" lon="-1.5641">
        <ele>52</ele>
        <time>2020-05-24T12:51:06.000Z</time>
      </trkpt>
      <trkpt lat="47.20803" lon="-1.56429">
        <ele>53</ele>
        <time>2020-05-24T12:51:08.000Z</time>
      </trkpt>
      <trkpt lat="47.20798" lon="-1.56448">
        <ele>53</ele>
        <time>2020-05-24T12:51:10.000Z</time>
      </trkpt>
      <trkpt lat="47.20794" lon="-1.56465">
        <ele>53</ele>
        <time>2020-05-24T12:51:12.000Z</time>
      </trkpt>
      <trkpt lat="47.20789" lon="-1.56481">
        <ele>53</ele>
        <time>2020-05-24T12:51:14.000Z</time>
      </trkpt>
      <trkpt lat="47.20785" lon="-1.56497">
        <ele>53</ele>
        <time>2020-05-24T12:51:16.000Z</time>
      </trkpt>
      <trkpt lat="47.2078" lon="-1.56511">
        <ele>53</ele>
        <time>2020-05-24T12:51:18.000Z</time>
      </trkpt>
      <trkpt lat="47.20769" lon="-1.56515">
        <ele>54</ele>
        <time>2020-05-24T12:51:21.000Z</time>
      </trkpt>
      <trkpt lat="47.20759" lon="-1.56506">
        <ele>54</ele>
        <time>2020-05-24T12:51:25.000Z</time>
      </trkpt>
      <trkpt lat="47.20749" lon="-1.56498">
        <ele>54</ele>
        <time>2020-05-24T12:51:30.000Z</time>
      </trkpt>
      <trkpt lat="47.20741" lon="-1.56503">
        <ele>57</ele>
        <time>2020-05-24T12:51:44.000Z</time>
      </trkpt>
      <trkpt lat="47.20739" lon="-1.56517">
        <ele>57</ele>
        <time>2020-05-24T12:51:46.000Z</time>
      </trkpt>
      <trkpt lat="47.20731" lon="-1.56533">
        <ele>57</ele>
        <time>2020-05-24T12:51:48.000Z</time>
      </trkpt>
      <trkpt lat="47.20722" lon="-1.56549">
        <ele>56</ele>
        <time>2020-05-24T12:51:50.000Z</time>
      </trkpt>
      <trkpt lat="47.20711" lon="-1.56563">
        <ele>56</ele>
        <time>2020-05-24T12:51:52.000Z</time>
      </trkpt>
      <trkpt lat="47.207" lon="-1.56566">
        <ele>56</ele>
        <time>2020-05-24T12:51:54.000Z</time>
      </trkpt>
      <trkpt lat="47.2069" lon="-1.56577">
        <ele>56</ele>
        <time>2020-05-24T12:51:56.000Z</time>
      </trkpt>
      <trkpt lat="47.20679" lon="-1.56588">
        <ele>56</ele>
        <time>2020-05-24T12:51:58.000Z</time>
      </trkpt>
      <trkpt lat="47.20667" lon="-1.56598">
        <ele>56</ele>
        <time>2020-05-24T12:52:00.000Z</time>
      </trkpt>
      <trkpt lat="47.20655" lon="-1.56605">
        <ele>56</ele>
        <time>2020-05-24T12:52:02.000Z</time>
      </trkpt>
      <trkpt lat="47.20643" lon="-1.56611">
        <ele>56</ele>
        <time>2020-05-24T12:52:04.000Z</time>
      </trkpt>
      <trkpt lat="47.20631" lon="-1.56617">
        <ele>56</ele>
        <time>2020-05-24T12:52:06.000Z</time>
      </trkpt>
      <trkpt lat="47.20619" lon="-1.56622">
        <ele>56</ele>
        <time>2020-05-24T12:52:08.000Z</time>
      </trkpt>
      <trkpt lat="47.20606" lon="-1.56628">
        <ele>56</ele>
        <time>2020-05-24T12:52:10.000Z</time>
      </trkpt>
      <trkpt lat="47.20595" lon="-1.56636">
        <ele>57</ele>
        <time>2020-05-24T12:52:12.000Z</time>
      </trkpt>
      <trkpt lat="47.20584" lon="-1.56648">
        <ele>57</ele>
        <time>2020-05-24T12:52:14.000Z</time>
      </trkpt>
      <trkpt lat="47.20574" lon="-1.56661">
        <ele>57</ele>
        <time>2020-05-24T12:52:16.000Z</time>
      </trkpt>
      <trkpt lat="47.20565" lon="-1.56675">
        <ele>57</ele>
        <time>2020-05-24T12:52:18.000Z</time>
      </trkpt>
      <trkpt lat="47.20555" lon="-1.5669">
        <ele>56</ele>
        <time>2020-05-24T12:52:20.000Z</time>
      </trkpt>
      <trkpt lat="47.20544" lon="-1.56702">
        <ele>55</ele>
        <time>2020-05-24T12:52:22.000Z</time>
      </trkpt>
      <trkpt lat="47.20533" lon="-1.5671">
        <ele>55</ele>
        <time>2020-05-24T12:52:24.000Z</time>
      </trkpt>
      <trkpt lat="47.20521" lon="-1.56715">
        <ele>55</ele>
        <time>2020-05-24T12:52:26.000Z</time>
      </trkpt>
      <trkpt lat="47.20508" lon="-1.56715">
        <ele>55</ele>
        <time>2020-05-24T12:52:28.000Z</time>
      </trkpt>
      <trkpt lat="47.20496" lon="-1.56716">
        <ele>55</ele>
        <time>2020-05-24T12:52:30.000Z</time>
      </trkpt>
      <trkpt lat="47.20483" lon="-1.56714">
        <ele>55</ele>
        <time>2020-05-24T12:52:32.000Z</time>
      </trkpt>
      <trkpt lat="47.20471" lon="-1.56712">
        <ele>56</ele>
        <time>2020-05-24T12:52:34.000Z</time>
      </trkpt>
      <trkpt lat="47.20458" lon="-1.56711">
        <ele>57</ele>
        <time>2020-05-24T12:52:36.000Z</time>
      </trkpt>
      <trkpt lat="47.20444" lon="-1.56708">
        <ele>57</ele>
        <time>2020-05-24T12:52:38.000Z</time>
      </trkpt>
      <trkpt lat="47.20433" lon="-1.56705">
        <ele>58</ele>
        <time>2020-05-24T12:52:40.000Z</time>
      </trkpt>
      <trkpt lat="47.20422" lon="-1.56703">
        <ele>60</ele>
        <time>2020-05-24T12:52:42.000Z</time>
      </trkpt>
      <trkpt lat="47.20411" lon="-1.56702">
        <ele>61</ele>
        <time>2020-05-24T12:52:45.000Z</time>
      </trkpt>
      <trkpt lat="47.20402" lon="-1.56711">
        <ele>62</ele>
        <time>2020-05-24T12:52:48.000Z</time>
      </trkpt>
      <trkpt lat="47.20397" lon="-1.56722">
        <ele>62</ele>
        <time>2020-05-24T12:52:50.000Z</time>
      </trkpt>
      <trkpt lat="47.20395" lon="-1.56738">
        <ele>62</ele>
        <time>2020-05-24T12:52:52.000Z</time>
      </trkpt>
      <trkpt lat="47.20393" lon="-1.56757">
        <ele>62</ele>
        <time>2020-05-24T12:52:54.000Z</time>
      </trkpt>
      <trkpt lat="47.20391" lon="-1.56772">
        <ele>61</ele>
        <time>2020-05-24T12:52:56.000Z</time>
      </trkpt>
      <trkpt lat="47.2039" lon="-1.56793">
        <ele>61</ele>
        <time>2020-05-24T12:52:58.000Z</time>
      </trkpt>
      <trkpt lat="47.2039" lon="-1.56812">
        <ele>61</ele>
        <time>2020-05-24T12:53:00.000Z</time>
      </trkpt>
      <trkpt lat="47.20389" lon="-1.5683">
        <ele>61</ele>
        <time>2020-05-24T12:53:02.000Z</time>
      </trkpt>
      <trkpt lat="47.20388" lon="-1.56847">
        <ele>62</ele>
        <time>2020-05-24T12:53:04.000Z</time>
      </trkpt>
      <trkpt lat="47.20387" lon="-1.56865">
        <ele>62</ele>
        <time>2020-05-24T12:53:06.000Z</time>
      </trkpt>
      <trkpt lat="47.20387" lon="-1.56881">
        <ele>62</ele>
        <time>2020-05-24T12:53:08.000Z</time>
      </trkpt>
      <trkpt lat="47.20386" lon="-1.56898">
        <ele>61</ele>
        <time>2020-05-24T12:53:10.000Z</time>
      </trkpt>
      <trkpt lat="47.20386" lon="-1.56916">
        <ele>60</ele>
        <time>2020-05-24T12:53:12.000Z</time>
      </trkpt>
      <trkpt lat="47.20382" lon="-1.56938">
        <ele>59</ele>
        <time>2020-05-24T12:53:14.000Z</time>
      </trkpt>
      <trkpt lat="47.20378" lon="-1.56961">
        <ele>60</ele>
        <time>2020-05-24T12:53:16.000Z</time>
      </trkpt>
      <trkpt lat="47.20376" lon="-1.56982">
        <ele>58</ele>
        <time>2020-05-24T12:53:18.000Z</time>
      </trkpt>
      <trkpt lat="47.20375" lon="-1.57002">
        <ele>57</ele>
        <time>2020-05-24T12:53:20.000Z</time>
      </trkpt>
      <trkpt lat="47.20372" lon="-1.57021">
        <ele>57</ele>
        <time>2020-05-24T12:53:22.000Z</time>
      </trkpt>
      <trkpt lat="47.20368" lon="-1.57039">
        <ele>56</ele>
        <time>2020-05-24T12:53:24.000Z</time>
      </trkpt>
      <trkpt lat="47.20362" lon="-1.57054">
        <ele>56</ele>
        <time>2020-05-24T12:53:26.000Z</time>
      </trkpt>
      <trkpt lat="47.20355" lon="-1.5707">
        <ele>56</ele>
        <time>2020-05-24T12:53:28.000Z</time>
      </trkpt>
      <trkpt lat="47.20348" lon="-1.57085">
        <ele>56</ele>
        <time>2020-05-24T12:53:30.000Z</time>
      </trkpt>
      <trkpt lat="47.20341" lon="-1.57099">
        <ele>55</ele>
        <time>2020-05-24T12:53:32.000Z</time>
      </trkpt>
      <trkpt lat="47.20331" lon="-1.57109">
        <ele>55</ele>
        <time>2020-05-24T12:53:34.000Z</time>
      </trkpt>
      <trkpt lat="47.2032" lon="-1.57117">
        <ele>56</ele>
        <time>2020-05-24T12:53:36.000Z</time>
      </trkpt>
      <trkpt lat="47.20309" lon="-1.57124">
        <ele>56</ele>
        <time>2020-05-24T12:53:38.000Z</time>
      </trkpt>
      <trkpt lat="47.20299" lon="-1.57132">
        <ele>57</ele>
        <time>2020-05-24T12:53:40.000Z</time>
      </trkpt>
      <trkpt lat="47.20288" lon="-1.5714">
        <ele>57</ele>
        <time>2020-05-24T12:53:42.000Z</time>
      </trkpt>
      <trkpt lat="47.20277" lon="-1.57147">
        <ele>57</ele>
        <time>2020-05-24T12:53:44.000Z</time>
      </trkpt>
      <trkpt lat="47.20266" lon="-1.57156">
        <ele>57</ele>
        <time>2020-05-24T12:53:46.000Z</time>
      </trkpt>
      <trkpt lat="47.20254" lon="-1.57163">
        <ele>57</ele>
        <time>2020-05-24T12:53:48.000Z</time>
      </trkpt>
      <trkpt lat="47.20242" lon="-1.5717">
        <ele>57</ele>
        <time>2020-05-24T12:53:50.000Z</time>
      </trkpt>
      <trkpt lat="47.2023" lon="-1.57178">
        <ele>56</ele>
        <time>2020-05-24T12:53:52.000Z</time>
      </trkpt>
      <trkpt lat="47.20219" lon="-1.57186">
        <ele>55</ele>
        <time>2020-05-24T12:53:54.000Z</time>
      </trkpt>
      <trkpt lat="47.20207" lon="-1.57194">
        <ele>55</ele>
        <time>2020-05-24T12:53:56.000Z</time>
      </trkpt>
      <trkpt lat="47.20196" lon="-1.57202">
        <ele>55</ele>
        <time>2020-05-24T12:53:58.000Z</time>
      </trkpt>
      <trkpt lat="47.20184" lon="-1.5721">
        <ele>55</ele>
        <time>2020-05-24T12:54:00.000Z</time>
      </trkpt>
      <trkpt lat="47.20172" lon="-1.57217">
        <ele>55</ele>
        <time>2020-05-24T12:54:02.000Z</time>
      </trkpt>
      <trkpt lat="47.20161" lon="-1.57224">
        <ele>55</ele>
        <time>2020-05-24T12:54:04.000Z</time>
      </trkpt>
      <trkpt lat="47.2015" lon="-1.57231">
        <ele>55</ele>
        <time>2020-05-24T12:54:06.000Z</time>
      </trkpt>
      <trkpt lat="47.20139" lon="-1.5724">
        <ele>55</ele>
        <time>2020-05-24T12:54:08.000Z</time>
      </trkpt>
      <trkpt lat="47.20127" lon="-1.57247">
        <ele>55</ele>
        <time>2020-05-24T12:54:10.000Z</time>
      </trkpt>
      <trkpt lat="47.20117" lon="-1.57255">
        <ele>55</ele>
        <time>2020-05-24T12:54:12.000Z</time>
      </trkpt>
      <trkpt lat="47.20105" lon="-1.57262">
        <ele>55</ele>
        <time>2020-05-24T12:54:14.000Z</time>
      </trkpt>
      <trkpt lat="47.20094" lon="-1.5727">
        <ele>56</ele>
        <time>2020-05-24T12:54:16.000Z</time>
      </trkpt>
      <trkpt lat="47.20083" lon="-1.57277">
        <ele>56</ele>
        <time>2020-05-24T12:54:18.000Z</time>
      </trkpt>
      <trkpt lat="47.20073" lon="-1.57286">
        <ele>56</ele>
        <time>2020-05-24T12:54:20.000Z</time>
      </trkpt>
      <trkpt lat="47.20063" lon="-1.57295">
        <ele>56</ele>
        <time>2020-05-24T12:54:22.000Z</time>
      </trkpt>
      <trkpt lat="47.20053" lon="-1.57303">
        <ele>56</ele>
        <time>2020-05-24T12:54:24.000Z</time>
      </trkpt>
      <trkpt lat="47.20042" lon="-1.57311">
        <ele>56</ele>
        <time>2020-05-24T12:54:26.000Z</time>
      </trkpt>
      <trkpt lat="47.20032" lon="-1.57319">
        <ele>57</ele>
        <time>2020-05-24T12:54:28.000Z</time>
      </trkpt>
      <trkpt lat="47.20021" lon="-1.57327">
        <ele>57</ele>
        <time>2020-05-24T12:54:30.000Z</time>
      </trkpt>
      <trkpt lat="47.20011" lon="-1.57333">
        <ele>57</ele>
        <time>2020-05-24T12:54:32.000Z</time>
      </trkpt>
      <trkpt lat="47.2" lon="-1.57339">
        <ele>57</ele>
        <time>2020-05-24T12:54:34.000Z</time>
      </trkpt>
      <trkpt lat="47.19989" lon="-1.57334">
        <ele>57</ele>
        <time>2020-05-24T12:54:36.000Z</time>
      </trkpt>
      <trkpt lat="47.19983" lon="-1.57317">
        <ele>56</ele>
        <time>2020-05-24T12:54:38.000Z</time>
      </trkpt>
      <trkpt lat="47.19981" lon="-1.57299">
        <ele>55</ele>
        <time>2020-05-24T12:54:40.000Z</time>
      </trkpt>
      <trkpt lat="47.1998" lon="-1.5728">
        <ele>56</ele>
        <time>2020-05-24T12:54:42.000Z</time>
      </trkpt>
      <trkpt lat="47.1998" lon="-1.57261">
        <ele>56</ele>
        <time>2020-05-24T12:54:44.000Z</time>
      </trkpt>
      <trkpt lat="47.1998" lon="-1.57241">
        <ele>56</ele>
        <time>2020-05-24T12:54:46.000Z</time>
      </trkpt>
      <trkpt lat="47.19979" lon="-1.57221">
        <ele>55</ele>
        <time>2020-05-24T12:54:48.000Z</time>
      </trkpt>
      <trkpt lat="47.19979" lon="-1.57202">
        <ele>54</ele>
        <time>2020-05-24T12:54:50.000Z</time>
      </trkpt>
      <trkpt lat="47.19979" lon="-1.57184">
        <ele>54</ele>
        <time>2020-05-24T12:54:52.000Z</time>
      </trkpt>
      <trkpt lat="47.19979" lon="-1.57167">
        <ele>53</ele>
        <time>2020-05-24T12:54:54.000Z</time>
      </trkpt>
      <trkpt lat="47.19978" lon="-1.5715">
        <ele>53</ele>
        <time>2020-05-24T12:54:56.000Z</time>
      </trkpt>
      <trkpt lat="47.19975" lon="-1.57133">
        <ele>53</ele>
        <time>2020-05-24T12:54:58.000Z</time>
      </trkpt>
      <trkpt lat="47.19972" lon="-1.57116">
        <ele>52</ele>
        <time>2020-05-24T12:55:00.000Z</time>
      </trkpt>
      <trkpt lat="47.19968" lon="-1.57099">
        <ele>52</ele>
        <time>2020-05-24T12:55:02.000Z</time>
      </trkpt>
      <trkpt lat="47.19965" lon="-1.57083">
        <ele>52</ele>
        <time>2020-05-24T12:55:04.000Z</time>
      </trkpt>
      <trkpt lat="47.19962" lon="-1.57068">
        <ele>52</ele>
        <time>2020-05-24T12:55:06.000Z</time>
      </trkpt>
      <trkpt lat="47.19957" lon="-1.57052">
        <ele>52</ele>
        <time>2020-05-24T12:55:08.000Z</time>
      </trkpt>
      <trkpt lat="47.19952" lon="-1.57037">
        <ele>52</ele>
        <time>2020-05-24T12:55:10.000Z</time>
      </trkpt>
      <trkpt lat="47.19951" lon="-1.57021">
        <ele>52</ele>
        <time>2020-05-24T12:55:12.000Z</time>
      </trkpt>
      <trkpt lat="47.19951" lon="-1.57004">
        <ele>52</ele>
        <time>2020-05-24T12:55:14.000Z</time>
      </trkpt>
      <trkpt lat="47.19951" lon="-1.56988">
        <ele>52</ele>
        <time>2020-05-24T12:55:16.000Z</time>
      </trkpt>
      <trkpt lat="47.19951" lon="-1.56971">
        <ele>52</ele>
        <time>2020-05-24T12:55:18.000Z</time>
      </trkpt>
      <trkpt lat="47.19952" lon="-1.56954">
        <ele>51</ele>
        <time>2020-05-24T12:55:20.000Z</time>
      </trkpt>
      <trkpt lat="47.19951" lon="-1.56938">
        <ele>52</ele>
        <time>2020-05-24T12:55:22.000Z</time>
      </trkpt>
      <trkpt lat="47.19951" lon="-1.56922">
        <ele>52</ele>
        <time>2020-05-24T12:55:24.000Z</time>
      </trkpt>
      <trkpt lat="47.19951" lon="-1.56906">
        <ele>52</ele>
        <time>2020-05-24T12:55:26.000Z</time>
      </trkpt>
      <trkpt lat="47.19951" lon="-1.5689">
        <ele>52</ele>
        <time>2020-05-24T12:55:28.000Z</time>
      </trkpt>
      <trkpt lat="47.19951" lon="-1.56874">
        <ele>52</ele>
        <time>2020-05-24T12:55:30.000Z</time>
      </trkpt>
      <trkpt lat="47.19951" lon="-1.56858">
        <ele>52</ele>
        <time>2020-05-24T12:55:32.000Z</time>
      </trkpt>
      <trkpt lat="47.19951" lon="-1.56841">
        <ele>52</ele>
        <time>2020-05-24T12:55:34.000Z</time>
      </trkpt>
      <trkpt lat="47.19951" lon="-1.56825">
        <ele>53</ele>
        <time>2020-05-24T12:55:36.000Z</time>
      </trkpt>
      <trkpt lat="47.19952" lon="-1.56808">
        <ele>53</ele>
        <time>2020-05-24T12:55:38.000Z</time>
      </trkpt>
      <trkpt lat="47.19952" lon="-1.56792">
        <ele>54</ele>
        <time>2020-05-24T12:55:40.000Z</time>
      </trkpt>
      <trkpt lat="47.19953" lon="-1.56776">
        <ele>54</ele>
        <time>2020-05-24T12:55:42.000Z</time>
      </trkpt>
      <trkpt lat="47.19954" lon="-1.56757">
        <ele>54</ele>
        <time>2020-05-24T12:55:44.000Z</time>
      </trkpt>
      <trkpt lat="47.19953" lon="-1.56741">
        <ele>55</ele>
        <time>2020-05-24T12:55:46.000Z</time>
      </trkpt>
      <trkpt lat="47.19953" lon="-1.56724">
        <ele>55</ele>
        <time>2020-05-24T12:55:48.000Z</time>
      </trkpt>
      <trkpt lat="47.19952" lon="-1.56708">
        <ele>55</ele>
        <time>2020-05-24T12:55:50.000Z</time>
      </trkpt>
      <trkpt lat="47.19952" lon="-1.56691">
        <ele>55</ele>
        <time>2020-05-24T12:55:52.000Z</time>
      </trkpt>
      <trkpt lat="47.19952" lon="-1.56674">
        <ele>55</ele>
        <time>2020-05-24T12:55:54.000Z</time>
      </trkpt>
      <trkpt lat="47.19952" lon="-1.56656">
        <ele>54</ele>
        <time>2020-05-24T12:55:56.000Z</time>
      </trkpt>
      <trkpt lat="47.19953" lon="-1.56638">
        <ele>53</ele>
        <time>2020-05-24T12:55:58.000Z</time>
      </trkpt>
      <trkpt lat="47.19953" lon="-1.5662">
        <ele>53</ele>
        <time>2020-05-24T12:56:00.000Z</time>
      </trkpt>
      <trkpt lat="47.19954" lon="-1.56603">
        <ele>52</ele>
        <time>2020-05-24T12:56:02.000Z</time>
      </trkpt>
      <trkpt lat="47.19953" lon="-1.56585">
        <ele>52</ele>
        <time>2020-05-24T12:56:04.000Z</time>
      </trkpt>
      <trkpt lat="47.19954" lon="-1.56568">
        <ele>52</ele>
        <time>2020-05-24T12:56:06.000Z</time>
      </trkpt>
      <trkpt lat="47.19953" lon="-1.56551">
        <ele>52</ele>
        <time>2020-05-24T12:56:08.000Z</time>
      </trkpt>
      <trkpt lat="47.19953" lon="-1.56534">
        <ele>52</ele>
        <time>2020-05-24T12:56:10.000Z</time>
      </trkpt>
      <trkpt lat="47.19953" lon="-1.56517">
        <ele>51</ele>
        <time>2020-05-24T12:56:12.000Z</time>
      </trkpt>
      <trkpt lat="47.19954" lon="-1.565">
        <ele>50</ele>
        <time>2020-05-24T12:56:14.000Z</time>
      </trkpt>
      <trkpt lat="47.19955" lon="-1.56483">
        <ele>50</ele>
        <time>2020-05-24T12:56:16.000Z</time>
      </trkpt>
      <trkpt lat="47.19956" lon="-1.56466">
        <ele>49</ele>
        <time>2020-05-24T12:56:18.000Z</time>
      </trkpt>
      <trkpt lat="47.19959" lon="-1.56448">
        <ele>49</ele>
        <time>2020-05-24T12:56:20.000Z</time>
      </trkpt>
      <trkpt lat="47.19963" lon="-1.56433">
        <ele>49</ele>
        <time>2020-05-24T12:56:22.000Z</time>
      </trkpt>
      <trkpt lat="47.19967" lon="-1.56417">
        <ele>49</ele>
        <time>2020-05-24T12:56:24.000Z</time>
      </trkpt>
      <trkpt lat="47.1997" lon="-1.564">
        <ele>48</ele>
        <time>2020-05-24T12:56:26.000Z</time>
      </trkpt>
      <trkpt lat="47.19972" lon="-1.56383">
        <ele>48</ele>
        <time>2020-05-24T12:56:28.000Z</time>
      </trkpt>
      <trkpt lat="47.19973" lon="-1.56366">
        <ele>48</ele>
        <time>2020-05-24T12:56:30.000Z</time>
      </trkpt>
      <trkpt lat="47.19973" lon="-1.5635">
        <ele>48</ele>
        <time>2020-05-24T12:56:32.000Z</time>
      </trkpt>
      <trkpt lat="47.19975" lon="-1.56334">
        <ele>49</ele>
        <time>2020-05-24T12:56:34.000Z</time>
      </trkpt>
      <trkpt lat="47.19976" lon="-1.56318">
        <ele>49</ele>
        <time>2020-05-24T12:56:36.000Z</time>
      </trkpt>
      <trkpt lat="47.19978" lon="-1.56302">
        <ele>49</ele>
        <time>2020-05-24T12:56:38.000Z</time>
      </trkpt>
      <trkpt lat="47.19979" lon="-1.56285">
        <ele>49</ele>
        <time>2020-05-24T12:56:40.000Z</time>
      </trkpt>
      <trkpt lat="47.19978" lon="-1.56268">
        <ele>49</ele>
        <time>2020-05-24T12:56:42.000Z</time>
      </trkpt>
      <trkpt lat="47.19978" lon="-1.56251">
        <ele>50</ele>
        <time>2020-05-24T12:56:44.000Z</time>
      </trkpt>
      <trkpt lat="47.19979" lon="-1.56234">
        <ele>49</ele>
        <time>2020-05-24T12:56:46.000Z</time>
      </trkpt>
      <trkpt lat="47.19978" lon="-1.56218">
        <ele>50</ele>
        <time>2020-05-24T12:56:48.000Z</time>
      </trkpt>
      <trkpt lat="47.19978" lon="-1.56201">
        <ele>50</ele>
        <time>2020-05-24T12:56:50.000Z</time>
      </trkpt>
      <trkpt lat="47.19978" lon="-1.56184">
        <ele>50</ele>
        <time>2020-05-24T12:56:52.000Z</time>
      </trkpt>
      <trkpt lat="47.19975" lon="-1.5617">
        <ele>50</ele>
        <time>2020-05-24T12:56:54.000Z</time>
      </trkpt>
      <trkpt lat="47.19963" lon="-1.56162">
        <ele>52</ele>
        <time>2020-05-24T12:56:57.000Z</time>
      </trkpt>
      <trkpt lat="47.19952" lon="-1.56167">
        <ele>53</ele>
        <time>2020-05-24T12:56:59.000Z</time>
      </trkpt>
      <trkpt lat="47.19942" lon="-1.56171">
        <ele>55</ele>
        <time>2020-05-24T12:57:01.000Z</time>
      </trkpt>
      <trkpt lat="47.19932" lon="-1.56173">
        <ele>55</ele>
        <time>2020-05-24T12:57:03.000Z</time>
      </trkpt>
      <trkpt lat="47.19922" lon="-1.56175">
        <ele>56</ele>
        <time>2020-05-24T12:57:05.000Z</time>
      </trkpt>
      <trkpt lat="47.19912" lon="-1.56176">
        <ele>56</ele>
        <time>2020-05-24T12:57:07.000Z</time>
      </trkpt>
      <trkpt lat="47.19901" lon="-1.56178">
        <ele>56</ele>
        <time>2020-05-24T12:57:09.000Z</time>
      </trkpt>
      <trkpt lat="47.1989" lon="-1.5618">
        <ele>56</ele>
        <time>2020-05-24T12:57:11.000Z</time>
      </trkpt>
      <trkpt lat="47.1988" lon="-1.56181">
        <ele>56</ele>
        <time>2020-05-24T12:57:13.000Z</time>
      </trkpt>
      <trkpt lat="47.1987" lon="-1.56183">
        <ele>57</ele>
        <time>2020-05-24T12:57:15.000Z</time>
      </trkpt>
      <trkpt lat="47.1986" lon="-1.56185">
        <ele>57</ele>
        <time>2020-05-24T12:57:17.000Z</time>
      </trkpt>
      <trkpt lat="47.19849" lon="-1.56186">
        <ele>56</ele>
        <time>2020-05-24T12:57:19.000Z</time>
      </trkpt>
      <trkpt lat="47.1984" lon="-1.56188">
        <ele>57</ele>
        <time>2020-05-24T12:57:21.000Z</time>
      </trkpt>
      <trkpt lat="47.19829" lon="-1.56188">
        <ele>57</ele>
        <time>2020-05-24T12:57:23.000Z</time>
      </trkpt>
      <trkpt lat="47.19816" lon="-1.56192">
        <ele>57</ele>
        <time>2020-05-24T12:57:25.000Z</time>
      </trkpt>
      <trkpt lat="47.19801" lon="-1.56195">
        <ele>57</ele>
        <time>2020-05-24T12:57:27.000Z</time>
      </trkpt>
      <trkpt lat="47.19787" lon="-1.56198">
        <ele>57</ele>
        <time>2020-05-24T12:57:29.000Z</time>
      </trkpt>
      <trkpt lat="47.19772" lon="-1.56201">
        <ele>56</ele>
        <time>2020-05-24T12:57:31.000Z</time>
      </trkpt>
      <trkpt lat="47.19757" lon="-1.56203">
        <ele>55</ele>
        <time>2020-05-24T12:57:33.000Z</time>
      </trkpt>
      <trkpt lat="47.19742" lon="-1.56206">
        <ele>54</ele>
        <time>2020-05-24T12:57:35.000Z</time>
      </trkpt>
      <trkpt lat="47.19726" lon="-1.56209">
        <ele>54</ele>
        <time>2020-05-24T12:57:37.000Z</time>
      </trkpt>
      <trkpt lat="47.1971" lon="-1.56212">
        <ele>53</ele>
        <time>2020-05-24T12:57:39.000Z</time>
      </trkpt>
      <trkpt lat="47.19693" lon="-1.56215">
        <ele>52</ele>
        <time>2020-05-24T12:57:41.000Z</time>
      </trkpt>
      <trkpt lat="47.19676" lon="-1.5622">
        <ele>51</ele>
        <time>2020-05-24T12:57:43.000Z</time>
      </trkpt>
      <trkpt lat="47.19659" lon="-1.56226">
        <ele>51</ele>
        <time>2020-05-24T12:57:45.000Z</time>
      </trkpt>
      <trkpt lat="47.19642" lon="-1.56233">
        <ele>50</ele>
        <time>2020-05-24T12:57:47.000Z</time>
      </trkpt>
      <trkpt lat="47.19635" lon="-1.56255">
        <ele>50</ele>
        <time>2020-05-24T12:57:49.000Z</time>
      </trkpt>
      <trkpt lat="47.19636" lon="-1.56278">
        <ele>50</ele>
        <time>2020-05-24T12:57:51.000Z</time>
      </trkpt>
      <trkpt lat="47.19634" lon="-1.56301">
        <ele>50</ele>
        <time>2020-05-24T12:57:53.000Z</time>
      </trkpt>
      <trkpt lat="47.19632" lon="-1.56325">
        <ele>50</ele>
        <time>2020-05-24T12:57:55.000Z</time>
      </trkpt>
      <trkpt lat="47.19632" lon="-1.56347">
        <ele>50</ele>
        <time>2020-05-24T12:57:57.000Z</time>
      </trkpt>
      <trkpt lat="47.19631" lon="-1.56369">
        <ele>50</ele>
        <time>2020-05-24T12:57:59.000Z</time>
      </trkpt>
      <trkpt lat="47.19633" lon="-1.56392">
        <ele>50</ele>
        <time>2020-05-24T12:58:01.000Z</time>
      </trkpt>
      <trkpt lat="47.19634" lon="-1.56413">
        <ele>50</ele>
        <time>2020-05-24T12:58:03.000Z</time>
      </trkpt>
      <trkpt lat="47.19634" lon="-1.56434">
        <ele>50</ele>
        <time>2020-05-24T12:58:05.000Z</time>
      </trkpt>
      <trkpt lat="47.19635" lon="-1.56456">
        <ele>50</ele>
        <time>2020-05-24T12:58:07.000Z</time>
      </trkpt>
      <trkpt lat="47.19635" lon="-1.56477">
        <ele>51</ele>
        <time>2020-05-24T12:58:09.000Z</time>
      </trkpt>
      <trkpt lat="47.19636" lon="-1.56498">
        <ele>51</ele>
        <time>2020-05-24T12:58:11.000Z</time>
      </trkpt>
      <trkpt lat="47.19636" lon="-1.56519">
        <ele>51</ele>
        <time>2020-05-24T12:58:13.000Z</time>
      </trkpt>
      <trkpt lat="47.19636" lon="-1.5654">
        <ele>52</ele>
        <time>2020-05-24T12:58:15.000Z</time>
      </trkpt>
      <trkpt lat="47.19637" lon="-1.56561">
        <ele>53</ele>
        <time>2020-05-24T12:58:17.000Z</time>
      </trkpt>
      <trkpt lat="47.19635" lon="-1.56583">
        <ele>53</ele>
        <time>2020-05-24T12:58:19.000Z</time>
      </trkpt>
      <trkpt lat="47.19635" lon="-1.56604">
        <ele>54</ele>
        <time>2020-05-24T12:58:21.000Z</time>
      </trkpt>
      <trkpt lat="47.19634" lon="-1.56625">
        <ele>54</ele>
        <time>2020-05-24T12:58:23.000Z</time>
      </trkpt>
      <trkpt lat="47.19633" lon="-1.56646">
        <ele>54</ele>
        <time>2020-05-24T12:58:25.000Z</time>
      </trkpt>
      <trkpt lat="47.19631" lon="-1.56668">
        <ele>54</ele>
        <time>2020-05-24T12:58:27.000Z</time>
      </trkpt>
      <trkpt lat="47.1963" lon="-1.56688">
        <ele>54</ele>
        <time>2020-05-24T12:58:29.000Z</time>
      </trkpt>
      <trkpt lat="47.19629" lon="-1.56708">
        <ele>54</ele>
        <time>2020-05-24T12:58:31.000Z</time>
      </trkpt>
      <trkpt lat="47.19628" lon="-1.56729">
        <ele>55</ele>
        <time>2020-05-24T12:58:33.000Z</time>
      </trkpt>
      <trkpt lat="47.19627" lon="-1.56749">
        <ele>55</ele>
        <time>2020-05-24T12:58:35.000Z</time>
      </trkpt>
      <trkpt lat="47.19624" lon="-1.5677">
        <ele>54</ele>
        <time>2020-05-24T12:58:37.000Z</time>
      </trkpt>
      <trkpt lat="47.19623" lon="-1.5679">
        <ele>54</ele>
        <time>2020-05-24T12:58:39.000Z</time>
      </trkpt>
      <trkpt lat="47.1962" lon="-1.56811">
        <ele>54</ele>
        <time>2020-05-24T12:58:41.000Z</time>
      </trkpt>
      <trkpt lat="47.19619" lon="-1.56831">
        <ele>54</ele>
        <time>2020-05-24T12:58:43.000Z</time>
      </trkpt>
      <trkpt lat="47.19619" lon="-1.56853">
        <ele>55</ele>
        <time>2020-05-24T12:58:45.000Z</time>
      </trkpt>
      <trkpt lat="47.19618" lon="-1.56874">
        <ele>56</ele>
        <time>2020-05-24T12:58:47.000Z</time>
      </trkpt>
      <trkpt lat="47.19616" lon="-1.56895">
        <ele>55</ele>
        <time>2020-05-24T12:58:49.000Z</time>
      </trkpt>
      <trkpt lat="47.19615" lon="-1.56915">
        <ele>54</ele>
        <time>2020-05-24T12:58:51.000Z</time>
      </trkpt>
      <trkpt lat="47.19614" lon="-1.56935">
        <ele>54</ele>
        <time>2020-05-24T12:58:53.000Z</time>
      </trkpt>
      <trkpt lat="47.19613" lon="-1.56956">
        <ele>54</ele>
        <time>2020-05-24T12:58:55.000Z</time>
      </trkpt>
      <trkpt lat="47.19611" lon="-1.56978">
        <ele>54</ele>
        <time>2020-05-24T12:58:57.000Z</time>
      </trkpt>
      <trkpt lat="47.19609" lon="-1.56999">
        <ele>54</ele>
        <time>2020-05-24T12:58:59.000Z</time>
      </trkpt>
      <trkpt lat="47.19607" lon="-1.57021">
        <ele>54</ele>
        <time>2020-05-24T12:59:01.000Z</time>
      </trkpt>
      <trkpt lat="47.19606" lon="-1.57041">
        <ele>54</ele>
        <time>2020-05-24T12:59:03.000Z</time>
      </trkpt>
      <trkpt lat="47.19605" lon="-1.57061">
        <ele>54</ele>
        <time>2020-05-24T12:59:05.000Z</time>
      </trkpt>
      <trkpt lat="47.19604" lon="-1.57083">
        <ele>53</ele>
        <time>2020-05-24T12:59:07.000Z</time>
      </trkpt>
      <trkpt lat="47.19603" lon="-1.57104">
        <ele>53</ele>
        <time>2020-05-24T12:59:09.000Z</time>
      </trkpt>
      <trkpt lat="47.19601" lon="-1.57124">
        <ele>53</ele>
        <time>2020-05-24T12:59:11.000Z</time>
      </trkpt>
      <trkpt lat="47.196" lon="-1.57145">
        <ele>53</ele>
        <time>2020-05-24T12:59:13.000Z</time>
      </trkpt>
      <trkpt lat="47.19597" lon="-1.57165">
        <ele>52</ele>
        <time>2020-05-24T12:59:15.000Z</time>
      </trkpt>
      <trkpt lat="47.19596" lon="-1.57184">
        <ele>52</ele>
        <time>2020-05-24T12:59:17.000Z</time>
      </trkpt>
      <trkpt lat="47.19594" lon="-1.57204">
        <ele>52</ele>
        <time>2020-05-24T12:59:19.000Z</time>
      </trkpt>
      <trkpt lat="47.19593" lon="-1.57225">
        <ele>52</ele>
        <time>2020-05-24T12:59:21.000Z</time>
      </trkpt>
      <trkpt lat="47.19591" lon="-1.57247">
        <ele>52</ele>
        <time>2020-05-24T12:59:23.000Z</time>
      </trkpt>
      <trkpt lat="47.1959" lon="-1.57267">
        <ele>52</ele>
        <time>2020-05-24T12:59:25.000Z</time>
      </trkpt>
      <trkpt lat="47.19589" lon="-1.57287">
        <ele>52</ele>
        <time>2020-05-24T12:59:27.000Z</time>
      </trkpt>
      <trkpt lat="47.19588" lon="-1.57308">
        <ele>52</ele>
        <time>2020-05-24T12:59:29.000Z</time>
      </trkpt>
      <trkpt lat="47.19585" lon="-1.57327">
        <ele>52</ele>
        <time>2020-05-24T12:59:31.000Z</time>
      </trkpt>
      <trkpt lat="47.19581" lon="-1.57346">
        <ele>52</ele>
        <time>2020-05-24T12:59:33.000Z</time>
      </trkpt>
      <trkpt lat="47.19577" lon="-1.57364">
        <ele>53</ele>
        <time>2020-05-24T12:59:35.000Z</time>
      </trkpt>
      <trkpt lat="47.19573" lon="-1.57382">
        <ele>53</ele>
        <time>2020-05-24T12:59:37.000Z</time>
      </trkpt>
      <trkpt lat="47.19569" lon="-1.57401">
        <ele>53</ele>
        <time>2020-05-24T12:59:39.000Z</time>
      </trkpt>
      <trkpt lat="47.19565" lon="-1.5742">
        <ele>54</ele>
        <time>2020-05-24T12:59:41.000Z</time>
      </trkpt>
      <trkpt lat="47.19561" lon="-1.57439">
        <ele>54</ele>
        <time>2020-05-24T12:59:43.000Z</time>
      </trkpt>
      <trkpt lat="47.19557" lon="-1.57458">
        <ele>54</ele>
        <time>2020-05-24T12:59:45.000Z</time>
      </trkpt>
      <trkpt lat="47.19553" lon="-1.5748">
        <ele>53</ele>
        <time>2020-05-24T12:59:47.000Z</time>
      </trkpt>
      <trkpt lat="47.1955" lon="-1.57501">
        <ele>53</ele>
        <time>2020-05-24T12:59:49.000Z</time>
      </trkpt>
      <trkpt lat="47.19547" lon="-1.57522">
        <ele>52</ele>
        <time>2020-05-24T12:59:51.000Z</time>
      </trkpt>
      <trkpt lat="47.19543" lon="-1.57543">
        <ele>52</ele>
        <time>2020-05-24T12:59:53.000Z</time>
      </trkpt>
      <trkpt lat="47.19539" lon="-1.57563">
        <ele>53</ele>
        <time>2020-05-24T12:59:55.000Z</time>
      </trkpt>
      <trkpt lat="47.19535" lon="-1.57583">
        <ele>52</ele>
        <time>2020-05-24T12:59:57.000Z</time>
      </trkpt>
      <trkpt lat="47.19531" lon="-1.57603">
        <ele>51</ele>
        <time>2020-05-24T12:59:59.000Z</time>
      </trkpt>
      <trkpt lat="47.19526" lon="-1.57622">
        <ele>51</ele>
        <time>2020-05-24T13:00:01.000Z</time>
      </trkpt>
      <trkpt lat="47.19521" lon="-1.57641">
        <ele>51</ele>
        <time>2020-05-24T13:00:03.000Z</time>
      </trkpt>
      <trkpt lat="47.19518" lon="-1.5766">
        <ele>51</ele>
        <time>2020-05-24T13:00:05.000Z</time>
      </trkpt>
      <trkpt lat="47.19513" lon="-1.57679">
        <ele>51</ele>
        <time>2020-05-24T13:00:07.000Z</time>
      </trkpt>
      <trkpt lat="47.19509" lon="-1.577">
        <ele>51</ele>
        <time>2020-05-24T13:00:09.000Z</time>
      </trkpt>
      <trkpt lat="47.19504" lon="-1.57722">
        <ele>52</ele>
        <time>2020-05-24T13:00:11.000Z</time>
      </trkpt>
      <trkpt lat="47.195" lon="-1.57744">
        <ele>52</ele>
        <time>2020-05-24T13:00:13.000Z</time>
      </trkpt>
      <trkpt lat="47.19496" lon="-1.57767">
        <ele>51</ele>
        <time>2020-05-24T13:00:15.000Z</time>
      </trkpt>
      <trkpt lat="47.19492" lon="-1.57789">
        <ele>51</ele>
        <time>2020-05-24T13:00:17.000Z</time>
      </trkpt>
      <trkpt lat="47.19487" lon="-1.57811">
        <ele>51</ele>
        <time>2020-05-24T13:00:19.000Z</time>
      </trkpt>
      <trkpt lat="47.19483" lon="-1.57832">
        <ele>51</ele>
        <time>2020-05-24T13:00:21.000Z</time>
      </trkpt>
      <trkpt lat="47.19481" lon="-1.57854">
        <ele>50</ele>
        <time>2020-05-24T13:00:23.000Z</time>
      </trkpt>
      <trkpt lat="47.19479" lon="-1.57875">
        <ele>50</ele>
        <time>2020-05-24T13:00:25.000Z</time>
      </trkpt>
      <trkpt lat="47.19474" lon="-1.57897">
        <ele>50</ele>
        <time>2020-05-24T13:00:27.000Z</time>
      </trkpt>
      <trkpt lat="47.19471" lon="-1.5792">
        <ele>51</ele>
        <time>2020-05-24T13:00:29.000Z</time>
      </trkpt>
      <trkpt lat="47.19468" lon="-1.57943">
        <ele>51</ele>
        <time>2020-05-24T13:00:31.000Z</time>
      </trkpt>
      <trkpt lat="47.19466" lon="-1.57965">
        <ele>50</ele>
        <time>2020-05-24T13:00:33.000Z</time>
      </trkpt>
      <trkpt lat="47.19464" lon="-1.57986">
        <ele>50</ele>
        <time>2020-05-24T13:00:35.000Z</time>
      </trkpt>
      <trkpt lat="47.19463" lon="-1.58006">
        <ele>50</ele>
        <time>2020-05-24T13:00:37.000Z</time>
      </trkpt>
      <trkpt lat="47.19462" lon="-1.58025">
        <ele>51</ele>
        <time>2020-05-24T13:00:39.000Z</time>
      </trkpt>
      <trkpt lat="47.1946" lon="-1.58043">
        <ele>51</ele>
        <time>2020-05-24T13:00:41.000Z</time>
      </trkpt>
      <trkpt lat="47.19458" lon="-1.58058">
        <ele>51</ele>
        <time>2020-05-24T13:00:43.000Z</time>
      </trkpt>
      <trkpt lat="47.19456" lon="-1.58075">
        <ele>50</ele>
        <time>2020-05-24T13:00:46.000Z</time>
      </trkpt>
      <trkpt lat="47.19456" lon="-1.58089">
        <ele>50</ele>
        <time>2020-05-24T13:00:49.000Z</time>
      </trkpt>
      <trkpt lat="47.19449" lon="-1.58101">
        <ele>52</ele>
        <time>2020-05-24T13:00:52.000Z</time>
      </trkpt>
      <trkpt lat="47.19442" lon="-1.5811">
        <ele>53</ele>
        <time>2020-05-24T13:00:54.000Z</time>
      </trkpt>
      <trkpt lat="47.19434" lon="-1.58119">
        <ele>54</ele>
        <time>2020-05-24T13:00:56.000Z</time>
      </trkpt>
      <trkpt lat="47.19424" lon="-1.58129">
        <ele>55</ele>
        <time>2020-05-24T13:00:58.000Z</time>
      </trkpt>
      <trkpt lat="47.19413" lon="-1.58143">
        <ele>55</ele>
        <time>2020-05-24T13:01:00.000Z</time>
      </trkpt>
      <trkpt lat="47.19404" lon="-1.58158">
        <ele>55</ele>
        <time>2020-05-24T13:01:02.000Z</time>
      </trkpt>
      <trkpt lat="47.19396" lon="-1.58176">
        <ele>55</ele>
        <time>2020-05-24T13:01:04.000Z</time>
      </trkpt>
      <trkpt lat="47.19389" lon="-1.58193">
        <ele>54</ele>
        <time>2020-05-24T13:01:06.000Z</time>
      </trkpt>
      <trkpt lat="47.19382" lon="-1.58209">
        <ele>55</ele>
        <time>2020-05-24T13:01:08.000Z</time>
      </trkpt>
      <trkpt lat="47.19376" lon="-1.58225">
        <ele>55</ele>
        <time>2020-05-24T13:01:10.000Z</time>
      </trkpt>
      <trkpt lat="47.1937" lon="-1.58241">
        <ele>55</ele>
        <time>2020-05-24T13:01:12.000Z</time>
      </trkpt>
      <trkpt lat="47.19365" lon="-1.58258">
        <ele>55</ele>
        <time>2020-05-24T13:01:14.000Z</time>
      </trkpt>
      <trkpt lat="47.19357" lon="-1.58273">
        <ele>55</ele>
        <time>2020-05-24T13:01:16.000Z</time>
      </trkpt>
      <trkpt lat="47.19347" lon="-1.58287">
        <ele>55</ele>
        <time>2020-05-24T13:01:18.000Z</time>
      </trkpt>
      <trkpt lat="47.19335" lon="-1.58298">
        <ele>55</ele>
        <time>2020-05-24T13:01:20.000Z</time>
      </trkpt>
      <trkpt lat="47.19323" lon="-1.58309">
        <ele>55</ele>
        <time>2020-05-24T13:01:22.000Z</time>
      </trkpt>
      <trkpt lat="47.19312" lon="-1.58319">
        <ele>55</ele>
        <time>2020-05-24T13:01:24.000Z</time>
      </trkpt>
      <trkpt lat="47.19301" lon="-1.58329">
        <ele>55</ele>
        <time>2020-05-24T13:01:26.000Z</time>
      </trkpt>
      <trkpt lat="47.1929" lon="-1.5834">
        <ele>56</ele>
        <time>2020-05-24T13:01:28.000Z</time>
      </trkpt>
      <trkpt lat="47.19279" lon="-1.58351">
        <ele>55</ele>
        <time>2020-05-24T13:01:30.000Z</time>
      </trkpt>
      <trkpt lat="47.19268" lon="-1.58361">
        <ele>55</ele>
        <time>2020-05-24T13:01:32.000Z</time>
      </trkpt>
      <trkpt lat="47.19256" lon="-1.58372">
        <ele>55</ele>
        <time>2020-05-24T13:01:34.000Z</time>
      </trkpt>
      <trkpt lat="47.19245" lon="-1.58382">
        <ele>55</ele>
        <time>2020-05-24T13:01:36.000Z</time>
      </trkpt>
      <trkpt lat="47.19233" lon="-1.58392">
        <ele>55</ele>
        <time>2020-05-24T13:01:38.000Z</time>
      </trkpt>
      <trkpt lat="47.19222" lon="-1.58402">
        <ele>55</ele>
        <time>2020-05-24T13:01:40.000Z</time>
      </trkpt>
      <trkpt lat="47.1921" lon="-1.58412">
        <ele>54</ele>
        <time>2020-05-24T13:01:42.000Z</time>
      </trkpt>
      <trkpt lat="47.19197" lon="-1.58423">
        <ele>54</ele>
        <time>2020-05-24T13:01:44.000Z</time>
      </trkpt>
      <trkpt lat="47.19185" lon="-1.58435">
        <ele>54</ele>
        <time>2020-05-24T13:01:46.000Z</time>
      </trkpt>
      <trkpt lat="47.19173" lon="-1.58447">
        <ele>54</ele>
        <time>2020-05-24T13:01:48.000Z</time>
      </trkpt>
      <trkpt lat="47.19163" lon="-1.58458">
        <ele>54</ele>
        <time>2020-05-24T13:01:50.000Z</time>
      </trkpt>
      <trkpt lat="47.19155" lon="-1.58466">
        <ele>54</ele>
        <time>2020-05-24T13:01:53.000Z</time>
      </trkpt>
      <trkpt lat="47.19144" lon="-1.58475">
        <ele>52</ele>
        <time>2020-05-24T13:02:03.000Z</time>
      </trkpt>
      <trkpt lat="47.19134" lon="-1.58486">
        <ele>51</ele>
        <time>2020-05-24T13:02:05.000Z</time>
      </trkpt>
      <trkpt lat="47.19123" lon="-1.58498">
        <ele>51</ele>
        <time>2020-05-24T13:02:07.000Z</time>
      </trkpt>
      <trkpt lat="47.1911" lon="-1.5851">
        <ele>51</ele>
        <time>2020-05-24T13:02:09.000Z</time>
      </trkpt>
      <trkpt lat="47.19096" lon="-1.58523">
        <ele>51</ele>
        <time>2020-05-24T13:02:11.000Z</time>
      </trkpt>
      <trkpt lat="47.19088" lon="-1.58529">
        <ele>51</ele>
        <time>2020-05-24T13:02:12.000Z</time>
      </trkpt>
      <trkpt lat="47.19075" lon="-1.58542">
        <ele>52</ele>
        <time>2020-05-24T13:02:14.000Z</time>
      </trkpt>
      <trkpt lat="47.19061" lon="-1.58556">
        <ele>52</ele>
        <time>2020-05-24T13:02:16.000Z</time>
      </trkpt>
      <trkpt lat="47.19048" lon="-1.58568">
        <ele>52</ele>
        <time>2020-05-24T13:02:18.000Z</time>
      </trkpt>
      <trkpt lat="47.19035" lon="-1.58581">
        <ele>53</ele>
        <time>2020-05-24T13:02:20.000Z</time>
      </trkpt>
      <trkpt lat="47.19022" lon="-1.58593">
        <ele>53</ele>
        <time>2020-05-24T13:02:22.000Z</time>
      </trkpt>
      <trkpt lat="47.19009" lon="-1.58605">
        <ele>53</ele>
        <time>2020-05-24T13:02:24.000Z</time>
      </trkpt>
      <trkpt lat="47.18997" lon="-1.58617">
        <ele>53</ele>
        <time>2020-05-24T13:02:26.000Z</time>
      </trkpt>
      <trkpt lat="47.18985" lon="-1.58629">
        <ele>54</ele>
        <time>2020-05-24T13:02:28.000Z</time>
      </trkpt>
      <trkpt lat="47.18973" lon="-1.5864">
        <ele>54</ele>
        <time>2020-05-24T13:02:30.000Z</time>
      </trkpt>
      <trkpt lat="47.18961" lon="-1.58652">
        <ele>53</ele>
        <time>2020-05-24T13:02:32.000Z</time>
      </trkpt>
      <trkpt lat="47.18948" lon="-1.58664">
        <ele>53</ele>
        <time>2020-05-24T13:02:34.000Z</time>
      </trkpt>
      <trkpt lat="47.18935" lon="-1.58675">
        <ele>54</ele>
        <time>2020-05-24T13:02:36.000Z</time>
      </trkpt>
      <trkpt lat="47.18923" lon="-1.58687">
        <ele>54</ele>
        <time>2020-05-24T13:02:38.000Z</time>
      </trkpt>
      <trkpt lat="47.18911" lon="-1.58698">
        <ele>53</ele>
        <time>2020-05-24T13:02:40.000Z</time>
      </trkpt>
      <trkpt lat="47.18898" lon="-1.58707">
        <ele>53</ele>
        <time>2020-05-24T13:02:42.000Z</time>
      </trkpt>
      <trkpt lat="47.18886" lon="-1.58715">
        <ele>53</ele>
        <time>2020-05-24T13:02:44.000Z</time>
      </trkpt>
      <trkpt lat="47.18873" lon="-1.58721">
        <ele>52</ele>
        <time>2020-05-24T13:02:46.000Z</time>
      </trkpt>
      <trkpt lat="47.18861" lon="-1.58729">
        <ele>52</ele>
        <time>2020-05-24T13:02:48.000Z</time>
      </trkpt>
      <trkpt lat="47.1885" lon="-1.58735">
        <ele>53</ele>
        <time>2020-05-24T13:02:50.000Z</time>
      </trkpt>
      <trkpt lat="47.18839" lon="-1.58742">
        <ele>53</ele>
        <time>2020-05-24T13:02:52.000Z</time>
      </trkpt>
      <trkpt lat="47.1883" lon="-1.58753">
        <ele>53</ele>
        <time>2020-05-24T13:02:54.000Z</time>
      </trkpt>
      <trkpt lat="47.18823" lon="-1.5877">
        <ele>53</ele>
        <time>2020-05-24T13:02:56.000Z</time>
      </trkpt>
      <trkpt lat="47.18815" lon="-1.58785">
        <ele>53</ele>
        <time>2020-05-24T13:02:58.000Z</time>
      </trkpt>
      <trkpt lat="47.18803" lon="-1.58795">
        <ele>53</ele>
        <time>2020-05-24T13:03:00.000Z</time>
      </trkpt>
      <trkpt lat="47.1879" lon="-1.58798">
        <ele>53</ele>
        <time>2020-05-24T13:03:02.000Z</time>
      </trkpt>
      <trkpt lat="47.18778" lon="-1.58795">
        <ele>54</ele>
        <time>2020-05-24T13:03:04.000Z</time>
      </trkpt>
      <trkpt lat="47.18767" lon="-1.58784">
        <ele>53</ele>
        <time>2020-05-24T13:03:06.000Z</time>
      </trkpt>
      <trkpt lat="47.1876" lon="-1.58768">
        <ele>53</ele>
        <time>2020-05-24T13:03:08.000Z</time>
      </trkpt>
      <trkpt lat="47.18757" lon="-1.58749">
        <ele>53</ele>
        <time>2020-05-24T13:03:10.000Z</time>
      </trkpt>
      <trkpt lat="47.18754" lon="-1.58731">
        <ele>53</ele>
        <time>2020-05-24T13:03:12.000Z</time>
      </trkpt>
      <trkpt lat="47.18745" lon="-1.58718">
        <ele>52</ele>
        <time>2020-05-24T13:03:14.000Z</time>
      </trkpt>
      <trkpt lat="47.18734" lon="-1.58706">
        <ele>51</ele>
        <time>2020-05-24T13:03:16.000Z</time>
      </trkpt>
      <trkpt lat="47.18723" lon="-1.58697">
        <ele>50</ele>
        <time>2020-05-24T13:03:18.000Z</time>
      </trkpt>
      <trkpt lat="47.1871" lon="-1.58693">
        <ele>49</ele>
        <time>2020-05-24T13:03:20.000Z</time>
      </trkpt>
      <trkpt lat="47.18697" lon="-1.58693">
        <ele>49</ele>
        <time>2020-05-24T13:03:22.000Z</time>
      </trkpt>
      <trkpt lat="47.18685" lon="-1.58691">
        <ele>50</ele>
        <time>2020-05-24T13:03:24.000Z</time>
      </trkpt>
      <trkpt lat="47.18674" lon="-1.5869">
        <ele>50</ele>
        <time>2020-05-24T13:03:26.000Z</time>
      </trkpt>
      <trkpt lat="47.18664" lon="-1.58691">
        <ele>50</ele>
        <time>2020-05-24T13:03:28.000Z</time>
      </trkpt>
      <trkpt lat="47.18656" lon="-1.58701">
        <ele>51</ele>
        <time>2020-05-24T13:03:30.000Z</time>
      </trkpt>
      <trkpt lat="47.18651" lon="-1.5872">
        <ele>51</ele>
        <time>2020-05-24T13:03:32.000Z</time>
      </trkpt>
      <trkpt lat="47.18647" lon="-1.58737">
        <ele>52</ele>
        <time>2020-05-24T13:03:34.000Z</time>
      </trkpt>
      <trkpt lat="47.18645" lon="-1.58754">
        <ele>52</ele>
        <time>2020-05-24T13:03:36.000Z</time>
      </trkpt>
      <trkpt lat="47.18642" lon="-1.58771">
        <ele>53</ele>
        <time>2020-05-24T13:03:38.000Z</time>
      </trkpt>
      <trkpt lat="47.18639" lon="-1.58789">
        <ele>53</ele>
        <time>2020-05-24T13:03:40.000Z</time>
      </trkpt>
      <trkpt lat="47.18636" lon="-1.58806">
        <ele>53</ele>
        <time>2020-05-24T13:03:42.000Z</time>
      </trkpt>
      <trkpt lat="47.18634" lon="-1.58824">
        <ele>54</ele>
        <time>2020-05-24T13:03:44.000Z</time>
      </trkpt>
      <trkpt lat="47.18631" lon="-1.58841">
        <ele>54</ele>
        <time>2020-05-24T13:03:46.000Z</time>
      </trkpt>
      <trkpt lat="47.18628" lon="-1.58856">
        <ele>54</ele>
        <time>2020-05-24T13:03:48.000Z</time>
      </trkpt>
      <trkpt lat="47.18625" lon="-1.58873">
        <ele>54</ele>
        <time>2020-05-24T13:03:50.000Z</time>
      </trkpt>
      <trkpt lat="47.18622" lon="-1.58887">
        <ele>55</ele>
        <time>2020-05-24T13:03:52.000Z</time>
      </trkpt>
      <trkpt lat="47.18615" lon="-1.589">
        <ele>56</ele>
        <time>2020-05-24T13:03:54.000Z</time>
      </trkpt>
      <trkpt lat="47.18605" lon="-1.58912">
        <ele>56</ele>
        <time>2020-05-24T13:03:56.000Z</time>
      </trkpt>
      <trkpt lat="47.18595" lon="-1.58918">
        <ele>57</ele>
        <time>2020-05-24T13:03:58.000Z</time>
      </trkpt>
      <trkpt lat="47.18585" lon="-1.58918">
        <ele>57</ele>
        <time>2020-05-24T13:04:00.000Z</time>
      </trkpt>
      <trkpt lat="47.18575" lon="-1.58914">
        <ele>58</ele>
        <time>2020-05-24T13:04:02.000Z</time>
      </trkpt>
      <trkpt lat="47.18565" lon="-1.58909">
        <ele>58</ele>
        <time>2020-05-24T13:04:04.000Z</time>
      </trkpt>
      <trkpt lat="47.18554" lon="-1.58905">
        <ele>58</ele>
        <time>2020-05-24T13:04:06.000Z</time>
      </trkpt>
      <trkpt lat="47.18544" lon="-1.58901">
        <ele>59</ele>
        <time>2020-05-24T13:04:08.000Z</time>
      </trkpt>
      <trkpt lat="47.18535" lon="-1.58898">
        <ele>59</ele>
        <time>2020-05-24T13:04:10.000Z</time>
      </trkpt>
      <trkpt lat="47.18525" lon="-1.58894">
        <ele>59</ele>
        <time>2020-05-24T13:04:12.000Z</time>
      </trkpt>
      <trkpt lat="47.18515" lon="-1.58889">
        <ele>59</ele>
        <time>2020-05-24T13:04:14.000Z</time>
      </trkpt>
      <trkpt lat="47.18503" lon="-1.58883">
        <ele>59</ele>
        <time>2020-05-24T13:04:17.000Z</time>
      </trkpt>
      <trkpt lat="47.18493" lon="-1.58882">
        <ele>59</ele>
        <time>2020-05-24T13:04:20.000Z</time>
      </trkpt>
      <trkpt lat="47.18484" lon="-1.58897">
        <ele>60</ele>
        <time>2020-05-24T13:04:23.000Z</time>
      </trkpt>
      <trkpt lat="47.18479" lon="-1.58908">
        <ele>61</ele>
        <time>2020-05-24T13:04:25.000Z</time>
      </trkpt>
      <trkpt lat="47.18472" lon="-1.58917">
        <ele>62</ele>
        <time>2020-05-24T13:04:27.000Z</time>
      </trkpt>
      <trkpt lat="47.18462" lon="-1.58926">
        <ele>63</ele>
        <time>2020-05-24T13:04:29.000Z</time>
      </trkpt>
      <trkpt lat="47.18454" lon="-1.58933">
        <ele>64</ele>
        <time>2020-05-24T13:04:31.000Z</time>
      </trkpt>
      <trkpt lat="47.18446" lon="-1.5894">
        <ele>64</ele>
        <time>2020-05-24T13:04:33.000Z</time>
      </trkpt>
      <trkpt lat="47.18437" lon="-1.58946">
        <ele>65</ele>
        <time>2020-05-24T13:04:35.000Z</time>
      </trkpt>
      <trkpt lat="47.18428" lon="-1.58951">
        <ele>65</ele>
        <time>2020-05-24T13:04:37.000Z</time>
      </trkpt>
      <trkpt lat="47.18419" lon="-1.58956">
        <ele>64</ele>
        <time>2020-05-24T13:04:39.000Z</time>
      </trkpt>
      <trkpt lat="47.1841" lon="-1.58963">
        <ele>64</ele>
        <time>2020-05-24T13:04:41.000Z</time>
      </trkpt>
      <trkpt lat="47.18401" lon="-1.58969">
        <ele>64</ele>
        <time>2020-05-24T13:04:43.000Z</time>
      </trkpt>
      <trkpt lat="47.18392" lon="-1.58974">
        <ele>65</ele>
        <time>2020-05-24T13:04:45.000Z</time>
      </trkpt>
      <trkpt lat="47.18383" lon="-1.5898">
        <ele>66</ele>
        <time>2020-05-24T13:04:47.000Z</time>
      </trkpt>
      <trkpt lat="47.18374" lon="-1.58986">
        <ele>66</ele>
        <time>2020-05-24T13:04:49.000Z</time>
      </trkpt>
      <trkpt lat="47.18363" lon="-1.5899">
        <ele>67</ele>
        <time>2020-05-24T13:04:52.000Z</time>
      </trkpt>
      <trkpt lat="47.18356" lon="-1.58983">
        <ele>68</ele>
        <time>2020-05-24T13:04:54.000Z</time>
      </trkpt>
      <trkpt lat="47.18349" lon="-1.58973">
        <ele>68</ele>
        <time>2020-05-24T13:04:56.000Z</time>
      </trkpt>
      <trkpt lat="47.1834" lon="-1.58959">
        <ele>67</ele>
        <time>2020-05-24T13:04:59.000Z</time>
      </trkpt>
      <trkpt lat="47.18333" lon="-1.5895">
        <ele>66</ele>
        <time>2020-05-24T13:05:01.000Z</time>
      </trkpt>
      <trkpt lat="47.18326" lon="-1.58936">
        <ele>65</ele>
        <time>2020-05-24T13:05:04.000Z</time>
      </trkpt>
      <trkpt lat="47.18323" lon="-1.58922">
        <ele>66</ele>
        <time>2020-05-24T13:05:07.000Z</time>
      </trkpt>
      <trkpt lat="47.18321" lon="-1.58906">
        <ele>66</ele>
        <time>2020-05-24T13:05:10.000Z</time>
      </trkpt>
      <trkpt lat="47.18321" lon="-1.5889">
        <ele>66</ele>
        <time>2020-05-24T13:05:14.000Z</time>
      </trkpt>
      <trkpt lat="47.18314" lon="-1.589">
        <ele>64</ele>
        <time>2020-05-24T13:05:58.000Z</time>
      </trkpt>
      <trkpt lat="47.1831" lon="-1.58914">
        <ele>59</ele>
        <time>2020-05-24T13:34:35.000Z</time>
      </trkpt>
      <trkpt lat="47.18316" lon="-1.58903">
        <ele>69</ele>
        <time>2020-05-24T13:39:30.000Z</time>
      </trkpt>
      <trkpt lat="47.1831" lon="-1.58913">
        <ele>57</ele>
        <time>2020-05-24T13:50:33.000Z</time>
      </trkpt>
      <trkpt lat="47.1831" lon="-1.58899">
        <ele>67</ele>
        <time>2020-05-24T13:59:00.000Z</time>
      </trkpt>
      <trkpt lat="47.18318" lon="-1.58892">
        <ele>65</ele>
        <time>2020-05-24T14:07:23.000Z</time>
      </trkpt>
      <trkpt lat="47.18321" lon="-1.58908">
        <ele>63</ele>
        <time>2020-05-24T14:07:28.000Z</time>
      </trkpt>
      <trkpt lat="47.18321" lon="-1.58922">
        <ele>63</ele>
        <time>2020-05-24T14:07:31.000Z</time>
      </trkpt>
      <trkpt lat="47.18324" lon="-1.58937">
        <ele>65</ele>
        <time>2020-05-24T14:07:34.000Z</time>
      </trkpt>
      <trkpt lat="47.18332" lon="-1.58951">
        <ele>65</ele>
        <time>2020-05-24T14:07:37.000Z</time>
      </trkpt>
      <trkpt lat="47.1834" lon="-1.58962">
        <ele>66</ele>
        <time>2020-05-24T14:07:40.000Z</time>
      </trkpt>
      <trkpt lat="47.18347" lon="-1.58971">
        <ele>67</ele>
        <time>2020-05-24T14:07:42.000Z</time>
      </trkpt>
      <trkpt lat="47.18354" lon="-1.58981">
        <ele>66</ele>
        <time>2020-05-24T14:07:44.000Z</time>
      </trkpt>
      <trkpt lat="47.18355" lon="-1.58996">
        <ele>66</ele>
        <time>2020-05-24T14:07:47.000Z</time>
      </trkpt>
      <trkpt lat="47.1835" lon="-1.59007">
        <ele>65</ele>
        <time>2020-05-24T14:07:49.000Z</time>
      </trkpt>
      <trkpt lat="47.18343" lon="-1.59018">
        <ele>65</ele>
        <time>2020-05-24T14:07:51.000Z</time>
      </trkpt>
      <trkpt lat="47.18337" lon="-1.59031">
        <ele>65</ele>
        <time>2020-05-24T14:07:53.000Z</time>
      </trkpt>
      <trkpt lat="47.18331" lon="-1.59045">
        <ele>65</ele>
        <time>2020-05-24T14:07:55.000Z</time>
      </trkpt>
      <trkpt lat="47.18326" lon="-1.59061">
        <ele>65</ele>
        <time>2020-05-24T14:07:57.000Z</time>
      </trkpt>
      <trkpt lat="47.1832" lon="-1.59077">
        <ele>65</ele>
        <time>2020-05-24T14:07:59.000Z</time>
      </trkpt>
      <trkpt lat="47.18314" lon="-1.59094">
        <ele>66</ele>
        <time>2020-05-24T14:08:01.000Z</time>
      </trkpt>
      <trkpt lat="47.18308" lon="-1.5911">
        <ele>66</ele>
        <time>2020-05-24T14:08:03.000Z</time>
      </trkpt>
      <trkpt lat="47.18302" lon="-1.59128">
        <ele>67</ele>
        <time>2020-05-24T14:08:05.000Z</time>
      </trkpt>
      <trkpt lat="47.18297" lon="-1.59144">
        <ele>67</ele>
        <time>2020-05-24T14:08:07.000Z</time>
      </trkpt>
      <trkpt lat="47.18291" lon="-1.5916">
        <ele>67</ele>
        <time>2020-05-24T14:08:09.000Z</time>
      </trkpt>
      <trkpt lat="47.18286" lon="-1.59178">
        <ele>67</ele>
        <time>2020-05-24T14:08:11.000Z</time>
      </trkpt>
      <trkpt lat="47.18282" lon="-1.59194">
        <ele>68</ele>
        <time>2020-05-24T14:08:13.000Z</time>
      </trkpt>
      <trkpt lat="47.18277" lon="-1.5921">
        <ele>68</ele>
        <time>2020-05-24T14:08:15.000Z</time>
      </trkpt>
      <trkpt lat="47.18266" lon="-1.5922">
        <ele>68</ele>
        <time>2020-05-24T14:08:17.000Z</time>
      </trkpt>
      <trkpt lat="47.18255" lon="-1.59229">
        <ele>69</ele>
        <time>2020-05-24T14:08:19.000Z</time>
      </trkpt>
      <trkpt lat="47.18246" lon="-1.59241">
        <ele>69</ele>
        <time>2020-05-24T14:08:21.000Z</time>
      </trkpt>
      <trkpt lat="47.18235" lon="-1.59252">
        <ele>69</ele>
        <time>2020-05-24T14:08:23.000Z</time>
      </trkpt>
      <trkpt lat="47.18224" lon="-1.59263">
        <ele>70</ele>
        <time>2020-05-24T14:08:25.000Z</time>
      </trkpt>
      <trkpt lat="47.18214" lon="-1.59273">
        <ele>70</ele>
        <time>2020-05-24T14:08:27.000Z</time>
      </trkpt>
      <trkpt lat="47.18203" lon="-1.59284">
        <ele>70</ele>
        <time>2020-05-24T14:08:29.000Z</time>
      </trkpt>
      <trkpt lat="47.18192" lon="-1.59295">
        <ele>70</ele>
        <time>2020-05-24T14:08:31.000Z</time>
      </trkpt>
      <trkpt lat="47.18181" lon="-1.59306">
        <ele>70</ele>
        <time>2020-05-24T14:08:33.000Z</time>
      </trkpt>
      <trkpt lat="47.1817" lon="-1.59317">
        <ele>70</ele>
        <time>2020-05-24T14:08:35.000Z</time>
      </trkpt>
      <trkpt lat="47.18158" lon="-1.59328">
        <ele>70</ele>
        <time>2020-05-24T14:08:37.000Z</time>
      </trkpt>
      <trkpt lat="47.18148" lon="-1.59339">
        <ele>70</ele>
        <time>2020-05-24T14:08:39.000Z</time>
      </trkpt>
      <trkpt lat="47.18137" lon="-1.5935">
        <ele>70</ele>
        <time>2020-05-24T14:08:41.000Z</time>
      </trkpt>
      <trkpt lat="47.18126" lon="-1.59361">
        <ele>70</ele>
        <time>2020-05-24T14:08:43.000Z</time>
      </trkpt>
      <trkpt lat="47.18115" lon="-1.59373">
        <ele>69</ele>
        <time>2020-05-24T14:08:45.000Z</time>
      </trkpt>
      <trkpt lat="47.18103" lon="-1.59383">
        <ele>70</ele>
        <time>2020-05-24T14:08:47.000Z</time>
      </trkpt>
      <trkpt lat="47.18092" lon="-1.59393">
        <ele>70</ele>
        <time>2020-05-24T14:08:49.000Z</time>
      </trkpt>
      <trkpt lat="47.18082" lon="-1.59403">
        <ele>70</ele>
        <time>2020-05-24T14:08:51.000Z</time>
      </trkpt>
      <trkpt lat="47.18072" lon="-1.59414">
        <ele>70</ele>
        <time>2020-05-24T14:08:53.000Z</time>
      </trkpt>
      <trkpt lat="47.18063" lon="-1.59427">
        <ele>70</ele>
        <time>2020-05-24T14:08:55.000Z</time>
      </trkpt>
      <trkpt lat="47.18054" lon="-1.5944">
        <ele>71</ele>
        <time>2020-05-24T14:08:57.000Z</time>
      </trkpt>
      <trkpt lat="47.18047" lon="-1.59455">
        <ele>71</ele>
        <time>2020-05-24T14:08:59.000Z</time>
      </trkpt>
      <trkpt lat="47.1804" lon="-1.59473">
        <ele>71</ele>
        <time>2020-05-24T14:09:01.000Z</time>
      </trkpt>
      <trkpt lat="47.18034" lon="-1.5949">
        <ele>71</ele>
        <time>2020-05-24T14:09:03.000Z</time>
      </trkpt>
      <trkpt lat="47.1803" lon="-1.59509">
        <ele>70</ele>
        <time>2020-05-24T14:09:05.000Z</time>
      </trkpt>
      <trkpt lat="47.18025" lon="-1.59526">
        <ele>70</ele>
        <time>2020-05-24T14:09:07.000Z</time>
      </trkpt>
      <trkpt lat="47.18021" lon="-1.59544">
        <ele>70</ele>
        <time>2020-05-24T14:09:09.000Z</time>
      </trkpt>
      <trkpt lat="47.18016" lon="-1.59563">
        <ele>70</ele>
        <time>2020-05-24T14:09:11.000Z</time>
      </trkpt>
      <trkpt lat="47.18011" lon="-1.59581">
        <ele>70</ele>
        <time>2020-05-24T14:09:13.000Z</time>
      </trkpt>
      <trkpt lat="47.18007" lon="-1.596">
        <ele>70</ele>
        <time>2020-05-24T14:09:15.000Z</time>
      </trkpt>
      <trkpt lat="47.18002" lon="-1.59618">
        <ele>70</ele>
        <time>2020-05-24T14:09:17.000Z</time>
      </trkpt>
      <trkpt lat="47.17996" lon="-1.59636">
        <ele>69</ele>
        <time>2020-05-24T14:09:19.000Z</time>
      </trkpt>
      <trkpt lat="47.17991" lon="-1.59654">
        <ele>69</ele>
        <time>2020-05-24T14:09:21.000Z</time>
      </trkpt>
      <trkpt lat="47.17987" lon="-1.59672">
        <ele>68</ele>
        <time>2020-05-24T14:09:23.000Z</time>
      </trkpt>
      <trkpt lat="47.17982" lon="-1.59692">
        <ele>67</ele>
        <time>2020-05-24T14:09:25.000Z</time>
      </trkpt>
      <trkpt lat="47.17977" lon="-1.59712">
        <ele>66</ele>
        <time>2020-05-24T14:09:27.000Z</time>
      </trkpt>
      <trkpt lat="47.1797" lon="-1.59732">
        <ele>65</ele>
        <time>2020-05-24T14:09:29.000Z</time>
      </trkpt>
      <trkpt lat="47.17965" lon="-1.59752">
        <ele>65</ele>
        <time>2020-05-24T14:09:31.000Z</time>
      </trkpt>
      <trkpt lat="47.17958" lon="-1.59775">
        <ele>64</ele>
        <time>2020-05-24T14:09:33.000Z</time>
      </trkpt>
      <trkpt lat="47.17954" lon="-1.598">
        <ele>64</ele>
        <time>2020-05-24T14:09:35.000Z</time>
      </trkpt>
      <trkpt lat="47.17952" lon="-1.59813">
        <ele>63</ele>
        <time>2020-05-24T14:09:36.000Z</time>
      </trkpt>
      <trkpt lat="47.17949" lon="-1.59826">
        <ele>63</ele>
        <time>2020-05-24T14:09:37.000Z</time>
      </trkpt>
      <trkpt lat="47.17947" lon="-1.5984">
        <ele>62</ele>
        <time>2020-05-24T14:09:38.000Z</time>
      </trkpt>
      <trkpt lat="47.17945" lon="-1.59854">
        <ele>61</ele>
        <time>2020-05-24T14:09:39.000Z</time>
      </trkpt>
      <trkpt lat="47.17943" lon="-1.59869">
        <ele>61</ele>
        <time>2020-05-24T14:09:40.000Z</time>
      </trkpt>
      <trkpt lat="47.17939" lon="-1.59883">
        <ele>61</ele>
        <time>2020-05-24T14:09:41.000Z</time>
      </trkpt>
      <trkpt lat="47.17936" lon="-1.59897">
        <ele>60</ele>
        <time>2020-05-24T14:09:42.000Z</time>
      </trkpt>
      <trkpt lat="47.17933" lon="-1.59911">
        <ele>59</ele>
        <time>2020-05-24T14:09:43.000Z</time>
      </trkpt>
      <trkpt lat="47.17931" lon="-1.59926">
        <ele>59</ele>
        <time>2020-05-24T14:09:44.000Z</time>
      </trkpt>
      <trkpt lat="47.17925" lon="-1.59938">
        <ele>59</ele>
        <time>2020-05-24T14:09:45.000Z</time>
      </trkpt>
      <trkpt lat="47.17915" lon="-1.59943">
        <ele>58</ele>
        <time>2020-05-24T14:09:46.000Z</time>
      </trkpt>
      <trkpt lat="47.17905" lon="-1.59943">
        <ele>58</ele>
        <time>2020-05-24T14:09:47.000Z</time>
      </trkpt>
      <trkpt lat="47.17895" lon="-1.59944">
        <ele>57</ele>
        <time>2020-05-24T14:09:48.000Z</time>
      </trkpt>
      <trkpt lat="47.17882" lon="-1.59957">
        <ele>56</ele>
        <time>2020-05-24T14:09:50.000Z</time>
      </trkpt>
      <trkpt lat="47.17873" lon="-1.59975">
        <ele>56</ele>
        <time>2020-05-24T14:09:52.000Z</time>
      </trkpt>
      <trkpt lat="47.17863" lon="-1.59992">
        <ele>56</ele>
        <time>2020-05-24T14:09:54.000Z</time>
      </trkpt>
      <trkpt lat="47.17854" lon="-1.60009">
        <ele>57</ele>
        <time>2020-05-24T14:09:56.000Z</time>
      </trkpt>
      <trkpt lat="47.17845" lon="-1.60024">
        <ele>58</ele>
        <time>2020-05-24T14:09:58.000Z</time>
      </trkpt>
      <trkpt lat="47.17837" lon="-1.60038">
        <ele>58</ele>
        <time>2020-05-24T14:10:00.000Z</time>
      </trkpt>
      <trkpt lat="47.17828" lon="-1.60052">
        <ele>59</ele>
        <time>2020-05-24T14:10:02.000Z</time>
      </trkpt>
      <trkpt lat="47.17819" lon="-1.60066">
        <ele>59</ele>
        <time>2020-05-24T14:10:04.000Z</time>
      </trkpt>
      <trkpt lat="47.17811" lon="-1.6008">
        <ele>59</ele>
        <time>2020-05-24T14:10:06.000Z</time>
      </trkpt>
      <trkpt lat="47.17799" lon="-1.60102">
        <ele>60</ele>
        <time>2020-05-24T14:10:09.000Z</time>
      </trkpt>
      <trkpt lat="47.17791" lon="-1.60116">
        <ele>60</ele>
        <time>2020-05-24T14:10:11.000Z</time>
      </trkpt>
      <trkpt lat="47.17779" lon="-1.60137">
        <ele>61</ele>
        <time>2020-05-24T14:10:14.000Z</time>
      </trkpt>
      <trkpt lat="47.17767" lon="-1.60159">
        <ele>61</ele>
        <time>2020-05-24T14:10:17.000Z</time>
      </trkpt>
      <trkpt lat="47.1776" lon="-1.60175">
        <ele>62</ele>
        <time>2020-05-24T14:10:19.000Z</time>
      </trkpt>
      <trkpt lat="47.17755" lon="-1.60192">
        <ele>62</ele>
        <time>2020-05-24T14:10:21.000Z</time>
      </trkpt>
      <trkpt lat="47.17751" lon="-1.60208">
        <ele>63</ele>
        <time>2020-05-24T14:10:23.000Z</time>
      </trkpt>
      <trkpt lat="47.17744" lon="-1.60234">
        <ele>64</ele>
        <time>2020-05-24T14:10:26.000Z</time>
      </trkpt>
      <trkpt lat="47.1774" lon="-1.6025">
        <ele>64</ele>
        <time>2020-05-24T14:10:28.000Z</time>
      </trkpt>
      <trkpt lat="47.17734" lon="-1.60266">
        <ele>64</ele>
        <time>2020-05-24T14:10:30.000Z</time>
      </trkpt>
      <trkpt lat="47.17727" lon="-1.6028">
        <ele>64</ele>
        <time>2020-05-24T14:10:32.000Z</time>
      </trkpt>
      <trkpt lat="47.17718" lon="-1.60292">
        <ele>65</ele>
        <time>2020-05-24T14:10:34.000Z</time>
      </trkpt>
      <trkpt lat="47.17709" lon="-1.60305">
        <ele>66</ele>
        <time>2020-05-24T14:10:36.000Z</time>
      </trkpt>
      <trkpt lat="47.17701" lon="-1.60317">
        <ele>66</ele>
        <time>2020-05-24T14:10:38.000Z</time>
      </trkpt>
      <trkpt lat="47.17693" lon="-1.6033">
        <ele>66</ele>
        <time>2020-05-24T14:10:40.000Z</time>
      </trkpt>
      <trkpt lat="47.17684" lon="-1.60342">
        <ele>66</ele>
        <time>2020-05-24T14:10:42.000Z</time>
      </trkpt>
      <trkpt lat="47.17674" lon="-1.60354">
        <ele>66</ele>
        <time>2020-05-24T14:10:44.000Z</time>
      </trkpt>
      <trkpt lat="47.17665" lon="-1.60367">
        <ele>66</ele>
        <time>2020-05-24T14:10:46.000Z</time>
      </trkpt>
      <trkpt lat="47.17657" lon="-1.6038">
        <ele>66</ele>
        <time>2020-05-24T14:10:48.000Z</time>
      </trkpt>
      <trkpt lat="47.17648" lon="-1.60394">
        <ele>66</ele>
        <time>2020-05-24T14:10:50.000Z</time>
      </trkpt>
      <trkpt lat="47.17639" lon="-1.60409">
        <ele>66</ele>
        <time>2020-05-24T14:10:52.000Z</time>
      </trkpt>
      <trkpt lat="47.17629" lon="-1.60425">
        <ele>65</ele>
        <time>2020-05-24T14:10:54.000Z</time>
      </trkpt>
      <trkpt lat="47.17619" lon="-1.60439">
        <ele>65</ele>
        <time>2020-05-24T14:10:56.000Z</time>
      </trkpt>
      <trkpt lat="47.17609" lon="-1.60454">
        <ele>64</ele>
        <time>2020-05-24T14:10:58.000Z</time>
      </trkpt>
      <trkpt lat="47.17599" lon="-1.6047">
        <ele>64</ele>
        <time>2020-05-24T14:11:00.000Z</time>
      </trkpt>
      <trkpt lat="47.17589" lon="-1.60486">
        <ele>65</ele>
        <time>2020-05-24T14:11:02.000Z</time>
      </trkpt>
      <trkpt lat="47.17576" lon="-1.60509">
        <ele>64</ele>
        <time>2020-05-24T14:11:05.000Z</time>
      </trkpt>
      <trkpt lat="47.17563" lon="-1.60531">
        <ele>64</ele>
        <time>2020-05-24T14:11:08.000Z</time>
      </trkpt>
      <trkpt lat="47.17549" lon="-1.60553">
        <ele>64</ele>
        <time>2020-05-24T14:11:11.000Z</time>
      </trkpt>
      <trkpt lat="47.1754" lon="-1.60567">
        <ele>64</ele>
        <time>2020-05-24T14:11:13.000Z</time>
      </trkpt>
      <trkpt lat="47.1753" lon="-1.60581">
        <ele>63</ele>
        <time>2020-05-24T14:11:15.000Z</time>
      </trkpt>
      <trkpt lat="47.17521" lon="-1.60596">
        <ele>63</ele>
        <time>2020-05-24T14:11:17.000Z</time>
      </trkpt>
      <trkpt lat="47.17512" lon="-1.6061">
        <ele>63</ele>
        <time>2020-05-24T14:11:19.000Z</time>
      </trkpt>
      <trkpt lat="47.17503" lon="-1.60625">
        <ele>63</ele>
        <time>2020-05-24T14:11:21.000Z</time>
      </trkpt>
      <trkpt lat="47.17494" lon="-1.6064">
        <ele>63</ele>
        <time>2020-05-24T14:11:23.000Z</time>
      </trkpt>
      <trkpt lat="47.17485" lon="-1.60654">
        <ele>63</ele>
        <time>2020-05-24T14:11:25.000Z</time>
      </trkpt>
      <trkpt lat="47.17477" lon="-1.6067">
        <ele>62</ele>
        <time>2020-05-24T14:11:27.000Z</time>
      </trkpt>
      <trkpt lat="47.17468" lon="-1.60685">
        <ele>61</ele>
        <time>2020-05-24T14:11:29.000Z</time>
      </trkpt>
      <trkpt lat="47.17458" lon="-1.607">
        <ele>61</ele>
        <time>2020-05-24T14:11:31.000Z</time>
      </trkpt>
      <trkpt lat="47.17448" lon="-1.60717">
        <ele>60</ele>
        <time>2020-05-24T14:11:33.000Z</time>
      </trkpt>
      <trkpt lat="47.17438" lon="-1.60733">
        <ele>60</ele>
        <time>2020-05-24T14:11:35.000Z</time>
      </trkpt>
      <trkpt lat="47.17429" lon="-1.60751">
        <ele>59</ele>
        <time>2020-05-24T14:11:37.000Z</time>
      </trkpt>
      <trkpt lat="47.17421" lon="-1.60772">
        <ele>59</ele>
        <time>2020-05-24T14:11:39.000Z</time>
      </trkpt>
      <trkpt lat="47.17413" lon="-1.60794">
        <ele>59</ele>
        <time>2020-05-24T14:11:41.000Z</time>
      </trkpt>
      <trkpt lat="47.17407" lon="-1.60816">
        <ele>58</ele>
        <time>2020-05-24T14:11:43.000Z</time>
      </trkpt>
      <trkpt lat="47.17402" lon="-1.60839">
        <ele>57</ele>
        <time>2020-05-24T14:11:45.000Z</time>
      </trkpt>
      <trkpt lat="47.17398" lon="-1.60864">
        <ele>57</ele>
        <time>2020-05-24T14:11:47.000Z</time>
      </trkpt>
      <trkpt lat="47.17397" lon="-1.60887">
        <ele>56</ele>
        <time>2020-05-24T14:11:49.000Z</time>
      </trkpt>
      <trkpt lat="47.17397" lon="-1.60911">
        <ele>56</ele>
        <time>2020-05-24T14:11:51.000Z</time>
      </trkpt>
      <trkpt lat="47.17398" lon="-1.60936">
        <ele>55</ele>
        <time>2020-05-24T14:11:53.000Z</time>
      </trkpt>
      <trkpt lat="47.17403" lon="-1.60957">
        <ele>54</ele>
        <time>2020-05-24T14:11:55.000Z</time>
      </trkpt>
      <trkpt lat="47.17409" lon="-1.60976">
        <ele>54</ele>
        <time>2020-05-24T14:11:57.000Z</time>
      </trkpt>
      <trkpt lat="47.17417" lon="-1.60993">
        <ele>53</ele>
        <time>2020-05-24T14:11:59.000Z</time>
      </trkpt>
      <trkpt lat="47.17422" lon="-1.61014">
        <ele>53</ele>
        <time>2020-05-24T14:12:01.000Z</time>
      </trkpt>
      <trkpt lat="47.17422" lon="-1.61035">
        <ele>53</ele>
        <time>2020-05-24T14:12:03.000Z</time>
      </trkpt>
      <trkpt lat="47.17426" lon="-1.61052">
        <ele>53</ele>
        <time>2020-05-24T14:12:05.000Z</time>
      </trkpt>
      <trkpt lat="47.17432" lon="-1.61067">
        <ele>53</ele>
        <time>2020-05-24T14:12:07.000Z</time>
      </trkpt>
      <trkpt lat="47.1744" lon="-1.61082">
        <ele>54</ele>
        <time>2020-05-24T14:12:09.000Z</time>
      </trkpt>
      <trkpt lat="47.17446" lon="-1.61099">
        <ele>54</ele>
        <time>2020-05-24T14:12:11.000Z</time>
      </trkpt>
      <trkpt lat="47.17452" lon="-1.61115">
        <ele>54</ele>
        <time>2020-05-24T14:12:13.000Z</time>
      </trkpt>
      <trkpt lat="47.17462" lon="-1.61139">
        <ele>54</ele>
        <time>2020-05-24T14:12:16.000Z</time>
      </trkpt>
      <trkpt lat="47.17468" lon="-1.61154">
        <ele>54</ele>
        <time>2020-05-24T14:12:18.000Z</time>
      </trkpt>
      <trkpt lat="47.17474" lon="-1.6117">
        <ele>54</ele>
        <time>2020-05-24T14:12:20.000Z</time>
      </trkpt>
      <trkpt lat="47.1748" lon="-1.61185">
        <ele>55</ele>
        <time>2020-05-24T14:12:22.000Z</time>
      </trkpt>
      <trkpt lat="47.17487" lon="-1.61201">
        <ele>55</ele>
        <time>2020-05-24T14:12:24.000Z</time>
      </trkpt>
      <trkpt lat="47.17492" lon="-1.61217">
        <ele>55</ele>
        <time>2020-05-24T14:12:26.000Z</time>
      </trkpt>
      <trkpt lat="47.17499" lon="-1.61232">
        <ele>55</ele>
        <time>2020-05-24T14:12:28.000Z</time>
      </trkpt>
      <trkpt lat="47.17506" lon="-1.61248">
        <ele>54</ele>
        <time>2020-05-24T14:12:30.000Z</time>
      </trkpt>
      <trkpt lat="47.17517" lon="-1.61268">
        <ele>55</ele>
        <time>2020-05-24T14:12:33.000Z</time>
      </trkpt>
      <trkpt lat="47.17526" lon="-1.6128">
        <ele>54</ele>
        <time>2020-05-24T14:12:35.000Z</time>
      </trkpt>
      <trkpt lat="47.17536" lon="-1.61289">
        <ele>54</ele>
        <time>2020-05-24T14:12:37.000Z</time>
      </trkpt>
      <trkpt lat="47.17548" lon="-1.61296">
        <ele>55</ele>
        <time>2020-05-24T14:12:39.000Z</time>
      </trkpt>
      <trkpt lat="47.17558" lon="-1.61306">
        <ele>55</ele>
        <time>2020-05-24T14:12:41.000Z</time>
      </trkpt>
      <trkpt lat="47.17562" lon="-1.61324">
        <ele>56</ele>
        <time>2020-05-24T14:12:43.000Z</time>
      </trkpt>
      <trkpt lat="47.17558" lon="-1.61341">
        <ele>56</ele>
        <time>2020-05-24T14:12:45.000Z</time>
      </trkpt>
      <trkpt lat="47.17548" lon="-1.61354">
        <ele>57</ele>
        <time>2020-05-24T14:12:47.000Z</time>
      </trkpt>
      <trkpt lat="47.17537" lon="-1.61364">
        <ele>57</ele>
        <time>2020-05-24T14:12:49.000Z</time>
      </trkpt>
      <trkpt lat="47.1753" lon="-1.6138">
        <ele>57</ele>
        <time>2020-05-24T14:12:51.000Z</time>
      </trkpt>
      <trkpt lat="47.17525" lon="-1.61399">
        <ele>58</ele>
        <time>2020-05-24T14:12:53.000Z</time>
      </trkpt>
      <trkpt lat="47.17519" lon="-1.61426">
        <ele>60</ele>
        <time>2020-05-24T14:12:56.000Z</time>
      </trkpt>
      <trkpt lat="47.17516" lon="-1.61444">
        <ele>60</ele>
        <time>2020-05-24T14:12:58.000Z</time>
      </trkpt>
      <trkpt lat="47.17508" lon="-1.61457">
        <ele>61</ele>
        <time>2020-05-24T14:13:00.000Z</time>
      </trkpt>
      <trkpt lat="47.17496" lon="-1.61465">
        <ele>62</ele>
        <time>2020-05-24T14:13:02.000Z</time>
      </trkpt>
      <trkpt lat="47.17484" lon="-1.61471">
        <ele>64</ele>
        <time>2020-05-24T14:13:04.000Z</time>
      </trkpt>
      <trkpt lat="47.17472" lon="-1.61477">
        <ele>64</ele>
        <time>2020-05-24T14:13:06.000Z</time>
      </trkpt>
      <trkpt lat="47.1746" lon="-1.61482">
        <ele>65</ele>
        <time>2020-05-24T14:13:08.000Z</time>
      </trkpt>
      <trkpt lat="47.17448" lon="-1.61488">
        <ele>65</ele>
        <time>2020-05-24T14:13:10.000Z</time>
      </trkpt>
      <trkpt lat="47.17437" lon="-1.61495">
        <ele>65</ele>
        <time>2020-05-24T14:13:12.000Z</time>
      </trkpt>
      <trkpt lat="47.17426" lon="-1.61503">
        <ele>65</ele>
        <time>2020-05-24T14:13:14.000Z</time>
      </trkpt>
      <trkpt lat="47.17415" lon="-1.6151">
        <ele>65</ele>
        <time>2020-05-24T14:13:16.000Z</time>
      </trkpt>
      <trkpt lat="47.17405" lon="-1.61517">
        <ele>65</ele>
        <time>2020-05-24T14:13:18.000Z</time>
      </trkpt>
      <trkpt lat="47.17395" lon="-1.61526">
        <ele>65</ele>
        <time>2020-05-24T14:13:20.000Z</time>
      </trkpt>
      <trkpt lat="47.17385" lon="-1.61535">
        <ele>66</ele>
        <time>2020-05-24T14:13:22.000Z</time>
      </trkpt>
      <trkpt lat="47.17376" lon="-1.61545">
        <ele>67</ele>
        <time>2020-05-24T14:13:24.000Z</time>
      </trkpt>
      <trkpt lat="47.17367" lon="-1.61555">
        <ele>68</ele>
        <time>2020-05-24T14:13:26.000Z</time>
      </trkpt>
      <trkpt lat="47.17357" lon="-1.61565">
        <ele>68</ele>
        <time>2020-05-24T14:13:28.000Z</time>
      </trkpt>
      <trkpt lat="47.17349" lon="-1.61576">
        <ele>68</ele>
        <time>2020-05-24T14:13:30.000Z</time>
      </trkpt>
      <trkpt lat="47.17339" lon="-1.61586">
        <ele>68</ele>
        <time>2020-05-24T14:13:32.000Z</time>
      </trkpt>
      <trkpt lat="47.1733" lon="-1.61596">
        <ele>68</ele>
        <time>2020-05-24T14:13:34.000Z</time>
      </trkpt>
      <trkpt lat="47.17321" lon="-1.61609">
        <ele>69</ele>
        <time>2020-05-24T14:13:36.000Z</time>
      </trkpt>
      <trkpt lat="47.17313" lon="-1.61621">
        <ele>69</ele>
        <time>2020-05-24T14:13:38.000Z</time>
      </trkpt>
      <trkpt lat="47.17305" lon="-1.61633">
        <ele>69</ele>
        <time>2020-05-24T14:13:40.000Z</time>
      </trkpt>
      <trkpt lat="47.17297" lon="-1.61645">
        <ele>70</ele>
        <time>2020-05-24T14:13:42.000Z</time>
      </trkpt>
      <trkpt lat="47.1729" lon="-1.61659">
        <ele>70</ele>
        <time>2020-05-24T14:13:44.000Z</time>
      </trkpt>
      <trkpt lat="47.17283" lon="-1.61673">
        <ele>70</ele>
        <time>2020-05-24T14:13:46.000Z</time>
      </trkpt>
      <trkpt lat="47.17275" lon="-1.61688">
        <ele>70</ele>
        <time>2020-05-24T14:13:48.000Z</time>
      </trkpt>
      <trkpt lat="47.17268" lon="-1.61702">
        <ele>70</ele>
        <time>2020-05-24T14:13:50.000Z</time>
      </trkpt>
      <trkpt lat="47.1726" lon="-1.61717">
        <ele>70</ele>
        <time>2020-05-24T14:13:52.000Z</time>
      </trkpt>
      <trkpt lat="47.17253" lon="-1.61732">
        <ele>70</ele>
        <time>2020-05-24T14:13:54.000Z</time>
      </trkpt>
      <trkpt lat="47.17247" lon="-1.61748">
        <ele>69</ele>
        <time>2020-05-24T14:13:56.000Z</time>
      </trkpt>
      <trkpt lat="47.17243" lon="-1.61775">
        <ele>69</ele>
        <time>2020-05-24T14:13:59.000Z</time>
      </trkpt>
      <trkpt lat="47.17233" lon="-1.61787">
        <ele>69</ele>
        <time>2020-05-24T14:14:01.000Z</time>
      </trkpt>
      <trkpt lat="47.17222" lon="-1.61796">
        <ele>68</ele>
        <time>2020-05-24T14:14:03.000Z</time>
      </trkpt>
      <trkpt lat="47.17212" lon="-1.61805">
        <ele>69</ele>
        <time>2020-05-24T14:14:05.000Z</time>
      </trkpt>
      <trkpt lat="47.17201" lon="-1.61814">
        <ele>68</ele>
        <time>2020-05-24T14:14:07.000Z</time>
      </trkpt>
      <trkpt lat="47.17191" lon="-1.61823">
        <ele>68</ele>
        <time>2020-05-24T14:14:09.000Z</time>
      </trkpt>
      <trkpt lat="47.17181" lon="-1.61833">
        <ele>68</ele>
        <time>2020-05-24T14:14:11.000Z</time>
      </trkpt>
      <trkpt lat="47.1717" lon="-1.61843">
        <ele>67</ele>
        <time>2020-05-24T14:14:13.000Z</time>
      </trkpt>
      <trkpt lat="47.1716" lon="-1.61853">
        <ele>67</ele>
        <time>2020-05-24T14:14:15.000Z</time>
      </trkpt>
      <trkpt lat="47.1715" lon="-1.61863">
        <ele>67</ele>
        <time>2020-05-24T14:14:17.000Z</time>
      </trkpt>
      <trkpt lat="47.1714" lon="-1.61873">
        <ele>67</ele>
        <time>2020-05-24T14:14:19.000Z</time>
      </trkpt>
      <trkpt lat="47.1713" lon="-1.61883">
        <ele>67</ele>
        <time>2020-05-24T14:14:21.000Z</time>
      </trkpt>
      <trkpt lat="47.1712" lon="-1.61893">
        <ele>67</ele>
        <time>2020-05-24T14:14:23.000Z</time>
      </trkpt>
      <trkpt lat="47.1711" lon="-1.61903">
        <ele>67</ele>
        <time>2020-05-24T14:14:25.000Z</time>
      </trkpt>
      <trkpt lat="47.17098" lon="-1.61913">
        <ele>67</ele>
        <time>2020-05-24T14:14:27.000Z</time>
      </trkpt>
      <trkpt lat="47.17088" lon="-1.61923">
        <ele>67</ele>
        <time>2020-05-24T14:14:29.000Z</time>
      </trkpt>
      <trkpt lat="47.17078" lon="-1.61934">
        <ele>67</ele>
        <time>2020-05-24T14:14:31.000Z</time>
      </trkpt>
      <trkpt lat="47.17068" lon="-1.61944">
        <ele>67</ele>
        <time>2020-05-24T14:14:33.000Z</time>
      </trkpt>
      <trkpt lat="47.17058" lon="-1.61956">
        <ele>67</ele>
        <time>2020-05-24T14:14:35.000Z</time>
      </trkpt>
      <trkpt lat="47.17049" lon="-1.61968">
        <ele>67</ele>
        <time>2020-05-24T14:14:37.000Z</time>
      </trkpt>
      <trkpt lat="47.17041" lon="-1.61982">
        <ele>67</ele>
        <time>2020-05-24T14:14:39.000Z</time>
      </trkpt>
      <trkpt lat="47.17032" lon="-1.61995">
        <ele>67</ele>
        <time>2020-05-24T14:14:41.000Z</time>
      </trkpt>
      <trkpt lat="47.17022" lon="-1.62008">
        <ele>67</ele>
        <time>2020-05-24T14:14:43.000Z</time>
      </trkpt>
      <trkpt lat="47.17009" lon="-1.62029">
        <ele>67</ele>
        <time>2020-05-24T14:14:46.000Z</time>
      </trkpt>
      <trkpt lat="47.17" lon="-1.62044">
        <ele>67</ele>
        <time>2020-05-24T14:14:48.000Z</time>
      </trkpt>
      <trkpt lat="47.16991" lon="-1.62059">
        <ele>67</ele>
        <time>2020-05-24T14:14:50.000Z</time>
      </trkpt>
      <trkpt lat="47.16983" lon="-1.62074">
        <ele>67</ele>
        <time>2020-05-24T14:14:52.000Z</time>
      </trkpt>
      <trkpt lat="47.16974" lon="-1.62088">
        <ele>68</ele>
        <time>2020-05-24T14:14:54.000Z</time>
      </trkpt>
      <trkpt lat="47.16966" lon="-1.62103">
        <ele>67</ele>
        <time>2020-05-24T14:14:56.000Z</time>
      </trkpt>
      <trkpt lat="47.16959" lon="-1.62118">
        <ele>67</ele>
        <time>2020-05-24T14:14:58.000Z</time>
      </trkpt>
      <trkpt lat="47.16951" lon="-1.62133">
        <ele>67</ele>
        <time>2020-05-24T14:15:00.000Z</time>
      </trkpt>
      <trkpt lat="47.16943" lon="-1.62148">
        <ele>67</ele>
        <time>2020-05-24T14:15:02.000Z</time>
      </trkpt>
      <trkpt lat="47.16936" lon="-1.62164">
        <ele>67</ele>
        <time>2020-05-24T14:15:04.000Z</time>
      </trkpt>
      <trkpt lat="47.16929" lon="-1.6218">
        <ele>67</ele>
        <time>2020-05-24T14:15:06.000Z</time>
      </trkpt>
      <trkpt lat="47.16922" lon="-1.62194">
        <ele>67</ele>
        <time>2020-05-24T14:15:08.000Z</time>
      </trkpt>
      <trkpt lat="47.16913" lon="-1.62208">
        <ele>67</ele>
        <time>2020-05-24T14:15:10.000Z</time>
      </trkpt>
      <trkpt lat="47.16904" lon="-1.62222">
        <ele>68</ele>
        <time>2020-05-24T14:15:12.000Z</time>
      </trkpt>
      <trkpt lat="47.16893" lon="-1.62234">
        <ele>68</ele>
        <time>2020-05-24T14:15:14.000Z</time>
      </trkpt>
      <trkpt lat="47.16883" lon="-1.62248">
        <ele>69</ele>
        <time>2020-05-24T14:15:16.000Z</time>
      </trkpt>
      <trkpt lat="47.16873" lon="-1.6226">
        <ele>69</ele>
        <time>2020-05-24T14:15:18.000Z</time>
      </trkpt>
      <trkpt lat="47.16863" lon="-1.62271">
        <ele>70</ele>
        <time>2020-05-24T14:15:20.000Z</time>
      </trkpt>
      <trkpt lat="47.16854" lon="-1.62283">
        <ele>70</ele>
        <time>2020-05-24T14:15:22.000Z</time>
      </trkpt>
      <trkpt lat="47.16844" lon="-1.62295">
        <ele>69</ele>
        <time>2020-05-24T14:15:24.000Z</time>
      </trkpt>
      <trkpt lat="47.16835" lon="-1.62306">
        <ele>69</ele>
        <time>2020-05-24T14:15:26.000Z</time>
      </trkpt>
      <trkpt lat="47.16824" lon="-1.62316">
        <ele>70</ele>
        <time>2020-05-24T14:15:28.000Z</time>
      </trkpt>
      <trkpt lat="47.16814" lon="-1.62323">
        <ele>70</ele>
        <time>2020-05-24T14:15:30.000Z</time>
      </trkpt>
      <trkpt lat="47.16803" lon="-1.6233">
        <ele>70</ele>
        <time>2020-05-24T14:15:32.000Z</time>
      </trkpt>
      <trkpt lat="47.16791" lon="-1.62335">
        <ele>69</ele>
        <time>2020-05-24T14:15:34.000Z</time>
      </trkpt>
      <trkpt lat="47.1678" lon="-1.62342">
        <ele>69</ele>
        <time>2020-05-24T14:15:36.000Z</time>
      </trkpt>
      <trkpt lat="47.16769" lon="-1.62349">
        <ele>68</ele>
        <time>2020-05-24T14:15:38.000Z</time>
      </trkpt>
      <trkpt lat="47.16758" lon="-1.62357">
        <ele>67</ele>
        <time>2020-05-24T14:15:40.000Z</time>
      </trkpt>
      <trkpt lat="47.16748" lon="-1.62368">
        <ele>66</ele>
        <time>2020-05-24T14:15:42.000Z</time>
      </trkpt>
      <trkpt lat="47.1674" lon="-1.62383">
        <ele>66</ele>
        <time>2020-05-24T14:15:44.000Z</time>
      </trkpt>
      <trkpt lat="47.16734" lon="-1.624">
        <ele>66</ele>
        <time>2020-05-24T14:15:46.000Z</time>
      </trkpt>
      <trkpt lat="47.16731" lon="-1.62418">
        <ele>66</ele>
        <time>2020-05-24T14:15:48.000Z</time>
      </trkpt>
      <trkpt lat="47.16728" lon="-1.62438">
        <ele>66</ele>
        <time>2020-05-24T14:15:50.000Z</time>
      </trkpt>
      <trkpt lat="47.16722" lon="-1.62458">
        <ele>65</ele>
        <time>2020-05-24T14:15:52.000Z</time>
      </trkpt>
      <trkpt lat="47.16718" lon="-1.62478">
        <ele>65</ele>
        <time>2020-05-24T14:15:54.000Z</time>
      </trkpt>
      <trkpt lat="47.16721" lon="-1.62495">
        <ele>65</ele>
        <time>2020-05-24T14:15:56.000Z</time>
      </trkpt>
      <trkpt lat="47.16731" lon="-1.62501">
        <ele>64</ele>
        <time>2020-05-24T14:15:58.000Z</time>
      </trkpt>
      <trkpt lat="47.16743" lon="-1.62505">
        <ele>64</ele>
        <time>2020-05-24T14:16:00.000Z</time>
      </trkpt>
      <trkpt lat="47.16754" lon="-1.6251">
        <ele>64</ele>
        <time>2020-05-24T14:16:02.000Z</time>
      </trkpt>
      <trkpt lat="47.16764" lon="-1.62517">
        <ele>64</ele>
        <time>2020-05-24T14:16:04.000Z</time>
      </trkpt>
      <trkpt lat="47.16775" lon="-1.62524">
        <ele>64</ele>
        <time>2020-05-24T14:16:06.000Z</time>
      </trkpt>
      <trkpt lat="47.16785" lon="-1.62531">
        <ele>64</ele>
        <time>2020-05-24T14:16:08.000Z</time>
      </trkpt>
      <trkpt lat="47.16795" lon="-1.62538">
        <ele>64</ele>
        <time>2020-05-24T14:16:10.000Z</time>
      </trkpt>
      <trkpt lat="47.16805" lon="-1.62544">
        <ele>64</ele>
        <time>2020-05-24T14:16:12.000Z</time>
      </trkpt>
      <trkpt lat="47.16814" lon="-1.62552">
        <ele>64</ele>
        <time>2020-05-24T14:16:14.000Z</time>
      </trkpt>
      <trkpt lat="47.16822" lon="-1.62561">
        <ele>64</ele>
        <time>2020-05-24T14:16:16.000Z</time>
      </trkpt>
      <trkpt lat="47.1683" lon="-1.62571">
        <ele>63</ele>
        <time>2020-05-24T14:16:18.000Z</time>
      </trkpt>
      <trkpt lat="47.16832" lon="-1.62586">
        <ele>63</ele>
        <time>2020-05-24T14:16:20.000Z</time>
      </trkpt>
      <trkpt lat="47.16825" lon="-1.62599">
        <ele>65</ele>
        <time>2020-05-24T14:16:23.000Z</time>
      </trkpt>
      <trkpt lat="47.16817" lon="-1.62607">
        <ele>67</ele>
        <time>2020-05-24T14:16:27.000Z</time>
      </trkpt>
    </trkseg>
  </trk>
</gpx>